<?xml version="1.0" encoding="UTF-8" standalone="no" ?>
<gpx xmlns="http://www.topografix.com/GPX/1/1" xmlns:xsi="http://www.w3.org/2001/XMLSchema-instance" xsi:schemaLocation="http://www.topografix.com/GPX/1/1 http://www.topografix.com/GPX/1/1/gpx.xsd" version="1.1" creator="VisuGPX - https://www.visugpx.com">
  <metadata>
    <name>TRACE DES CRETES DU ROZIER du 17/12/2017</name>
    <desc><![CDATA[Randonnée du dimanche à la journée effectuée par 7 membres du SCLapalud]]></desc>
  </metadata>
  <trk>
    <name><![CDATA[17-DEC-17 16:08:50]]></name>
    <trkseg>
      <trkpt lat="44.47638" lon="5.02905">
        <ele>242.39</ele>
        <time>2017-12-17T07:58:50Z</time>
      </trkpt>
      <trkpt lat="44.47638" lon="5.02905">
        <ele>242.39</ele>
        <time>2017-12-17T07:58:51Z</time>
      </trkpt>
      <trkpt lat="44.47638" lon="5.0292">
        <ele>241.43</ele>
        <time>2017-12-17T07:59:19Z</time>
      </trkpt>
      <trkpt lat="44.47668" lon="5.02893">
        <ele>241.91</ele>
        <time>2017-12-17T07:59:33Z</time>
      </trkpt>
      <trkpt lat="44.47662" lon="5.02884">
        <ele>241.91</ele>
        <time>2017-12-17T07:59:50Z</time>
      </trkpt>
      <trkpt lat="44.47665" lon="5.02886">
        <ele>246.23</ele>
        <time>2017-12-17T08:00:05Z</time>
      </trkpt>
      <trkpt lat="44.47665" lon="5.02886">
        <ele>249.6</ele>
        <time>2017-12-17T08:00:06Z</time>
      </trkpt>
      <trkpt lat="44.47665" lon="5.02887">
        <ele>252.96</ele>
        <time>2017-12-17T08:00:07Z</time>
      </trkpt>
      <trkpt lat="44.47665" lon="5.02887">
        <ele>255.85</ele>
        <time>2017-12-17T08:00:08Z</time>
      </trkpt>
      <trkpt lat="44.47665" lon="5.02888">
        <ele>261.62</ele>
        <time>2017-12-17T08:00:10Z</time>
      </trkpt>
      <trkpt lat="44.47664" lon="5.02888">
        <ele>264.98</ele>
        <time>2017-12-17T08:00:11Z</time>
      </trkpt>
      <trkpt lat="44.47664" lon="5.02888">
        <ele>270.27</ele>
        <time>2017-12-17T08:00:13Z</time>
      </trkpt>
      <trkpt lat="44.47664" lon="5.02888">
        <ele>275.07</ele>
        <time>2017-12-17T08:00:15Z</time>
      </trkpt>
      <trkpt lat="44.47664" lon="5.02889">
        <ele>280.36</ele>
        <time>2017-12-17T08:00:17Z</time>
      </trkpt>
      <trkpt lat="44.47664" lon="5.02889">
        <ele>285.65</ele>
        <time>2017-12-17T08:00:19Z</time>
      </trkpt>
      <trkpt lat="44.4771" lon="5.02848">
        <ele>289.97</ele>
        <time>2017-12-17T08:00:21Z</time>
      </trkpt>
      <trkpt lat="44.4771" lon="5.02847">
        <ele>292.38</ele>
        <time>2017-12-17T08:00:23Z</time>
      </trkpt>
      <trkpt lat="44.47662" lon="5.02888">
        <ele>291.42</ele>
        <time>2017-12-17T08:00:42Z</time>
      </trkpt>
      <trkpt lat="44.47674" lon="5.02878">
        <ele>291.9</ele>
        <time>2017-12-17T08:00:58Z</time>
      </trkpt>
      <trkpt lat="44.47668" lon="5.02884">
        <ele>295.26</ele>
        <time>2017-12-17T08:01:12Z</time>
      </trkpt>
      <trkpt lat="44.47667" lon="5.02885">
        <ele>299.11</ele>
        <time>2017-12-17T08:01:14Z</time>
      </trkpt>
      <trkpt lat="44.47666" lon="5.02886">
        <ele>302.47</ele>
        <time>2017-12-17T08:01:16Z</time>
      </trkpt>
      <trkpt lat="44.47666" lon="5.02887">
        <ele>305.84</ele>
        <time>2017-12-17T08:01:18Z</time>
      </trkpt>
      <trkpt lat="44.47665" lon="5.02888">
        <ele>309.68</ele>
        <time>2017-12-17T08:01:20Z</time>
      </trkpt>
      <trkpt lat="44.47665" lon="5.02888">
        <ele>314.01</ele>
        <time>2017-12-17T08:01:23Z</time>
      </trkpt>
      <trkpt lat="44.47665" lon="5.02889">
        <ele>316.89</ele>
        <time>2017-12-17T08:01:25Z</time>
      </trkpt>
      <trkpt lat="44.47665" lon="5.02889">
        <ele>320.74</ele>
        <time>2017-12-17T08:01:28Z</time>
      </trkpt>
      <trkpt lat="44.47659" lon="5.02896">
        <ele>324.1</ele>
        <time>2017-12-17T08:01:31Z</time>
      </trkpt>
      <trkpt lat="44.47657" lon="5.02898">
        <ele>327.47</ele>
        <time>2017-12-17T08:01:34Z</time>
      </trkpt>
      <trkpt lat="44.47658" lon="5.02898">
        <ele>331.31</ele>
        <time>2017-12-17T08:01:37Z</time>
      </trkpt>
      <trkpt lat="44.47657" lon="5.02899">
        <ele>334.68</ele>
        <time>2017-12-17T08:01:40Z</time>
      </trkpt>
      <trkpt lat="44.47656" lon="5.02899">
        <ele>338.52</ele>
        <time>2017-12-17T08:01:44Z</time>
      </trkpt>
      <trkpt lat="44.47655" lon="5.029">
        <ele>341.89</ele>
        <time>2017-12-17T08:01:49Z</time>
      </trkpt>
      <trkpt lat="44.47656" lon="5.02901">
        <ele>345.25</ele>
        <time>2017-12-17T08:01:54Z</time>
      </trkpt>
      <trkpt lat="44.47655" lon="5.029">
        <ele>348.62</ele>
        <time>2017-12-17T08:02:01Z</time>
      </trkpt>
      <trkpt lat="44.47655" lon="5.02898">
        <ele>350.06</ele>
        <time>2017-12-17T08:02:05Z</time>
      </trkpt>
      <trkpt lat="44.47656" lon="5.02898">
        <ele>353.42</ele>
        <time>2017-12-17T08:02:11Z</time>
      </trkpt>
      <trkpt lat="44.47657" lon="5.02898">
        <ele>352.94</ele>
        <time>2017-12-17T08:02:12Z</time>
      </trkpt>
      <trkpt lat="44.47657" lon="5.02896">
        <ele>355.34</ele>
        <time>2017-12-17T08:02:23Z</time>
      </trkpt>
      <trkpt lat="44.47656" lon="5.02895">
        <ele>358.71</ele>
        <time>2017-12-17T08:02:36Z</time>
      </trkpt>
      <trkpt lat="44.47656" lon="5.02896">
        <ele>359.19</ele>
        <time>2017-12-17T08:02:52Z</time>
      </trkpt>
      <trkpt lat="44.47656" lon="5.02897">
        <ele>359.67</ele>
        <time>2017-12-17T08:03:01Z</time>
      </trkpt>
      <trkpt lat="44.47655" lon="5.02896">
        <ele>359.67</ele>
        <time>2017-12-17T08:03:05Z</time>
      </trkpt>
      <trkpt lat="44.47644" lon="5.02891">
        <ele>358.23</ele>
        <time>2017-12-17T08:03:19Z</time>
      </trkpt>
      <trkpt lat="44.47643" lon="5.0289">
        <ele>357.75</ele>
        <time>2017-12-17T08:03:20Z</time>
      </trkpt>
      <trkpt lat="44.47642" lon="5.02886">
        <ele>357.75</ele>
        <time>2017-12-17T08:03:23Z</time>
      </trkpt>
      <trkpt lat="44.4764" lon="5.0288">
        <ele>356.79</ele>
        <time>2017-12-17T08:03:26Z</time>
      </trkpt>
      <trkpt lat="44.4764" lon="5.02875">
        <ele>356.31</ele>
        <time>2017-12-17T08:03:31Z</time>
      </trkpt>
      <trkpt lat="44.47647" lon="5.02868">
        <ele>356.31</ele>
        <time>2017-12-17T08:03:38Z</time>
      </trkpt>
      <trkpt lat="44.47651" lon="5.02862">
        <ele>355.83</ele>
        <time>2017-12-17T08:03:43Z</time>
      </trkpt>
      <trkpt lat="44.47654" lon="5.0286">
        <ele>355.34</ele>
        <time>2017-12-17T08:03:48Z</time>
      </trkpt>
      <trkpt lat="44.47655" lon="5.02857">
        <ele>355.34</ele>
        <time>2017-12-17T08:03:52Z</time>
      </trkpt>
      <trkpt lat="44.47664" lon="5.02856">
        <ele>354.86</ele>
        <time>2017-12-17T08:03:57Z</time>
      </trkpt>
      <trkpt lat="44.47668" lon="5.02858">
        <ele>354.38</ele>
        <time>2017-12-17T08:04:03Z</time>
      </trkpt>
      <trkpt lat="44.47677" lon="5.02861">
        <ele>354.86</ele>
        <time>2017-12-17T08:04:13Z</time>
      </trkpt>
      <trkpt lat="44.47686" lon="5.02861">
        <ele>354.86</ele>
        <time>2017-12-17T08:04:17Z</time>
      </trkpt>
      <trkpt lat="44.47691" lon="5.0286">
        <ele>354.38</ele>
        <time>2017-12-17T08:04:24Z</time>
      </trkpt>
      <trkpt lat="44.47708" lon="5.02869">
        <ele>353.9</ele>
        <time>2017-12-17T08:04:34Z</time>
      </trkpt>
      <trkpt lat="44.47726" lon="5.02874">
        <ele>354.86</ele>
        <time>2017-12-17T08:04:45Z</time>
      </trkpt>
      <trkpt lat="44.47736" lon="5.02875">
        <ele>354.86</ele>
        <time>2017-12-17T08:04:54Z</time>
      </trkpt>
      <trkpt lat="44.47745" lon="5.02877">
        <ele>355.34</ele>
        <time>2017-12-17T08:05:06Z</time>
      </trkpt>
      <trkpt lat="44.47762" lon="5.0288">
        <ele>354.86</ele>
        <time>2017-12-17T08:05:16Z</time>
      </trkpt>
      <trkpt lat="44.47765" lon="5.02882">
        <ele>354.86</ele>
        <time>2017-12-17T08:05:18Z</time>
      </trkpt>
      <trkpt lat="44.47783" lon="5.02889">
        <ele>354.86</ele>
        <time>2017-12-17T08:05:27Z</time>
      </trkpt>
      <trkpt lat="44.47788" lon="5.02888">
        <ele>355.34</ele>
        <time>2017-12-17T08:05:36Z</time>
      </trkpt>
      <trkpt lat="44.47793" lon="5.02887">
        <ele>355.34</ele>
        <time>2017-12-17T08:05:39Z</time>
      </trkpt>
      <trkpt lat="44.47796" lon="5.02889">
        <ele>355.34</ele>
        <time>2017-12-17T08:05:44Z</time>
      </trkpt>
      <trkpt lat="44.47814" lon="5.02893">
        <ele>355.83</ele>
        <time>2017-12-17T08:05:59Z</time>
      </trkpt>
      <trkpt lat="44.47819" lon="5.02896">
        <ele>355.34</ele>
        <time>2017-12-17T08:06:04Z</time>
      </trkpt>
      <trkpt lat="44.47833" lon="5.02904">
        <ele>355.34</ele>
        <time>2017-12-17T08:06:17Z</time>
      </trkpt>
      <trkpt lat="44.47847" lon="5.02902">
        <ele>355.83</ele>
        <time>2017-12-17T08:06:29Z</time>
      </trkpt>
      <trkpt lat="44.47859" lon="5.029">
        <ele>354.86</ele>
        <time>2017-12-17T08:06:38Z</time>
      </trkpt>
      <trkpt lat="44.47862" lon="5.02899">
        <ele>354.86</ele>
        <time>2017-12-17T08:06:40Z</time>
      </trkpt>
      <trkpt lat="44.47865" lon="5.02899">
        <ele>354.86</ele>
        <time>2017-12-17T08:06:43Z</time>
      </trkpt>
      <trkpt lat="44.47869" lon="5.02899">
        <ele>354.86</ele>
        <time>2017-12-17T08:06:46Z</time>
      </trkpt>
      <trkpt lat="44.47879" lon="5.029">
        <ele>353.42</ele>
        <time>2017-12-17T08:06:52Z</time>
      </trkpt>
      <trkpt lat="44.47885" lon="5.02896">
        <ele>352.94</ele>
        <time>2017-12-17T08:07:02Z</time>
      </trkpt>
      <trkpt lat="44.47891" lon="5.02894">
        <ele>352.46</ele>
        <time>2017-12-17T08:07:16Z</time>
      </trkpt>
      <trkpt lat="44.47892" lon="5.02894">
        <ele>352.94</ele>
        <time>2017-12-17T08:07:18Z</time>
      </trkpt>
      <trkpt lat="44.47908" lon="5.02892">
        <ele>351.5</ele>
        <time>2017-12-17T08:07:31Z</time>
      </trkpt>
      <trkpt lat="44.47918" lon="5.0289">
        <ele>351.02</ele>
        <time>2017-12-17T08:07:39Z</time>
      </trkpt>
      <trkpt lat="44.47925" lon="5.0289">
        <ele>350.54</ele>
        <time>2017-12-17T08:07:44Z</time>
      </trkpt>
      <trkpt lat="44.4793" lon="5.02888">
        <ele>350.54</ele>
        <time>2017-12-17T08:07:49Z</time>
      </trkpt>
      <trkpt lat="44.47949" lon="5.02885">
        <ele>348.62</ele>
        <time>2017-12-17T08:08:07Z</time>
      </trkpt>
      <trkpt lat="44.47957" lon="5.02882">
        <ele>346.69</ele>
        <time>2017-12-17T08:08:20Z</time>
      </trkpt>
      <trkpt lat="44.47959" lon="5.0288">
        <ele>346.69</ele>
        <time>2017-12-17T08:08:21Z</time>
      </trkpt>
      <trkpt lat="44.47978" lon="5.02866">
        <ele>345.73</ele>
        <time>2017-12-17T08:08:35Z</time>
      </trkpt>
      <trkpt lat="44.47984" lon="5.02858">
        <ele>345.73</ele>
        <time>2017-12-17T08:08:42Z</time>
      </trkpt>
      <trkpt lat="44.47984" lon="5.02854">
        <ele>346.21</ele>
        <time>2017-12-17T08:08:44Z</time>
      </trkpt>
      <trkpt lat="44.47997" lon="5.02836">
        <ele>346.21</ele>
        <time>2017-12-17T08:08:57Z</time>
      </trkpt>
      <trkpt lat="44.48002" lon="5.02832">
        <ele>346.21</ele>
        <time>2017-12-17T08:09:12Z</time>
      </trkpt>
      <trkpt lat="44.48007" lon="5.02821">
        <ele>345.25</ele>
        <time>2017-12-17T08:09:23Z</time>
      </trkpt>
      <trkpt lat="44.48008" lon="5.02817">
        <ele>345.25</ele>
        <time>2017-12-17T08:09:25Z</time>
      </trkpt>
      <trkpt lat="44.48011" lon="5.02811">
        <ele>344.77</ele>
        <time>2017-12-17T08:09:31Z</time>
      </trkpt>
      <trkpt lat="44.48013" lon="5.02804">
        <ele>344.77</ele>
        <time>2017-12-17T08:09:37Z</time>
      </trkpt>
      <trkpt lat="44.48016" lon="5.02797">
        <ele>344.77</ele>
        <time>2017-12-17T08:09:42Z</time>
      </trkpt>
      <trkpt lat="44.4802" lon="5.02783">
        <ele>344.77</ele>
        <time>2017-12-17T08:09:53Z</time>
      </trkpt>
      <trkpt lat="44.48023" lon="5.02777">
        <ele>344.29</ele>
        <time>2017-12-17T08:09:57Z</time>
      </trkpt>
      <trkpt lat="44.48029" lon="5.02762">
        <ele>343.33</ele>
        <time>2017-12-17T08:10:07Z</time>
      </trkpt>
      <trkpt lat="44.48033" lon="5.02752">
        <ele>343.33</ele>
        <time>2017-12-17T08:10:16Z</time>
      </trkpt>
      <trkpt lat="44.48036" lon="5.02746">
        <ele>343.81</ele>
        <time>2017-12-17T08:10:22Z</time>
      </trkpt>
      <trkpt lat="44.48037" lon="5.02741">
        <ele>344.29</ele>
        <time>2017-12-17T08:10:25Z</time>
      </trkpt>
      <trkpt lat="44.4804" lon="5.02735">
        <ele>344.29</ele>
        <time>2017-12-17T08:10:30Z</time>
      </trkpt>
      <trkpt lat="44.48048" lon="5.02725">
        <ele>344.77</ele>
        <time>2017-12-17T08:10:40Z</time>
      </trkpt>
      <trkpt lat="44.48049" lon="5.02723">
        <ele>344.29</ele>
        <time>2017-12-17T08:10:42Z</time>
      </trkpt>
      <trkpt lat="44.48054" lon="5.02718">
        <ele>344.77</ele>
        <time>2017-12-17T08:10:47Z</time>
      </trkpt>
      <trkpt lat="44.48066" lon="5.02704">
        <ele>345.73</ele>
        <time>2017-12-17T08:11:00Z</time>
      </trkpt>
      <trkpt lat="44.48077" lon="5.02694">
        <ele>345.25</ele>
        <time>2017-12-17T08:11:12Z</time>
      </trkpt>
      <trkpt lat="44.4808" lon="5.02686">
        <ele>344.77</ele>
        <time>2017-12-17T08:11:18Z</time>
      </trkpt>
      <trkpt lat="44.48089" lon="5.02673">
        <ele>345.25</ele>
        <time>2017-12-17T08:11:28Z</time>
      </trkpt>
      <trkpt lat="44.48093" lon="5.02668">
        <ele>344.77</ele>
        <time>2017-12-17T08:11:32Z</time>
      </trkpt>
      <trkpt lat="44.48097" lon="5.02663">
        <ele>344.77</ele>
        <time>2017-12-17T08:11:37Z</time>
      </trkpt>
      <trkpt lat="44.48099" lon="5.0266">
        <ele>344.77</ele>
        <time>2017-12-17T08:11:39Z</time>
      </trkpt>
      <trkpt lat="44.48106" lon="5.02651">
        <ele>345.73</ele>
        <time>2017-12-17T08:11:46Z</time>
      </trkpt>
      <trkpt lat="44.48108" lon="5.02645">
        <ele>345.73</ele>
        <time>2017-12-17T08:11:49Z</time>
      </trkpt>
      <trkpt lat="44.48112" lon="5.02643">
        <ele>346.21</ele>
        <time>2017-12-17T08:11:51Z</time>
      </trkpt>
      <trkpt lat="44.48118" lon="5.02637">
        <ele>346.69</ele>
        <time>2017-12-17T08:11:55Z</time>
      </trkpt>
      <trkpt lat="44.48129" lon="5.02624">
        <ele>347.17</ele>
        <time>2017-12-17T08:12:07Z</time>
      </trkpt>
      <trkpt lat="44.48131" lon="5.02619">
        <ele>347.65</ele>
        <time>2017-12-17T08:12:10Z</time>
      </trkpt>
      <trkpt lat="44.48135" lon="5.02612">
        <ele>347.65</ele>
        <time>2017-12-17T08:12:15Z</time>
      </trkpt>
      <trkpt lat="44.48149" lon="5.02595">
        <ele>349.1</ele>
        <time>2017-12-17T08:12:29Z</time>
      </trkpt>
      <trkpt lat="44.48157" lon="5.0258">
        <ele>349.58</ele>
        <time>2017-12-17T08:12:41Z</time>
      </trkpt>
      <trkpt lat="44.48162" lon="5.02574">
        <ele>349.58</ele>
        <time>2017-12-17T08:12:47Z</time>
      </trkpt>
      <trkpt lat="44.48164" lon="5.02568">
        <ele>349.58</ele>
        <time>2017-12-17T08:12:51Z</time>
      </trkpt>
      <trkpt lat="44.48172" lon="5.02559">
        <ele>350.06</ele>
        <time>2017-12-17T08:12:57Z</time>
      </trkpt>
      <trkpt lat="44.48176" lon="5.02552">
        <ele>350.06</ele>
        <time>2017-12-17T08:13:03Z</time>
      </trkpt>
      <trkpt lat="44.48184" lon="5.02536">
        <ele>350.06</ele>
        <time>2017-12-17T08:13:13Z</time>
      </trkpt>
      <trkpt lat="44.48186" lon="5.02535">
        <ele>350.06</ele>
        <time>2017-12-17T08:13:14Z</time>
      </trkpt>
      <trkpt lat="44.48198" lon="5.02517">
        <ele>350.54</ele>
        <time>2017-12-17T08:13:27Z</time>
      </trkpt>
      <trkpt lat="44.48202" lon="5.02511">
        <ele>351.02</ele>
        <time>2017-12-17T08:13:31Z</time>
      </trkpt>
      <trkpt lat="44.48204" lon="5.02506">
        <ele>351.02</ele>
        <time>2017-12-17T08:13:34Z</time>
      </trkpt>
      <trkpt lat="44.48207" lon="5.02501">
        <ele>351.02</ele>
        <time>2017-12-17T08:13:38Z</time>
      </trkpt>
      <trkpt lat="44.48217" lon="5.02483">
        <ele>352.46</ele>
        <time>2017-12-17T08:13:52Z</time>
      </trkpt>
      <trkpt lat="44.48224" lon="5.02477">
        <ele>352.94</ele>
        <time>2017-12-17T08:14:00Z</time>
      </trkpt>
      <trkpt lat="44.4824" lon="5.02477">
        <ele>352.94</ele>
        <time>2017-12-17T08:14:14Z</time>
      </trkpt>
      <trkpt lat="44.48249" lon="5.02484">
        <ele>352.94</ele>
        <time>2017-12-17T08:14:23Z</time>
      </trkpt>
      <trkpt lat="44.48252" lon="5.02485">
        <ele>353.42</ele>
        <time>2017-12-17T08:14:26Z</time>
      </trkpt>
      <trkpt lat="44.4827" lon="5.02493">
        <ele>353.42</ele>
        <time>2017-12-17T08:14:42Z</time>
      </trkpt>
      <trkpt lat="44.48271" lon="5.02493">
        <ele>353.42</ele>
        <time>2017-12-17T08:14:43Z</time>
      </trkpt>
      <trkpt lat="44.48282" lon="5.02499">
        <ele>353.9</ele>
        <time>2017-12-17T08:14:53Z</time>
      </trkpt>
      <trkpt lat="44.48297" lon="5.02509">
        <ele>354.38</ele>
        <time>2017-12-17T08:15:07Z</time>
      </trkpt>
      <trkpt lat="44.48313" lon="5.02514">
        <ele>353.9</ele>
        <time>2017-12-17T08:15:21Z</time>
      </trkpt>
      <trkpt lat="44.48326" lon="5.02519">
        <ele>355.83</ele>
        <time>2017-12-17T08:15:33Z</time>
      </trkpt>
      <trkpt lat="44.48333" lon="5.02523">
        <ele>355.83</ele>
        <time>2017-12-17T08:15:38Z</time>
      </trkpt>
      <trkpt lat="44.48343" lon="5.02527">
        <ele>356.31</ele>
        <time>2017-12-17T08:15:47Z</time>
      </trkpt>
      <trkpt lat="44.48346" lon="5.02531">
        <ele>356.31</ele>
        <time>2017-12-17T08:15:51Z</time>
      </trkpt>
      <trkpt lat="44.48362" lon="5.02538">
        <ele>357.27</ele>
        <time>2017-12-17T08:16:04Z</time>
      </trkpt>
      <trkpt lat="44.48379" lon="5.02541">
        <ele>358.23</ele>
        <time>2017-12-17T08:16:19Z</time>
      </trkpt>
      <trkpt lat="44.48394" lon="5.02544">
        <ele>358.71</ele>
        <time>2017-12-17T08:16:32Z</time>
      </trkpt>
      <trkpt lat="44.48408" lon="5.02545">
        <ele>358.71</ele>
        <time>2017-12-17T08:16:44Z</time>
      </trkpt>
      <trkpt lat="44.48422" lon="5.02547">
        <ele>359.19</ele>
        <time>2017-12-17T08:16:56Z</time>
      </trkpt>
      <trkpt lat="44.48438" lon="5.02549">
        <ele>359.19</ele>
        <time>2017-12-17T08:17:10Z</time>
      </trkpt>
      <trkpt lat="44.48452" lon="5.0255">
        <ele>358.71</ele>
        <time>2017-12-17T08:17:22Z</time>
      </trkpt>
      <trkpt lat="44.48466" lon="5.02552">
        <ele>359.19</ele>
        <time>2017-12-17T08:17:34Z</time>
      </trkpt>
      <trkpt lat="44.48481" lon="5.02553">
        <ele>359.67</ele>
        <time>2017-12-17T08:17:46Z</time>
      </trkpt>
      <trkpt lat="44.48481" lon="5.02553">
        <ele>360.15</ele>
        <time>2017-12-17T08:17:52Z</time>
      </trkpt>
      <trkpt lat="44.48485" lon="5.0256">
        <ele>359.19</ele>
        <time>2017-12-17T08:17:58Z</time>
      </trkpt>
      <trkpt lat="44.48501" lon="5.02567">
        <ele>358.71</ele>
        <time>2017-12-17T08:18:12Z</time>
      </trkpt>
      <trkpt lat="44.48502" lon="5.02567">
        <ele>359.19</ele>
        <time>2017-12-17T08:18:13Z</time>
      </trkpt>
      <trkpt lat="44.48506" lon="5.02568">
        <ele>358.71</ele>
        <time>2017-12-17T08:18:16Z</time>
      </trkpt>
      <trkpt lat="44.4851" lon="5.02571">
        <ele>358.71</ele>
        <time>2017-12-17T08:18:20Z</time>
      </trkpt>
      <trkpt lat="44.48524" lon="5.02579">
        <ele>358.23</ele>
        <time>2017-12-17T08:18:32Z</time>
      </trkpt>
      <trkpt lat="44.48534" lon="5.02585">
        <ele>357.27</ele>
        <time>2017-12-17T08:18:41Z</time>
      </trkpt>
      <trkpt lat="44.48544" lon="5.02594">
        <ele>356.31</ele>
        <time>2017-12-17T08:18:50Z</time>
      </trkpt>
      <trkpt lat="44.48558" lon="5.02606">
        <ele>357.75</ele>
        <time>2017-12-17T08:19:03Z</time>
      </trkpt>
      <trkpt lat="44.48568" lon="5.02617">
        <ele>358.23</ele>
        <time>2017-12-17T08:19:14Z</time>
      </trkpt>
      <trkpt lat="44.48578" lon="5.02622">
        <ele>357.75</ele>
        <time>2017-12-17T08:19:22Z</time>
      </trkpt>
      <trkpt lat="44.48583" lon="5.02628">
        <ele>357.27</ele>
        <time>2017-12-17T08:19:28Z</time>
      </trkpt>
      <trkpt lat="44.48593" lon="5.02637">
        <ele>357.27</ele>
        <time>2017-12-17T08:19:37Z</time>
      </trkpt>
      <trkpt lat="44.48598" lon="5.02641">
        <ele>356.79</ele>
        <time>2017-12-17T08:19:41Z</time>
      </trkpt>
      <trkpt lat="44.48599" lon="5.02644">
        <ele>356.79</ele>
        <time>2017-12-17T08:19:43Z</time>
      </trkpt>
      <trkpt lat="44.48603" lon="5.02646">
        <ele>356.79</ele>
        <time>2017-12-17T08:19:46Z</time>
      </trkpt>
      <trkpt lat="44.48606" lon="5.0265">
        <ele>357.27</ele>
        <time>2017-12-17T08:19:50Z</time>
      </trkpt>
      <trkpt lat="44.48613" lon="5.02662">
        <ele>357.75</ele>
        <time>2017-12-17T08:20:00Z</time>
      </trkpt>
      <trkpt lat="44.48621" lon="5.0267">
        <ele>358.23</ele>
        <time>2017-12-17T08:20:08Z</time>
      </trkpt>
      <trkpt lat="44.48631" lon="5.0268">
        <ele>357.75</ele>
        <time>2017-12-17T08:20:19Z</time>
      </trkpt>
      <trkpt lat="44.48644" lon="5.02691">
        <ele>356.79</ele>
        <time>2017-12-17T08:20:32Z</time>
      </trkpt>
      <trkpt lat="44.48661" lon="5.02702">
        <ele>355.34</ele>
        <time>2017-12-17T08:20:48Z</time>
      </trkpt>
      <trkpt lat="44.48673" lon="5.02709">
        <ele>355.34</ele>
        <time>2017-12-17T08:20:59Z</time>
      </trkpt>
      <trkpt lat="44.48685" lon="5.02717">
        <ele>355.83</ele>
        <time>2017-12-17T08:21:11Z</time>
      </trkpt>
      <trkpt lat="44.48701" lon="5.02728">
        <ele>353.9</ele>
        <time>2017-12-17T08:21:26Z</time>
      </trkpt>
      <trkpt lat="44.48717" lon="5.02739">
        <ele>354.86</ele>
        <time>2017-12-17T08:21:41Z</time>
      </trkpt>
      <trkpt lat="44.48735" lon="5.02753">
        <ele>356.31</ele>
        <time>2017-12-17T08:21:59Z</time>
      </trkpt>
      <trkpt lat="44.4875" lon="5.02764">
        <ele>355.83</ele>
        <time>2017-12-17T08:22:13Z</time>
      </trkpt>
      <trkpt lat="44.48767" lon="5.02772">
        <ele>355.83</ele>
        <time>2017-12-17T08:22:28Z</time>
      </trkpt>
      <trkpt lat="44.4878" lon="5.02779">
        <ele>356.31</ele>
        <time>2017-12-17T08:22:40Z</time>
      </trkpt>
      <trkpt lat="44.48786" lon="5.02785">
        <ele>356.31</ele>
        <time>2017-12-17T08:22:47Z</time>
      </trkpt>
      <trkpt lat="44.48801" lon="5.02797">
        <ele>356.31</ele>
        <time>2017-12-17T08:23:01Z</time>
      </trkpt>
      <trkpt lat="44.48802" lon="5.02797">
        <ele>356.31</ele>
        <time>2017-12-17T08:23:02Z</time>
      </trkpt>
      <trkpt lat="44.48805" lon="5.028">
        <ele>355.83</ele>
        <time>2017-12-17T08:23:05Z</time>
      </trkpt>
      <trkpt lat="44.48816" lon="5.02807">
        <ele>356.79</ele>
        <time>2017-12-17T08:23:16Z</time>
      </trkpt>
      <trkpt lat="44.48818" lon="5.02807">
        <ele>356.79</ele>
        <time>2017-12-17T08:23:18Z</time>
      </trkpt>
      <trkpt lat="44.48823" lon="5.0281">
        <ele>356.79</ele>
        <time>2017-12-17T08:23:22Z</time>
      </trkpt>
      <trkpt lat="44.48829" lon="5.02811">
        <ele>356.31</ele>
        <time>2017-12-17T08:23:27Z</time>
      </trkpt>
      <trkpt lat="44.48837" lon="5.02804">
        <ele>356.31</ele>
        <time>2017-12-17T08:23:35Z</time>
      </trkpt>
      <trkpt lat="44.48839" lon="5.02794">
        <ele>357.75</ele>
        <time>2017-12-17T08:23:41Z</time>
      </trkpt>
      <trkpt lat="44.4884" lon="5.02792">
        <ele>357.75</ele>
        <time>2017-12-17T08:23:43Z</time>
      </trkpt>
      <trkpt lat="44.48844" lon="5.02777">
        <ele>358.23</ele>
        <time>2017-12-17T08:23:54Z</time>
      </trkpt>
      <trkpt lat="44.48844" lon="5.02775">
        <ele>358.23</ele>
        <time>2017-12-17T08:23:56Z</time>
      </trkpt>
      <trkpt lat="44.48849" lon="5.02767">
        <ele>358.23</ele>
        <time>2017-12-17T08:24:03Z</time>
      </trkpt>
      <trkpt lat="44.48861" lon="5.02761">
        <ele>358.71</ele>
        <time>2017-12-17T08:24:13Z</time>
      </trkpt>
      <trkpt lat="44.48879" lon="5.02757">
        <ele>359.67</ele>
        <time>2017-12-17T08:24:29Z</time>
      </trkpt>
      <trkpt lat="44.48892" lon="5.02752">
        <ele>361.59</ele>
        <time>2017-12-17T08:24:41Z</time>
      </trkpt>
      <trkpt lat="44.48906" lon="5.02746">
        <ele>362.07</ele>
        <time>2017-12-17T08:24:55Z</time>
      </trkpt>
      <trkpt lat="44.48913" lon="5.02743">
        <ele>362.55</ele>
        <time>2017-12-17T08:25:01Z</time>
      </trkpt>
      <trkpt lat="44.48916" lon="5.02738">
        <ele>363.04</ele>
        <time>2017-12-17T08:25:14Z</time>
      </trkpt>
      <trkpt lat="44.48916" lon="5.02738">
        <ele>363.04</ele>
        <time>2017-12-17T08:25:32Z</time>
      </trkpt>
      <trkpt lat="44.48916" lon="5.02738">
        <ele>362.55</ele>
        <time>2017-12-17T08:25:45Z</time>
      </trkpt>
      <trkpt lat="44.48916" lon="5.02738">
        <ele>362.07</ele>
        <time>2017-12-17T08:26:01Z</time>
      </trkpt>
      <trkpt lat="44.48916" lon="5.02738">
        <ele>361.59</ele>
        <time>2017-12-17T08:26:17Z</time>
      </trkpt>
      <trkpt lat="44.48916" lon="5.02738">
        <ele>362.07</ele>
        <time>2017-12-17T08:26:44Z</time>
      </trkpt>
      <trkpt lat="44.48915" lon="5.02737">
        <ele>361.59</ele>
        <time>2017-12-17T08:26:57Z</time>
      </trkpt>
      <trkpt lat="44.48915" lon="5.02737">
        <ele>361.59</ele>
        <time>2017-12-17T08:27:15Z</time>
      </trkpt>
      <trkpt lat="44.48915" lon="5.02738">
        <ele>362.55</ele>
        <time>2017-12-17T08:27:30Z</time>
      </trkpt>
      <trkpt lat="44.48915" lon="5.02738">
        <ele>363.04</ele>
        <time>2017-12-17T08:27:43Z</time>
      </trkpt>
      <trkpt lat="44.48916" lon="5.02738">
        <ele>361.11</ele>
        <time>2017-12-17T08:27:52Z</time>
      </trkpt>
      <trkpt lat="44.48916" lon="5.02739">
        <ele>360.63</ele>
        <time>2017-12-17T08:28:07Z</time>
      </trkpt>
      <trkpt lat="44.48915" lon="5.02739">
        <ele>360.15</ele>
        <time>2017-12-17T08:28:29Z</time>
      </trkpt>
      <trkpt lat="44.48916" lon="5.02738">
        <ele>360.63</ele>
        <time>2017-12-17T08:28:39Z</time>
      </trkpt>
      <trkpt lat="44.48917" lon="5.02739">
        <ele>360.63</ele>
        <time>2017-12-17T08:28:50Z</time>
      </trkpt>
      <trkpt lat="44.48917" lon="5.02738">
        <ele>361.59</ele>
        <time>2017-12-17T08:29:11Z</time>
      </trkpt>
      <trkpt lat="44.48917" lon="5.02738">
        <ele>362.55</ele>
        <time>2017-12-17T08:29:30Z</time>
      </trkpt>
      <trkpt lat="44.48916" lon="5.02738">
        <ele>362.55</ele>
        <time>2017-12-17T08:29:49Z</time>
      </trkpt>
      <trkpt lat="44.48916" lon="5.02738">
        <ele>362.55</ele>
        <time>2017-12-17T08:30:01Z</time>
      </trkpt>
      <trkpt lat="44.48916" lon="5.02739">
        <ele>362.55</ele>
        <time>2017-12-17T08:30:18Z</time>
      </trkpt>
      <trkpt lat="44.48916" lon="5.02739">
        <ele>362.07</ele>
        <time>2017-12-17T08:30:31Z</time>
      </trkpt>
      <trkpt lat="44.4892" lon="5.02741">
        <ele>362.55</ele>
        <time>2017-12-17T08:30:41Z</time>
      </trkpt>
      <trkpt lat="44.48919" lon="5.0274">
        <ele>362.55</ele>
        <time>2017-12-17T08:30:51Z</time>
      </trkpt>
      <trkpt lat="44.48918" lon="5.02739">
        <ele>362.07</ele>
        <time>2017-12-17T08:31:03Z</time>
      </trkpt>
      <trkpt lat="44.48928" lon="5.02746">
        <ele>362.55</ele>
        <time>2017-12-17T08:31:16Z</time>
      </trkpt>
      <trkpt lat="44.4893" lon="5.02747">
        <ele>362.55</ele>
        <time>2017-12-17T08:31:24Z</time>
      </trkpt>
      <trkpt lat="44.48933" lon="5.02747">
        <ele>363.04</ele>
        <time>2017-12-17T08:31:27Z</time>
      </trkpt>
      <trkpt lat="44.48938" lon="5.02753">
        <ele>363.52</ele>
        <time>2017-12-17T08:31:33Z</time>
      </trkpt>
      <trkpt lat="44.48939" lon="5.02752">
        <ele>364.48</ele>
        <time>2017-12-17T08:31:42Z</time>
      </trkpt>
      <trkpt lat="44.48941" lon="5.02754">
        <ele>364.96</ele>
        <time>2017-12-17T08:31:45Z</time>
      </trkpt>
      <trkpt lat="44.48946" lon="5.02762">
        <ele>365.92</ele>
        <time>2017-12-17T08:31:56Z</time>
      </trkpt>
      <trkpt lat="44.48948" lon="5.02766">
        <ele>366.4</ele>
        <time>2017-12-17T08:32:01Z</time>
      </trkpt>
      <trkpt lat="44.48952" lon="5.02769">
        <ele>367.36</ele>
        <time>2017-12-17T08:32:05Z</time>
      </trkpt>
      <trkpt lat="44.48954" lon="5.0277">
        <ele>367.84</ele>
        <time>2017-12-17T08:32:07Z</time>
      </trkpt>
      <trkpt lat="44.48962" lon="5.02779">
        <ele>369.76</ele>
        <time>2017-12-17T08:32:21Z</time>
      </trkpt>
      <trkpt lat="44.48967" lon="5.0278">
        <ele>370.24</ele>
        <time>2017-12-17T08:32:34Z</time>
      </trkpt>
      <trkpt lat="44.48972" lon="5.0278">
        <ele>370.24</ele>
        <time>2017-12-17T08:32:39Z</time>
      </trkpt>
      <trkpt lat="44.48977" lon="5.02782">
        <ele>371.21</ele>
        <time>2017-12-17T08:32:44Z</time>
      </trkpt>
      <trkpt lat="44.4899" lon="5.02781">
        <ele>374.09</ele>
        <time>2017-12-17T08:32:56Z</time>
      </trkpt>
      <trkpt lat="44.48991" lon="5.02779">
        <ele>373.61</ele>
        <time>2017-12-17T08:33:01Z</time>
      </trkpt>
      <trkpt lat="44.48995" lon="5.02776">
        <ele>374.57</ele>
        <time>2017-12-17T08:33:06Z</time>
      </trkpt>
      <trkpt lat="44.48999" lon="5.02774">
        <ele>375.53</ele>
        <time>2017-12-17T08:33:10Z</time>
      </trkpt>
      <trkpt lat="44.49013" lon="5.02765">
        <ele>376.49</ele>
        <time>2017-12-17T08:33:26Z</time>
      </trkpt>
      <trkpt lat="44.49019" lon="5.02761">
        <ele>376.49</ele>
        <time>2017-12-17T08:33:32Z</time>
      </trkpt>
      <trkpt lat="44.49026" lon="5.02759">
        <ele>377.45</ele>
        <time>2017-12-17T08:33:45Z</time>
      </trkpt>
      <trkpt lat="44.49035" lon="5.02761">
        <ele>377.94</ele>
        <time>2017-12-17T08:33:56Z</time>
      </trkpt>
      <trkpt lat="44.49034" lon="5.0276">
        <ele>377.94</ele>
        <time>2017-12-17T08:34:09Z</time>
      </trkpt>
      <trkpt lat="44.49034" lon="5.0276">
        <ele>377.94</ele>
        <time>2017-12-17T08:34:10Z</time>
      </trkpt>
      <trkpt lat="44.49018" lon="5.02763">
        <ele>376.49</ele>
        <time>2017-12-17T08:34:24Z</time>
      </trkpt>
      <trkpt lat="44.49013" lon="5.02765">
        <ele>376.01</ele>
        <time>2017-12-17T08:34:28Z</time>
      </trkpt>
      <trkpt lat="44.49009" lon="5.02769">
        <ele>376.01</ele>
        <time>2017-12-17T08:34:40Z</time>
      </trkpt>
      <trkpt lat="44.49009" lon="5.02769">
        <ele>376.49</ele>
        <time>2017-12-17T08:35:04Z</time>
      </trkpt>
      <trkpt lat="44.4901" lon="5.02768">
        <ele>375.53</ele>
        <time>2017-12-17T08:35:27Z</time>
      </trkpt>
      <trkpt lat="44.4901" lon="5.02768">
        <ele>373.61</ele>
        <time>2017-12-17T08:35:46Z</time>
      </trkpt>
      <trkpt lat="44.49009" lon="5.02767">
        <ele>375.53</ele>
        <time>2017-12-17T08:36:10Z</time>
      </trkpt>
      <trkpt lat="44.49005" lon="5.0277">
        <ele>376.01</ele>
        <time>2017-12-17T08:36:21Z</time>
      </trkpt>
      <trkpt lat="44.49001" lon="5.02775">
        <ele>376.49</ele>
        <time>2017-12-17T08:36:33Z</time>
      </trkpt>
      <trkpt lat="44.48993" lon="5.02779">
        <ele>376.01</ele>
        <time>2017-12-17T08:36:46Z</time>
      </trkpt>
      <trkpt lat="44.48991" lon="5.02779">
        <ele>375.53</ele>
        <time>2017-12-17T08:36:59Z</time>
      </trkpt>
      <trkpt lat="44.48989" lon="5.0278">
        <ele>375.05</ele>
        <time>2017-12-17T08:37:15Z</time>
      </trkpt>
      <trkpt lat="44.4898" lon="5.02782">
        <ele>374.09</ele>
        <time>2017-12-17T08:37:23Z</time>
      </trkpt>
      <trkpt lat="44.48972" lon="5.02779">
        <ele>372.17</ele>
        <time>2017-12-17T08:37:30Z</time>
      </trkpt>
      <trkpt lat="44.48963" lon="5.02772">
        <ele>369.76</ele>
        <time>2017-12-17T08:37:40Z</time>
      </trkpt>
      <trkpt lat="44.48952" lon="5.02767">
        <ele>367.84</ele>
        <time>2017-12-17T08:37:51Z</time>
      </trkpt>
      <trkpt lat="44.48951" lon="5.02766">
        <ele>367.36</ele>
        <time>2017-12-17T08:37:53Z</time>
      </trkpt>
      <trkpt lat="44.48948" lon="5.02761">
        <ele>366.88</ele>
        <time>2017-12-17T08:37:56Z</time>
      </trkpt>
      <trkpt lat="44.48943" lon="5.02757">
        <ele>365.92</ele>
        <time>2017-12-17T08:38:00Z</time>
      </trkpt>
      <trkpt lat="44.48938" lon="5.02755">
        <ele>364.96</ele>
        <time>2017-12-17T08:38:03Z</time>
      </trkpt>
      <trkpt lat="44.48936" lon="5.02753">
        <ele>364.96</ele>
        <time>2017-12-17T08:38:06Z</time>
      </trkpt>
      <trkpt lat="44.48937" lon="5.0275">
        <ele>364.48</ele>
        <time>2017-12-17T08:38:08Z</time>
      </trkpt>
      <trkpt lat="44.48918" lon="5.02739">
        <ele>363.04</ele>
        <time>2017-12-17T08:38:17Z</time>
      </trkpt>
      <trkpt lat="44.48918" lon="5.02731">
        <ele>363.04</ele>
        <time>2017-12-17T08:38:24Z</time>
      </trkpt>
      <trkpt lat="44.48921" lon="5.02729">
        <ele>363.04</ele>
        <time>2017-12-17T08:38:26Z</time>
      </trkpt>
      <trkpt lat="44.48927" lon="5.02724">
        <ele>363.04</ele>
        <time>2017-12-17T08:38:30Z</time>
      </trkpt>
      <trkpt lat="44.48934" lon="5.02719">
        <ele>363.52</ele>
        <time>2017-12-17T08:38:35Z</time>
      </trkpt>
      <trkpt lat="44.48936" lon="5.02718">
        <ele>364</ele>
        <time>2017-12-17T08:38:37Z</time>
      </trkpt>
      <trkpt lat="44.48939" lon="5.02714">
        <ele>364</ele>
        <time>2017-12-17T08:38:40Z</time>
      </trkpt>
      <trkpt lat="44.48944" lon="5.02704">
        <ele>365.44</ele>
        <time>2017-12-17T08:38:49Z</time>
      </trkpt>
      <trkpt lat="44.48945" lon="5.02702">
        <ele>364.96</ele>
        <time>2017-12-17T08:38:51Z</time>
      </trkpt>
      <trkpt lat="44.48947" lon="5.02696">
        <ele>365.92</ele>
        <time>2017-12-17T08:39:01Z</time>
      </trkpt>
      <trkpt lat="44.48947" lon="5.02689">
        <ele>366.88</ele>
        <time>2017-12-17T08:39:07Z</time>
      </trkpt>
      <trkpt lat="44.48946" lon="5.02681">
        <ele>367.36</ele>
        <time>2017-12-17T08:39:13Z</time>
      </trkpt>
      <trkpt lat="44.48942" lon="5.02664">
        <ele>368.32</ele>
        <time>2017-12-17T08:39:22Z</time>
      </trkpt>
      <trkpt lat="44.48941" lon="5.02661">
        <ele>369.28</ele>
        <time>2017-12-17T08:39:25Z</time>
      </trkpt>
      <trkpt lat="44.48942" lon="5.02649">
        <ele>369.76</ele>
        <time>2017-12-17T08:39:30Z</time>
      </trkpt>
      <trkpt lat="44.48949" lon="5.02641">
        <ele>371.69</ele>
        <time>2017-12-17T08:39:40Z</time>
      </trkpt>
      <trkpt lat="44.48954" lon="5.0264">
        <ele>372.65</ele>
        <time>2017-12-17T08:39:48Z</time>
      </trkpt>
      <trkpt lat="44.48962" lon="5.02644">
        <ele>373.61</ele>
        <time>2017-12-17T08:39:56Z</time>
      </trkpt>
      <trkpt lat="44.48964" lon="5.02644">
        <ele>373.61</ele>
        <time>2017-12-17T08:39:58Z</time>
      </trkpt>
      <trkpt lat="44.48981" lon="5.02647">
        <ele>375.53</ele>
        <time>2017-12-17T08:40:09Z</time>
      </trkpt>
      <trkpt lat="44.48982" lon="5.02647">
        <ele>375.53</ele>
        <time>2017-12-17T08:40:10Z</time>
      </trkpt>
      <trkpt lat="44.48986" lon="5.02646">
        <ele>375.53</ele>
        <time>2017-12-17T08:40:13Z</time>
      </trkpt>
      <trkpt lat="44.48994" lon="5.02647">
        <ele>376.97</ele>
        <time>2017-12-17T08:40:21Z</time>
      </trkpt>
      <trkpt lat="44.48998" lon="5.02645">
        <ele>376.97</ele>
        <time>2017-12-17T08:40:24Z</time>
      </trkpt>
      <trkpt lat="44.49004" lon="5.02632">
        <ele>378.42</ele>
        <time>2017-12-17T08:40:36Z</time>
      </trkpt>
      <trkpt lat="44.49003" lon="5.02611">
        <ele>380.34</ele>
        <time>2017-12-17T08:40:48Z</time>
      </trkpt>
      <trkpt lat="44.49002" lon="5.02608">
        <ele>380.82</ele>
        <time>2017-12-17T08:40:51Z</time>
      </trkpt>
      <trkpt lat="44.49001" lon="5.02605">
        <ele>381.3</ele>
        <time>2017-12-17T08:40:53Z</time>
      </trkpt>
      <trkpt lat="44.49001" lon="5.02589">
        <ele>383.7</ele>
        <time>2017-12-17T08:41:05Z</time>
      </trkpt>
      <trkpt lat="44.49001" lon="5.02585">
        <ele>383.7</ele>
        <time>2017-12-17T08:41:07Z</time>
      </trkpt>
      <trkpt lat="44.49002" lon="5.02569">
        <ele>385.63</ele>
        <time>2017-12-17T08:41:18Z</time>
      </trkpt>
      <trkpt lat="44.49002" lon="5.02552">
        <ele>387.55</ele>
        <time>2017-12-17T08:41:29Z</time>
      </trkpt>
      <trkpt lat="44.49002" lon="5.02543">
        <ele>388.51</ele>
        <time>2017-12-17T08:41:35Z</time>
      </trkpt>
      <trkpt lat="44.48998" lon="5.02532">
        <ele>388.51</ele>
        <time>2017-12-17T08:41:40Z</time>
      </trkpt>
      <trkpt lat="44.48992" lon="5.02519">
        <ele>389.95</ele>
        <time>2017-12-17T08:41:53Z</time>
      </trkpt>
      <trkpt lat="44.48981" lon="5.02511">
        <ele>390.91</ele>
        <time>2017-12-17T08:42:02Z</time>
      </trkpt>
      <trkpt lat="44.48976" lon="5.02504">
        <ele>392.36</ele>
        <time>2017-12-17T08:42:13Z</time>
      </trkpt>
      <trkpt lat="44.48973" lon="5.02503">
        <ele>392.36</ele>
        <time>2017-12-17T08:42:16Z</time>
      </trkpt>
      <trkpt lat="44.4896" lon="5.02503">
        <ele>393.32</ele>
        <time>2017-12-17T08:42:24Z</time>
      </trkpt>
      <trkpt lat="44.48956" lon="5.025">
        <ele>393.8</ele>
        <time>2017-12-17T08:42:30Z</time>
      </trkpt>
      <trkpt lat="44.48942" lon="5.02498">
        <ele>395.24</ele>
        <time>2017-12-17T08:42:41Z</time>
      </trkpt>
      <trkpt lat="44.48938" lon="5.02489">
        <ele>395.72</ele>
        <time>2017-12-17T08:42:52Z</time>
      </trkpt>
      <trkpt lat="44.48938" lon="5.02488">
        <ele>395.72</ele>
        <time>2017-12-17T08:42:54Z</time>
      </trkpt>
      <trkpt lat="44.48939" lon="5.02484">
        <ele>395.72</ele>
        <time>2017-12-17T08:42:56Z</time>
      </trkpt>
      <trkpt lat="44.4894" lon="5.02477">
        <ele>395.72</ele>
        <time>2017-12-17T08:43:03Z</time>
      </trkpt>
      <trkpt lat="44.4894" lon="5.0247">
        <ele>396.68</ele>
        <time>2017-12-17T08:43:09Z</time>
      </trkpt>
      <trkpt lat="44.48945" lon="5.02463">
        <ele>396.68</ele>
        <time>2017-12-17T08:43:17Z</time>
      </trkpt>
      <trkpt lat="44.4895" lon="5.02458">
        <ele>397.16</ele>
        <time>2017-12-17T08:43:25Z</time>
      </trkpt>
      <trkpt lat="44.48957" lon="5.02448">
        <ele>398.12</ele>
        <time>2017-12-17T08:43:34Z</time>
      </trkpt>
      <trkpt lat="44.48964" lon="5.02436">
        <ele>398.6</ele>
        <time>2017-12-17T08:43:45Z</time>
      </trkpt>
      <trkpt lat="44.48972" lon="5.02422">
        <ele>399.57</ele>
        <time>2017-12-17T08:43:58Z</time>
      </trkpt>
      <trkpt lat="44.48983" lon="5.02409">
        <ele>400.53</ele>
        <time>2017-12-17T08:44:13Z</time>
      </trkpt>
      <trkpt lat="44.48986" lon="5.02406">
        <ele>400.53</ele>
        <time>2017-12-17T08:44:18Z</time>
      </trkpt>
      <trkpt lat="44.48989" lon="5.02405">
        <ele>400.53</ele>
        <time>2017-12-17T08:44:29Z</time>
      </trkpt>
      <trkpt lat="44.49" lon="5.02401">
        <ele>401.01</ele>
        <time>2017-12-17T08:44:38Z</time>
      </trkpt>
      <trkpt lat="44.49005" lon="5.02398">
        <ele>401.49</ele>
        <time>2017-12-17T08:44:50Z</time>
      </trkpt>
      <trkpt lat="44.49016" lon="5.02385">
        <ele>402.45</ele>
        <time>2017-12-17T08:45:03Z</time>
      </trkpt>
      <trkpt lat="44.49031" lon="5.02372">
        <ele>403.41</ele>
        <time>2017-12-17T08:45:19Z</time>
      </trkpt>
      <trkpt lat="44.49046" lon="5.02367">
        <ele>405.33</ele>
        <time>2017-12-17T08:45:30Z</time>
      </trkpt>
      <trkpt lat="44.4905" lon="5.02368">
        <ele>405.81</ele>
        <time>2017-12-17T08:45:36Z</time>
      </trkpt>
      <trkpt lat="44.49053" lon="5.02368">
        <ele>406.77</ele>
        <time>2017-12-17T08:45:39Z</time>
      </trkpt>
      <trkpt lat="44.49059" lon="5.02372">
        <ele>407.26</ele>
        <time>2017-12-17T08:45:46Z</time>
      </trkpt>
      <trkpt lat="44.49062" lon="5.02372">
        <ele>407.74</ele>
        <time>2017-12-17T08:45:48Z</time>
      </trkpt>
      <trkpt lat="44.49072" lon="5.02377">
        <ele>409.18</ele>
        <time>2017-12-17T08:46:00Z</time>
      </trkpt>
      <trkpt lat="44.49073" lon="5.02377">
        <ele>409.18</ele>
        <time>2017-12-17T08:46:01Z</time>
      </trkpt>
      <trkpt lat="44.49078" lon="5.02376">
        <ele>409.66</ele>
        <time>2017-12-17T08:46:06Z</time>
      </trkpt>
      <trkpt lat="44.49085" lon="5.02371">
        <ele>410.14</ele>
        <time>2017-12-17T08:46:14Z</time>
      </trkpt>
      <trkpt lat="44.49095" lon="5.0236">
        <ele>411.58</ele>
        <time>2017-12-17T08:46:27Z</time>
      </trkpt>
      <trkpt lat="44.49104" lon="5.02347">
        <ele>412.06</ele>
        <time>2017-12-17T08:46:40Z</time>
      </trkpt>
      <trkpt lat="44.49113" lon="5.02337">
        <ele>413.02</ele>
        <time>2017-12-17T08:46:51Z</time>
      </trkpt>
      <trkpt lat="44.49114" lon="5.02332">
        <ele>413.5</ele>
        <time>2017-12-17T08:46:54Z</time>
      </trkpt>
      <trkpt lat="44.49124" lon="5.0232">
        <ele>414.47</ele>
        <time>2017-12-17T08:47:06Z</time>
      </trkpt>
      <trkpt lat="44.49131" lon="5.0231">
        <ele>415.91</ele>
        <time>2017-12-17T08:47:18Z</time>
      </trkpt>
      <trkpt lat="44.49135" lon="5.02303">
        <ele>416.39</ele>
        <time>2017-12-17T08:47:30Z</time>
      </trkpt>
      <trkpt lat="44.49134" lon="5.02303">
        <ele>416.39</ele>
        <time>2017-12-17T08:47:44Z</time>
      </trkpt>
      <trkpt lat="44.49133" lon="5.02302">
        <ele>416.39</ele>
        <time>2017-12-17T08:48:06Z</time>
      </trkpt>
      <trkpt lat="44.49134" lon="5.02301">
        <ele>416.39</ele>
        <time>2017-12-17T08:48:26Z</time>
      </trkpt>
      <trkpt lat="44.49134" lon="5.02301">
        <ele>416.39</ele>
        <time>2017-12-17T08:48:42Z</time>
      </trkpt>
      <trkpt lat="44.49134" lon="5.023">
        <ele>415.91</ele>
        <time>2017-12-17T08:48:53Z</time>
      </trkpt>
      <trkpt lat="44.49133" lon="5.02302">
        <ele>416.39</ele>
        <time>2017-12-17T08:49:04Z</time>
      </trkpt>
      <trkpt lat="44.49132" lon="5.02301">
        <ele>416.87</ele>
        <time>2017-12-17T08:49:20Z</time>
      </trkpt>
      <trkpt lat="44.49131" lon="5.02301">
        <ele>416.39</ele>
        <time>2017-12-17T08:49:40Z</time>
      </trkpt>
      <trkpt lat="44.49131" lon="5.02301">
        <ele>416.39</ele>
        <time>2017-12-17T08:49:41Z</time>
      </trkpt>
      <trkpt lat="44.49134" lon="5.02296">
        <ele>416.39</ele>
        <time>2017-12-17T08:49:45Z</time>
      </trkpt>
      <trkpt lat="44.49141" lon="5.02288">
        <ele>417.35</ele>
        <time>2017-12-17T08:49:51Z</time>
      </trkpt>
      <trkpt lat="44.4915" lon="5.02282">
        <ele>418.79</ele>
        <time>2017-12-17T08:50:03Z</time>
      </trkpt>
      <trkpt lat="44.49153" lon="5.0228">
        <ele>419.75</ele>
        <time>2017-12-17T08:50:07Z</time>
      </trkpt>
      <trkpt lat="44.49159" lon="5.02276">
        <ele>420.23</ele>
        <time>2017-12-17T08:50:14Z</time>
      </trkpt>
      <trkpt lat="44.4917" lon="5.02266">
        <ele>421.68</ele>
        <time>2017-12-17T08:50:28Z</time>
      </trkpt>
      <trkpt lat="44.49182" lon="5.02257">
        <ele>423.12</ele>
        <time>2017-12-17T08:50:42Z</time>
      </trkpt>
      <trkpt lat="44.49186" lon="5.02253">
        <ele>423.6</ele>
        <time>2017-12-17T08:50:45Z</time>
      </trkpt>
      <trkpt lat="44.49197" lon="5.02242">
        <ele>424.56</ele>
        <time>2017-12-17T08:50:57Z</time>
      </trkpt>
      <trkpt lat="44.49199" lon="5.0224">
        <ele>424.56</ele>
        <time>2017-12-17T08:50:59Z</time>
      </trkpt>
      <trkpt lat="44.49208" lon="5.02232">
        <ele>425.52</ele>
        <time>2017-12-17T08:51:10Z</time>
      </trkpt>
      <trkpt lat="44.49209" lon="5.0223">
        <ele>426</ele>
        <time>2017-12-17T08:51:13Z</time>
      </trkpt>
      <trkpt lat="44.49211" lon="5.02228">
        <ele>426</ele>
        <time>2017-12-17T08:51:15Z</time>
      </trkpt>
      <trkpt lat="44.49216" lon="5.0222">
        <ele>427.44</ele>
        <time>2017-12-17T08:51:26Z</time>
      </trkpt>
      <trkpt lat="44.49219" lon="5.02216">
        <ele>428.4</ele>
        <time>2017-12-17T08:51:31Z</time>
      </trkpt>
      <trkpt lat="44.49227" lon="5.02208">
        <ele>430.33</ele>
        <time>2017-12-17T08:51:45Z</time>
      </trkpt>
      <trkpt lat="44.49239" lon="5.02198">
        <ele>432.25</ele>
        <time>2017-12-17T08:51:59Z</time>
      </trkpt>
      <trkpt lat="44.49245" lon="5.02194">
        <ele>432.73</ele>
        <time>2017-12-17T08:52:06Z</time>
      </trkpt>
      <trkpt lat="44.49255" lon="5.02189">
        <ele>434.17</ele>
        <time>2017-12-17T08:52:16Z</time>
      </trkpt>
      <trkpt lat="44.49257" lon="5.02188">
        <ele>434.65</ele>
        <time>2017-12-17T08:52:18Z</time>
      </trkpt>
      <trkpt lat="44.49275" lon="5.02179">
        <ele>436.58</ele>
        <time>2017-12-17T08:52:36Z</time>
      </trkpt>
      <trkpt lat="44.49289" lon="5.02172">
        <ele>438.5</ele>
        <time>2017-12-17T08:52:51Z</time>
      </trkpt>
      <trkpt lat="44.49304" lon="5.02165">
        <ele>440.9</ele>
        <time>2017-12-17T08:53:05Z</time>
      </trkpt>
      <trkpt lat="44.49314" lon="5.02161">
        <ele>441.86</ele>
        <time>2017-12-17T08:53:16Z</time>
      </trkpt>
      <trkpt lat="44.49329" lon="5.02158">
        <ele>444.27</ele>
        <time>2017-12-17T08:53:32Z</time>
      </trkpt>
      <trkpt lat="44.49338" lon="5.02157">
        <ele>445.23</ele>
        <time>2017-12-17T08:53:39Z</time>
      </trkpt>
      <trkpt lat="44.49353" lon="5.02153">
        <ele>446.67</ele>
        <time>2017-12-17T08:53:54Z</time>
      </trkpt>
      <trkpt lat="44.49369" lon="5.02149">
        <ele>449.07</ele>
        <time>2017-12-17T08:54:09Z</time>
      </trkpt>
      <trkpt lat="44.49378" lon="5.02146">
        <ele>450.03</ele>
        <time>2017-12-17T08:54:19Z</time>
      </trkpt>
      <trkpt lat="44.49391" lon="5.02141">
        <ele>452.44</ele>
        <time>2017-12-17T08:54:33Z</time>
      </trkpt>
      <trkpt lat="44.49392" lon="5.02141">
        <ele>452.44</ele>
        <time>2017-12-17T08:54:34Z</time>
      </trkpt>
      <trkpt lat="44.49394" lon="5.02139">
        <ele>452.92</ele>
        <time>2017-12-17T08:54:36Z</time>
      </trkpt>
      <trkpt lat="44.49399" lon="5.02133">
        <ele>453.88</ele>
        <time>2017-12-17T08:54:41Z</time>
      </trkpt>
      <trkpt lat="44.49414" lon="5.02123">
        <ele>454.84</ele>
        <time>2017-12-17T08:54:51Z</time>
      </trkpt>
      <trkpt lat="44.4943" lon="5.02109">
        <ele>454.84</ele>
        <time>2017-12-17T08:55:04Z</time>
      </trkpt>
      <trkpt lat="44.49435" lon="5.02098">
        <ele>455.32</ele>
        <time>2017-12-17T08:55:16Z</time>
      </trkpt>
      <trkpt lat="44.4944" lon="5.02084">
        <ele>456.76</ele>
        <time>2017-12-17T08:55:25Z</time>
      </trkpt>
      <trkpt lat="44.49445" lon="5.02077">
        <ele>457.72</ele>
        <time>2017-12-17T08:55:33Z</time>
      </trkpt>
      <trkpt lat="44.49454" lon="5.02065">
        <ele>457.72</ele>
        <time>2017-12-17T08:55:44Z</time>
      </trkpt>
      <trkpt lat="44.49456" lon="5.02062">
        <ele>457.72</ele>
        <time>2017-12-17T08:55:46Z</time>
      </trkpt>
      <trkpt lat="44.49459" lon="5.02054">
        <ele>457.24</ele>
        <time>2017-12-17T08:55:50Z</time>
      </trkpt>
      <trkpt lat="44.49467" lon="5.02037">
        <ele>457.24</ele>
        <time>2017-12-17T08:55:57Z</time>
      </trkpt>
      <trkpt lat="44.49467" lon="5.02036">
        <ele>457.24</ele>
        <time>2017-12-17T08:55:58Z</time>
      </trkpt>
      <trkpt lat="44.49462" lon="5.02031">
        <ele>458.21</ele>
        <time>2017-12-17T08:56:10Z</time>
      </trkpt>
      <trkpt lat="44.49455" lon="5.02031">
        <ele>458.69</ele>
        <time>2017-12-17T08:56:14Z</time>
      </trkpt>
      <trkpt lat="44.49444" lon="5.02035">
        <ele>460.13</ele>
        <time>2017-12-17T08:56:24Z</time>
      </trkpt>
      <trkpt lat="44.4944" lon="5.02036">
        <ele>460.61</ele>
        <time>2017-12-17T08:56:29Z</time>
      </trkpt>
      <trkpt lat="44.49435" lon="5.02031">
        <ele>461.57</ele>
        <time>2017-12-17T08:56:35Z</time>
      </trkpt>
      <trkpt lat="44.49434" lon="5.02026">
        <ele>461.57</ele>
        <time>2017-12-17T08:56:41Z</time>
      </trkpt>
      <trkpt lat="44.49436" lon="5.0202">
        <ele>462.53</ele>
        <time>2017-12-17T08:56:51Z</time>
      </trkpt>
      <trkpt lat="44.49439" lon="5.02018">
        <ele>463.01</ele>
        <time>2017-12-17T08:56:54Z</time>
      </trkpt>
      <trkpt lat="44.49441" lon="5.02017">
        <ele>463.01</ele>
        <time>2017-12-17T08:57:03Z</time>
      </trkpt>
      <trkpt lat="44.49448" lon="5.02013">
        <ele>463.97</ele>
        <time>2017-12-17T08:57:17Z</time>
      </trkpt>
      <trkpt lat="44.49457" lon="5.02007">
        <ele>465.42</ele>
        <time>2017-12-17T08:57:29Z</time>
      </trkpt>
      <trkpt lat="44.4946" lon="5.02003">
        <ele>465.42</ele>
        <time>2017-12-17T08:57:33Z</time>
      </trkpt>
      <trkpt lat="44.49469" lon="5.01994">
        <ele>466.86</ele>
        <time>2017-12-17T08:57:44Z</time>
      </trkpt>
      <trkpt lat="44.49473" lon="5.01986">
        <ele>468.3</ele>
        <time>2017-12-17T08:57:53Z</time>
      </trkpt>
      <trkpt lat="44.4948" lon="5.01984">
        <ele>469.74</ele>
        <time>2017-12-17T08:58:03Z</time>
      </trkpt>
      <trkpt lat="44.49486" lon="5.01981">
        <ele>470.7</ele>
        <time>2017-12-17T08:58:11Z</time>
      </trkpt>
      <trkpt lat="44.49489" lon="5.0198">
        <ele>471.18</ele>
        <time>2017-12-17T08:58:14Z</time>
      </trkpt>
      <trkpt lat="44.49496" lon="5.01977">
        <ele>471.66</ele>
        <time>2017-12-17T08:58:22Z</time>
      </trkpt>
      <trkpt lat="44.49503" lon="5.01972">
        <ele>472.63</ele>
        <time>2017-12-17T08:58:29Z</time>
      </trkpt>
      <trkpt lat="44.49505" lon="5.01972">
        <ele>473.11</ele>
        <time>2017-12-17T08:58:31Z</time>
      </trkpt>
      <trkpt lat="44.49515" lon="5.01967">
        <ele>474.07</ele>
        <time>2017-12-17T08:58:42Z</time>
      </trkpt>
      <trkpt lat="44.49528" lon="5.0196">
        <ele>475.03</ele>
        <time>2017-12-17T08:58:56Z</time>
      </trkpt>
      <trkpt lat="44.49534" lon="5.01957">
        <ele>475.51</ele>
        <time>2017-12-17T08:59:02Z</time>
      </trkpt>
      <trkpt lat="44.49537" lon="5.01955">
        <ele>475.99</ele>
        <time>2017-12-17T08:59:06Z</time>
      </trkpt>
      <trkpt lat="44.49543" lon="5.0195">
        <ele>476.47</ele>
        <time>2017-12-17T08:59:13Z</time>
      </trkpt>
      <trkpt lat="44.49554" lon="5.0194">
        <ele>478.39</ele>
        <time>2017-12-17T08:59:28Z</time>
      </trkpt>
      <trkpt lat="44.49555" lon="5.01939">
        <ele>478.39</ele>
        <time>2017-12-17T08:59:29Z</time>
      </trkpt>
      <trkpt lat="44.49558" lon="5.01935">
        <ele>479.35</ele>
        <time>2017-12-17T08:59:34Z</time>
      </trkpt>
      <trkpt lat="44.49561" lon="5.01932">
        <ele>479.84</ele>
        <time>2017-12-17T08:59:37Z</time>
      </trkpt>
      <trkpt lat="44.49574" lon="5.01921">
        <ele>481.76</ele>
        <time>2017-12-17T08:59:49Z</time>
      </trkpt>
      <trkpt lat="44.49575" lon="5.0192">
        <ele>481.76</ele>
        <time>2017-12-17T08:59:50Z</time>
      </trkpt>
      <trkpt lat="44.49575" lon="5.01919">
        <ele>482.24</ele>
        <time>2017-12-17T08:59:53Z</time>
      </trkpt>
      <trkpt lat="44.49583" lon="5.01912">
        <ele>483.2</ele>
        <time>2017-12-17T09:00:05Z</time>
      </trkpt>
      <trkpt lat="44.4959" lon="5.01908">
        <ele>484.64</ele>
        <time>2017-12-17T09:00:12Z</time>
      </trkpt>
      <trkpt lat="44.49596" lon="5.01904">
        <ele>485.6</ele>
        <time>2017-12-17T09:00:21Z</time>
      </trkpt>
      <trkpt lat="44.49598" lon="5.01903">
        <ele>485.6</ele>
        <time>2017-12-17T09:00:23Z</time>
      </trkpt>
      <trkpt lat="44.49608" lon="5.01898">
        <ele>488.01</ele>
        <time>2017-12-17T09:00:37Z</time>
      </trkpt>
      <trkpt lat="44.49617" lon="5.0189">
        <ele>489.45</ele>
        <time>2017-12-17T09:00:50Z</time>
      </trkpt>
      <trkpt lat="44.49625" lon="5.01886">
        <ele>489.93</ele>
        <time>2017-12-17T09:00:59Z</time>
      </trkpt>
      <trkpt lat="44.49628" lon="5.01885">
        <ele>490.41</ele>
        <time>2017-12-17T09:01:02Z</time>
      </trkpt>
      <trkpt lat="44.49639" lon="5.01878">
        <ele>492.33</ele>
        <time>2017-12-17T09:01:17Z</time>
      </trkpt>
      <trkpt lat="44.49645" lon="5.01872">
        <ele>493.29</ele>
        <time>2017-12-17T09:01:27Z</time>
      </trkpt>
      <trkpt lat="44.49655" lon="5.01861">
        <ele>494.74</ele>
        <time>2017-12-17T09:01:41Z</time>
      </trkpt>
      <trkpt lat="44.49659" lon="5.01859">
        <ele>495.22</ele>
        <time>2017-12-17T09:01:45Z</time>
      </trkpt>
      <trkpt lat="44.49664" lon="5.01857">
        <ele>496.18</ele>
        <time>2017-12-17T09:01:50Z</time>
      </trkpt>
      <trkpt lat="44.49672" lon="5.01865">
        <ele>497.62</ele>
        <time>2017-12-17T09:02:04Z</time>
      </trkpt>
      <trkpt lat="44.49672" lon="5.01866">
        <ele>497.62</ele>
        <time>2017-12-17T09:02:05Z</time>
      </trkpt>
      <trkpt lat="44.49673" lon="5.01868">
        <ele>497.62</ele>
        <time>2017-12-17T09:02:07Z</time>
      </trkpt>
      <trkpt lat="44.49678" lon="5.01883">
        <ele>499.06</ele>
        <time>2017-12-17T09:02:22Z</time>
      </trkpt>
      <trkpt lat="44.49679" lon="5.01891">
        <ele>500.02</ele>
        <time>2017-12-17T09:02:28Z</time>
      </trkpt>
      <trkpt lat="44.49679" lon="5.01899">
        <ele>500.5</ele>
        <time>2017-12-17T09:02:35Z</time>
      </trkpt>
      <trkpt lat="44.49679" lon="5.01903">
        <ele>500.5</ele>
        <time>2017-12-17T09:02:38Z</time>
      </trkpt>
      <trkpt lat="44.49679" lon="5.01914">
        <ele>500.98</ele>
        <time>2017-12-17T09:02:46Z</time>
      </trkpt>
      <trkpt lat="44.49681" lon="5.01919">
        <ele>501.46</ele>
        <time>2017-12-17T09:02:50Z</time>
      </trkpt>
      <trkpt lat="44.49681" lon="5.01924">
        <ele>501.46</ele>
        <time>2017-12-17T09:02:53Z</time>
      </trkpt>
      <trkpt lat="44.49682" lon="5.01927">
        <ele>501.46</ele>
        <time>2017-12-17T09:02:56Z</time>
      </trkpt>
      <trkpt lat="44.49684" lon="5.01943">
        <ele>501.46</ele>
        <time>2017-12-17T09:03:04Z</time>
      </trkpt>
      <trkpt lat="44.49686" lon="5.01948">
        <ele>500.98</ele>
        <time>2017-12-17T09:03:13Z</time>
      </trkpt>
      <trkpt lat="44.49687" lon="5.01955">
        <ele>501.95</ele>
        <time>2017-12-17T09:03:23Z</time>
      </trkpt>
      <trkpt lat="44.49694" lon="5.01959">
        <ele>501.95</ele>
        <time>2017-12-17T09:03:28Z</time>
      </trkpt>
      <trkpt lat="44.49695" lon="5.01963">
        <ele>502.43</ele>
        <time>2017-12-17T09:03:32Z</time>
      </trkpt>
      <trkpt lat="44.49695" lon="5.01967">
        <ele>502.91</ele>
        <time>2017-12-17T09:03:35Z</time>
      </trkpt>
      <trkpt lat="44.49703" lon="5.0197">
        <ele>503.39</ele>
        <time>2017-12-17T09:03:45Z</time>
      </trkpt>
      <trkpt lat="44.49704" lon="5.0197">
        <ele>503.87</ele>
        <time>2017-12-17T09:03:46Z</time>
      </trkpt>
      <trkpt lat="44.49711" lon="5.01971">
        <ele>504.35</ele>
        <time>2017-12-17T09:03:55Z</time>
      </trkpt>
      <trkpt lat="44.49713" lon="5.01972">
        <ele>504.83</ele>
        <time>2017-12-17T09:03:58Z</time>
      </trkpt>
      <trkpt lat="44.49718" lon="5.01971">
        <ele>504.83</ele>
        <time>2017-12-17T09:04:04Z</time>
      </trkpt>
      <trkpt lat="44.49728" lon="5.01958">
        <ele>506.75</ele>
        <time>2017-12-17T09:04:16Z</time>
      </trkpt>
      <trkpt lat="44.49727" lon="5.01953">
        <ele>507.23</ele>
        <time>2017-12-17T09:04:21Z</time>
      </trkpt>
      <trkpt lat="44.49722" lon="5.01939">
        <ele>508.67</ele>
        <time>2017-12-17T09:04:32Z</time>
      </trkpt>
      <trkpt lat="44.49722" lon="5.01927">
        <ele>510.12</ele>
        <time>2017-12-17T09:04:42Z</time>
      </trkpt>
      <trkpt lat="44.49721" lon="5.01919">
        <ele>511.08</ele>
        <time>2017-12-17T09:04:48Z</time>
      </trkpt>
      <trkpt lat="44.49722" lon="5.01908">
        <ele>512.52</ele>
        <time>2017-12-17T09:04:57Z</time>
      </trkpt>
      <trkpt lat="44.49722" lon="5.01904">
        <ele>513</ele>
        <time>2017-12-17T09:05:00Z</time>
      </trkpt>
      <trkpt lat="44.49722" lon="5.01901">
        <ele>513.48</ele>
        <time>2017-12-17T09:05:02Z</time>
      </trkpt>
      <trkpt lat="44.49724" lon="5.01901">
        <ele>513</ele>
        <time>2017-12-17T09:05:07Z</time>
      </trkpt>
      <trkpt lat="44.49725" lon="5.01888">
        <ele>513.96</ele>
        <time>2017-12-17T09:05:16Z</time>
      </trkpt>
      <trkpt lat="44.49726" lon="5.01884">
        <ele>514.44</ele>
        <time>2017-12-17T09:05:22Z</time>
      </trkpt>
      <trkpt lat="44.49727" lon="5.01879">
        <ele>514.92</ele>
        <time>2017-12-17T09:05:26Z</time>
      </trkpt>
      <trkpt lat="44.49728" lon="5.0187">
        <ele>515.4</ele>
        <time>2017-12-17T09:05:33Z</time>
      </trkpt>
      <trkpt lat="44.49729" lon="5.01867">
        <ele>515.4</ele>
        <time>2017-12-17T09:05:36Z</time>
      </trkpt>
      <trkpt lat="44.49729" lon="5.01863">
        <ele>515.88</ele>
        <time>2017-12-17T09:05:38Z</time>
      </trkpt>
      <trkpt lat="44.49732" lon="5.01845">
        <ele>516.37</ele>
        <time>2017-12-17T09:05:51Z</time>
      </trkpt>
      <trkpt lat="44.49733" lon="5.01841">
        <ele>516.37</ele>
        <time>2017-12-17T09:05:54Z</time>
      </trkpt>
      <trkpt lat="44.49734" lon="5.01835">
        <ele>516.85</ele>
        <time>2017-12-17T09:05:58Z</time>
      </trkpt>
      <trkpt lat="44.49737" lon="5.01824">
        <ele>517.33</ele>
        <time>2017-12-17T09:06:07Z</time>
      </trkpt>
      <trkpt lat="44.49737" lon="5.01819">
        <ele>517.81</ele>
        <time>2017-12-17T09:06:10Z</time>
      </trkpt>
      <trkpt lat="44.4974" lon="5.0181">
        <ele>518.29</ele>
        <time>2017-12-17T09:06:19Z</time>
      </trkpt>
      <trkpt lat="44.49743" lon="5.01801">
        <ele>519.25</ele>
        <time>2017-12-17T09:06:24Z</time>
      </trkpt>
      <trkpt lat="44.49749" lon="5.01795">
        <ele>519.73</ele>
        <time>2017-12-17T09:06:33Z</time>
      </trkpt>
      <trkpt lat="44.4975" lon="5.01795">
        <ele>519.73</ele>
        <time>2017-12-17T09:06:34Z</time>
      </trkpt>
      <trkpt lat="44.49752" lon="5.01799">
        <ele>519.73</ele>
        <time>2017-12-17T09:06:44Z</time>
      </trkpt>
      <trkpt lat="44.49752" lon="5.01798">
        <ele>520.21</ele>
        <time>2017-12-17T09:06:55Z</time>
      </trkpt>
      <trkpt lat="44.49754" lon="5.01802">
        <ele>520.21</ele>
        <time>2017-12-17T09:07:07Z</time>
      </trkpt>
      <trkpt lat="44.49754" lon="5.01802">
        <ele>520.21</ele>
        <time>2017-12-17T09:07:17Z</time>
      </trkpt>
      <trkpt lat="44.49755" lon="5.01814">
        <ele>520.69</ele>
        <time>2017-12-17T09:07:28Z</time>
      </trkpt>
      <trkpt lat="44.49756" lon="5.01818">
        <ele>521.17</ele>
        <time>2017-12-17T09:07:41Z</time>
      </trkpt>
      <trkpt lat="44.49759" lon="5.01828">
        <ele>521.65</ele>
        <time>2017-12-17T09:07:45Z</time>
      </trkpt>
      <trkpt lat="44.49762" lon="5.0184">
        <ele>523.09</ele>
        <time>2017-12-17T09:07:53Z</time>
      </trkpt>
      <trkpt lat="44.49763" lon="5.01844">
        <ele>523.09</ele>
        <time>2017-12-17T09:07:59Z</time>
      </trkpt>
      <trkpt lat="44.49766" lon="5.0185">
        <ele>523.58</ele>
        <time>2017-12-17T09:08:03Z</time>
      </trkpt>
      <trkpt lat="44.49767" lon="5.01853">
        <ele>524.06</ele>
        <time>2017-12-17T09:08:06Z</time>
      </trkpt>
      <trkpt lat="44.49773" lon="5.01859">
        <ele>525.02</ele>
        <time>2017-12-17T09:08:19Z</time>
      </trkpt>
      <trkpt lat="44.49773" lon="5.01859">
        <ele>525.02</ele>
        <time>2017-12-17T09:08:23Z</time>
      </trkpt>
      <trkpt lat="44.49776" lon="5.0186">
        <ele>524.54</ele>
        <time>2017-12-17T09:08:26Z</time>
      </trkpt>
      <trkpt lat="44.49781" lon="5.0186">
        <ele>525.5</ele>
        <time>2017-12-17T09:08:32Z</time>
      </trkpt>
      <trkpt lat="44.49782" lon="5.0186">
        <ele>525.5</ele>
        <time>2017-12-17T09:08:36Z</time>
      </trkpt>
      <trkpt lat="44.49788" lon="5.01852">
        <ele>526.94</ele>
        <time>2017-12-17T09:08:47Z</time>
      </trkpt>
      <trkpt lat="44.49792" lon="5.01842">
        <ele>527.9</ele>
        <time>2017-12-17T09:08:58Z</time>
      </trkpt>
      <trkpt lat="44.49793" lon="5.01839">
        <ele>528.38</ele>
        <time>2017-12-17T09:09:01Z</time>
      </trkpt>
      <trkpt lat="44.49795" lon="5.01832">
        <ele>528.38</ele>
        <time>2017-12-17T09:09:10Z</time>
      </trkpt>
      <trkpt lat="44.49795" lon="5.01831">
        <ele>528.38</ele>
        <time>2017-12-17T09:09:14Z</time>
      </trkpt>
      <trkpt lat="44.49799" lon="5.01814">
        <ele>529.34</ele>
        <time>2017-12-17T09:09:23Z</time>
      </trkpt>
      <trkpt lat="44.498" lon="5.018">
        <ele>530.79</ele>
        <time>2017-12-17T09:09:33Z</time>
      </trkpt>
      <trkpt lat="44.49799" lon="5.01786">
        <ele>531.75</ele>
        <time>2017-12-17T09:09:44Z</time>
      </trkpt>
      <trkpt lat="44.49798" lon="5.01785">
        <ele>531.75</ele>
        <time>2017-12-17T09:09:46Z</time>
      </trkpt>
      <trkpt lat="44.49798" lon="5.01783">
        <ele>531.75</ele>
        <time>2017-12-17T09:09:48Z</time>
      </trkpt>
      <trkpt lat="44.49795" lon="5.01772">
        <ele>533.19</ele>
        <time>2017-12-17T09:10:00Z</time>
      </trkpt>
      <trkpt lat="44.49794" lon="5.01762">
        <ele>533.67</ele>
        <time>2017-12-17T09:10:07Z</time>
      </trkpt>
      <trkpt lat="44.49794" lon="5.01755">
        <ele>534.15</ele>
        <time>2017-12-17T09:10:13Z</time>
      </trkpt>
      <trkpt lat="44.49792" lon="5.01739">
        <ele>535.59</ele>
        <time>2017-12-17T09:10:26Z</time>
      </trkpt>
      <trkpt lat="44.49796" lon="5.0173">
        <ele>536.07</ele>
        <time>2017-12-17T09:10:36Z</time>
      </trkpt>
      <trkpt lat="44.498" lon="5.01724">
        <ele>537.03</ele>
        <time>2017-12-17T09:10:51Z</time>
      </trkpt>
      <trkpt lat="44.49802" lon="5.01718">
        <ele>537.51</ele>
        <time>2017-12-17T09:10:58Z</time>
      </trkpt>
      <trkpt lat="44.49804" lon="5.01711">
        <ele>537.99</ele>
        <time>2017-12-17T09:11:03Z</time>
      </trkpt>
      <trkpt lat="44.49801" lon="5.01697">
        <ele>538.96</ele>
        <time>2017-12-17T09:11:15Z</time>
      </trkpt>
      <trkpt lat="44.498" lon="5.01696">
        <ele>538.96</ele>
        <time>2017-12-17T09:11:24Z</time>
      </trkpt>
      <trkpt lat="44.49797" lon="5.01682">
        <ele>538.48</ele>
        <time>2017-12-17T09:11:35Z</time>
      </trkpt>
      <trkpt lat="44.49795" lon="5.01678">
        <ele>538.96</ele>
        <time>2017-12-17T09:11:38Z</time>
      </trkpt>
      <trkpt lat="44.49795" lon="5.01665">
        <ele>538.96</ele>
        <time>2017-12-17T09:11:49Z</time>
      </trkpt>
      <trkpt lat="44.49796" lon="5.01657">
        <ele>538.96</ele>
        <time>2017-12-17T09:11:57Z</time>
      </trkpt>
      <trkpt lat="44.49791" lon="5.01632">
        <ele>539.92</ele>
        <time>2017-12-17T09:12:12Z</time>
      </trkpt>
      <trkpt lat="44.4979" lon="5.01627">
        <ele>539.92</ele>
        <time>2017-12-17T09:12:16Z</time>
      </trkpt>
      <trkpt lat="44.49789" lon="5.01618">
        <ele>539.92</ele>
        <time>2017-12-17T09:12:23Z</time>
      </trkpt>
      <trkpt lat="44.49787" lon="5.01614">
        <ele>540.4</ele>
        <time>2017-12-17T09:12:25Z</time>
      </trkpt>
      <trkpt lat="44.49784" lon="5.01602">
        <ele>540.4</ele>
        <time>2017-12-17T09:12:34Z</time>
      </trkpt>
      <trkpt lat="44.49784" lon="5.016">
        <ele>539.92</ele>
        <time>2017-12-17T09:12:39Z</time>
      </trkpt>
      <trkpt lat="44.4978" lon="5.01583">
        <ele>540.4</ele>
        <time>2017-12-17T09:12:51Z</time>
      </trkpt>
      <trkpt lat="44.49778" lon="5.01573">
        <ele>540.4</ele>
        <time>2017-12-17T09:12:59Z</time>
      </trkpt>
      <trkpt lat="44.49777" lon="5.01566">
        <ele>540.88</ele>
        <time>2017-12-17T09:13:03Z</time>
      </trkpt>
      <trkpt lat="44.49778" lon="5.01552">
        <ele>540.88</ele>
        <time>2017-12-17T09:13:16Z</time>
      </trkpt>
      <trkpt lat="44.4978" lon="5.01549">
        <ele>540.4</ele>
        <time>2017-12-17T09:13:22Z</time>
      </trkpt>
      <trkpt lat="44.49786" lon="5.01535">
        <ele>539.44</ele>
        <time>2017-12-17T09:13:36Z</time>
      </trkpt>
      <trkpt lat="44.49789" lon="5.0153">
        <ele>539.44</ele>
        <time>2017-12-17T09:13:43Z</time>
      </trkpt>
      <trkpt lat="44.49789" lon="5.01519">
        <ele>538.48</ele>
        <time>2017-12-17T09:13:51Z</time>
      </trkpt>
      <trkpt lat="44.49786" lon="5.01514">
        <ele>538.48</ele>
        <time>2017-12-17T09:13:55Z</time>
      </trkpt>
      <trkpt lat="44.49776" lon="5.01511">
        <ele>539.92</ele>
        <time>2017-12-17T09:14:07Z</time>
      </trkpt>
      <trkpt lat="44.49772" lon="5.01506">
        <ele>540.4</ele>
        <time>2017-12-17T09:14:20Z</time>
      </trkpt>
      <trkpt lat="44.4977" lon="5.01505">
        <ele>540.4</ele>
        <time>2017-12-17T09:14:22Z</time>
      </trkpt>
      <trkpt lat="44.49766" lon="5.01495">
        <ele>538.96</ele>
        <time>2017-12-17T09:14:30Z</time>
      </trkpt>
      <trkpt lat="44.49763" lon="5.01489">
        <ele>537.99</ele>
        <time>2017-12-17T09:14:36Z</time>
      </trkpt>
      <trkpt lat="44.4976" lon="5.01484">
        <ele>537.51</ele>
        <time>2017-12-17T09:14:40Z</time>
      </trkpt>
      <trkpt lat="44.49749" lon="5.01486">
        <ele>537.51</ele>
        <time>2017-12-17T09:14:51Z</time>
      </trkpt>
      <trkpt lat="44.49746" lon="5.01487">
        <ele>537.51</ele>
        <time>2017-12-17T09:14:53Z</time>
      </trkpt>
      <trkpt lat="44.49737" lon="5.01487">
        <ele>537.51</ele>
        <time>2017-12-17T09:14:58Z</time>
      </trkpt>
      <trkpt lat="44.49731" lon="5.0148">
        <ele>538.48</ele>
        <time>2017-12-17T09:15:09Z</time>
      </trkpt>
      <trkpt lat="44.49726" lon="5.01473">
        <ele>538.48</ele>
        <time>2017-12-17T09:15:15Z</time>
      </trkpt>
      <trkpt lat="44.49722" lon="5.01463">
        <ele>537.99</ele>
        <time>2017-12-17T09:15:27Z</time>
      </trkpt>
      <trkpt lat="44.49713" lon="5.01453">
        <ele>537.99</ele>
        <time>2017-12-17T09:15:38Z</time>
      </trkpt>
      <trkpt lat="44.4971" lon="5.01448">
        <ele>538.48</ele>
        <time>2017-12-17T09:15:41Z</time>
      </trkpt>
      <trkpt lat="44.49707" lon="5.01447">
        <ele>538.48</ele>
        <time>2017-12-17T09:15:43Z</time>
      </trkpt>
      <trkpt lat="44.49701" lon="5.01443">
        <ele>539.92</ele>
        <time>2017-12-17T09:15:49Z</time>
      </trkpt>
      <trkpt lat="44.49691" lon="5.01432">
        <ele>539.92</ele>
        <time>2017-12-17T09:15:59Z</time>
      </trkpt>
      <trkpt lat="44.49687" lon="5.01422">
        <ele>540.88</ele>
        <time>2017-12-17T09:16:09Z</time>
      </trkpt>
      <trkpt lat="44.49687" lon="5.01421">
        <ele>541.36</ele>
        <time>2017-12-17T09:16:13Z</time>
      </trkpt>
      <trkpt lat="44.49685" lon="5.01417">
        <ele>541.84</ele>
        <time>2017-12-17T09:16:16Z</time>
      </trkpt>
      <trkpt lat="44.49683" lon="5.01408">
        <ele>542.32</ele>
        <time>2017-12-17T09:16:25Z</time>
      </trkpt>
      <trkpt lat="44.49683" lon="5.01406">
        <ele>542.32</ele>
        <time>2017-12-17T09:16:36Z</time>
      </trkpt>
      <trkpt lat="44.49682" lon="5.01405">
        <ele>543.28</ele>
        <time>2017-12-17T09:16:49Z</time>
      </trkpt>
      <trkpt lat="44.4968" lon="5.01401">
        <ele>544.24</ele>
        <time>2017-12-17T09:16:57Z</time>
      </trkpt>
      <trkpt lat="44.49678" lon="5.01396">
        <ele>544.72</ele>
        <time>2017-12-17T09:17:08Z</time>
      </trkpt>
      <trkpt lat="44.49677" lon="5.01395">
        <ele>544.72</ele>
        <time>2017-12-17T09:17:10Z</time>
      </trkpt>
      <trkpt lat="44.49676" lon="5.01396">
        <ele>544.72</ele>
        <time>2017-12-17T09:17:13Z</time>
      </trkpt>
      <trkpt lat="44.49673" lon="5.0139">
        <ele>545.2</ele>
        <time>2017-12-17T09:17:23Z</time>
      </trkpt>
      <trkpt lat="44.49673" lon="5.01388">
        <ele>545.2</ele>
        <time>2017-12-17T09:17:24Z</time>
      </trkpt>
      <trkpt lat="44.49669" lon="5.01379">
        <ele>545.69</ele>
        <time>2017-12-17T09:17:37Z</time>
      </trkpt>
      <trkpt lat="44.49668" lon="5.01375">
        <ele>545.69</ele>
        <time>2017-12-17T09:17:45Z</time>
      </trkpt>
      <trkpt lat="44.49664" lon="5.01365">
        <ele>545.69</ele>
        <time>2017-12-17T09:17:56Z</time>
      </trkpt>
      <trkpt lat="44.49661" lon="5.01358">
        <ele>545.2</ele>
        <time>2017-12-17T09:18:04Z</time>
      </trkpt>
      <trkpt lat="44.49656" lon="5.01347">
        <ele>545.2</ele>
        <time>2017-12-17T09:18:13Z</time>
      </trkpt>
      <trkpt lat="44.49655" lon="5.01336">
        <ele>546.17</ele>
        <time>2017-12-17T09:18:22Z</time>
      </trkpt>
      <trkpt lat="44.49649" lon="5.01315">
        <ele>546.65</ele>
        <time>2017-12-17T09:18:32Z</time>
      </trkpt>
      <trkpt lat="44.49648" lon="5.01303">
        <ele>546.65</ele>
        <time>2017-12-17T09:18:45Z</time>
      </trkpt>
      <trkpt lat="44.49648" lon="5.01299">
        <ele>546.65</ele>
        <time>2017-12-17T09:18:49Z</time>
      </trkpt>
      <trkpt lat="44.49652" lon="5.01286">
        <ele>546.65</ele>
        <time>2017-12-17T09:19:01Z</time>
      </trkpt>
      <trkpt lat="44.49657" lon="5.01273">
        <ele>547.61</ele>
        <time>2017-12-17T09:19:12Z</time>
      </trkpt>
      <trkpt lat="44.49657" lon="5.01272">
        <ele>547.61</ele>
        <time>2017-12-17T09:19:13Z</time>
      </trkpt>
      <trkpt lat="44.49661" lon="5.01266">
        <ele>547.61</ele>
        <time>2017-12-17T09:19:19Z</time>
      </trkpt>
      <trkpt lat="44.49665" lon="5.01253">
        <ele>546.65</ele>
        <time>2017-12-17T09:19:29Z</time>
      </trkpt>
      <trkpt lat="44.49665" lon="5.01252">
        <ele>546.65</ele>
        <time>2017-12-17T09:19:30Z</time>
      </trkpt>
      <trkpt lat="44.49662" lon="5.01245">
        <ele>546.65</ele>
        <time>2017-12-17T09:19:38Z</time>
      </trkpt>
      <trkpt lat="44.49648" lon="5.01246">
        <ele>546.65</ele>
        <time>2017-12-17T09:19:49Z</time>
      </trkpt>
      <trkpt lat="44.49642" lon="5.01246">
        <ele>547.61</ele>
        <time>2017-12-17T09:19:55Z</time>
      </trkpt>
      <trkpt lat="44.49633" lon="5.01241">
        <ele>547.13</ele>
        <time>2017-12-17T09:20:06Z</time>
      </trkpt>
      <trkpt lat="44.49633" lon="5.0124">
        <ele>547.13</ele>
        <time>2017-12-17T09:20:07Z</time>
      </trkpt>
      <trkpt lat="44.49627" lon="5.01227">
        <ele>546.17</ele>
        <time>2017-12-17T09:20:19Z</time>
      </trkpt>
      <trkpt lat="44.49627" lon="5.01223">
        <ele>546.17</ele>
        <time>2017-12-17T09:20:24Z</time>
      </trkpt>
      <trkpt lat="44.49629" lon="5.01209">
        <ele>544.72</ele>
        <time>2017-12-17T09:20:35Z</time>
      </trkpt>
      <trkpt lat="44.4963" lon="5.01201">
        <ele>544.24</ele>
        <time>2017-12-17T09:20:40Z</time>
      </trkpt>
      <trkpt lat="44.49631" lon="5.01189">
        <ele>543.76</ele>
        <time>2017-12-17T09:20:52Z</time>
      </trkpt>
      <trkpt lat="44.49631" lon="5.01175">
        <ele>543.76</ele>
        <time>2017-12-17T09:21:02Z</time>
      </trkpt>
      <trkpt lat="44.49631" lon="5.01167">
        <ele>543.76</ele>
        <time>2017-12-17T09:21:07Z</time>
      </trkpt>
      <trkpt lat="44.4963" lon="5.01157">
        <ele>544.24</ele>
        <time>2017-12-17T09:21:14Z</time>
      </trkpt>
      <trkpt lat="44.49631" lon="5.01136">
        <ele>544.72</ele>
        <time>2017-12-17T09:21:24Z</time>
      </trkpt>
      <trkpt lat="44.49631" lon="5.01126">
        <ele>544.72</ele>
        <time>2017-12-17T09:21:35Z</time>
      </trkpt>
      <trkpt lat="44.49631" lon="5.01121">
        <ele>544.24</ele>
        <time>2017-12-17T09:21:38Z</time>
      </trkpt>
      <trkpt lat="44.49632" lon="5.01117">
        <ele>544.24</ele>
        <time>2017-12-17T09:21:40Z</time>
      </trkpt>
      <trkpt lat="44.4963" lon="5.01108">
        <ele>543.28</ele>
        <time>2017-12-17T09:21:45Z</time>
      </trkpt>
      <trkpt lat="44.4963" lon="5.01102">
        <ele>542.8</ele>
        <time>2017-12-17T09:21:52Z</time>
      </trkpt>
      <trkpt lat="44.49633" lon="5.01089">
        <ele>543.28</ele>
        <time>2017-12-17T09:22:00Z</time>
      </trkpt>
      <trkpt lat="44.49633" lon="5.01085">
        <ele>543.28</ele>
        <time>2017-12-17T09:22:03Z</time>
      </trkpt>
      <trkpt lat="44.49634" lon="5.01065">
        <ele>543.28</ele>
        <time>2017-12-17T09:22:17Z</time>
      </trkpt>
      <trkpt lat="44.49634" lon="5.01053">
        <ele>543.28</ele>
        <time>2017-12-17T09:22:22Z</time>
      </trkpt>
      <trkpt lat="44.49635" lon="5.01044">
        <ele>542.8</ele>
        <time>2017-12-17T09:22:32Z</time>
      </trkpt>
      <trkpt lat="44.49637" lon="5.01034">
        <ele>542.8</ele>
        <time>2017-12-17T09:22:37Z</time>
      </trkpt>
      <trkpt lat="44.49637" lon="5.0103">
        <ele>542.8</ele>
        <time>2017-12-17T09:22:39Z</time>
      </trkpt>
      <trkpt lat="44.49638" lon="5.01027">
        <ele>542.8</ele>
        <time>2017-12-17T09:22:47Z</time>
      </trkpt>
      <trkpt lat="44.4964" lon="5.0102">
        <ele>542.8</ele>
        <time>2017-12-17T09:22:53Z</time>
      </trkpt>
      <trkpt lat="44.49645" lon="5.01011">
        <ele>542.8</ele>
        <time>2017-12-17T09:23:00Z</time>
      </trkpt>
      <trkpt lat="44.49648" lon="5.00993">
        <ele>542.8</ele>
        <time>2017-12-17T09:23:09Z</time>
      </trkpt>
      <trkpt lat="44.49646" lon="5.00985">
        <ele>542.8</ele>
        <time>2017-12-17T09:23:22Z</time>
      </trkpt>
      <trkpt lat="44.49646" lon="5.00983">
        <ele>543.28</ele>
        <time>2017-12-17T09:23:30Z</time>
      </trkpt>
      <trkpt lat="44.49646" lon="5.00979">
        <ele>543.76</ele>
        <time>2017-12-17T09:23:32Z</time>
      </trkpt>
      <trkpt lat="44.49645" lon="5.00966">
        <ele>543.28</ele>
        <time>2017-12-17T09:23:37Z</time>
      </trkpt>
      <trkpt lat="44.49645" lon="5.00951">
        <ele>543.76</ele>
        <time>2017-12-17T09:23:49Z</time>
      </trkpt>
      <trkpt lat="44.49645" lon="5.0095">
        <ele>543.76</ele>
        <time>2017-12-17T09:23:50Z</time>
      </trkpt>
      <trkpt lat="44.49645" lon="5.00944">
        <ele>543.76</ele>
        <time>2017-12-17T09:23:57Z</time>
      </trkpt>
      <trkpt lat="44.49644" lon="5.00936">
        <ele>543.76</ele>
        <time>2017-12-17T09:24:08Z</time>
      </trkpt>
      <trkpt lat="44.49642" lon="5.00925">
        <ele>544.24</ele>
        <time>2017-12-17T09:24:20Z</time>
      </trkpt>
      <trkpt lat="44.49642" lon="5.00924">
        <ele>544.24</ele>
        <time>2017-12-17T09:24:21Z</time>
      </trkpt>
      <trkpt lat="44.49637" lon="5.00916">
        <ele>544.72</ele>
        <time>2017-12-17T09:24:31Z</time>
      </trkpt>
      <trkpt lat="44.49629" lon="5.00901">
        <ele>545.69</ele>
        <time>2017-12-17T09:24:44Z</time>
      </trkpt>
      <trkpt lat="44.49627" lon="5.00898">
        <ele>545.69</ele>
        <time>2017-12-17T09:24:47Z</time>
      </trkpt>
      <trkpt lat="44.49625" lon="5.00892">
        <ele>546.65</ele>
        <time>2017-12-17T09:24:55Z</time>
      </trkpt>
      <trkpt lat="44.49625" lon="5.00886">
        <ele>546.65</ele>
        <time>2017-12-17T09:24:59Z</time>
      </trkpt>
      <trkpt lat="44.49625" lon="5.00869">
        <ele>547.13</ele>
        <time>2017-12-17T09:25:12Z</time>
      </trkpt>
      <trkpt lat="44.49626" lon="5.0086">
        <ele>547.61</ele>
        <time>2017-12-17T09:25:20Z</time>
      </trkpt>
      <trkpt lat="44.49628" lon="5.00853">
        <ele>548.57</ele>
        <time>2017-12-17T09:25:27Z</time>
      </trkpt>
      <trkpt lat="44.49629" lon="5.00848">
        <ele>549.05</ele>
        <time>2017-12-17T09:25:31Z</time>
      </trkpt>
      <trkpt lat="44.4963" lon="5.00842">
        <ele>549.05</ele>
        <time>2017-12-17T09:25:36Z</time>
      </trkpt>
      <trkpt lat="44.49631" lon="5.00839">
        <ele>549.53</ele>
        <time>2017-12-17T09:25:38Z</time>
      </trkpt>
      <trkpt lat="44.49632" lon="5.00833">
        <ele>549.53</ele>
        <time>2017-12-17T09:25:44Z</time>
      </trkpt>
      <trkpt lat="44.49634" lon="5.00818">
        <ele>550.49</ele>
        <time>2017-12-17T09:25:55Z</time>
      </trkpt>
      <trkpt lat="44.49635" lon="5.00813">
        <ele>550.97</ele>
        <time>2017-12-17T09:26:02Z</time>
      </trkpt>
      <trkpt lat="44.49635" lon="5.0081">
        <ele>550.49</ele>
        <time>2017-12-17T09:26:08Z</time>
      </trkpt>
      <trkpt lat="44.49639" lon="5.00799">
        <ele>551.45</ele>
        <time>2017-12-17T09:26:19Z</time>
      </trkpt>
      <trkpt lat="44.49641" lon="5.00787">
        <ele>552.41</ele>
        <time>2017-12-17T09:26:28Z</time>
      </trkpt>
      <trkpt lat="44.49641" lon="5.00775">
        <ele>553.38</ele>
        <time>2017-12-17T09:26:42Z</time>
      </trkpt>
      <trkpt lat="44.49642" lon="5.0076">
        <ele>554.82</ele>
        <time>2017-12-17T09:26:54Z</time>
      </trkpt>
      <trkpt lat="44.49642" lon="5.00745">
        <ele>555.3</ele>
        <time>2017-12-17T09:27:07Z</time>
      </trkpt>
      <trkpt lat="44.49642" lon="5.0073">
        <ele>556.26</ele>
        <time>2017-12-17T09:27:20Z</time>
      </trkpt>
      <trkpt lat="44.49641" lon="5.00717">
        <ele>557.22</ele>
        <time>2017-12-17T09:27:32Z</time>
      </trkpt>
      <trkpt lat="44.49642" lon="5.0071">
        <ele>558.18</ele>
        <time>2017-12-17T09:27:38Z</time>
      </trkpt>
      <trkpt lat="44.49643" lon="5.00697">
        <ele>558.66</ele>
        <time>2017-12-17T09:27:45Z</time>
      </trkpt>
      <trkpt lat="44.49643" lon="5.00686">
        <ele>559.14</ele>
        <time>2017-12-17T09:27:55Z</time>
      </trkpt>
      <trkpt lat="44.49644" lon="5.00673">
        <ele>560.11</ele>
        <time>2017-12-17T09:28:04Z</time>
      </trkpt>
      <trkpt lat="44.49642" lon="5.00665">
        <ele>561.07</ele>
        <time>2017-12-17T09:28:17Z</time>
      </trkpt>
      <trkpt lat="44.49642" lon="5.00653">
        <ele>561.55</ele>
        <time>2017-12-17T09:28:28Z</time>
      </trkpt>
      <trkpt lat="44.49637" lon="5.00651">
        <ele>562.03</ele>
        <time>2017-12-17T09:28:37Z</time>
      </trkpt>
      <trkpt lat="44.49637" lon="5.00648">
        <ele>562.03</ele>
        <time>2017-12-17T09:28:45Z</time>
      </trkpt>
      <trkpt lat="44.49637" lon="5.00648">
        <ele>562.03</ele>
        <time>2017-12-17T09:29:04Z</time>
      </trkpt>
      <trkpt lat="44.49637" lon="5.00647">
        <ele>562.03</ele>
        <time>2017-12-17T09:29:35Z</time>
      </trkpt>
      <trkpt lat="44.49636" lon="5.00647">
        <ele>561.55</ele>
        <time>2017-12-17T09:30:01Z</time>
      </trkpt>
      <trkpt lat="44.49636" lon="5.00646">
        <ele>561.55</ele>
        <time>2017-12-17T09:30:24Z</time>
      </trkpt>
      <trkpt lat="44.49636" lon="5.00645">
        <ele>561.55</ele>
        <time>2017-12-17T09:30:53Z</time>
      </trkpt>
      <trkpt lat="44.49635" lon="5.00643">
        <ele>561.55</ele>
        <time>2017-12-17T09:31:23Z</time>
      </trkpt>
      <trkpt lat="44.49635" lon="5.00643">
        <ele>562.03</ele>
        <time>2017-12-17T09:31:49Z</time>
      </trkpt>
      <trkpt lat="44.49636" lon="5.00643">
        <ele>562.03</ele>
        <time>2017-12-17T09:32:16Z</time>
      </trkpt>
      <trkpt lat="44.49635" lon="5.00644">
        <ele>562.03</ele>
        <time>2017-12-17T09:32:46Z</time>
      </trkpt>
      <trkpt lat="44.49635" lon="5.00644">
        <ele>562.03</ele>
        <time>2017-12-17T09:33:18Z</time>
      </trkpt>
      <trkpt lat="44.49635" lon="5.00645">
        <ele>562.51</ele>
        <time>2017-12-17T09:33:48Z</time>
      </trkpt>
      <trkpt lat="44.49635" lon="5.00646">
        <ele>562.03</ele>
        <time>2017-12-17T09:34:16Z</time>
      </trkpt>
      <trkpt lat="44.49634" lon="5.00646">
        <ele>562.51</ele>
        <time>2017-12-17T09:34:42Z</time>
      </trkpt>
      <trkpt lat="44.49635" lon="5.00646">
        <ele>562.51</ele>
        <time>2017-12-17T09:35:12Z</time>
      </trkpt>
      <trkpt lat="44.49635" lon="5.00646">
        <ele>562.51</ele>
        <time>2017-12-17T09:35:40Z</time>
      </trkpt>
      <trkpt lat="44.49635" lon="5.00645">
        <ele>562.51</ele>
        <time>2017-12-17T09:36:09Z</time>
      </trkpt>
      <trkpt lat="44.49636" lon="5.00645">
        <ele>562.51</ele>
        <time>2017-12-17T09:36:35Z</time>
      </trkpt>
      <trkpt lat="44.49635" lon="5.00644">
        <ele>562.51</ele>
        <time>2017-12-17T09:37:07Z</time>
      </trkpt>
      <trkpt lat="44.49634" lon="5.00644">
        <ele>562.03</ele>
        <time>2017-12-17T09:37:36Z</time>
      </trkpt>
      <trkpt lat="44.49634" lon="5.00646">
        <ele>562.51</ele>
        <time>2017-12-17T09:38:05Z</time>
      </trkpt>
      <trkpt lat="44.49634" lon="5.00646">
        <ele>562.51</ele>
        <time>2017-12-17T09:38:31Z</time>
      </trkpt>
      <trkpt lat="44.49635" lon="5.00646">
        <ele>562.51</ele>
        <time>2017-12-17T09:39:07Z</time>
      </trkpt>
      <trkpt lat="44.49636" lon="5.00645">
        <ele>562.03</ele>
        <time>2017-12-17T09:39:35Z</time>
      </trkpt>
      <trkpt lat="44.49636" lon="5.00647">
        <ele>562.51</ele>
        <time>2017-12-17T09:40:08Z</time>
      </trkpt>
      <trkpt lat="44.49636" lon="5.00647">
        <ele>562.03</ele>
        <time>2017-12-17T09:40:31Z</time>
      </trkpt>
      <trkpt lat="44.49636" lon="5.00646">
        <ele>562.51</ele>
        <time>2017-12-17T09:41:02Z</time>
      </trkpt>
      <trkpt lat="44.49636" lon="5.00646">
        <ele>562.51</ele>
        <time>2017-12-17T09:41:38Z</time>
      </trkpt>
      <trkpt lat="44.49637" lon="5.00646">
        <ele>562.51</ele>
        <time>2017-12-17T09:42:02Z</time>
      </trkpt>
      <trkpt lat="44.49637" lon="5.00645">
        <ele>562.51</ele>
        <time>2017-12-17T09:42:33Z</time>
      </trkpt>
      <trkpt lat="44.49636" lon="5.00645">
        <ele>563.47</ele>
        <time>2017-12-17T09:42:43Z</time>
      </trkpt>
      <trkpt lat="44.49637" lon="5.00644">
        <ele>563.47</ele>
        <time>2017-12-17T09:43:02Z</time>
      </trkpt>
      <trkpt lat="44.49633" lon="5.00633">
        <ele>563.95</ele>
        <time>2017-12-17T09:43:14Z</time>
      </trkpt>
      <trkpt lat="44.49622" lon="5.0062">
        <ele>564.43</ele>
        <time>2017-12-17T09:43:27Z</time>
      </trkpt>
      <trkpt lat="44.4962" lon="5.00617">
        <ele>564.91</ele>
        <time>2017-12-17T09:43:33Z</time>
      </trkpt>
      <trkpt lat="44.49617" lon="5.00611">
        <ele>565.39</ele>
        <time>2017-12-17T09:43:39Z</time>
      </trkpt>
      <trkpt lat="44.49611" lon="5.00599">
        <ele>565.87</ele>
        <time>2017-12-17T09:43:51Z</time>
      </trkpt>
      <trkpt lat="44.49608" lon="5.00597">
        <ele>565.87</ele>
        <time>2017-12-17T09:43:54Z</time>
      </trkpt>
      <trkpt lat="44.496" lon="5.00586">
        <ele>565.87</ele>
        <time>2017-12-17T09:44:05Z</time>
      </trkpt>
      <trkpt lat="44.49592" lon="5.00572">
        <ele>565.39</ele>
        <time>2017-12-17T09:44:15Z</time>
      </trkpt>
      <trkpt lat="44.4959" lon="5.00567">
        <ele>564.91</ele>
        <time>2017-12-17T09:44:20Z</time>
      </trkpt>
      <trkpt lat="44.49585" lon="5.0056">
        <ele>563.95</ele>
        <time>2017-12-17T09:44:29Z</time>
      </trkpt>
      <trkpt lat="44.49584" lon="5.00558">
        <ele>563.95</ele>
        <time>2017-12-17T09:44:31Z</time>
      </trkpt>
      <trkpt lat="44.49581" lon="5.00541">
        <ele>563.95</ele>
        <time>2017-12-17T09:44:40Z</time>
      </trkpt>
      <trkpt lat="44.49581" lon="5.00533">
        <ele>563.47</ele>
        <time>2017-12-17T09:44:46Z</time>
      </trkpt>
      <trkpt lat="44.49581" lon="5.00531">
        <ele>562.99</ele>
        <time>2017-12-17T09:44:48Z</time>
      </trkpt>
      <trkpt lat="44.49585" lon="5.00524">
        <ele>562.51</ele>
        <time>2017-12-17T09:44:55Z</time>
      </trkpt>
      <trkpt lat="44.4959" lon="5.00519">
        <ele>562.51</ele>
        <time>2017-12-17T09:44:59Z</time>
      </trkpt>
      <trkpt lat="44.49595" lon="5.00512">
        <ele>562.03</ele>
        <time>2017-12-17T09:45:04Z</time>
      </trkpt>
      <trkpt lat="44.49604" lon="5.00502">
        <ele>562.03</ele>
        <time>2017-12-17T09:45:14Z</time>
      </trkpt>
      <trkpt lat="44.49607" lon="5.00498">
        <ele>562.03</ele>
        <time>2017-12-17T09:45:18Z</time>
      </trkpt>
      <trkpt lat="44.49611" lon="5.00498">
        <ele>562.03</ele>
        <time>2017-12-17T09:45:31Z</time>
      </trkpt>
      <trkpt lat="44.49616" lon="5.00495">
        <ele>561.55</ele>
        <time>2017-12-17T09:45:41Z</time>
      </trkpt>
      <trkpt lat="44.49618" lon="5.00487">
        <ele>562.51</ele>
        <time>2017-12-17T09:45:50Z</time>
      </trkpt>
      <trkpt lat="44.49618" lon="5.00487">
        <ele>562.51</ele>
        <time>2017-12-17T09:45:51Z</time>
      </trkpt>
      <trkpt lat="44.4961" lon="5.00483">
        <ele>562.99</ele>
        <time>2017-12-17T09:45:58Z</time>
      </trkpt>
      <trkpt lat="44.49606" lon="5.00483">
        <ele>563.47</ele>
        <time>2017-12-17T09:46:01Z</time>
      </trkpt>
      <trkpt lat="44.496" lon="5.00479">
        <ele>563.47</ele>
        <time>2017-12-17T09:46:07Z</time>
      </trkpt>
      <trkpt lat="44.49598" lon="5.00476">
        <ele>563.47</ele>
        <time>2017-12-17T09:46:09Z</time>
      </trkpt>
      <trkpt lat="44.49596" lon="5.00474">
        <ele>563.47</ele>
        <time>2017-12-17T09:46:11Z</time>
      </trkpt>
      <trkpt lat="44.49595" lon="5.00465">
        <ele>563.47</ele>
        <time>2017-12-17T09:46:17Z</time>
      </trkpt>
      <trkpt lat="44.49595" lon="5.00455">
        <ele>563.47</ele>
        <time>2017-12-17T09:46:25Z</time>
      </trkpt>
      <trkpt lat="44.49589" lon="5.00441">
        <ele>563.95</ele>
        <time>2017-12-17T09:46:35Z</time>
      </trkpt>
      <trkpt lat="44.49586" lon="5.00434">
        <ele>563.95</ele>
        <time>2017-12-17T09:46:42Z</time>
      </trkpt>
      <trkpt lat="44.49582" lon="5.00424">
        <ele>563.95</ele>
        <time>2017-12-17T09:46:46Z</time>
      </trkpt>
      <trkpt lat="44.4958" lon="5.00413">
        <ele>564.43</ele>
        <time>2017-12-17T09:46:58Z</time>
      </trkpt>
      <trkpt lat="44.49578" lon="5.004">
        <ele>564.91</ele>
        <time>2017-12-17T09:47:10Z</time>
      </trkpt>
      <trkpt lat="44.49575" lon="5.00385">
        <ele>565.87</ele>
        <time>2017-12-17T09:47:21Z</time>
      </trkpt>
      <trkpt lat="44.49576" lon="5.0038">
        <ele>566.35</ele>
        <time>2017-12-17T09:47:24Z</time>
      </trkpt>
      <trkpt lat="44.49578" lon="5.00374">
        <ele>566.35</ele>
        <time>2017-12-17T09:47:29Z</time>
      </trkpt>
      <trkpt lat="44.49588" lon="5.00353">
        <ele>566.35</ele>
        <time>2017-12-17T09:47:41Z</time>
      </trkpt>
      <trkpt lat="44.49596" lon="5.00342">
        <ele>566.35</ele>
        <time>2017-12-17T09:47:53Z</time>
      </trkpt>
      <trkpt lat="44.49599" lon="5.00338">
        <ele>566.35</ele>
        <time>2017-12-17T09:47:57Z</time>
      </trkpt>
      <trkpt lat="44.49606" lon="5.00327">
        <ele>566.83</ele>
        <time>2017-12-17T09:48:08Z</time>
      </trkpt>
      <trkpt lat="44.49609" lon="5.00323">
        <ele>566.83</ele>
        <time>2017-12-17T09:48:12Z</time>
      </trkpt>
      <trkpt lat="44.49611" lon="5.0032">
        <ele>566.35</ele>
        <time>2017-12-17T09:48:15Z</time>
      </trkpt>
      <trkpt lat="44.49616" lon="5.00306">
        <ele>566.35</ele>
        <time>2017-12-17T09:48:24Z</time>
      </trkpt>
      <trkpt lat="44.49616" lon="5.00305">
        <ele>566.35</ele>
        <time>2017-12-17T09:48:35Z</time>
      </trkpt>
      <trkpt lat="44.49609" lon="5.00307">
        <ele>566.35</ele>
        <time>2017-12-17T09:48:45Z</time>
      </trkpt>
      <trkpt lat="44.496" lon="5.00305">
        <ele>567.8</ele>
        <time>2017-12-17T09:48:59Z</time>
      </trkpt>
      <trkpt lat="44.49595" lon="5.00305">
        <ele>568.28</ele>
        <time>2017-12-17T09:49:04Z</time>
      </trkpt>
      <trkpt lat="44.49589" lon="5.00302">
        <ele>569.24</ele>
        <time>2017-12-17T09:49:12Z</time>
      </trkpt>
      <trkpt lat="44.49586" lon="5.00299">
        <ele>570.2</ele>
        <time>2017-12-17T09:49:22Z</time>
      </trkpt>
      <trkpt lat="44.49586" lon="5.00291">
        <ele>571.64</ele>
        <time>2017-12-17T09:49:34Z</time>
      </trkpt>
      <trkpt lat="44.49592" lon="5.00283">
        <ele>572.6</ele>
        <time>2017-12-17T09:49:44Z</time>
      </trkpt>
      <trkpt lat="44.49593" lon="5.00282">
        <ele>573.08</ele>
        <time>2017-12-17T09:49:47Z</time>
      </trkpt>
      <trkpt lat="44.496" lon="5.00277">
        <ele>575.01</ele>
        <time>2017-12-17T09:49:55Z</time>
      </trkpt>
      <trkpt lat="44.49606" lon="5.00275">
        <ele>576.45</ele>
        <time>2017-12-17T09:50:03Z</time>
      </trkpt>
      <trkpt lat="44.49611" lon="5.00271">
        <ele>577.89</ele>
        <time>2017-12-17T09:50:14Z</time>
      </trkpt>
      <trkpt lat="44.49614" lon="5.00269">
        <ele>579.81</ele>
        <time>2017-12-17T09:50:27Z</time>
      </trkpt>
      <trkpt lat="44.49618" lon="5.00262">
        <ele>582.22</ele>
        <time>2017-12-17T09:50:41Z</time>
      </trkpt>
      <trkpt lat="44.49621" lon="5.00254">
        <ele>584.14</ele>
        <time>2017-12-17T09:50:53Z</time>
      </trkpt>
      <trkpt lat="44.49623" lon="5.00248">
        <ele>586.54</ele>
        <time>2017-12-17T09:51:06Z</time>
      </trkpt>
      <trkpt lat="44.49626" lon="5.00242">
        <ele>587.5</ele>
        <time>2017-12-17T09:51:16Z</time>
      </trkpt>
      <trkpt lat="44.49632" lon="5.00239">
        <ele>588.95</ele>
        <time>2017-12-17T09:51:29Z</time>
      </trkpt>
      <trkpt lat="44.49636" lon="5.00234">
        <ele>590.39</ele>
        <time>2017-12-17T09:51:39Z</time>
      </trkpt>
      <trkpt lat="44.49633" lon="5.00222">
        <ele>591.35</ele>
        <time>2017-12-17T09:51:49Z</time>
      </trkpt>
      <trkpt lat="44.49631" lon="5.00218">
        <ele>592.79</ele>
        <time>2017-12-17T09:51:55Z</time>
      </trkpt>
      <trkpt lat="44.49626" lon="5.00213">
        <ele>594.23</ele>
        <time>2017-12-17T09:52:05Z</time>
      </trkpt>
      <trkpt lat="44.49623" lon="5.00206">
        <ele>595.67</ele>
        <time>2017-12-17T09:52:16Z</time>
      </trkpt>
      <trkpt lat="44.49619" lon="5.002">
        <ele>597.12</ele>
        <time>2017-12-17T09:52:27Z</time>
      </trkpt>
      <trkpt lat="44.49613" lon="5.00193">
        <ele>599.04</ele>
        <time>2017-12-17T09:52:38Z</time>
      </trkpt>
      <trkpt lat="44.49611" lon="5.00188">
        <ele>600.48</ele>
        <time>2017-12-17T09:52:51Z</time>
      </trkpt>
      <trkpt lat="44.49602" lon="5.00181">
        <ele>603.85</ele>
        <time>2017-12-17T09:53:05Z</time>
      </trkpt>
      <trkpt lat="44.49594" lon="5.00175">
        <ele>605.77</ele>
        <time>2017-12-17T09:53:19Z</time>
      </trkpt>
      <trkpt lat="44.49588" lon="5.0017">
        <ele>607.21</ele>
        <time>2017-12-17T09:53:26Z</time>
      </trkpt>
      <trkpt lat="44.4958" lon="5.00162">
        <ele>609.13</ele>
        <time>2017-12-17T09:53:37Z</time>
      </trkpt>
      <trkpt lat="44.49575" lon="5.00154">
        <ele>611.06</ele>
        <time>2017-12-17T09:53:46Z</time>
      </trkpt>
      <trkpt lat="44.49572" lon="5.00152">
        <ele>612.98</ele>
        <time>2017-12-17T09:53:57Z</time>
      </trkpt>
      <trkpt lat="44.49567" lon="5.00149">
        <ele>614.9</ele>
        <time>2017-12-17T09:54:10Z</time>
      </trkpt>
      <trkpt lat="44.49559" lon="5.00145">
        <ele>616.34</ele>
        <time>2017-12-17T09:54:21Z</time>
      </trkpt>
      <trkpt lat="44.49551" lon="5.00143">
        <ele>617.3</ele>
        <time>2017-12-17T09:54:32Z</time>
      </trkpt>
      <trkpt lat="44.49542" lon="5.00139">
        <ele>619.23</ele>
        <time>2017-12-17T09:54:44Z</time>
      </trkpt>
      <trkpt lat="44.49534" lon="5.00133">
        <ele>622.11</ele>
        <time>2017-12-17T09:54:57Z</time>
      </trkpt>
      <trkpt lat="44.49528" lon="5.00131">
        <ele>623.55</ele>
        <time>2017-12-17T09:55:08Z</time>
      </trkpt>
      <trkpt lat="44.49523" lon="5.0013">
        <ele>624.99</ele>
        <time>2017-12-17T09:55:20Z</time>
      </trkpt>
      <trkpt lat="44.49516" lon="5.00123">
        <ele>624.99</ele>
        <time>2017-12-17T09:55:33Z</time>
      </trkpt>
      <trkpt lat="44.49508" lon="5.00119">
        <ele>626.44</ele>
        <time>2017-12-17T09:55:42Z</time>
      </trkpt>
      <trkpt lat="44.49499" lon="5.00114">
        <ele>627.4</ele>
        <time>2017-12-17T09:55:51Z</time>
      </trkpt>
      <trkpt lat="44.49494" lon="5.00107">
        <ele>628.36</ele>
        <time>2017-12-17T09:56:01Z</time>
      </trkpt>
      <trkpt lat="44.4949" lon="5.00106">
        <ele>630.28</ele>
        <time>2017-12-17T09:56:10Z</time>
      </trkpt>
      <trkpt lat="44.49489" lon="5.00104">
        <ele>630.76</ele>
        <time>2017-12-17T09:56:23Z</time>
      </trkpt>
      <trkpt lat="44.49484" lon="5.00101">
        <ele>631.72</ele>
        <time>2017-12-17T09:56:36Z</time>
      </trkpt>
      <trkpt lat="44.49479" lon="5.00102">
        <ele>632.68</ele>
        <time>2017-12-17T09:56:50Z</time>
      </trkpt>
      <trkpt lat="44.49472" lon="5.00106">
        <ele>633.65</ele>
        <time>2017-12-17T09:56:56Z</time>
      </trkpt>
      <trkpt lat="44.49467" lon="5.00106">
        <ele>634.61</ele>
        <time>2017-12-17T09:57:05Z</time>
      </trkpt>
      <trkpt lat="44.49463" lon="5.00102">
        <ele>637.01</ele>
        <time>2017-12-17T09:57:17Z</time>
      </trkpt>
      <trkpt lat="44.49458" lon="5.00101">
        <ele>638.93</ele>
        <time>2017-12-17T09:57:30Z</time>
      </trkpt>
      <trkpt lat="44.49453" lon="5.00098">
        <ele>639.89</ele>
        <time>2017-12-17T09:57:38Z</time>
      </trkpt>
      <trkpt lat="44.49445" lon="5.00096">
        <ele>640.86</ele>
        <time>2017-12-17T09:57:46Z</time>
      </trkpt>
      <trkpt lat="44.49444" lon="5.00097">
        <ele>641.34</ele>
        <time>2017-12-17T09:57:48Z</time>
      </trkpt>
      <trkpt lat="44.49433" lon="5.00094">
        <ele>642.78</ele>
        <time>2017-12-17T09:57:56Z</time>
      </trkpt>
      <trkpt lat="44.49427" lon="5.00092">
        <ele>644.7</ele>
        <time>2017-12-17T09:58:06Z</time>
      </trkpt>
      <trkpt lat="44.49424" lon="5.0009">
        <ele>645.66</ele>
        <time>2017-12-17T09:58:15Z</time>
      </trkpt>
      <trkpt lat="44.49424" lon="5.0009">
        <ele>646.62</ele>
        <time>2017-12-17T09:58:22Z</time>
      </trkpt>
      <trkpt lat="44.49417" lon="5.00088">
        <ele>649.03</ele>
        <time>2017-12-17T09:58:32Z</time>
      </trkpt>
      <trkpt lat="44.49416" lon="5.00088">
        <ele>649.03</ele>
        <time>2017-12-17T09:58:33Z</time>
      </trkpt>
      <trkpt lat="44.49409" lon="5.00084">
        <ele>651.43</ele>
        <time>2017-12-17T09:58:44Z</time>
      </trkpt>
      <trkpt lat="44.49408" lon="5.00082">
        <ele>652.39</ele>
        <time>2017-12-17T09:58:57Z</time>
      </trkpt>
      <trkpt lat="44.49403" lon="5.0008">
        <ele>653.83</ele>
        <time>2017-12-17T09:59:06Z</time>
      </trkpt>
      <trkpt lat="44.49397" lon="5.00078">
        <ele>655.28</ele>
        <time>2017-12-17T09:59:15Z</time>
      </trkpt>
      <trkpt lat="44.49391" lon="5.00075">
        <ele>657.2</ele>
        <time>2017-12-17T09:59:25Z</time>
      </trkpt>
      <trkpt lat="44.49388" lon="5.00074">
        <ele>658.16</ele>
        <time>2017-12-17T09:59:29Z</time>
      </trkpt>
      <trkpt lat="44.49383" lon="5.00074">
        <ele>659.12</ele>
        <time>2017-12-17T09:59:37Z</time>
      </trkpt>
      <trkpt lat="44.49377" lon="5.00073">
        <ele>660.56</ele>
        <time>2017-12-17T09:59:45Z</time>
      </trkpt>
      <trkpt lat="44.49375" lon="5.00073">
        <ele>661.52</ele>
        <time>2017-12-17T09:59:48Z</time>
      </trkpt>
      <trkpt lat="44.49367" lon="5.00072">
        <ele>662.97</ele>
        <time>2017-12-17T10:00:01Z</time>
      </trkpt>
      <trkpt lat="44.49366" lon="5.00072">
        <ele>663.45</ele>
        <time>2017-12-17T10:00:14Z</time>
      </trkpt>
      <trkpt lat="44.49366" lon="5.00071">
        <ele>662.97</ele>
        <time>2017-12-17T10:00:27Z</time>
      </trkpt>
      <trkpt lat="44.49366" lon="5.00071">
        <ele>662.97</ele>
        <time>2017-12-17T10:00:44Z</time>
      </trkpt>
      <trkpt lat="44.49366" lon="5.00071">
        <ele>662.97</ele>
        <time>2017-12-17T10:00:51Z</time>
      </trkpt>
      <trkpt lat="44.49366" lon="5.00073">
        <ele>662.97</ele>
        <time>2017-12-17T10:01:03Z</time>
      </trkpt>
      <trkpt lat="44.49364" lon="5.00072">
        <ele>662.97</ele>
        <time>2017-12-17T10:01:29Z</time>
      </trkpt>
      <trkpt lat="44.49364" lon="5.00072">
        <ele>662.97</ele>
        <time>2017-12-17T10:01:50Z</time>
      </trkpt>
      <trkpt lat="44.49364" lon="5.00071">
        <ele>663.45</ele>
        <time>2017-12-17T10:02:15Z</time>
      </trkpt>
      <trkpt lat="44.49364" lon="5.00071">
        <ele>662.97</ele>
        <time>2017-12-17T10:02:28Z</time>
      </trkpt>
      <trkpt lat="44.49364" lon="5.00071">
        <ele>662.97</ele>
        <time>2017-12-17T10:02:45Z</time>
      </trkpt>
      <trkpt lat="44.49364" lon="5.00071">
        <ele>662.97</ele>
        <time>2017-12-17T10:03:07Z</time>
      </trkpt>
      <trkpt lat="44.49364" lon="5.0007">
        <ele>662.97</ele>
        <time>2017-12-17T10:03:19Z</time>
      </trkpt>
      <trkpt lat="44.49363" lon="5.0007">
        <ele>662.97</ele>
        <time>2017-12-17T10:03:23Z</time>
      </trkpt>
      <trkpt lat="44.4936" lon="5.00074">
        <ele>661.52</ele>
        <time>2017-12-17T10:03:34Z</time>
      </trkpt>
      <trkpt lat="44.49355" lon="5.00078">
        <ele>660.56</ele>
        <time>2017-12-17T10:03:45Z</time>
      </trkpt>
      <trkpt lat="44.49352" lon="5.00079">
        <ele>659.12</ele>
        <time>2017-12-17T10:03:57Z</time>
      </trkpt>
      <trkpt lat="44.4935" lon="5.00081">
        <ele>658.16</ele>
        <time>2017-12-17T10:04:11Z</time>
      </trkpt>
      <trkpt lat="44.49342" lon="5.00092">
        <ele>656.24</ele>
        <time>2017-12-17T10:04:23Z</time>
      </trkpt>
      <trkpt lat="44.49341" lon="5.00093">
        <ele>655.76</ele>
        <time>2017-12-17T10:04:24Z</time>
      </trkpt>
      <trkpt lat="44.49338" lon="5.00095">
        <ele>655.76</ele>
        <time>2017-12-17T10:04:26Z</time>
      </trkpt>
      <trkpt lat="44.49331" lon="5.00103">
        <ele>654.8</ele>
        <time>2017-12-17T10:04:37Z</time>
      </trkpt>
      <trkpt lat="44.4933" lon="5.00104">
        <ele>654.8</ele>
        <time>2017-12-17T10:04:48Z</time>
      </trkpt>
      <trkpt lat="44.49325" lon="5.00105">
        <ele>654.31</ele>
        <time>2017-12-17T10:04:51Z</time>
      </trkpt>
      <trkpt lat="44.4932" lon="5.0011">
        <ele>653.35</ele>
        <time>2017-12-17T10:05:02Z</time>
      </trkpt>
      <trkpt lat="44.49318" lon="5.00113">
        <ele>651.91</ele>
        <time>2017-12-17T10:05:18Z</time>
      </trkpt>
      <trkpt lat="44.49317" lon="5.00115">
        <ele>652.39</ele>
        <time>2017-12-17T10:05:22Z</time>
      </trkpt>
      <trkpt lat="44.49308" lon="5.00124">
        <ele>650.95</ele>
        <time>2017-12-17T10:05:31Z</time>
      </trkpt>
      <trkpt lat="44.493" lon="5.00134">
        <ele>650.95</ele>
        <time>2017-12-17T10:05:40Z</time>
      </trkpt>
      <trkpt lat="44.49293" lon="5.00141">
        <ele>650.95</ele>
        <time>2017-12-17T10:05:47Z</time>
      </trkpt>
      <trkpt lat="44.49292" lon="5.00142">
        <ele>650.47</ele>
        <time>2017-12-17T10:05:50Z</time>
      </trkpt>
      <trkpt lat="44.49289" lon="5.00145">
        <ele>650.47</ele>
        <time>2017-12-17T10:05:52Z</time>
      </trkpt>
      <trkpt lat="44.49285" lon="5.00147">
        <ele>650.47</ele>
        <time>2017-12-17T10:05:55Z</time>
      </trkpt>
      <trkpt lat="44.49283" lon="5.00149">
        <ele>650.47</ele>
        <time>2017-12-17T10:06:02Z</time>
      </trkpt>
      <trkpt lat="44.4928" lon="5.00152">
        <ele>650.47</ele>
        <time>2017-12-17T10:06:07Z</time>
      </trkpt>
      <trkpt lat="44.49275" lon="5.00155">
        <ele>650.47</ele>
        <time>2017-12-17T10:06:17Z</time>
      </trkpt>
      <trkpt lat="44.4927" lon="5.00158">
        <ele>649.99</ele>
        <time>2017-12-17T10:06:23Z</time>
      </trkpt>
      <trkpt lat="44.49264" lon="5.0016">
        <ele>649.99</ele>
        <time>2017-12-17T10:06:34Z</time>
      </trkpt>
      <trkpt lat="44.49258" lon="5.00165">
        <ele>649.99</ele>
        <time>2017-12-17T10:06:43Z</time>
      </trkpt>
      <trkpt lat="44.49248" lon="5.00173">
        <ele>649.51</ele>
        <time>2017-12-17T10:06:55Z</time>
      </trkpt>
      <trkpt lat="44.4924" lon="5.0018">
        <ele>649.03</ele>
        <time>2017-12-17T10:07:06Z</time>
      </trkpt>
      <trkpt lat="44.49239" lon="5.00182">
        <ele>649.03</ele>
        <time>2017-12-17T10:07:07Z</time>
      </trkpt>
      <trkpt lat="44.49236" lon="5.00184">
        <ele>649.03</ele>
        <time>2017-12-17T10:07:16Z</time>
      </trkpt>
      <trkpt lat="44.4923" lon="5.00187">
        <ele>649.03</ele>
        <time>2017-12-17T10:07:27Z</time>
      </trkpt>
      <trkpt lat="44.49229" lon="5.00187">
        <ele>649.03</ele>
        <time>2017-12-17T10:07:30Z</time>
      </trkpt>
      <trkpt lat="44.49224" lon="5.00189">
        <ele>648.55</ele>
        <time>2017-12-17T10:07:40Z</time>
      </trkpt>
      <trkpt lat="44.49219" lon="5.00193">
        <ele>649.03</ele>
        <time>2017-12-17T10:07:49Z</time>
      </trkpt>
      <trkpt lat="44.49208" lon="5.00203">
        <ele>648.55</ele>
        <time>2017-12-17T10:07:57Z</time>
      </trkpt>
      <trkpt lat="44.49195" lon="5.00213">
        <ele>648.55</ele>
        <time>2017-12-17T10:08:10Z</time>
      </trkpt>
      <trkpt lat="44.49194" lon="5.00214">
        <ele>648.55</ele>
        <time>2017-12-17T10:08:15Z</time>
      </trkpt>
      <trkpt lat="44.49183" lon="5.00224">
        <ele>648.55</ele>
        <time>2017-12-17T10:08:27Z</time>
      </trkpt>
      <trkpt lat="44.49175" lon="5.00228">
        <ele>649.99</ele>
        <time>2017-12-17T10:08:39Z</time>
      </trkpt>
      <trkpt lat="44.49165" lon="5.0023">
        <ele>649.99</ele>
        <time>2017-12-17T10:08:48Z</time>
      </trkpt>
      <trkpt lat="44.49157" lon="5.00234">
        <ele>649.03</ele>
        <time>2017-12-17T10:09:01Z</time>
      </trkpt>
      <trkpt lat="44.49154" lon="5.00236">
        <ele>648.55</ele>
        <time>2017-12-17T10:09:08Z</time>
      </trkpt>
      <trkpt lat="44.49146" lon="5.00242">
        <ele>648.55</ele>
        <time>2017-12-17T10:09:13Z</time>
      </trkpt>
      <trkpt lat="44.4914" lon="5.00246">
        <ele>648.55</ele>
        <time>2017-12-17T10:09:25Z</time>
      </trkpt>
      <trkpt lat="44.49133" lon="5.00249">
        <ele>649.03</ele>
        <time>2017-12-17T10:09:35Z</time>
      </trkpt>
      <trkpt lat="44.49126" lon="5.00251">
        <ele>648.55</ele>
        <time>2017-12-17T10:09:43Z</time>
      </trkpt>
      <trkpt lat="44.4912" lon="5.00253">
        <ele>648.55</ele>
        <time>2017-12-17T10:09:48Z</time>
      </trkpt>
      <trkpt lat="44.49111" lon="5.00258">
        <ele>649.03</ele>
        <time>2017-12-17T10:09:55Z</time>
      </trkpt>
      <trkpt lat="44.49102" lon="5.00264">
        <ele>649.03</ele>
        <time>2017-12-17T10:10:05Z</time>
      </trkpt>
      <trkpt lat="44.49098" lon="5.00264">
        <ele>647.59</ele>
        <time>2017-12-17T10:10:14Z</time>
      </trkpt>
      <trkpt lat="44.49087" lon="5.00275">
        <ele>646.62</ele>
        <time>2017-12-17T10:10:25Z</time>
      </trkpt>
      <trkpt lat="44.49085" lon="5.00278">
        <ele>646.14</ele>
        <time>2017-12-17T10:10:30Z</time>
      </trkpt>
      <trkpt lat="44.4907" lon="5.0029">
        <ele>646.14</ele>
        <time>2017-12-17T10:10:44Z</time>
      </trkpt>
      <trkpt lat="44.49063" lon="5.00294">
        <ele>646.14</ele>
        <time>2017-12-17T10:10:56Z</time>
      </trkpt>
      <trkpt lat="44.49061" lon="5.00295">
        <ele>646.62</ele>
        <time>2017-12-17T10:11:00Z</time>
      </trkpt>
      <trkpt lat="44.49053" lon="5.00298">
        <ele>648.07</ele>
        <time>2017-12-17T10:11:10Z</time>
      </trkpt>
      <trkpt lat="44.49048" lon="5.00301">
        <ele>649.03</ele>
        <time>2017-12-17T10:11:18Z</time>
      </trkpt>
      <trkpt lat="44.49044" lon="5.00305">
        <ele>649.99</ele>
        <time>2017-12-17T10:11:23Z</time>
      </trkpt>
      <trkpt lat="44.4904" lon="5.00308">
        <ele>651.43</ele>
        <time>2017-12-17T10:11:32Z</time>
      </trkpt>
      <trkpt lat="44.49037" lon="5.00309">
        <ele>651.43</ele>
        <time>2017-12-17T10:11:42Z</time>
      </trkpt>
      <trkpt lat="44.49033" lon="5.00314">
        <ele>651.91</ele>
        <time>2017-12-17T10:11:50Z</time>
      </trkpt>
      <trkpt lat="44.49025" lon="5.00319">
        <ele>652.39</ele>
        <time>2017-12-17T10:12:01Z</time>
      </trkpt>
      <trkpt lat="44.49014" lon="5.00324">
        <ele>652.87</ele>
        <time>2017-12-17T10:12:13Z</time>
      </trkpt>
      <trkpt lat="44.49005" lon="5.0033">
        <ele>652.39</ele>
        <time>2017-12-17T10:12:22Z</time>
      </trkpt>
      <trkpt lat="44.48999" lon="5.00334">
        <ele>652.39</ele>
        <time>2017-12-17T10:12:25Z</time>
      </trkpt>
      <trkpt lat="44.48992" lon="5.0034">
        <ele>652.39</ele>
        <time>2017-12-17T10:12:32Z</time>
      </trkpt>
      <trkpt lat="44.48986" lon="5.00344">
        <ele>653.83</ele>
        <time>2017-12-17T10:12:44Z</time>
      </trkpt>
      <trkpt lat="44.48982" lon="5.00344">
        <ele>655.76</ele>
        <time>2017-12-17T10:12:56Z</time>
      </trkpt>
      <trkpt lat="44.48977" lon="5.00345">
        <ele>656.24</ele>
        <time>2017-12-17T10:13:06Z</time>
      </trkpt>
      <trkpt lat="44.48963" lon="5.00353">
        <ele>656.72</ele>
        <time>2017-12-17T10:13:18Z</time>
      </trkpt>
      <trkpt lat="44.48958" lon="5.00356">
        <ele>656.24</ele>
        <time>2017-12-17T10:13:26Z</time>
      </trkpt>
      <trkpt lat="44.48951" lon="5.00361">
        <ele>655.28</ele>
        <time>2017-12-17T10:13:32Z</time>
      </trkpt>
      <trkpt lat="44.48945" lon="5.00365">
        <ele>654.8</ele>
        <time>2017-12-17T10:13:43Z</time>
      </trkpt>
      <trkpt lat="44.48942" lon="5.00366">
        <ele>655.76</ele>
        <time>2017-12-17T10:13:56Z</time>
      </trkpt>
      <trkpt lat="44.48935" lon="5.0037">
        <ele>655.76</ele>
        <time>2017-12-17T10:14:05Z</time>
      </trkpt>
      <trkpt lat="44.48923" lon="5.00379">
        <ele>655.76</ele>
        <time>2017-12-17T10:14:15Z</time>
      </trkpt>
      <trkpt lat="44.4892" lon="5.0038">
        <ele>655.76</ele>
        <time>2017-12-17T10:14:16Z</time>
      </trkpt>
      <trkpt lat="44.48911" lon="5.00388">
        <ele>656.72</ele>
        <time>2017-12-17T10:14:26Z</time>
      </trkpt>
      <trkpt lat="44.48903" lon="5.00391">
        <ele>656.24</ele>
        <time>2017-12-17T10:14:39Z</time>
      </trkpt>
      <trkpt lat="44.48896" lon="5.00396">
        <ele>655.76</ele>
        <time>2017-12-17T10:14:48Z</time>
      </trkpt>
      <trkpt lat="44.48887" lon="5.004">
        <ele>655.28</ele>
        <time>2017-12-17T10:14:58Z</time>
      </trkpt>
      <trkpt lat="44.48881" lon="5.00402">
        <ele>655.76</ele>
        <time>2017-12-17T10:15:09Z</time>
      </trkpt>
      <trkpt lat="44.48874" lon="5.00406">
        <ele>656.24</ele>
        <time>2017-12-17T10:15:21Z</time>
      </trkpt>
      <trkpt lat="44.48872" lon="5.00407">
        <ele>656.24</ele>
        <time>2017-12-17T10:15:25Z</time>
      </trkpt>
      <trkpt lat="44.48869" lon="5.00409">
        <ele>656.24</ele>
        <time>2017-12-17T10:15:28Z</time>
      </trkpt>
      <trkpt lat="44.4886" lon="5.00413">
        <ele>656.24</ele>
        <time>2017-12-17T10:15:38Z</time>
      </trkpt>
      <trkpt lat="44.48857" lon="5.00414">
        <ele>656.72</ele>
        <time>2017-12-17T10:15:41Z</time>
      </trkpt>
      <trkpt lat="44.48852" lon="5.00417">
        <ele>656.24</ele>
        <time>2017-12-17T10:15:44Z</time>
      </trkpt>
      <trkpt lat="44.48847" lon="5.00421">
        <ele>656.72</ele>
        <time>2017-12-17T10:15:52Z</time>
      </trkpt>
      <trkpt lat="44.48838" lon="5.00427">
        <ele>656.72</ele>
        <time>2017-12-17T10:16:02Z</time>
      </trkpt>
      <trkpt lat="44.48833" lon="5.00432">
        <ele>656.24</ele>
        <time>2017-12-17T10:16:17Z</time>
      </trkpt>
      <trkpt lat="44.48833" lon="5.00434">
        <ele>656.24</ele>
        <time>2017-12-17T10:16:28Z</time>
      </trkpt>
      <trkpt lat="44.48833" lon="5.00434">
        <ele>656.24</ele>
        <time>2017-12-17T10:16:44Z</time>
      </trkpt>
      <trkpt lat="44.48833" lon="5.00436">
        <ele>656.24</ele>
        <time>2017-12-17T10:17:00Z</time>
      </trkpt>
      <trkpt lat="44.48833" lon="5.00437">
        <ele>655.76</ele>
        <time>2017-12-17T10:17:17Z</time>
      </trkpt>
      <trkpt lat="44.48833" lon="5.00438">
        <ele>656.24</ele>
        <time>2017-12-17T10:17:33Z</time>
      </trkpt>
      <trkpt lat="44.48833" lon="5.00438">
        <ele>656.24</ele>
        <time>2017-12-17T10:17:42Z</time>
      </trkpt>
      <trkpt lat="44.48831" lon="5.0044">
        <ele>656.24</ele>
        <time>2017-12-17T10:17:45Z</time>
      </trkpt>
      <trkpt lat="44.48825" lon="5.00445">
        <ele>656.72</ele>
        <time>2017-12-17T10:17:53Z</time>
      </trkpt>
      <trkpt lat="44.48819" lon="5.00451">
        <ele>657.2</ele>
        <time>2017-12-17T10:18:05Z</time>
      </trkpt>
      <trkpt lat="44.48818" lon="5.00452">
        <ele>657.2</ele>
        <time>2017-12-17T10:18:24Z</time>
      </trkpt>
      <trkpt lat="44.48818" lon="5.00453">
        <ele>657.2</ele>
        <time>2017-12-17T10:18:39Z</time>
      </trkpt>
      <trkpt lat="44.48818" lon="5.00454">
        <ele>657.2</ele>
        <time>2017-12-17T10:18:40Z</time>
      </trkpt>
      <trkpt lat="44.48808" lon="5.00461">
        <ele>657.68</ele>
        <time>2017-12-17T10:18:52Z</time>
      </trkpt>
      <trkpt lat="44.48808" lon="5.00461">
        <ele>658.16</ele>
        <time>2017-12-17T10:18:53Z</time>
      </trkpt>
      <trkpt lat="44.48796" lon="5.00469">
        <ele>658.16</ele>
        <time>2017-12-17T10:19:05Z</time>
      </trkpt>
      <trkpt lat="44.48788" lon="5.00476">
        <ele>658.64</ele>
        <time>2017-12-17T10:19:15Z</time>
      </trkpt>
      <trkpt lat="44.48784" lon="5.00481">
        <ele>658.16</ele>
        <time>2017-12-17T10:19:19Z</time>
      </trkpt>
      <trkpt lat="44.48777" lon="5.00488">
        <ele>658.64</ele>
        <time>2017-12-17T10:19:31Z</time>
      </trkpt>
      <trkpt lat="44.48774" lon="5.0049">
        <ele>659.12</ele>
        <time>2017-12-17T10:19:37Z</time>
      </trkpt>
      <trkpt lat="44.48771" lon="5.00492">
        <ele>659.12</ele>
        <time>2017-12-17T10:19:39Z</time>
      </trkpt>
      <trkpt lat="44.48768" lon="5.00494">
        <ele>658.64</ele>
        <time>2017-12-17T10:19:45Z</time>
      </trkpt>
      <trkpt lat="44.48765" lon="5.005">
        <ele>658.64</ele>
        <time>2017-12-17T10:19:48Z</time>
      </trkpt>
      <trkpt lat="44.48762" lon="5.00504">
        <ele>658.16</ele>
        <time>2017-12-17T10:19:51Z</time>
      </trkpt>
      <trkpt lat="44.48756" lon="5.00507">
        <ele>658.16</ele>
        <time>2017-12-17T10:20:00Z</time>
      </trkpt>
      <trkpt lat="44.48747" lon="5.00516">
        <ele>658.16</ele>
        <time>2017-12-17T10:20:09Z</time>
      </trkpt>
      <trkpt lat="44.48741" lon="5.00519">
        <ele>658.16</ele>
        <time>2017-12-17T10:20:14Z</time>
      </trkpt>
      <trkpt lat="44.48736" lon="5.00522">
        <ele>658.64</ele>
        <time>2017-12-17T10:20:18Z</time>
      </trkpt>
      <trkpt lat="44.48731" lon="5.00527">
        <ele>658.16</ele>
        <time>2017-12-17T10:20:26Z</time>
      </trkpt>
      <trkpt lat="44.48723" lon="5.00534">
        <ele>658.64</ele>
        <time>2017-12-17T10:20:34Z</time>
      </trkpt>
      <trkpt lat="44.48714" lon="5.00536">
        <ele>659.6</ele>
        <time>2017-12-17T10:20:47Z</time>
      </trkpt>
      <trkpt lat="44.48707" lon="5.0054">
        <ele>659.6</ele>
        <time>2017-12-17T10:21:01Z</time>
      </trkpt>
      <trkpt lat="44.48697" lon="5.00545">
        <ele>660.08</ele>
        <time>2017-12-17T10:21:12Z</time>
      </trkpt>
      <trkpt lat="44.48687" lon="5.00543">
        <ele>660.56</ele>
        <time>2017-12-17T10:21:23Z</time>
      </trkpt>
      <trkpt lat="44.48686" lon="5.00543">
        <ele>661.04</ele>
        <time>2017-12-17T10:21:37Z</time>
      </trkpt>
      <trkpt lat="44.48683" lon="5.00544">
        <ele>660.56</ele>
        <time>2017-12-17T10:21:53Z</time>
      </trkpt>
      <trkpt lat="44.48679" lon="5.00545">
        <ele>660.08</ele>
        <time>2017-12-17T10:21:56Z</time>
      </trkpt>
      <trkpt lat="44.48668" lon="5.00553">
        <ele>660.08</ele>
        <time>2017-12-17T10:22:02Z</time>
      </trkpt>
      <trkpt lat="44.48663" lon="5.00554">
        <ele>660.08</ele>
        <time>2017-12-17T10:22:10Z</time>
      </trkpt>
      <trkpt lat="44.48653" lon="5.00559">
        <ele>659.6</ele>
        <time>2017-12-17T10:22:22Z</time>
      </trkpt>
      <trkpt lat="44.48641" lon="5.0056">
        <ele>660.08</ele>
        <time>2017-12-17T10:22:33Z</time>
      </trkpt>
      <trkpt lat="44.4864" lon="5.00561">
        <ele>660.08</ele>
        <time>2017-12-17T10:22:34Z</time>
      </trkpt>
      <trkpt lat="44.48628" lon="5.00563">
        <ele>660.56</ele>
        <time>2017-12-17T10:22:47Z</time>
      </trkpt>
      <trkpt lat="44.4862" lon="5.00568">
        <ele>660.08</ele>
        <time>2017-12-17T10:22:54Z</time>
      </trkpt>
      <trkpt lat="44.48612" lon="5.00568">
        <ele>660.56</ele>
        <time>2017-12-17T10:23:02Z</time>
      </trkpt>
      <trkpt lat="44.486" lon="5.0057">
        <ele>660.56</ele>
        <time>2017-12-17T10:23:12Z</time>
      </trkpt>
      <trkpt lat="44.48596" lon="5.00572">
        <ele>660.56</ele>
        <time>2017-12-17T10:23:17Z</time>
      </trkpt>
      <trkpt lat="44.48588" lon="5.00574">
        <ele>661.04</ele>
        <time>2017-12-17T10:23:26Z</time>
      </trkpt>
      <trkpt lat="44.48585" lon="5.00578">
        <ele>661.04</ele>
        <time>2017-12-17T10:23:28Z</time>
      </trkpt>
      <trkpt lat="44.48577" lon="5.0058">
        <ele>660.56</ele>
        <time>2017-12-17T10:23:39Z</time>
      </trkpt>
      <trkpt lat="44.48566" lon="5.00589">
        <ele>660.08</ele>
        <time>2017-12-17T10:23:51Z</time>
      </trkpt>
      <trkpt lat="44.48557" lon="5.00592">
        <ele>659.6</ele>
        <time>2017-12-17T10:24:00Z</time>
      </trkpt>
      <trkpt lat="44.48552" lon="5.00592">
        <ele>659.6</ele>
        <time>2017-12-17T10:24:05Z</time>
      </trkpt>
      <trkpt lat="44.48547" lon="5.00596">
        <ele>659.6</ele>
        <time>2017-12-17T10:24:10Z</time>
      </trkpt>
      <trkpt lat="44.48542" lon="5.00597">
        <ele>658.16</ele>
        <time>2017-12-17T10:24:18Z</time>
      </trkpt>
      <trkpt lat="44.48531" lon="5.00599">
        <ele>659.12</ele>
        <time>2017-12-17T10:24:31Z</time>
      </trkpt>
      <trkpt lat="44.4853" lon="5.006">
        <ele>659.12</ele>
        <time>2017-12-17T10:24:33Z</time>
      </trkpt>
      <trkpt lat="44.48523" lon="5.00603">
        <ele>659.12</ele>
        <time>2017-12-17T10:24:45Z</time>
      </trkpt>
      <trkpt lat="44.48516" lon="5.00608">
        <ele>659.12</ele>
        <time>2017-12-17T10:24:54Z</time>
      </trkpt>
      <trkpt lat="44.48511" lon="5.00608">
        <ele>659.12</ele>
        <time>2017-12-17T10:25:04Z</time>
      </trkpt>
      <trkpt lat="44.48505" lon="5.00607">
        <ele>659.12</ele>
        <time>2017-12-17T10:25:09Z</time>
      </trkpt>
      <trkpt lat="44.48495" lon="5.0061">
        <ele>659.12</ele>
        <time>2017-12-17T10:25:16Z</time>
      </trkpt>
      <trkpt lat="44.48485" lon="5.00616">
        <ele>659.12</ele>
        <time>2017-12-17T10:25:24Z</time>
      </trkpt>
      <trkpt lat="44.48476" lon="5.00624">
        <ele>659.12</ele>
        <time>2017-12-17T10:25:34Z</time>
      </trkpt>
      <trkpt lat="44.48465" lon="5.0063">
        <ele>659.6</ele>
        <time>2017-12-17T10:25:45Z</time>
      </trkpt>
      <trkpt lat="44.48458" lon="5.00631">
        <ele>660.56</ele>
        <time>2017-12-17T10:25:54Z</time>
      </trkpt>
      <trkpt lat="44.48448" lon="5.00634">
        <ele>662.01</ele>
        <time>2017-12-17T10:26:04Z</time>
      </trkpt>
      <trkpt lat="44.48439" lon="5.00637">
        <ele>662.97</ele>
        <time>2017-12-17T10:26:17Z</time>
      </trkpt>
      <trkpt lat="44.48438" lon="5.00637">
        <ele>662.97</ele>
        <time>2017-12-17T10:26:18Z</time>
      </trkpt>
      <trkpt lat="44.48426" lon="5.00644">
        <ele>663.93</ele>
        <time>2017-12-17T10:26:31Z</time>
      </trkpt>
      <trkpt lat="44.4842" lon="5.0065">
        <ele>664.41</ele>
        <time>2017-12-17T10:26:43Z</time>
      </trkpt>
      <trkpt lat="44.48413" lon="5.00654">
        <ele>663.93</ele>
        <time>2017-12-17T10:26:55Z</time>
      </trkpt>
      <trkpt lat="44.4841" lon="5.00657">
        <ele>663.93</ele>
        <time>2017-12-17T10:27:12Z</time>
      </trkpt>
      <trkpt lat="44.48406" lon="5.00658">
        <ele>663.93</ele>
        <time>2017-12-17T10:27:18Z</time>
      </trkpt>
      <trkpt lat="44.48395" lon="5.00667">
        <ele>663.45</ele>
        <time>2017-12-17T10:27:29Z</time>
      </trkpt>
      <trkpt lat="44.48389" lon="5.00675">
        <ele>662.01</ele>
        <time>2017-12-17T10:27:42Z</time>
      </trkpt>
      <trkpt lat="44.48385" lon="5.00678">
        <ele>661.04</ele>
        <time>2017-12-17T10:27:53Z</time>
      </trkpt>
      <trkpt lat="44.4838" lon="5.00686">
        <ele>660.56</ele>
        <time>2017-12-17T10:28:04Z</time>
      </trkpt>
      <trkpt lat="44.4837" lon="5.00697">
        <ele>660.08</ele>
        <time>2017-12-17T10:28:13Z</time>
      </trkpt>
      <trkpt lat="44.48363" lon="5.00702">
        <ele>659.12</ele>
        <time>2017-12-17T10:28:24Z</time>
      </trkpt>
      <trkpt lat="44.48363" lon="5.00703">
        <ele>659.12</ele>
        <time>2017-12-17T10:28:39Z</time>
      </trkpt>
      <trkpt lat="44.48361" lon="5.00705">
        <ele>660.08</ele>
        <time>2017-12-17T10:28:54Z</time>
      </trkpt>
      <trkpt lat="44.48351" lon="5.00712">
        <ele>659.6</ele>
        <time>2017-12-17T10:29:08Z</time>
      </trkpt>
      <trkpt lat="44.48345" lon="5.00716">
        <ele>658.16</ele>
        <time>2017-12-17T10:29:20Z</time>
      </trkpt>
      <trkpt lat="44.4834" lon="5.00716">
        <ele>657.2</ele>
        <time>2017-12-17T10:29:27Z</time>
      </trkpt>
      <trkpt lat="44.48329" lon="5.00715">
        <ele>657.2</ele>
        <time>2017-12-17T10:29:38Z</time>
      </trkpt>
      <trkpt lat="44.48311" lon="5.00719">
        <ele>656.72</ele>
        <time>2017-12-17T10:29:51Z</time>
      </trkpt>
      <trkpt lat="44.48307" lon="5.00726">
        <ele>657.2</ele>
        <time>2017-12-17T10:30:01Z</time>
      </trkpt>
      <trkpt lat="44.48297" lon="5.00737">
        <ele>657.68</ele>
        <time>2017-12-17T10:30:13Z</time>
      </trkpt>
      <trkpt lat="44.48295" lon="5.00741">
        <ele>657.68</ele>
        <time>2017-12-17T10:30:18Z</time>
      </trkpt>
      <trkpt lat="44.48288" lon="5.00754">
        <ele>658.16</ele>
        <time>2017-12-17T10:30:31Z</time>
      </trkpt>
      <trkpt lat="44.48288" lon="5.00755">
        <ele>658.64</ele>
        <time>2017-12-17T10:30:33Z</time>
      </trkpt>
      <trkpt lat="44.4828" lon="5.00769">
        <ele>660.08</ele>
        <time>2017-12-17T10:30:47Z</time>
      </trkpt>
      <trkpt lat="44.4827" lon="5.00783">
        <ele>660.56</ele>
        <time>2017-12-17T10:31:02Z</time>
      </trkpt>
      <trkpt lat="44.48268" lon="5.00785">
        <ele>660.56</ele>
        <time>2017-12-17T10:31:05Z</time>
      </trkpt>
      <trkpt lat="44.4826" lon="5.00796">
        <ele>661.04</ele>
        <time>2017-12-17T10:31:17Z</time>
      </trkpt>
      <trkpt lat="44.48253" lon="5.00803">
        <ele>661.52</ele>
        <time>2017-12-17T10:31:30Z</time>
      </trkpt>
      <trkpt lat="44.48248" lon="5.00804">
        <ele>661.52</ele>
        <time>2017-12-17T10:31:39Z</time>
      </trkpt>
      <trkpt lat="44.48239" lon="5.00813">
        <ele>662.01</ele>
        <time>2017-12-17T10:31:49Z</time>
      </trkpt>
      <trkpt lat="44.48238" lon="5.00814">
        <ele>662.01</ele>
        <time>2017-12-17T10:31:52Z</time>
      </trkpt>
      <trkpt lat="44.48231" lon="5.0082">
        <ele>662.49</ele>
        <time>2017-12-17T10:32:02Z</time>
      </trkpt>
      <trkpt lat="44.48229" lon="5.00822">
        <ele>662.97</ele>
        <time>2017-12-17T10:32:05Z</time>
      </trkpt>
      <trkpt lat="44.48222" lon="5.00828">
        <ele>663.45</ele>
        <time>2017-12-17T10:32:14Z</time>
      </trkpt>
      <trkpt lat="44.48213" lon="5.00836">
        <ele>664.41</ele>
        <time>2017-12-17T10:32:27Z</time>
      </trkpt>
      <trkpt lat="44.48205" lon="5.0084">
        <ele>664.89</ele>
        <time>2017-12-17T10:32:40Z</time>
      </trkpt>
      <trkpt lat="44.48195" lon="5.00849">
        <ele>665.37</ele>
        <time>2017-12-17T10:32:54Z</time>
      </trkpt>
      <trkpt lat="44.48182" lon="5.00855">
        <ele>664.89</ele>
        <time>2017-12-17T10:33:08Z</time>
      </trkpt>
      <trkpt lat="44.48179" lon="5.00857">
        <ele>665.37</ele>
        <time>2017-12-17T10:33:17Z</time>
      </trkpt>
      <trkpt lat="44.48169" lon="5.0086">
        <ele>665.37</ele>
        <time>2017-12-17T10:33:27Z</time>
      </trkpt>
      <trkpt lat="44.48157" lon="5.00861">
        <ele>665.85</ele>
        <time>2017-12-17T10:33:40Z</time>
      </trkpt>
      <trkpt lat="44.48146" lon="5.00863">
        <ele>665.85</ele>
        <time>2017-12-17T10:33:51Z</time>
      </trkpt>
      <trkpt lat="44.48142" lon="5.00863">
        <ele>665.37</ele>
        <time>2017-12-17T10:33:57Z</time>
      </trkpt>
      <trkpt lat="44.48128" lon="5.00863">
        <ele>664.41</ele>
        <time>2017-12-17T10:34:09Z</time>
      </trkpt>
      <trkpt lat="44.48125" lon="5.00864">
        <ele>664.41</ele>
        <time>2017-12-17T10:34:26Z</time>
      </trkpt>
      <trkpt lat="44.4812" lon="5.00865">
        <ele>663.93</ele>
        <time>2017-12-17T10:34:36Z</time>
      </trkpt>
      <trkpt lat="44.48112" lon="5.00868">
        <ele>663.45</ele>
        <time>2017-12-17T10:34:49Z</time>
      </trkpt>
      <trkpt lat="44.48101" lon="5.00871">
        <ele>662.49</ele>
        <time>2017-12-17T10:35:05Z</time>
      </trkpt>
      <trkpt lat="44.48093" lon="5.00871">
        <ele>662.01</ele>
        <time>2017-12-17T10:35:11Z</time>
      </trkpt>
      <trkpt lat="44.48083" lon="5.00872">
        <ele>661.04</ele>
        <time>2017-12-17T10:35:21Z</time>
      </trkpt>
      <trkpt lat="44.48075" lon="5.00874">
        <ele>660.08</ele>
        <time>2017-12-17T10:35:32Z</time>
      </trkpt>
      <trkpt lat="44.48074" lon="5.00874">
        <ele>659.6</ele>
        <time>2017-12-17T10:35:49Z</time>
      </trkpt>
      <trkpt lat="44.48073" lon="5.00875">
        <ele>660.08</ele>
        <time>2017-12-17T10:36:18Z</time>
      </trkpt>
      <trkpt lat="44.48072" lon="5.00875">
        <ele>660.08</ele>
        <time>2017-12-17T10:36:33Z</time>
      </trkpt>
      <trkpt lat="44.48072" lon="5.00875">
        <ele>659.6</ele>
        <time>2017-12-17T10:36:53Z</time>
      </trkpt>
      <trkpt lat="44.48072" lon="5.00875">
        <ele>659.6</ele>
        <time>2017-12-17T10:36:56Z</time>
      </trkpt>
      <trkpt lat="44.48066" lon="5.00877">
        <ele>658.64</ele>
        <time>2017-12-17T10:37:06Z</time>
      </trkpt>
      <trkpt lat="44.48065" lon="5.00877">
        <ele>658.64</ele>
        <time>2017-12-17T10:37:08Z</time>
      </trkpt>
      <trkpt lat="44.48053" lon="5.0088">
        <ele>657.2</ele>
        <time>2017-12-17T10:37:19Z</time>
      </trkpt>
      <trkpt lat="44.48045" lon="5.00884">
        <ele>655.76</ele>
        <time>2017-12-17T10:37:31Z</time>
      </trkpt>
      <trkpt lat="44.4804" lon="5.00886">
        <ele>655.76</ele>
        <time>2017-12-17T10:37:43Z</time>
      </trkpt>
      <trkpt lat="44.48039" lon="5.00887">
        <ele>655.76</ele>
        <time>2017-12-17T10:37:46Z</time>
      </trkpt>
      <trkpt lat="44.48034" lon="5.00895">
        <ele>655.28</ele>
        <time>2017-12-17T10:37:57Z</time>
      </trkpt>
      <trkpt lat="44.48029" lon="5.00897">
        <ele>655.28</ele>
        <time>2017-12-17T10:38:05Z</time>
      </trkpt>
      <trkpt lat="44.48022" lon="5.00901">
        <ele>654.8</ele>
        <time>2017-12-17T10:38:16Z</time>
      </trkpt>
      <trkpt lat="44.4802" lon="5.00902">
        <ele>654.8</ele>
        <time>2017-12-17T10:38:19Z</time>
      </trkpt>
      <trkpt lat="44.48011" lon="5.00906">
        <ele>654.31</ele>
        <time>2017-12-17T10:38:29Z</time>
      </trkpt>
      <trkpt lat="44.47992" lon="5.00907">
        <ele>656.24</ele>
        <time>2017-12-17T10:38:42Z</time>
      </trkpt>
      <trkpt lat="44.47984" lon="5.00908">
        <ele>656.72</ele>
        <time>2017-12-17T10:38:47Z</time>
      </trkpt>
      <trkpt lat="44.47976" lon="5.00906">
        <ele>656.72</ele>
        <time>2017-12-17T10:38:55Z</time>
      </trkpt>
      <trkpt lat="44.47969" lon="5.00905">
        <ele>657.2</ele>
        <time>2017-12-17T10:39:06Z</time>
      </trkpt>
      <trkpt lat="44.47965" lon="5.009">
        <ele>657.68</ele>
        <time>2017-12-17T10:39:18Z</time>
      </trkpt>
      <trkpt lat="44.47964" lon="5.009">
        <ele>657.2</ele>
        <time>2017-12-17T10:39:23Z</time>
      </trkpt>
      <trkpt lat="44.47957" lon="5.00901">
        <ele>657.68</ele>
        <time>2017-12-17T10:39:33Z</time>
      </trkpt>
      <trkpt lat="44.47951" lon="5.009">
        <ele>658.16</ele>
        <time>2017-12-17T10:39:40Z</time>
      </trkpt>
      <trkpt lat="44.47947" lon="5.009">
        <ele>658.64</ele>
        <time>2017-12-17T10:39:45Z</time>
      </trkpt>
      <trkpt lat="44.47938" lon="5.00896">
        <ele>660.56</ele>
        <time>2017-12-17T10:39:56Z</time>
      </trkpt>
      <trkpt lat="44.47934" lon="5.00892">
        <ele>662.01</ele>
        <time>2017-12-17T10:40:05Z</time>
      </trkpt>
      <trkpt lat="44.47924" lon="5.00888">
        <ele>663.93</ele>
        <time>2017-12-17T10:40:16Z</time>
      </trkpt>
      <trkpt lat="44.47922" lon="5.00885">
        <ele>664.41</ele>
        <time>2017-12-17T10:40:24Z</time>
      </trkpt>
      <trkpt lat="44.4792" lon="5.00884">
        <ele>665.37</ele>
        <time>2017-12-17T10:40:28Z</time>
      </trkpt>
      <trkpt lat="44.47915" lon="5.00884">
        <ele>666.81</ele>
        <time>2017-12-17T10:40:38Z</time>
      </trkpt>
      <trkpt lat="44.47912" lon="5.00884">
        <ele>667.29</ele>
        <time>2017-12-17T10:40:41Z</time>
      </trkpt>
      <trkpt lat="44.47906" lon="5.00882">
        <ele>669.22</ele>
        <time>2017-12-17T10:40:52Z</time>
      </trkpt>
      <trkpt lat="44.47898" lon="5.00877">
        <ele>671.62</ele>
        <time>2017-12-17T10:41:04Z</time>
      </trkpt>
      <trkpt lat="44.47891" lon="5.00877">
        <ele>673.06</ele>
        <time>2017-12-17T10:41:16Z</time>
      </trkpt>
      <trkpt lat="44.47881" lon="5.00876">
        <ele>675.46</ele>
        <time>2017-12-17T10:41:32Z</time>
      </trkpt>
      <trkpt lat="44.47876" lon="5.00874">
        <ele>677.39</ele>
        <time>2017-12-17T10:41:44Z</time>
      </trkpt>
      <trkpt lat="44.47871" lon="5.00873">
        <ele>678.35</ele>
        <time>2017-12-17T10:41:51Z</time>
      </trkpt>
      <trkpt lat="44.47862" lon="5.00874">
        <ele>680.27</ele>
        <time>2017-12-17T10:42:02Z</time>
      </trkpt>
      <trkpt lat="44.4786" lon="5.00872">
        <ele>680.27</ele>
        <time>2017-12-17T10:42:07Z</time>
      </trkpt>
      <trkpt lat="44.47853" lon="5.00871">
        <ele>681.23</ele>
        <time>2017-12-17T10:42:16Z</time>
      </trkpt>
      <trkpt lat="44.47846" lon="5.00872">
        <ele>682.67</ele>
        <time>2017-12-17T10:42:27Z</time>
      </trkpt>
      <trkpt lat="44.47846" lon="5.00871">
        <ele>682.67</ele>
        <time>2017-12-17T10:42:29Z</time>
      </trkpt>
      <trkpt lat="44.47836" lon="5.00872">
        <ele>683.63</ele>
        <time>2017-12-17T10:42:39Z</time>
      </trkpt>
      <trkpt lat="44.4783" lon="5.0087">
        <ele>685.08</ele>
        <time>2017-12-17T10:42:49Z</time>
      </trkpt>
      <trkpt lat="44.47822" lon="5.00873">
        <ele>686.04</ele>
        <time>2017-12-17T10:43:02Z</time>
      </trkpt>
      <trkpt lat="44.47813" lon="5.00876">
        <ele>686.52</ele>
        <time>2017-12-17T10:43:14Z</time>
      </trkpt>
      <trkpt lat="44.47811" lon="5.00876">
        <ele>687</ele>
        <time>2017-12-17T10:43:19Z</time>
      </trkpt>
      <trkpt lat="44.47806" lon="5.00877">
        <ele>688.44</ele>
        <time>2017-12-17T10:43:30Z</time>
      </trkpt>
      <trkpt lat="44.47798" lon="5.00881">
        <ele>689.88</ele>
        <time>2017-12-17T10:43:42Z</time>
      </trkpt>
      <trkpt lat="44.47793" lon="5.00885">
        <ele>690.36</ele>
        <time>2017-12-17T10:43:53Z</time>
      </trkpt>
      <trkpt lat="44.47786" lon="5.00888">
        <ele>691.81</ele>
        <time>2017-12-17T10:44:03Z</time>
      </trkpt>
      <trkpt lat="44.47784" lon="5.00889">
        <ele>692.29</ele>
        <time>2017-12-17T10:44:06Z</time>
      </trkpt>
      <trkpt lat="44.47776" lon="5.0089">
        <ele>693.25</ele>
        <time>2017-12-17T10:44:17Z</time>
      </trkpt>
      <trkpt lat="44.47768" lon="5.00889">
        <ele>695.17</ele>
        <time>2017-12-17T10:44:31Z</time>
      </trkpt>
      <trkpt lat="44.47763" lon="5.00884">
        <ele>697.09</ele>
        <time>2017-12-17T10:44:43Z</time>
      </trkpt>
      <trkpt lat="44.47761" lon="5.00883">
        <ele>697.57</ele>
        <time>2017-12-17T10:44:45Z</time>
      </trkpt>
      <trkpt lat="44.47758" lon="5.00881">
        <ele>697.57</ele>
        <time>2017-12-17T10:44:54Z</time>
      </trkpt>
      <trkpt lat="44.47758" lon="5.00881">
        <ele>697.09</ele>
        <time>2017-12-17T10:45:15Z</time>
      </trkpt>
      <trkpt lat="44.47758" lon="5.00881">
        <ele>697.09</ele>
        <time>2017-12-17T10:45:30Z</time>
      </trkpt>
      <trkpt lat="44.47758" lon="5.0088">
        <ele>697.09</ele>
        <time>2017-12-17T10:45:44Z</time>
      </trkpt>
      <trkpt lat="44.47756" lon="5.00881">
        <ele>697.57</ele>
        <time>2017-12-17T10:45:54Z</time>
      </trkpt>
      <trkpt lat="44.47756" lon="5.00881">
        <ele>697.09</ele>
        <time>2017-12-17T10:46:16Z</time>
      </trkpt>
      <trkpt lat="44.47755" lon="5.00881">
        <ele>697.57</ele>
        <time>2017-12-17T10:46:31Z</time>
      </trkpt>
      <trkpt lat="44.47756" lon="5.00881">
        <ele>697.09</ele>
        <time>2017-12-17T10:46:50Z</time>
      </trkpt>
      <trkpt lat="44.47757" lon="5.00881">
        <ele>697.57</ele>
        <time>2017-12-17T10:47:03Z</time>
      </trkpt>
      <trkpt lat="44.47757" lon="5.00881">
        <ele>698.05</ele>
        <time>2017-12-17T10:47:16Z</time>
      </trkpt>
      <trkpt lat="44.47757" lon="5.00881">
        <ele>697.09</ele>
        <time>2017-12-17T10:47:36Z</time>
      </trkpt>
      <trkpt lat="44.47757" lon="5.00881">
        <ele>697.09</ele>
        <time>2017-12-17T10:48:05Z</time>
      </trkpt>
      <trkpt lat="44.47756" lon="5.00881">
        <ele>697.57</ele>
        <time>2017-12-17T10:48:20Z</time>
      </trkpt>
      <trkpt lat="44.47746" lon="5.00881">
        <ele>698.53</ele>
        <time>2017-12-17T10:48:32Z</time>
      </trkpt>
      <trkpt lat="44.47739" lon="5.00879">
        <ele>699.02</ele>
        <time>2017-12-17T10:48:41Z</time>
      </trkpt>
      <trkpt lat="44.47731" lon="5.0088">
        <ele>699.5</ele>
        <time>2017-12-17T10:48:53Z</time>
      </trkpt>
      <trkpt lat="44.47729" lon="5.00882">
        <ele>699.02</ele>
        <time>2017-12-17T10:49:02Z</time>
      </trkpt>
      <trkpt lat="44.47728" lon="5.00881">
        <ele>699.5</ele>
        <time>2017-12-17T10:49:17Z</time>
      </trkpt>
      <trkpt lat="44.47727" lon="5.0088">
        <ele>699.5</ele>
        <time>2017-12-17T10:49:20Z</time>
      </trkpt>
      <trkpt lat="44.47722" lon="5.00879">
        <ele>699.98</ele>
        <time>2017-12-17T10:49:31Z</time>
      </trkpt>
      <trkpt lat="44.47717" lon="5.00877">
        <ele>700.46</ele>
        <time>2017-12-17T10:49:36Z</time>
      </trkpt>
      <trkpt lat="44.4771" lon="5.00876">
        <ele>701.42</ele>
        <time>2017-12-17T10:49:46Z</time>
      </trkpt>
      <trkpt lat="44.47705" lon="5.00879">
        <ele>702.86</ele>
        <time>2017-12-17T10:49:57Z</time>
      </trkpt>
      <trkpt lat="44.47704" lon="5.00879">
        <ele>702.86</ele>
        <time>2017-12-17T10:50:16Z</time>
      </trkpt>
      <trkpt lat="44.47704" lon="5.00879">
        <ele>702.86</ele>
        <time>2017-12-17T10:50:17Z</time>
      </trkpt>
      <trkpt lat="44.47696" lon="5.00873">
        <ele>702.38</ele>
        <time>2017-12-17T10:50:29Z</time>
      </trkpt>
      <trkpt lat="44.47695" lon="5.00872">
        <ele>701.9</ele>
        <time>2017-12-17T10:50:30Z</time>
      </trkpt>
      <trkpt lat="44.47689" lon="5.00869">
        <ele>701.9</ele>
        <time>2017-12-17T10:50:35Z</time>
      </trkpt>
      <trkpt lat="44.47685" lon="5.00869">
        <ele>701.9</ele>
        <time>2017-12-17T10:50:44Z</time>
      </trkpt>
      <trkpt lat="44.47683" lon="5.00869">
        <ele>702.38</ele>
        <time>2017-12-17T10:50:56Z</time>
      </trkpt>
      <trkpt lat="44.47682" lon="5.0087">
        <ele>701.42</ele>
        <time>2017-12-17T10:51:12Z</time>
      </trkpt>
      <trkpt lat="44.47682" lon="5.0087">
        <ele>700.46</ele>
        <time>2017-12-17T10:51:24Z</time>
      </trkpt>
      <trkpt lat="44.47681" lon="5.0087">
        <ele>700.94</ele>
        <time>2017-12-17T10:51:45Z</time>
      </trkpt>
      <trkpt lat="44.47682" lon="5.0087">
        <ele>700.46</ele>
        <time>2017-12-17T10:52:09Z</time>
      </trkpt>
      <trkpt lat="44.47681" lon="5.0087">
        <ele>701.42</ele>
        <time>2017-12-17T10:52:41Z</time>
      </trkpt>
      <trkpt lat="44.47681" lon="5.0087">
        <ele>700.94</ele>
        <time>2017-12-17T10:53:09Z</time>
      </trkpt>
      <trkpt lat="44.47681" lon="5.0087">
        <ele>701.9</ele>
        <time>2017-12-17T10:53:26Z</time>
      </trkpt>
      <trkpt lat="44.47676" lon="5.00866">
        <ele>701.9</ele>
        <time>2017-12-17T10:53:35Z</time>
      </trkpt>
      <trkpt lat="44.4766" lon="5.00859">
        <ele>702.38</ele>
        <time>2017-12-17T10:53:45Z</time>
      </trkpt>
      <trkpt lat="44.47657" lon="5.00858">
        <ele>702.86</ele>
        <time>2017-12-17T10:53:55Z</time>
      </trkpt>
      <trkpt lat="44.4765" lon="5.0086">
        <ele>701.9</ele>
        <time>2017-12-17T10:54:04Z</time>
      </trkpt>
      <trkpt lat="44.47649" lon="5.00859">
        <ele>701.9</ele>
        <time>2017-12-17T10:54:11Z</time>
      </trkpt>
      <trkpt lat="44.47639" lon="5.0086">
        <ele>701.9</ele>
        <time>2017-12-17T10:54:22Z</time>
      </trkpt>
      <trkpt lat="44.47631" lon="5.00863">
        <ele>701.9</ele>
        <time>2017-12-17T10:54:32Z</time>
      </trkpt>
      <trkpt lat="44.47628" lon="5.00863">
        <ele>701.42</ele>
        <time>2017-12-17T10:54:36Z</time>
      </trkpt>
      <trkpt lat="44.47622" lon="5.0086">
        <ele>701.42</ele>
        <time>2017-12-17T10:54:45Z</time>
      </trkpt>
      <trkpt lat="44.47616" lon="5.00858">
        <ele>700.94</ele>
        <time>2017-12-17T10:54:49Z</time>
      </trkpt>
      <trkpt lat="44.47611" lon="5.00859">
        <ele>700.94</ele>
        <time>2017-12-17T10:54:52Z</time>
      </trkpt>
      <trkpt lat="44.47603" lon="5.00862">
        <ele>700.46</ele>
        <time>2017-12-17T10:54:57Z</time>
      </trkpt>
      <trkpt lat="44.47594" lon="5.00864">
        <ele>699.5</ele>
        <time>2017-12-17T10:55:09Z</time>
      </trkpt>
      <trkpt lat="44.47587" lon="5.0086">
        <ele>699.02</ele>
        <time>2017-12-17T10:55:19Z</time>
      </trkpt>
      <trkpt lat="44.47583" lon="5.00858">
        <ele>699.02</ele>
        <time>2017-12-17T10:55:22Z</time>
      </trkpt>
      <trkpt lat="44.47576" lon="5.00857">
        <ele>698.05</ele>
        <time>2017-12-17T10:55:28Z</time>
      </trkpt>
      <trkpt lat="44.47572" lon="5.0086">
        <ele>696.61</ele>
        <time>2017-12-17T10:55:40Z</time>
      </trkpt>
      <trkpt lat="44.47571" lon="5.00862">
        <ele>696.61</ele>
        <time>2017-12-17T10:55:43Z</time>
      </trkpt>
      <trkpt lat="44.47558" lon="5.00865">
        <ele>694.69</ele>
        <time>2017-12-17T10:55:55Z</time>
      </trkpt>
      <trkpt lat="44.47557" lon="5.00865">
        <ele>694.21</ele>
        <time>2017-12-17T10:55:57Z</time>
      </trkpt>
      <trkpt lat="44.47553" lon="5.00867">
        <ele>693.25</ele>
        <time>2017-12-17T10:56:09Z</time>
      </trkpt>
      <trkpt lat="44.47549" lon="5.0087">
        <ele>691.81</ele>
        <time>2017-12-17T10:56:21Z</time>
      </trkpt>
      <trkpt lat="44.47543" lon="5.0087">
        <ele>690.36</ele>
        <time>2017-12-17T10:56:40Z</time>
      </trkpt>
      <trkpt lat="44.47538" lon="5.00872">
        <ele>687.96</ele>
        <time>2017-12-17T10:56:51Z</time>
      </trkpt>
      <trkpt lat="44.4753" lon="5.00874">
        <ele>686.52</ele>
        <time>2017-12-17T10:57:01Z</time>
      </trkpt>
      <trkpt lat="44.47524" lon="5.00873">
        <ele>685.56</ele>
        <time>2017-12-17T10:57:07Z</time>
      </trkpt>
      <trkpt lat="44.47517" lon="5.00874">
        <ele>685.08</ele>
        <time>2017-12-17T10:57:18Z</time>
      </trkpt>
      <trkpt lat="44.47517" lon="5.00874">
        <ele>684.6</ele>
        <time>2017-12-17T10:57:19Z</time>
      </trkpt>
      <trkpt lat="44.47513" lon="5.0088">
        <ele>683.15</ele>
        <time>2017-12-17T10:57:26Z</time>
      </trkpt>
      <trkpt lat="44.4751" lon="5.00884">
        <ele>682.67</ele>
        <time>2017-12-17T10:57:36Z</time>
      </trkpt>
      <trkpt lat="44.47509" lon="5.00885">
        <ele>681.71</ele>
        <time>2017-12-17T10:57:39Z</time>
      </trkpt>
      <trkpt lat="44.47507" lon="5.00887">
        <ele>681.23</ele>
        <time>2017-12-17T10:57:42Z</time>
      </trkpt>
      <trkpt lat="44.47504" lon="5.00893">
        <ele>679.79</ele>
        <time>2017-12-17T10:57:54Z</time>
      </trkpt>
      <trkpt lat="44.47504" lon="5.00893">
        <ele>679.31</ele>
        <time>2017-12-17T10:57:58Z</time>
      </trkpt>
      <trkpt lat="44.47493" lon="5.00896">
        <ele>678.35</ele>
        <time>2017-12-17T10:58:09Z</time>
      </trkpt>
      <trkpt lat="44.47491" lon="5.00895">
        <ele>677.87</ele>
        <time>2017-12-17T10:58:13Z</time>
      </trkpt>
      <trkpt lat="44.4749" lon="5.00896">
        <ele>677.39</ele>
        <time>2017-12-17T10:58:27Z</time>
      </trkpt>
      <trkpt lat="44.47489" lon="5.00896">
        <ele>676.42</ele>
        <time>2017-12-17T10:58:46Z</time>
      </trkpt>
      <trkpt lat="44.47489" lon="5.00896">
        <ele>676.42</ele>
        <time>2017-12-17T10:58:47Z</time>
      </trkpt>
      <trkpt lat="44.47484" lon="5.00895">
        <ele>675.94</ele>
        <time>2017-12-17T10:58:50Z</time>
      </trkpt>
      <trkpt lat="44.47476" lon="5.00895">
        <ele>673.54</ele>
        <time>2017-12-17T10:59:04Z</time>
      </trkpt>
      <trkpt lat="44.47475" lon="5.00895">
        <ele>673.06</ele>
        <time>2017-12-17T10:59:06Z</time>
      </trkpt>
      <trkpt lat="44.47465" lon="5.00903">
        <ele>671.62</ele>
        <time>2017-12-17T10:59:12Z</time>
      </trkpt>
      <trkpt lat="44.47458" lon="5.00909">
        <ele>669.7</ele>
        <time>2017-12-17T10:59:22Z</time>
      </trkpt>
      <trkpt lat="44.47454" lon="5.0091">
        <ele>668.73</ele>
        <time>2017-12-17T10:59:28Z</time>
      </trkpt>
      <trkpt lat="44.4745" lon="5.00913">
        <ele>667.77</ele>
        <time>2017-12-17T10:59:34Z</time>
      </trkpt>
      <trkpt lat="44.47446" lon="5.00917">
        <ele>666.81</ele>
        <time>2017-12-17T10:59:47Z</time>
      </trkpt>
      <trkpt lat="44.47445" lon="5.00918">
        <ele>666.33</ele>
        <time>2017-12-17T10:59:48Z</time>
      </trkpt>
      <trkpt lat="44.4744" lon="5.00919">
        <ele>665.85</ele>
        <time>2017-12-17T10:59:59Z</time>
      </trkpt>
      <trkpt lat="44.47439" lon="5.0092">
        <ele>664.89</ele>
        <time>2017-12-17T11:00:08Z</time>
      </trkpt>
      <trkpt lat="44.47436" lon="5.00921">
        <ele>663.93</ele>
        <time>2017-12-17T11:00:17Z</time>
      </trkpt>
      <trkpt lat="44.47436" lon="5.00922">
        <ele>663.93</ele>
        <time>2017-12-17T11:00:24Z</time>
      </trkpt>
      <trkpt lat="44.47431" lon="5.00923">
        <ele>663.45</ele>
        <time>2017-12-17T11:00:27Z</time>
      </trkpt>
      <trkpt lat="44.47428" lon="5.00926">
        <ele>661.04</ele>
        <time>2017-12-17T11:00:37Z</time>
      </trkpt>
      <trkpt lat="44.47423" lon="5.0093">
        <ele>659.6</ele>
        <time>2017-12-17T11:00:42Z</time>
      </trkpt>
      <trkpt lat="44.47418" lon="5.00933">
        <ele>658.16</ele>
        <time>2017-12-17T11:00:53Z</time>
      </trkpt>
      <trkpt lat="44.47415" lon="5.00933">
        <ele>656.72</ele>
        <time>2017-12-17T11:01:06Z</time>
      </trkpt>
      <trkpt lat="44.4741" lon="5.00936">
        <ele>655.28</ele>
        <time>2017-12-17T11:01:25Z</time>
      </trkpt>
      <trkpt lat="44.47401" lon="5.00939">
        <ele>653.35</ele>
        <time>2017-12-17T11:01:33Z</time>
      </trkpt>
      <trkpt lat="44.47397" lon="5.00941">
        <ele>652.39</ele>
        <time>2017-12-17T11:01:43Z</time>
      </trkpt>
      <trkpt lat="44.47388" lon="5.00943">
        <ele>650.47</ele>
        <time>2017-12-17T11:01:54Z</time>
      </trkpt>
      <trkpt lat="44.47384" lon="5.00946">
        <ele>649.51</ele>
        <time>2017-12-17T11:02:02Z</time>
      </trkpt>
      <trkpt lat="44.47384" lon="5.00946">
        <ele>649.03</ele>
        <time>2017-12-17T11:02:08Z</time>
      </trkpt>
      <trkpt lat="44.47382" lon="5.00947">
        <ele>648.55</ele>
        <time>2017-12-17T11:02:12Z</time>
      </trkpt>
      <trkpt lat="44.47379" lon="5.00948">
        <ele>648.07</ele>
        <time>2017-12-17T11:02:16Z</time>
      </trkpt>
      <trkpt lat="44.47374" lon="5.00953">
        <ele>647.1</ele>
        <time>2017-12-17T11:02:21Z</time>
      </trkpt>
      <trkpt lat="44.47369" lon="5.00956">
        <ele>646.62</ele>
        <time>2017-12-17T11:02:27Z</time>
      </trkpt>
      <trkpt lat="44.47363" lon="5.00957">
        <ele>643.26</ele>
        <time>2017-12-17T11:02:38Z</time>
      </trkpt>
      <trkpt lat="44.47361" lon="5.00958">
        <ele>642.78</ele>
        <time>2017-12-17T11:02:48Z</time>
      </trkpt>
      <trkpt lat="44.47357" lon="5.0096">
        <ele>642.3</ele>
        <time>2017-12-17T11:02:51Z</time>
      </trkpt>
      <trkpt lat="44.47348" lon="5.00964">
        <ele>641.34</ele>
        <time>2017-12-17T11:02:56Z</time>
      </trkpt>
      <trkpt lat="44.47342" lon="5.00967">
        <ele>639.89</ele>
        <time>2017-12-17T11:03:01Z</time>
      </trkpt>
      <trkpt lat="44.47338" lon="5.00969">
        <ele>639.41</ele>
        <time>2017-12-17T11:03:05Z</time>
      </trkpt>
      <trkpt lat="44.47337" lon="5.00968">
        <ele>637.49</ele>
        <time>2017-12-17T11:03:15Z</time>
      </trkpt>
      <trkpt lat="44.47335" lon="5.00969">
        <ele>637.49</ele>
        <time>2017-12-17T11:03:17Z</time>
      </trkpt>
      <trkpt lat="44.47318" lon="5.00984">
        <ele>636.53</ele>
        <time>2017-12-17T11:03:27Z</time>
      </trkpt>
      <trkpt lat="44.47316" lon="5.00983">
        <ele>637.49</ele>
        <time>2017-12-17T11:03:35Z</time>
      </trkpt>
      <trkpt lat="44.47311" lon="5.00985">
        <ele>637.97</ele>
        <time>2017-12-17T11:03:40Z</time>
      </trkpt>
      <trkpt lat="44.47311" lon="5.00985">
        <ele>638.45</ele>
        <time>2017-12-17T11:03:44Z</time>
      </trkpt>
      <trkpt lat="44.47304" lon="5.00989">
        <ele>639.89</ele>
        <time>2017-12-17T11:03:54Z</time>
      </trkpt>
      <trkpt lat="44.47298" lon="5.00994">
        <ele>640.86</ele>
        <time>2017-12-17T11:04:04Z</time>
      </trkpt>
      <trkpt lat="44.47291" lon="5.00996">
        <ele>641.34</ele>
        <time>2017-12-17T11:04:12Z</time>
      </trkpt>
      <trkpt lat="44.47288" lon="5.00996">
        <ele>641.34</ele>
        <time>2017-12-17T11:04:14Z</time>
      </trkpt>
      <trkpt lat="44.47281" lon="5.00995">
        <ele>641.34</ele>
        <time>2017-12-17T11:04:25Z</time>
      </trkpt>
      <trkpt lat="44.4728" lon="5.00994">
        <ele>641.34</ele>
        <time>2017-12-17T11:04:29Z</time>
      </trkpt>
      <trkpt lat="44.47277" lon="5.00994">
        <ele>641.34</ele>
        <time>2017-12-17T11:04:34Z</time>
      </trkpt>
      <trkpt lat="44.47268" lon="5.00992">
        <ele>641.82</ele>
        <time>2017-12-17T11:04:44Z</time>
      </trkpt>
      <trkpt lat="44.47263" lon="5.0099">
        <ele>641.82</ele>
        <time>2017-12-17T11:04:51Z</time>
      </trkpt>
      <trkpt lat="44.4726" lon="5.00988">
        <ele>642.78</ele>
        <time>2017-12-17T11:05:05Z</time>
      </trkpt>
      <trkpt lat="44.47255" lon="5.00986">
        <ele>644.7</ele>
        <time>2017-12-17T11:05:12Z</time>
      </trkpt>
      <trkpt lat="44.47252" lon="5.00984">
        <ele>645.18</ele>
        <time>2017-12-17T11:05:15Z</time>
      </trkpt>
      <trkpt lat="44.47249" lon="5.00982">
        <ele>645.18</ele>
        <time>2017-12-17T11:05:22Z</time>
      </trkpt>
      <trkpt lat="44.47246" lon="5.0098">
        <ele>644.7</ele>
        <time>2017-12-17T11:05:25Z</time>
      </trkpt>
      <trkpt lat="44.47241" lon="5.00978">
        <ele>645.18</ele>
        <time>2017-12-17T11:05:32Z</time>
      </trkpt>
      <trkpt lat="44.47232" lon="5.00973">
        <ele>644.7</ele>
        <time>2017-12-17T11:05:43Z</time>
      </trkpt>
      <trkpt lat="44.4723" lon="5.00973">
        <ele>643.74</ele>
        <time>2017-12-17T11:05:46Z</time>
      </trkpt>
      <trkpt lat="44.47221" lon="5.00968">
        <ele>642.78</ele>
        <time>2017-12-17T11:05:57Z</time>
      </trkpt>
      <trkpt lat="44.4722" lon="5.00967">
        <ele>642.78</ele>
        <time>2017-12-17T11:05:58Z</time>
      </trkpt>
      <trkpt lat="44.47217" lon="5.00964">
        <ele>642.3</ele>
        <time>2017-12-17T11:06:01Z</time>
      </trkpt>
      <trkpt lat="44.47209" lon="5.00959">
        <ele>641.82</ele>
        <time>2017-12-17T11:06:12Z</time>
      </trkpt>
      <trkpt lat="44.47205" lon="5.00958">
        <ele>641.82</ele>
        <time>2017-12-17T11:06:19Z</time>
      </trkpt>
      <trkpt lat="44.47192" lon="5.0095">
        <ele>643.26</ele>
        <time>2017-12-17T11:06:31Z</time>
      </trkpt>
      <trkpt lat="44.47187" lon="5.00946">
        <ele>643.74</ele>
        <time>2017-12-17T11:06:40Z</time>
      </trkpt>
      <trkpt lat="44.47185" lon="5.00946">
        <ele>644.7</ele>
        <time>2017-12-17T11:06:42Z</time>
      </trkpt>
      <trkpt lat="44.47174" lon="5.00938">
        <ele>643.74</ele>
        <time>2017-12-17T11:06:48Z</time>
      </trkpt>
      <trkpt lat="44.47173" lon="5.00934">
        <ele>643.74</ele>
        <time>2017-12-17T11:06:50Z</time>
      </trkpt>
      <trkpt lat="44.47165" lon="5.00938">
        <ele>643.26</ele>
        <time>2017-12-17T11:06:59Z</time>
      </trkpt>
      <trkpt lat="44.47165" lon="5.00939">
        <ele>643.26</ele>
        <time>2017-12-17T11:07:00Z</time>
      </trkpt>
      <trkpt lat="44.47164" lon="5.0094">
        <ele>643.26</ele>
        <time>2017-12-17T11:07:03Z</time>
      </trkpt>
      <trkpt lat="44.47155" lon="5.00934">
        <ele>642.78</ele>
        <time>2017-12-17T11:07:11Z</time>
      </trkpt>
      <trkpt lat="44.47153" lon="5.00929">
        <ele>642.3</ele>
        <time>2017-12-17T11:07:18Z</time>
      </trkpt>
      <trkpt lat="44.47146" lon="5.00929">
        <ele>641.82</ele>
        <time>2017-12-17T11:07:27Z</time>
      </trkpt>
      <trkpt lat="44.47146" lon="5.00929">
        <ele>641.34</ele>
        <time>2017-12-17T11:07:31Z</time>
      </trkpt>
      <trkpt lat="44.47137" lon="5.00928">
        <ele>641.34</ele>
        <time>2017-12-17T11:07:44Z</time>
      </trkpt>
      <trkpt lat="44.47134" lon="5.00927">
        <ele>641.82</ele>
        <time>2017-12-17T11:07:59Z</time>
      </trkpt>
      <trkpt lat="44.47131" lon="5.00927">
        <ele>641.82</ele>
        <time>2017-12-17T11:08:16Z</time>
      </trkpt>
      <trkpt lat="44.47131" lon="5.00927">
        <ele>641.82</ele>
        <time>2017-12-17T11:08:32Z</time>
      </trkpt>
      <trkpt lat="44.47131" lon="5.00927">
        <ele>641.34</ele>
        <time>2017-12-17T11:09:02Z</time>
      </trkpt>
      <trkpt lat="44.4713" lon="5.00927">
        <ele>641.34</ele>
        <time>2017-12-17T11:09:32Z</time>
      </trkpt>
      <trkpt lat="44.47128" lon="5.00927">
        <ele>639.89</ele>
        <time>2017-12-17T11:09:58Z</time>
      </trkpt>
      <trkpt lat="44.47124" lon="5.00927">
        <ele>640.38</ele>
        <time>2017-12-17T11:10:08Z</time>
      </trkpt>
      <trkpt lat="44.47117" lon="5.00926">
        <ele>640.86</ele>
        <time>2017-12-17T11:10:19Z</time>
      </trkpt>
      <trkpt lat="44.4711" lon="5.00925">
        <ele>642.3</ele>
        <time>2017-12-17T11:10:29Z</time>
      </trkpt>
      <trkpt lat="44.47107" lon="5.00926">
        <ele>642.78</ele>
        <time>2017-12-17T11:10:33Z</time>
      </trkpt>
      <trkpt lat="44.47096" lon="5.00928">
        <ele>642.3</ele>
        <time>2017-12-17T11:10:44Z</time>
      </trkpt>
      <trkpt lat="44.4709" lon="5.00928">
        <ele>642.3</ele>
        <time>2017-12-17T11:10:50Z</time>
      </trkpt>
      <trkpt lat="44.47079" lon="5.00924">
        <ele>642.3</ele>
        <time>2017-12-17T11:11:02Z</time>
      </trkpt>
      <trkpt lat="44.47073" lon="5.00925">
        <ele>643.26</ele>
        <time>2017-12-17T11:11:13Z</time>
      </trkpt>
      <trkpt lat="44.47066" lon="5.0093">
        <ele>643.74</ele>
        <time>2017-12-17T11:11:28Z</time>
      </trkpt>
      <trkpt lat="44.47063" lon="5.00932">
        <ele>645.18</ele>
        <time>2017-12-17T11:11:33Z</time>
      </trkpt>
      <trkpt lat="44.47058" lon="5.00933">
        <ele>646.14</ele>
        <time>2017-12-17T11:11:42Z</time>
      </trkpt>
      <trkpt lat="44.47051" lon="5.00931">
        <ele>648.55</ele>
        <time>2017-12-17T11:11:54Z</time>
      </trkpt>
      <trkpt lat="44.47047" lon="5.00931">
        <ele>649.51</ele>
        <time>2017-12-17T11:12:04Z</time>
      </trkpt>
      <trkpt lat="44.47042" lon="5.0093">
        <ele>651.43</ele>
        <time>2017-12-17T11:12:16Z</time>
      </trkpt>
      <trkpt lat="44.4704" lon="5.0093">
        <ele>652.87</ele>
        <time>2017-12-17T11:12:26Z</time>
      </trkpt>
      <trkpt lat="44.47036" lon="5.0093">
        <ele>653.83</ele>
        <time>2017-12-17T11:12:35Z</time>
      </trkpt>
      <trkpt lat="44.47035" lon="5.00929">
        <ele>654.31</ele>
        <time>2017-12-17T11:12:38Z</time>
      </trkpt>
      <trkpt lat="44.4703" lon="5.00928">
        <ele>654.8</ele>
        <time>2017-12-17T11:12:48Z</time>
      </trkpt>
      <trkpt lat="44.47025" lon="5.00925">
        <ele>656.24</ele>
        <time>2017-12-17T11:12:58Z</time>
      </trkpt>
      <trkpt lat="44.47019" lon="5.00925">
        <ele>658.16</ele>
        <time>2017-12-17T11:13:11Z</time>
      </trkpt>
      <trkpt lat="44.47017" lon="5.00924">
        <ele>659.12</ele>
        <time>2017-12-17T11:13:23Z</time>
      </trkpt>
      <trkpt lat="44.47015" lon="5.00925">
        <ele>660.56</ele>
        <time>2017-12-17T11:13:35Z</time>
      </trkpt>
      <trkpt lat="44.47015" lon="5.00928">
        <ele>661.04</ele>
        <time>2017-12-17T11:13:44Z</time>
      </trkpt>
      <trkpt lat="44.47015" lon="5.00929">
        <ele>661.52</ele>
        <time>2017-12-17T11:13:59Z</time>
      </trkpt>
      <trkpt lat="44.47014" lon="5.00934">
        <ele>662.97</ele>
        <time>2017-12-17T11:14:06Z</time>
      </trkpt>
      <trkpt lat="44.47013" lon="5.00934">
        <ele>664.41</ele>
        <time>2017-12-17T11:14:15Z</time>
      </trkpt>
      <trkpt lat="44.47013" lon="5.00938">
        <ele>665.37</ele>
        <time>2017-12-17T11:14:27Z</time>
      </trkpt>
      <trkpt lat="44.47012" lon="5.0094">
        <ele>666.33</ele>
        <time>2017-12-17T11:14:37Z</time>
      </trkpt>
      <trkpt lat="44.47011" lon="5.00943">
        <ele>668.25</ele>
        <time>2017-12-17T11:14:45Z</time>
      </trkpt>
      <trkpt lat="44.47008" lon="5.00945">
        <ele>668.73</ele>
        <time>2017-12-17T11:14:51Z</time>
      </trkpt>
      <trkpt lat="44.47008" lon="5.00945">
        <ele>668.73</ele>
        <time>2017-12-17T11:14:56Z</time>
      </trkpt>
      <trkpt lat="44.47002" lon="5.00946">
        <ele>669.7</ele>
        <time>2017-12-17T11:15:05Z</time>
      </trkpt>
      <trkpt lat="44.47001" lon="5.00946">
        <ele>670.66</ele>
        <time>2017-12-17T11:15:16Z</time>
      </trkpt>
      <trkpt lat="44.46999" lon="5.00948">
        <ele>671.14</ele>
        <time>2017-12-17T11:15:32Z</time>
      </trkpt>
      <trkpt lat="44.46997" lon="5.00954">
        <ele>673.54</ele>
        <time>2017-12-17T11:15:41Z</time>
      </trkpt>
      <trkpt lat="44.4699" lon="5.00957">
        <ele>675.94</ele>
        <time>2017-12-17T11:15:52Z</time>
      </trkpt>
      <trkpt lat="44.46987" lon="5.00959">
        <ele>677.87</ele>
        <time>2017-12-17T11:16:04Z</time>
      </trkpt>
      <trkpt lat="44.46983" lon="5.00964">
        <ele>679.31</ele>
        <time>2017-12-17T11:16:17Z</time>
      </trkpt>
      <trkpt lat="44.46981" lon="5.00968">
        <ele>681.23</ele>
        <time>2017-12-17T11:16:27Z</time>
      </trkpt>
      <trkpt lat="44.46979" lon="5.00969">
        <ele>681.71</ele>
        <time>2017-12-17T11:16:33Z</time>
      </trkpt>
      <trkpt lat="44.46976" lon="5.00969">
        <ele>681.71</ele>
        <time>2017-12-17T11:16:39Z</time>
      </trkpt>
      <trkpt lat="44.46975" lon="5.00971">
        <ele>682.67</ele>
        <time>2017-12-17T11:16:52Z</time>
      </trkpt>
      <trkpt lat="44.46975" lon="5.00971">
        <ele>684.12</ele>
        <time>2017-12-17T11:17:06Z</time>
      </trkpt>
      <trkpt lat="44.46974" lon="5.00972">
        <ele>684.6</ele>
        <time>2017-12-17T11:17:11Z</time>
      </trkpt>
      <trkpt lat="44.46971" lon="5.00975">
        <ele>685.08</ele>
        <time>2017-12-17T11:17:21Z</time>
      </trkpt>
      <trkpt lat="44.46968" lon="5.00975">
        <ele>685.08</ele>
        <time>2017-12-17T11:17:37Z</time>
      </trkpt>
      <trkpt lat="44.46966" lon="5.00976">
        <ele>685.56</ele>
        <time>2017-12-17T11:17:39Z</time>
      </trkpt>
      <trkpt lat="44.46963" lon="5.0098">
        <ele>687</ele>
        <time>2017-12-17T11:17:50Z</time>
      </trkpt>
      <trkpt lat="44.46962" lon="5.0098">
        <ele>687.48</ele>
        <time>2017-12-17T11:18:07Z</time>
      </trkpt>
      <trkpt lat="44.46962" lon="5.0098">
        <ele>686.52</ele>
        <time>2017-12-17T11:18:19Z</time>
      </trkpt>
      <trkpt lat="44.46961" lon="5.00981">
        <ele>685.56</ele>
        <time>2017-12-17T11:18:29Z</time>
      </trkpt>
      <trkpt lat="44.4696" lon="5.0098">
        <ele>687</ele>
        <time>2017-12-17T11:18:48Z</time>
      </trkpt>
      <trkpt lat="44.46958" lon="5.00981">
        <ele>687.96</ele>
        <time>2017-12-17T11:18:56Z</time>
      </trkpt>
      <trkpt lat="44.46951" lon="5.00985">
        <ele>690.84</ele>
        <time>2017-12-17T11:19:08Z</time>
      </trkpt>
      <trkpt lat="44.46951" lon="5.00985">
        <ele>691.33</ele>
        <time>2017-12-17T11:19:09Z</time>
      </trkpt>
      <trkpt lat="44.46947" lon="5.00987">
        <ele>692.77</ele>
        <time>2017-12-17T11:19:17Z</time>
      </trkpt>
      <trkpt lat="44.46939" lon="5.00992">
        <ele>694.21</ele>
        <time>2017-12-17T11:19:27Z</time>
      </trkpt>
      <trkpt lat="44.46938" lon="5.00993">
        <ele>694.21</ele>
        <time>2017-12-17T11:19:43Z</time>
      </trkpt>
      <trkpt lat="44.46936" lon="5.00993">
        <ele>693.25</ele>
        <time>2017-12-17T11:20:05Z</time>
      </trkpt>
      <trkpt lat="44.46936" lon="5.00993">
        <ele>694.21</ele>
        <time>2017-12-17T11:20:18Z</time>
      </trkpt>
      <trkpt lat="44.46936" lon="5.00994">
        <ele>694.21</ele>
        <time>2017-12-17T11:20:28Z</time>
      </trkpt>
      <trkpt lat="44.46936" lon="5.00994">
        <ele>693.73</ele>
        <time>2017-12-17T11:20:40Z</time>
      </trkpt>
      <trkpt lat="44.46936" lon="5.00994">
        <ele>692.77</ele>
        <time>2017-12-17T11:20:55Z</time>
      </trkpt>
      <trkpt lat="44.46936" lon="5.00994">
        <ele>692.77</ele>
        <time>2017-12-17T11:21:17Z</time>
      </trkpt>
      <trkpt lat="44.46935" lon="5.00994">
        <ele>692.77</ele>
        <time>2017-12-17T11:21:38Z</time>
      </trkpt>
      <trkpt lat="44.46935" lon="5.00995">
        <ele>692.77</ele>
        <time>2017-12-17T11:22:03Z</time>
      </trkpt>
      <trkpt lat="44.46935" lon="5.00995">
        <ele>693.73</ele>
        <time>2017-12-17T11:22:26Z</time>
      </trkpt>
      <trkpt lat="44.46935" lon="5.00995">
        <ele>693.25</ele>
        <time>2017-12-17T11:22:47Z</time>
      </trkpt>
      <trkpt lat="44.46935" lon="5.00995">
        <ele>692.77</ele>
        <time>2017-12-17T11:23:13Z</time>
      </trkpt>
      <trkpt lat="44.46935" lon="5.00995">
        <ele>693.25</ele>
        <time>2017-12-17T11:23:35Z</time>
      </trkpt>
      <trkpt lat="44.46935" lon="5.00996">
        <ele>693.25</ele>
        <time>2017-12-17T11:23:58Z</time>
      </trkpt>
      <trkpt lat="44.46936" lon="5.00996">
        <ele>692.77</ele>
        <time>2017-12-17T11:24:08Z</time>
      </trkpt>
      <trkpt lat="44.46936" lon="5.00996">
        <ele>693.73</ele>
        <time>2017-12-17T11:24:10Z</time>
      </trkpt>
      <trkpt lat="44.46935" lon="5.00996">
        <ele>691.81</ele>
        <time>2017-12-17T11:24:41Z</time>
      </trkpt>
      <trkpt lat="44.46936" lon="5.00995">
        <ele>691.81</ele>
        <time>2017-12-17T11:25:13Z</time>
      </trkpt>
      <trkpt lat="44.46936" lon="5.00995">
        <ele>691.81</ele>
        <time>2017-12-17T11:25:43Z</time>
      </trkpt>
      <trkpt lat="44.46935" lon="5.00995">
        <ele>691.33</ele>
        <time>2017-12-17T11:26:10Z</time>
      </trkpt>
      <trkpt lat="44.46936" lon="5.00995">
        <ele>691.81</ele>
        <time>2017-12-17T11:26:33Z</time>
      </trkpt>
      <trkpt lat="44.46936" lon="5.00995">
        <ele>691.33</ele>
        <time>2017-12-17T11:26:59Z</time>
      </trkpt>
      <trkpt lat="44.46936" lon="5.00995">
        <ele>691.33</ele>
        <time>2017-12-17T11:27:24Z</time>
      </trkpt>
      <trkpt lat="44.46936" lon="5.00995">
        <ele>690.84</ele>
        <time>2017-12-17T11:27:54Z</time>
      </trkpt>
      <trkpt lat="44.46936" lon="5.00996">
        <ele>691.81</ele>
        <time>2017-12-17T11:28:16Z</time>
      </trkpt>
      <trkpt lat="44.46936" lon="5.00995">
        <ele>692.29</ele>
        <time>2017-12-17T11:28:31Z</time>
      </trkpt>
      <trkpt lat="44.46937" lon="5.00996">
        <ele>692.77</ele>
        <time>2017-12-17T11:28:47Z</time>
      </trkpt>
      <trkpt lat="44.46937" lon="5.00996">
        <ele>692.29</ele>
        <time>2017-12-17T11:29:02Z</time>
      </trkpt>
      <trkpt lat="44.46937" lon="5.00995">
        <ele>692.29</ele>
        <time>2017-12-17T11:29:32Z</time>
      </trkpt>
      <trkpt lat="44.46937" lon="5.00995">
        <ele>691.33</ele>
        <time>2017-12-17T11:30:04Z</time>
      </trkpt>
      <trkpt lat="44.46937" lon="5.00995">
        <ele>691.33</ele>
        <time>2017-12-17T11:30:31Z</time>
      </trkpt>
      <trkpt lat="44.46937" lon="5.00995">
        <ele>691.33</ele>
        <time>2017-12-17T11:31:01Z</time>
      </trkpt>
      <trkpt lat="44.46937" lon="5.00996">
        <ele>691.81</ele>
        <time>2017-12-17T11:31:30Z</time>
      </trkpt>
      <trkpt lat="44.46937" lon="5.00995">
        <ele>690.84</ele>
        <time>2017-12-17T11:31:51Z</time>
      </trkpt>
      <trkpt lat="44.46937" lon="5.00995">
        <ele>690.36</ele>
        <time>2017-12-17T11:32:15Z</time>
      </trkpt>
      <trkpt lat="44.46937" lon="5.00995">
        <ele>691.81</ele>
        <time>2017-12-17T11:32:40Z</time>
      </trkpt>
      <trkpt lat="44.46937" lon="5.00996">
        <ele>691.33</ele>
        <time>2017-12-17T11:33:05Z</time>
      </trkpt>
      <trkpt lat="44.46938" lon="5.00995">
        <ele>690.84</ele>
        <time>2017-12-17T11:33:32Z</time>
      </trkpt>
      <trkpt lat="44.46938" lon="5.00995">
        <ele>692.29</ele>
        <time>2017-12-17T11:34:03Z</time>
      </trkpt>
      <trkpt lat="44.46937" lon="5.00996">
        <ele>693.73</ele>
        <time>2017-12-17T11:34:18Z</time>
      </trkpt>
      <trkpt lat="44.46937" lon="5.00996">
        <ele>694.21</ele>
        <time>2017-12-17T11:34:22Z</time>
      </trkpt>
      <trkpt lat="44.46938" lon="5.00995">
        <ele>691.81</ele>
        <time>2017-12-17T11:34:54Z</time>
      </trkpt>
      <trkpt lat="44.46937" lon="5.00996">
        <ele>691.81</ele>
        <time>2017-12-17T11:35:23Z</time>
      </trkpt>
      <trkpt lat="44.46938" lon="5.00995">
        <ele>692.29</ele>
        <time>2017-12-17T11:35:51Z</time>
      </trkpt>
      <trkpt lat="44.46938" lon="5.00995">
        <ele>691.33</ele>
        <time>2017-12-17T11:36:18Z</time>
      </trkpt>
      <trkpt lat="44.46937" lon="5.00995">
        <ele>691.33</ele>
        <time>2017-12-17T11:36:48Z</time>
      </trkpt>
      <trkpt lat="44.46937" lon="5.00995">
        <ele>691.81</ele>
        <time>2017-12-17T11:37:22Z</time>
      </trkpt>
      <trkpt lat="44.46937" lon="5.00994">
        <ele>691.81</ele>
        <time>2017-12-17T11:37:52Z</time>
      </trkpt>
      <trkpt lat="44.46936" lon="5.00994">
        <ele>691.81</ele>
        <time>2017-12-17T11:38:21Z</time>
      </trkpt>
      <trkpt lat="44.46937" lon="5.00994">
        <ele>691.81</ele>
        <time>2017-12-17T11:38:52Z</time>
      </trkpt>
      <trkpt lat="44.46938" lon="5.00995">
        <ele>692.29</ele>
        <time>2017-12-17T11:39:24Z</time>
      </trkpt>
      <trkpt lat="44.46938" lon="5.00995">
        <ele>692.29</ele>
        <time>2017-12-17T11:39:55Z</time>
      </trkpt>
      <trkpt lat="44.46938" lon="5.00995">
        <ele>691.81</ele>
        <time>2017-12-17T11:40:25Z</time>
      </trkpt>
      <trkpt lat="44.46938" lon="5.00995">
        <ele>692.29</ele>
        <time>2017-12-17T11:40:55Z</time>
      </trkpt>
      <trkpt lat="44.46938" lon="5.00995">
        <ele>692.29</ele>
        <time>2017-12-17T11:41:28Z</time>
      </trkpt>
      <trkpt lat="44.46938" lon="5.00995">
        <ele>691.81</ele>
        <time>2017-12-17T11:42:02Z</time>
      </trkpt>
      <trkpt lat="44.46937" lon="5.00995">
        <ele>691.33</ele>
        <time>2017-12-17T11:42:34Z</time>
      </trkpt>
      <trkpt lat="44.46936" lon="5.00995">
        <ele>691.81</ele>
        <time>2017-12-17T11:43:06Z</time>
      </trkpt>
      <trkpt lat="44.46936" lon="5.00995">
        <ele>691.81</ele>
        <time>2017-12-17T11:43:25Z</time>
      </trkpt>
      <trkpt lat="44.46936" lon="5.00995">
        <ele>692.29</ele>
        <time>2017-12-17T11:43:58Z</time>
      </trkpt>
      <trkpt lat="44.46936" lon="5.00996">
        <ele>692.77</ele>
        <time>2017-12-17T11:44:30Z</time>
      </trkpt>
      <trkpt lat="44.46936" lon="5.00996">
        <ele>691.33</ele>
        <time>2017-12-17T11:45:04Z</time>
      </trkpt>
      <trkpt lat="44.46936" lon="5.00996">
        <ele>691.33</ele>
        <time>2017-12-17T11:45:40Z</time>
      </trkpt>
      <trkpt lat="44.46936" lon="5.00996">
        <ele>691.81</ele>
        <time>2017-12-17T11:46:17Z</time>
      </trkpt>
      <trkpt lat="44.46937" lon="5.00996">
        <ele>692.77</ele>
        <time>2017-12-17T11:46:48Z</time>
      </trkpt>
      <trkpt lat="44.46937" lon="5.00997">
        <ele>693.73</ele>
        <time>2017-12-17T11:47:24Z</time>
      </trkpt>
      <trkpt lat="44.46937" lon="5.00997">
        <ele>693.73</ele>
        <time>2017-12-17T11:47:25Z</time>
      </trkpt>
      <trkpt lat="44.46938" lon="5.00996">
        <ele>691.33</ele>
        <time>2017-12-17T11:48:02Z</time>
      </trkpt>
      <trkpt lat="44.46938" lon="5.00996">
        <ele>691.81</ele>
        <time>2017-12-17T11:48:30Z</time>
      </trkpt>
      <trkpt lat="44.46937" lon="5.00996">
        <ele>691.81</ele>
        <time>2017-12-17T11:49:03Z</time>
      </trkpt>
      <trkpt lat="44.46937" lon="5.00997">
        <ele>691.81</ele>
        <time>2017-12-17T11:49:38Z</time>
      </trkpt>
      <trkpt lat="44.46937" lon="5.00997">
        <ele>691.33</ele>
        <time>2017-12-17T11:50:10Z</time>
      </trkpt>
      <trkpt lat="44.46938" lon="5.00997">
        <ele>691.33</ele>
        <time>2017-12-17T11:50:42Z</time>
      </trkpt>
      <trkpt lat="44.46938" lon="5.00997">
        <ele>691.81</ele>
        <time>2017-12-17T11:51:13Z</time>
      </trkpt>
      <trkpt lat="44.46939" lon="5.00997">
        <ele>691.81</ele>
        <time>2017-12-17T11:51:46Z</time>
      </trkpt>
      <trkpt lat="44.46939" lon="5.00996">
        <ele>692.29</ele>
        <time>2017-12-17T11:52:14Z</time>
      </trkpt>
      <trkpt lat="44.46939" lon="5.00995">
        <ele>691.33</ele>
        <time>2017-12-17T11:52:46Z</time>
      </trkpt>
      <trkpt lat="44.46938" lon="5.00995">
        <ele>691.33</ele>
        <time>2017-12-17T11:53:13Z</time>
      </trkpt>
      <trkpt lat="44.46938" lon="5.00994">
        <ele>691.33</ele>
        <time>2017-12-17T11:53:41Z</time>
      </trkpt>
      <trkpt lat="44.46938" lon="5.00994">
        <ele>691.33</ele>
        <time>2017-12-17T11:54:12Z</time>
      </trkpt>
      <trkpt lat="44.46938" lon="5.00994">
        <ele>691.33</ele>
        <time>2017-12-17T11:54:43Z</time>
      </trkpt>
      <trkpt lat="44.46938" lon="5.00994">
        <ele>691.81</ele>
        <time>2017-12-17T11:55:15Z</time>
      </trkpt>
      <trkpt lat="44.46938" lon="5.00994">
        <ele>691.33</ele>
        <time>2017-12-17T11:55:46Z</time>
      </trkpt>
      <trkpt lat="44.46938" lon="5.00994">
        <ele>691.81</ele>
        <time>2017-12-17T11:56:06Z</time>
      </trkpt>
      <trkpt lat="44.46938" lon="5.00994">
        <ele>692.29</ele>
        <time>2017-12-17T11:56:40Z</time>
      </trkpt>
      <trkpt lat="44.46938" lon="5.00994">
        <ele>691.33</ele>
        <time>2017-12-17T11:57:09Z</time>
      </trkpt>
      <trkpt lat="44.46938" lon="5.00994">
        <ele>692.29</ele>
        <time>2017-12-17T11:57:41Z</time>
      </trkpt>
      <trkpt lat="44.46938" lon="5.00993">
        <ele>691.81</ele>
        <time>2017-12-17T11:58:14Z</time>
      </trkpt>
      <trkpt lat="44.46938" lon="5.00993">
        <ele>691.33</ele>
        <time>2017-12-17T11:58:44Z</time>
      </trkpt>
      <trkpt lat="44.46938" lon="5.00994">
        <ele>691.81</ele>
        <time>2017-12-17T11:59:16Z</time>
      </trkpt>
      <trkpt lat="44.46937" lon="5.00995">
        <ele>691.81</ele>
        <time>2017-12-17T11:59:47Z</time>
      </trkpt>
      <trkpt lat="44.46937" lon="5.00994">
        <ele>690.84</ele>
        <time>2017-12-17T12:00:13Z</time>
      </trkpt>
      <trkpt lat="44.46936" lon="5.00994">
        <ele>691.33</ele>
        <time>2017-12-17T12:00:42Z</time>
      </trkpt>
      <trkpt lat="44.46936" lon="5.00993">
        <ele>691.33</ele>
        <time>2017-12-17T12:01:14Z</time>
      </trkpt>
      <trkpt lat="44.46936" lon="5.00994">
        <ele>691.33</ele>
        <time>2017-12-17T12:01:43Z</time>
      </trkpt>
      <trkpt lat="44.46936" lon="5.00995">
        <ele>691.33</ele>
        <time>2017-12-17T12:02:14Z</time>
      </trkpt>
      <trkpt lat="44.46936" lon="5.00994">
        <ele>691.33</ele>
        <time>2017-12-17T12:02:42Z</time>
      </trkpt>
      <trkpt lat="44.46936" lon="5.00994">
        <ele>691.33</ele>
        <time>2017-12-17T12:03:13Z</time>
      </trkpt>
      <trkpt lat="44.46936" lon="5.00994">
        <ele>691.81</ele>
        <time>2017-12-17T12:03:44Z</time>
      </trkpt>
      <trkpt lat="44.46937" lon="5.00994">
        <ele>692.77</ele>
        <time>2017-12-17T12:04:18Z</time>
      </trkpt>
      <trkpt lat="44.46937" lon="5.00994">
        <ele>692.29</ele>
        <time>2017-12-17T12:04:46Z</time>
      </trkpt>
      <trkpt lat="44.46938" lon="5.00994">
        <ele>692.29</ele>
        <time>2017-12-17T12:05:14Z</time>
      </trkpt>
      <trkpt lat="44.46938" lon="5.00994">
        <ele>692.29</ele>
        <time>2017-12-17T12:05:37Z</time>
      </trkpt>
      <trkpt lat="44.46937" lon="5.00994">
        <ele>691.81</ele>
        <time>2017-12-17T12:05:58Z</time>
      </trkpt>
      <trkpt lat="44.46936" lon="5.00993">
        <ele>693.25</ele>
        <time>2017-12-17T12:06:11Z</time>
      </trkpt>
      <trkpt lat="44.46936" lon="5.00994">
        <ele>693.25</ele>
        <time>2017-12-17T12:06:26Z</time>
      </trkpt>
      <trkpt lat="44.46936" lon="5.00993">
        <ele>692.29</ele>
        <time>2017-12-17T12:06:37Z</time>
      </trkpt>
      <trkpt lat="44.46937" lon="5.00993">
        <ele>692.77</ele>
        <time>2017-12-17T12:06:51Z</time>
      </trkpt>
      <trkpt lat="44.46935" lon="5.00994">
        <ele>692.77</ele>
        <time>2017-12-17T12:07:04Z</time>
      </trkpt>
      <trkpt lat="44.46935" lon="5.00993">
        <ele>692.29</ele>
        <time>2017-12-17T12:07:15Z</time>
      </trkpt>
      <trkpt lat="44.46935" lon="5.00994">
        <ele>692.29</ele>
        <time>2017-12-17T12:07:28Z</time>
      </trkpt>
      <trkpt lat="44.46935" lon="5.00995">
        <ele>692.77</ele>
        <time>2017-12-17T12:07:38Z</time>
      </trkpt>
      <trkpt lat="44.46933" lon="5.00994">
        <ele>692.29</ele>
        <time>2017-12-17T12:07:48Z</time>
      </trkpt>
      <trkpt lat="44.46932" lon="5.00993">
        <ele>691.81</ele>
        <time>2017-12-17T12:07:58Z</time>
      </trkpt>
      <trkpt lat="44.46922" lon="5.00988">
        <ele>691.33</ele>
        <time>2017-12-17T12:08:12Z</time>
      </trkpt>
      <trkpt lat="44.46917" lon="5.00987">
        <ele>692.29</ele>
        <time>2017-12-17T12:08:18Z</time>
      </trkpt>
      <trkpt lat="44.46908" lon="5.00991">
        <ele>690.84</ele>
        <time>2017-12-17T12:08:29Z</time>
      </trkpt>
      <trkpt lat="44.46898" lon="5.00992">
        <ele>690.84</ele>
        <time>2017-12-17T12:08:39Z</time>
      </trkpt>
      <trkpt lat="44.46895" lon="5.00992">
        <ele>689.88</ele>
        <time>2017-12-17T12:08:47Z</time>
      </trkpt>
      <trkpt lat="44.46893" lon="5.00992">
        <ele>690.36</ele>
        <time>2017-12-17T12:08:49Z</time>
      </trkpt>
      <trkpt lat="44.4689" lon="5.00992">
        <ele>688.44</ele>
        <time>2017-12-17T12:08:58Z</time>
      </trkpt>
      <trkpt lat="44.46883" lon="5.00989">
        <ele>687.96</ele>
        <time>2017-12-17T12:09:07Z</time>
      </trkpt>
      <trkpt lat="44.46874" lon="5.00984">
        <ele>685.56</ele>
        <time>2017-12-17T12:09:16Z</time>
      </trkpt>
      <trkpt lat="44.46871" lon="5.00982">
        <ele>686.04</ele>
        <time>2017-12-17T12:09:21Z</time>
      </trkpt>
      <trkpt lat="44.46867" lon="5.00983">
        <ele>684.6</ele>
        <time>2017-12-17T12:09:28Z</time>
      </trkpt>
      <trkpt lat="44.46858" lon="5.00984">
        <ele>685.08</ele>
        <time>2017-12-17T12:09:41Z</time>
      </trkpt>
      <trkpt lat="44.46853" lon="5.00988">
        <ele>685.08</ele>
        <time>2017-12-17T12:09:51Z</time>
      </trkpt>
      <trkpt lat="44.46846" lon="5.0099">
        <ele>684.12</ele>
        <time>2017-12-17T12:10:03Z</time>
      </trkpt>
      <trkpt lat="44.46837" lon="5.00988">
        <ele>681.71</ele>
        <time>2017-12-17T12:10:15Z</time>
      </trkpt>
      <trkpt lat="44.46827" lon="5.00987">
        <ele>680.27</ele>
        <time>2017-12-17T12:10:28Z</time>
      </trkpt>
      <trkpt lat="44.46822" lon="5.00984">
        <ele>679.31</ele>
        <time>2017-12-17T12:10:34Z</time>
      </trkpt>
      <trkpt lat="44.46814" lon="5.00984">
        <ele>677.87</ele>
        <time>2017-12-17T12:10:44Z</time>
      </trkpt>
      <trkpt lat="44.46807" lon="5.00987">
        <ele>677.39</ele>
        <time>2017-12-17T12:10:56Z</time>
      </trkpt>
      <trkpt lat="44.46803" lon="5.00989">
        <ele>677.39</ele>
        <time>2017-12-17T12:11:00Z</time>
      </trkpt>
      <trkpt lat="44.46794" lon="5.00997">
        <ele>677.87</ele>
        <time>2017-12-17T12:11:11Z</time>
      </trkpt>
      <trkpt lat="44.4679" lon="5.01005">
        <ele>677.39</ele>
        <time>2017-12-17T12:11:17Z</time>
      </trkpt>
      <trkpt lat="44.46781" lon="5.0101">
        <ele>677.87</ele>
        <time>2017-12-17T12:11:22Z</time>
      </trkpt>
      <trkpt lat="44.46774" lon="5.01018">
        <ele>676.91</ele>
        <time>2017-12-17T12:11:35Z</time>
      </trkpt>
      <trkpt lat="44.46773" lon="5.01019">
        <ele>676.91</ele>
        <time>2017-12-17T12:11:36Z</time>
      </trkpt>
      <trkpt lat="44.46768" lon="5.01022">
        <ele>677.39</ele>
        <time>2017-12-17T12:11:43Z</time>
      </trkpt>
      <trkpt lat="44.46765" lon="5.01024">
        <ele>677.39</ele>
        <time>2017-12-17T12:11:54Z</time>
      </trkpt>
      <trkpt lat="44.46765" lon="5.01024">
        <ele>677.39</ele>
        <time>2017-12-17T12:11:55Z</time>
      </trkpt>
      <trkpt lat="44.46759" lon="5.01027">
        <ele>676.42</ele>
        <time>2017-12-17T12:11:59Z</time>
      </trkpt>
      <trkpt lat="44.46746" lon="5.01034">
        <ele>674.5</ele>
        <time>2017-12-17T12:12:10Z</time>
      </trkpt>
      <trkpt lat="44.46728" lon="5.0104">
        <ele>673.06</ele>
        <time>2017-12-17T12:12:23Z</time>
      </trkpt>
      <trkpt lat="44.46726" lon="5.01042">
        <ele>672.58</ele>
        <time>2017-12-17T12:12:25Z</time>
      </trkpt>
      <trkpt lat="44.46713" lon="5.01046">
        <ele>672.1</ele>
        <time>2017-12-17T12:12:36Z</time>
      </trkpt>
      <trkpt lat="44.46712" lon="5.01048">
        <ele>672.1</ele>
        <time>2017-12-17T12:12:38Z</time>
      </trkpt>
      <trkpt lat="44.46708" lon="5.01052">
        <ele>672.1</ele>
        <time>2017-12-17T12:12:42Z</time>
      </trkpt>
      <trkpt lat="44.46705" lon="5.01053">
        <ele>671.62</ele>
        <time>2017-12-17T12:12:45Z</time>
      </trkpt>
      <trkpt lat="44.467" lon="5.01057">
        <ele>671.62</ele>
        <time>2017-12-17T12:12:51Z</time>
      </trkpt>
      <trkpt lat="44.46694" lon="5.01067">
        <ele>671.62</ele>
        <time>2017-12-17T12:12:56Z</time>
      </trkpt>
      <trkpt lat="44.46687" lon="5.01074">
        <ele>670.18</ele>
        <time>2017-12-17T12:13:06Z</time>
      </trkpt>
      <trkpt lat="44.46682" lon="5.01078">
        <ele>669.7</ele>
        <time>2017-12-17T12:13:11Z</time>
      </trkpt>
      <trkpt lat="44.46678" lon="5.01081">
        <ele>669.22</ele>
        <time>2017-12-17T12:13:14Z</time>
      </trkpt>
      <trkpt lat="44.46667" lon="5.01091">
        <ele>668.25</ele>
        <time>2017-12-17T12:13:24Z</time>
      </trkpt>
      <trkpt lat="44.46665" lon="5.0109">
        <ele>668.25</ele>
        <time>2017-12-17T12:13:25Z</time>
      </trkpt>
      <trkpt lat="44.46662" lon="5.01091">
        <ele>667.77</ele>
        <time>2017-12-17T12:13:34Z</time>
      </trkpt>
      <trkpt lat="44.46655" lon="5.01096">
        <ele>664.89</ele>
        <time>2017-12-17T12:13:45Z</time>
      </trkpt>
      <trkpt lat="44.46654" lon="5.01096">
        <ele>664.89</ele>
        <time>2017-12-17T12:13:46Z</time>
      </trkpt>
      <trkpt lat="44.46651" lon="5.01095">
        <ele>664.41</ele>
        <time>2017-12-17T12:13:48Z</time>
      </trkpt>
      <trkpt lat="44.46648" lon="5.01092">
        <ele>663.93</ele>
        <time>2017-12-17T12:13:50Z</time>
      </trkpt>
      <trkpt lat="44.4664" lon="5.01094">
        <ele>663.93</ele>
        <time>2017-12-17T12:13:55Z</time>
      </trkpt>
      <trkpt lat="44.46635" lon="5.01094">
        <ele>661.52</ele>
        <time>2017-12-17T12:14:04Z</time>
      </trkpt>
      <trkpt lat="44.46629" lon="5.01095">
        <ele>661.04</ele>
        <time>2017-12-17T12:14:08Z</time>
      </trkpt>
      <trkpt lat="44.46623" lon="5.01101">
        <ele>660.56</ele>
        <time>2017-12-17T12:14:15Z</time>
      </trkpt>
      <trkpt lat="44.4662" lon="5.01101">
        <ele>659.6</ele>
        <time>2017-12-17T12:14:18Z</time>
      </trkpt>
      <trkpt lat="44.46618" lon="5.01096">
        <ele>657.68</ele>
        <time>2017-12-17T12:14:28Z</time>
      </trkpt>
      <trkpt lat="44.46618" lon="5.01095">
        <ele>657.2</ele>
        <time>2017-12-17T12:14:32Z</time>
      </trkpt>
      <trkpt lat="44.46611" lon="5.01099">
        <ele>656.24</ele>
        <time>2017-12-17T12:14:41Z</time>
      </trkpt>
      <trkpt lat="44.46608" lon="5.01101">
        <ele>655.28</ele>
        <time>2017-12-17T12:14:44Z</time>
      </trkpt>
      <trkpt lat="44.46601" lon="5.01104">
        <ele>654.8</ele>
        <time>2017-12-17T12:14:49Z</time>
      </trkpt>
      <trkpt lat="44.46594" lon="5.01105">
        <ele>652.87</ele>
        <time>2017-12-17T12:15:00Z</time>
      </trkpt>
      <trkpt lat="44.46586" lon="5.01099">
        <ele>650.95</ele>
        <time>2017-12-17T12:15:09Z</time>
      </trkpt>
      <trkpt lat="44.46582" lon="5.011">
        <ele>649.99</ele>
        <time>2017-12-17T12:15:14Z</time>
      </trkpt>
      <trkpt lat="44.46578" lon="5.01099">
        <ele>649.51</ele>
        <time>2017-12-17T12:15:17Z</time>
      </trkpt>
      <trkpt lat="44.46574" lon="5.01099">
        <ele>648.55</ele>
        <time>2017-12-17T12:15:25Z</time>
      </trkpt>
      <trkpt lat="44.46573" lon="5.01099">
        <ele>648.07</ele>
        <time>2017-12-17T12:15:27Z</time>
      </trkpt>
      <trkpt lat="44.46569" lon="5.011">
        <ele>648.07</ele>
        <time>2017-12-17T12:15:30Z</time>
      </trkpt>
      <trkpt lat="44.46564" lon="5.01106">
        <ele>647.59</ele>
        <time>2017-12-17T12:15:36Z</time>
      </trkpt>
      <trkpt lat="44.46555" lon="5.01109">
        <ele>647.1</ele>
        <time>2017-12-17T12:15:43Z</time>
      </trkpt>
      <trkpt lat="44.4655" lon="5.01111">
        <ele>646.14</ele>
        <time>2017-12-17T12:15:48Z</time>
      </trkpt>
      <trkpt lat="44.46543" lon="5.01114">
        <ele>644.7</ele>
        <time>2017-12-17T12:16:00Z</time>
      </trkpt>
      <trkpt lat="44.46539" lon="5.01121">
        <ele>646.14</ele>
        <time>2017-12-17T12:16:11Z</time>
      </trkpt>
      <trkpt lat="44.46531" lon="5.0113">
        <ele>644.22</ele>
        <time>2017-12-17T12:16:22Z</time>
      </trkpt>
      <trkpt lat="44.46529" lon="5.01133">
        <ele>643.26</ele>
        <time>2017-12-17T12:16:27Z</time>
      </trkpt>
      <trkpt lat="44.46522" lon="5.01132">
        <ele>642.3</ele>
        <time>2017-12-17T12:16:34Z</time>
      </trkpt>
      <trkpt lat="44.46514" lon="5.01131">
        <ele>640.86</ele>
        <time>2017-12-17T12:16:42Z</time>
      </trkpt>
      <trkpt lat="44.46507" lon="5.01127">
        <ele>639.89</ele>
        <time>2017-12-17T12:16:50Z</time>
      </trkpt>
      <trkpt lat="44.46504" lon="5.01126">
        <ele>636.53</ele>
        <time>2017-12-17T12:17:00Z</time>
      </trkpt>
      <trkpt lat="44.465" lon="5.01124">
        <ele>634.13</ele>
        <time>2017-12-17T12:17:08Z</time>
      </trkpt>
      <trkpt lat="44.46491" lon="5.01123">
        <ele>632.68</ele>
        <time>2017-12-17T12:17:17Z</time>
      </trkpt>
      <trkpt lat="44.46487" lon="5.01121">
        <ele>631.72</ele>
        <time>2017-12-17T12:17:27Z</time>
      </trkpt>
      <trkpt lat="44.46479" lon="5.01127">
        <ele>629.32</ele>
        <time>2017-12-17T12:17:38Z</time>
      </trkpt>
      <trkpt lat="44.46469" lon="5.0113">
        <ele>627.4</ele>
        <time>2017-12-17T12:17:50Z</time>
      </trkpt>
      <trkpt lat="44.46463" lon="5.01129">
        <ele>624.99</ele>
        <time>2017-12-17T12:18:05Z</time>
      </trkpt>
      <trkpt lat="44.4646" lon="5.01128">
        <ele>623.55</ele>
        <time>2017-12-17T12:18:16Z</time>
      </trkpt>
      <trkpt lat="44.46454" lon="5.01125">
        <ele>621.63</ele>
        <time>2017-12-17T12:18:32Z</time>
      </trkpt>
      <trkpt lat="44.46448" lon="5.01124">
        <ele>619.71</ele>
        <time>2017-12-17T12:18:43Z</time>
      </trkpt>
      <trkpt lat="44.46447" lon="5.01123">
        <ele>618.75</ele>
        <time>2017-12-17T12:18:48Z</time>
      </trkpt>
      <trkpt lat="44.46439" lon="5.01125">
        <ele>617.78</ele>
        <time>2017-12-17T12:18:58Z</time>
      </trkpt>
      <trkpt lat="44.46432" lon="5.01129">
        <ele>616.82</ele>
        <time>2017-12-17T12:19:04Z</time>
      </trkpt>
      <trkpt lat="44.46424" lon="5.01137">
        <ele>615.38</ele>
        <time>2017-12-17T12:19:12Z</time>
      </trkpt>
      <trkpt lat="44.46407" lon="5.01143">
        <ele>613.94</ele>
        <time>2017-12-17T12:19:22Z</time>
      </trkpt>
      <trkpt lat="44.46402" lon="5.01147">
        <ele>612.02</ele>
        <time>2017-12-17T12:19:35Z</time>
      </trkpt>
      <trkpt lat="44.46396" lon="5.01151">
        <ele>611.06</ele>
        <time>2017-12-17T12:19:39Z</time>
      </trkpt>
      <trkpt lat="44.46385" lon="5.01153">
        <ele>608.65</ele>
        <time>2017-12-17T12:19:51Z</time>
      </trkpt>
      <trkpt lat="44.46381" lon="5.01157">
        <ele>607.69</ele>
        <time>2017-12-17T12:20:02Z</time>
      </trkpt>
      <trkpt lat="44.46379" lon="5.01158">
        <ele>607.69</ele>
        <time>2017-12-17T12:20:13Z</time>
      </trkpt>
      <trkpt lat="44.46378" lon="5.01158">
        <ele>607.21</ele>
        <time>2017-12-17T12:20:21Z</time>
      </trkpt>
      <trkpt lat="44.46374" lon="5.01165">
        <ele>606.25</ele>
        <time>2017-12-17T12:20:25Z</time>
      </trkpt>
      <trkpt lat="44.46368" lon="5.0117">
        <ele>605.77</ele>
        <time>2017-12-17T12:20:36Z</time>
      </trkpt>
      <trkpt lat="44.46367" lon="5.01171">
        <ele>604.33</ele>
        <time>2017-12-17T12:20:41Z</time>
      </trkpt>
      <trkpt lat="44.46364" lon="5.01173">
        <ele>604.33</ele>
        <time>2017-12-17T12:20:46Z</time>
      </trkpt>
      <trkpt lat="44.46357" lon="5.0118">
        <ele>602.88</ele>
        <time>2017-12-17T12:20:52Z</time>
      </trkpt>
      <trkpt lat="44.4635" lon="5.01184">
        <ele>600.96</ele>
        <time>2017-12-17T12:21:03Z</time>
      </trkpt>
      <trkpt lat="44.4635" lon="5.01185">
        <ele>600.48</ele>
        <time>2017-12-17T12:21:05Z</time>
      </trkpt>
      <trkpt lat="44.46347" lon="5.01185">
        <ele>600.48</ele>
        <time>2017-12-17T12:21:07Z</time>
      </trkpt>
      <trkpt lat="44.46337" lon="5.01186">
        <ele>598.56</ele>
        <time>2017-12-17T12:21:20Z</time>
      </trkpt>
      <trkpt lat="44.46335" lon="5.01186">
        <ele>598.08</ele>
        <time>2017-12-17T12:21:23Z</time>
      </trkpt>
      <trkpt lat="44.46329" lon="5.01185">
        <ele>596.15</ele>
        <time>2017-12-17T12:21:33Z</time>
      </trkpt>
      <trkpt lat="44.46322" lon="5.01186">
        <ele>594.23</ele>
        <time>2017-12-17T12:21:42Z</time>
      </trkpt>
      <trkpt lat="44.46322" lon="5.01186">
        <ele>593.75</ele>
        <time>2017-12-17T12:21:46Z</time>
      </trkpt>
      <trkpt lat="44.46316" lon="5.01185">
        <ele>591.83</ele>
        <time>2017-12-17T12:21:58Z</time>
      </trkpt>
      <trkpt lat="44.46309" lon="5.0119">
        <ele>589.43</ele>
        <time>2017-12-17T12:22:08Z</time>
      </trkpt>
      <trkpt lat="44.46307" lon="5.0119">
        <ele>588.95</ele>
        <time>2017-12-17T12:22:13Z</time>
      </trkpt>
      <trkpt lat="44.463" lon="5.01193">
        <ele>587.02</ele>
        <time>2017-12-17T12:22:24Z</time>
      </trkpt>
      <trkpt lat="44.46298" lon="5.01194">
        <ele>585.1</ele>
        <time>2017-12-17T12:22:33Z</time>
      </trkpt>
      <trkpt lat="44.46296" lon="5.01195">
        <ele>584.14</ele>
        <time>2017-12-17T12:22:38Z</time>
      </trkpt>
      <trkpt lat="44.46291" lon="5.01197">
        <ele>582.7</ele>
        <time>2017-12-17T12:22:46Z</time>
      </trkpt>
      <trkpt lat="44.46279" lon="5.01201">
        <ele>580.29</ele>
        <time>2017-12-17T12:22:56Z</time>
      </trkpt>
      <trkpt lat="44.46275" lon="5.01203">
        <ele>579.81</ele>
        <time>2017-12-17T12:23:00Z</time>
      </trkpt>
      <trkpt lat="44.46265" lon="5.01207">
        <ele>578.37</ele>
        <time>2017-12-17T12:23:10Z</time>
      </trkpt>
      <trkpt lat="44.46258" lon="5.01209">
        <ele>576.45</ele>
        <time>2017-12-17T12:23:21Z</time>
      </trkpt>
      <trkpt lat="44.4625" lon="5.01212">
        <ele>574.53</ele>
        <time>2017-12-17T12:23:29Z</time>
      </trkpt>
      <trkpt lat="44.46244" lon="5.01216">
        <ele>572.6</ele>
        <time>2017-12-17T12:23:35Z</time>
      </trkpt>
      <trkpt lat="44.46242" lon="5.01218">
        <ele>573.08</ele>
        <time>2017-12-17T12:23:39Z</time>
      </trkpt>
      <trkpt lat="44.46233" lon="5.01222">
        <ele>572.12</ele>
        <time>2017-12-17T12:23:48Z</time>
      </trkpt>
      <trkpt lat="44.46232" lon="5.01222">
        <ele>572.12</ele>
        <time>2017-12-17T12:23:50Z</time>
      </trkpt>
      <trkpt lat="44.46224" lon="5.01225">
        <ele>570.68</ele>
        <time>2017-12-17T12:24:00Z</time>
      </trkpt>
      <trkpt lat="44.46214" lon="5.01229">
        <ele>568.76</ele>
        <time>2017-12-17T12:24:12Z</time>
      </trkpt>
      <trkpt lat="44.46203" lon="5.01235">
        <ele>566.83</ele>
        <time>2017-12-17T12:24:24Z</time>
      </trkpt>
      <trkpt lat="44.46193" lon="5.01245">
        <ele>565.39</ele>
        <time>2017-12-17T12:24:34Z</time>
      </trkpt>
      <trkpt lat="44.46187" lon="5.01247">
        <ele>564.91</ele>
        <time>2017-12-17T12:24:44Z</time>
      </trkpt>
      <trkpt lat="44.4618" lon="5.01248">
        <ele>562.99</ele>
        <time>2017-12-17T12:24:50Z</time>
      </trkpt>
      <trkpt lat="44.46171" lon="5.01248">
        <ele>562.51</ele>
        <time>2017-12-17T12:24:55Z</time>
      </trkpt>
      <trkpt lat="44.46169" lon="5.01248">
        <ele>562.03</ele>
        <time>2017-12-17T12:24:59Z</time>
      </trkpt>
      <trkpt lat="44.46165" lon="5.01249">
        <ele>560.59</ele>
        <time>2017-12-17T12:25:07Z</time>
      </trkpt>
      <trkpt lat="44.46161" lon="5.0125">
        <ele>559.14</ele>
        <time>2017-12-17T12:25:16Z</time>
      </trkpt>
      <trkpt lat="44.46157" lon="5.01251">
        <ele>558.66</ele>
        <time>2017-12-17T12:25:23Z</time>
      </trkpt>
      <trkpt lat="44.46145" lon="5.01256">
        <ele>557.22</ele>
        <time>2017-12-17T12:25:33Z</time>
      </trkpt>
      <trkpt lat="44.46138" lon="5.01256">
        <ele>555.78</ele>
        <time>2017-12-17T12:25:41Z</time>
      </trkpt>
      <trkpt lat="44.46136" lon="5.01255">
        <ele>555.78</ele>
        <time>2017-12-17T12:25:44Z</time>
      </trkpt>
      <trkpt lat="44.46132" lon="5.01255">
        <ele>555.3</ele>
        <time>2017-12-17T12:25:48Z</time>
      </trkpt>
      <trkpt lat="44.46125" lon="5.01256">
        <ele>553.86</ele>
        <time>2017-12-17T12:25:57Z</time>
      </trkpt>
      <trkpt lat="44.46121" lon="5.01258">
        <ele>553.38</ele>
        <time>2017-12-17T12:26:04Z</time>
      </trkpt>
      <trkpt lat="44.4611" lon="5.01261">
        <ele>551.93</ele>
        <time>2017-12-17T12:26:12Z</time>
      </trkpt>
      <trkpt lat="44.46104" lon="5.0126">
        <ele>550.97</ele>
        <time>2017-12-17T12:26:22Z</time>
      </trkpt>
      <trkpt lat="44.46098" lon="5.01263">
        <ele>549.53</ele>
        <time>2017-12-17T12:26:33Z</time>
      </trkpt>
      <trkpt lat="44.46093" lon="5.0126">
        <ele>548.57</ele>
        <time>2017-12-17T12:26:44Z</time>
      </trkpt>
      <trkpt lat="44.46084" lon="5.01261">
        <ele>547.61</ele>
        <time>2017-12-17T12:26:54Z</time>
      </trkpt>
      <trkpt lat="44.46067" lon="5.01269">
        <ele>547.13</ele>
        <time>2017-12-17T12:27:03Z</time>
      </trkpt>
      <trkpt lat="44.46061" lon="5.01272">
        <ele>547.61</ele>
        <time>2017-12-17T12:27:15Z</time>
      </trkpt>
      <trkpt lat="44.46059" lon="5.01271">
        <ele>548.09</ele>
        <time>2017-12-17T12:27:31Z</time>
      </trkpt>
      <trkpt lat="44.46058" lon="5.01271">
        <ele>549.05</ele>
        <time>2017-12-17T12:27:46Z</time>
      </trkpt>
      <trkpt lat="44.46058" lon="5.01271">
        <ele>550.97</ele>
        <time>2017-12-17T12:27:54Z</time>
      </trkpt>
      <trkpt lat="44.46058" lon="5.01271">
        <ele>548.09</ele>
        <time>2017-12-17T12:28:02Z</time>
      </trkpt>
      <trkpt lat="44.46058" lon="5.01271">
        <ele>547.61</ele>
        <time>2017-12-17T12:28:03Z</time>
      </trkpt>
      <trkpt lat="44.46057" lon="5.01271">
        <ele>548.57</ele>
        <time>2017-12-17T12:28:17Z</time>
      </trkpt>
      <trkpt lat="44.46056" lon="5.01272">
        <ele>547.61</ele>
        <time>2017-12-17T12:28:29Z</time>
      </trkpt>
      <trkpt lat="44.46052" lon="5.01273">
        <ele>547.13</ele>
        <time>2017-12-17T12:28:37Z</time>
      </trkpt>
      <trkpt lat="44.46044" lon="5.01276">
        <ele>547.13</ele>
        <time>2017-12-17T12:28:45Z</time>
      </trkpt>
      <trkpt lat="44.46034" lon="5.01279">
        <ele>546.17</ele>
        <time>2017-12-17T12:28:55Z</time>
      </trkpt>
      <trkpt lat="44.46024" lon="5.01281">
        <ele>545.2</ele>
        <time>2017-12-17T12:29:08Z</time>
      </trkpt>
      <trkpt lat="44.4602" lon="5.01282">
        <ele>544.72</ele>
        <time>2017-12-17T12:29:19Z</time>
      </trkpt>
      <trkpt lat="44.46016" lon="5.01283">
        <ele>543.76</ele>
        <time>2017-12-17T12:29:25Z</time>
      </trkpt>
      <trkpt lat="44.46007" lon="5.01286">
        <ele>542.8</ele>
        <time>2017-12-17T12:29:36Z</time>
      </trkpt>
      <trkpt lat="44.46006" lon="5.01287">
        <ele>542.8</ele>
        <time>2017-12-17T12:29:37Z</time>
      </trkpt>
      <trkpt lat="44.45999" lon="5.01287">
        <ele>541.36</ele>
        <time>2017-12-17T12:29:46Z</time>
      </trkpt>
      <trkpt lat="44.45993" lon="5.01288">
        <ele>540.4</ele>
        <time>2017-12-17T12:29:52Z</time>
      </trkpt>
      <trkpt lat="44.45986" lon="5.0129">
        <ele>539.44</ele>
        <time>2017-12-17T12:30:02Z</time>
      </trkpt>
      <trkpt lat="44.45984" lon="5.01289">
        <ele>537.99</ele>
        <time>2017-12-17T12:30:16Z</time>
      </trkpt>
      <trkpt lat="44.45981" lon="5.0129">
        <ele>536.55</ele>
        <time>2017-12-17T12:30:26Z</time>
      </trkpt>
      <trkpt lat="44.45975" lon="5.01289">
        <ele>535.59</ele>
        <time>2017-12-17T12:30:34Z</time>
      </trkpt>
      <trkpt lat="44.45974" lon="5.01288">
        <ele>535.59</ele>
        <time>2017-12-17T12:30:36Z</time>
      </trkpt>
      <trkpt lat="44.45971" lon="5.01288">
        <ele>534.63</ele>
        <time>2017-12-17T12:30:39Z</time>
      </trkpt>
      <trkpt lat="44.45972" lon="5.01287">
        <ele>534.15</ele>
        <time>2017-12-17T12:30:41Z</time>
      </trkpt>
      <trkpt lat="44.45969" lon="5.01284">
        <ele>533.19</ele>
        <time>2017-12-17T12:30:45Z</time>
      </trkpt>
      <trkpt lat="44.45964" lon="5.01282">
        <ele>532.71</ele>
        <time>2017-12-17T12:30:49Z</time>
      </trkpt>
      <trkpt lat="44.45959" lon="5.0128">
        <ele>530.3</ele>
        <time>2017-12-17T12:31:00Z</time>
      </trkpt>
      <trkpt lat="44.45958" lon="5.01279">
        <ele>529.82</ele>
        <time>2017-12-17T12:31:05Z</time>
      </trkpt>
      <trkpt lat="44.45955" lon="5.01275">
        <ele>529.34</ele>
        <time>2017-12-17T12:31:14Z</time>
      </trkpt>
      <trkpt lat="44.45955" lon="5.0127">
        <ele>528.38</ele>
        <time>2017-12-17T12:31:18Z</time>
      </trkpt>
      <trkpt lat="44.45955" lon="5.01266">
        <ele>527.42</ele>
        <time>2017-12-17T12:31:21Z</time>
      </trkpt>
      <trkpt lat="44.45959" lon="5.01255">
        <ele>526.46</ele>
        <time>2017-12-17T12:31:29Z</time>
      </trkpt>
      <trkpt lat="44.4596" lon="5.01248">
        <ele>524.54</ele>
        <time>2017-12-17T12:31:42Z</time>
      </trkpt>
      <trkpt lat="44.45959" lon="5.01247">
        <ele>524.54</ele>
        <time>2017-12-17T12:31:44Z</time>
      </trkpt>
      <trkpt lat="44.45956" lon="5.01239">
        <ele>523.09</ele>
        <time>2017-12-17T12:31:53Z</time>
      </trkpt>
      <trkpt lat="44.4595" lon="5.0124">
        <ele>521.65</ele>
        <time>2017-12-17T12:32:04Z</time>
      </trkpt>
      <trkpt lat="44.45949" lon="5.0124">
        <ele>520.69</ele>
        <time>2017-12-17T12:32:07Z</time>
      </trkpt>
      <trkpt lat="44.45945" lon="5.01239">
        <ele>520.21</ele>
        <time>2017-12-17T12:32:11Z</time>
      </trkpt>
      <trkpt lat="44.45936" lon="5.01239">
        <ele>518.77</ele>
        <time>2017-12-17T12:32:19Z</time>
      </trkpt>
      <trkpt lat="44.45936" lon="5.01239">
        <ele>518.77</ele>
        <time>2017-12-17T12:32:20Z</time>
      </trkpt>
      <trkpt lat="44.45933" lon="5.01231">
        <ele>516.37</ele>
        <time>2017-12-17T12:32:30Z</time>
      </trkpt>
      <trkpt lat="44.45931" lon="5.01225">
        <ele>515.88</ele>
        <time>2017-12-17T12:32:35Z</time>
      </trkpt>
      <trkpt lat="44.45932" lon="5.0122">
        <ele>515.4</ele>
        <time>2017-12-17T12:32:40Z</time>
      </trkpt>
      <trkpt lat="44.45931" lon="5.01218">
        <ele>515.4</ele>
        <time>2017-12-17T12:32:42Z</time>
      </trkpt>
      <trkpt lat="44.45925" lon="5.01216">
        <ele>513.96</ele>
        <time>2017-12-17T12:32:48Z</time>
      </trkpt>
      <trkpt lat="44.45921" lon="5.0122">
        <ele>514.44</ele>
        <time>2017-12-17T12:32:52Z</time>
      </trkpt>
      <trkpt lat="44.45919" lon="5.01224">
        <ele>513.48</ele>
        <time>2017-12-17T12:33:01Z</time>
      </trkpt>
      <trkpt lat="44.45913" lon="5.01227">
        <ele>511.56</ele>
        <time>2017-12-17T12:33:10Z</time>
      </trkpt>
      <trkpt lat="44.45905" lon="5.01223">
        <ele>509.64</ele>
        <time>2017-12-17T12:33:21Z</time>
      </trkpt>
      <trkpt lat="44.45899" lon="5.0122">
        <ele>507.71</ele>
        <time>2017-12-17T12:33:32Z</time>
      </trkpt>
      <trkpt lat="44.45894" lon="5.0122">
        <ele>505.79</ele>
        <time>2017-12-17T12:33:39Z</time>
      </trkpt>
      <trkpt lat="44.45887" lon="5.0122">
        <ele>505.31</ele>
        <time>2017-12-17T12:33:50Z</time>
      </trkpt>
      <trkpt lat="44.45883" lon="5.01218">
        <ele>504.35</ele>
        <time>2017-12-17T12:33:59Z</time>
      </trkpt>
      <trkpt lat="44.45878" lon="5.01216">
        <ele>503.39</ele>
        <time>2017-12-17T12:34:04Z</time>
      </trkpt>
      <trkpt lat="44.45876" lon="5.01215">
        <ele>502.43</ele>
        <time>2017-12-17T12:34:07Z</time>
      </trkpt>
      <trkpt lat="44.45869" lon="5.01213">
        <ele>500.02</ele>
        <time>2017-12-17T12:34:14Z</time>
      </trkpt>
      <trkpt lat="44.45869" lon="5.01212">
        <ele>500.02</ele>
        <time>2017-12-17T12:34:15Z</time>
      </trkpt>
      <trkpt lat="44.45866" lon="5.01207">
        <ele>499.06</ele>
        <time>2017-12-17T12:34:22Z</time>
      </trkpt>
      <trkpt lat="44.45866" lon="5.01202">
        <ele>498.58</ele>
        <time>2017-12-17T12:34:32Z</time>
      </trkpt>
      <trkpt lat="44.45862" lon="5.01194">
        <ele>497.62</ele>
        <time>2017-12-17T12:34:43Z</time>
      </trkpt>
      <trkpt lat="44.45858" lon="5.01191">
        <ele>495.22</ele>
        <time>2017-12-17T12:34:51Z</time>
      </trkpt>
      <trkpt lat="44.45857" lon="5.01191">
        <ele>494.74</ele>
        <time>2017-12-17T12:34:55Z</time>
      </trkpt>
      <trkpt lat="44.4585" lon="5.01195">
        <ele>493.29</ele>
        <time>2017-12-17T12:35:04Z</time>
      </trkpt>
      <trkpt lat="44.45847" lon="5.01195">
        <ele>492.81</ele>
        <time>2017-12-17T12:35:07Z</time>
      </trkpt>
      <trkpt lat="44.45843" lon="5.01192">
        <ele>491.37</ele>
        <time>2017-12-17T12:35:15Z</time>
      </trkpt>
      <trkpt lat="44.45838" lon="5.01186">
        <ele>489.93</ele>
        <time>2017-12-17T12:35:24Z</time>
      </trkpt>
      <trkpt lat="44.45839" lon="5.01185">
        <ele>489.45</ele>
        <time>2017-12-17T12:35:27Z</time>
      </trkpt>
      <trkpt lat="44.45837" lon="5.01179">
        <ele>488.49</ele>
        <time>2017-12-17T12:35:30Z</time>
      </trkpt>
      <trkpt lat="44.45835" lon="5.01171">
        <ele>487.53</ele>
        <time>2017-12-17T12:35:39Z</time>
      </trkpt>
      <trkpt lat="44.45835" lon="5.0117">
        <ele>486.56</ele>
        <time>2017-12-17T12:35:42Z</time>
      </trkpt>
      <trkpt lat="44.45829" lon="5.01155">
        <ele>485.6</ele>
        <time>2017-12-17T12:35:50Z</time>
      </trkpt>
      <trkpt lat="44.45826" lon="5.0115">
        <ele>485.6</ele>
        <time>2017-12-17T12:35:52Z</time>
      </trkpt>
      <trkpt lat="44.45825" lon="5.01138">
        <ele>484.64</ele>
        <time>2017-12-17T12:36:03Z</time>
      </trkpt>
      <trkpt lat="44.45825" lon="5.01133">
        <ele>483.68</ele>
        <time>2017-12-17T12:36:10Z</time>
      </trkpt>
      <trkpt lat="44.45822" lon="5.01116">
        <ele>482.72</ele>
        <time>2017-12-17T12:36:22Z</time>
      </trkpt>
      <trkpt lat="44.45821" lon="5.01115">
        <ele>482.72</ele>
        <time>2017-12-17T12:36:23Z</time>
      </trkpt>
      <trkpt lat="44.45814" lon="5.01107">
        <ele>482.24</ele>
        <time>2017-12-17T12:36:29Z</time>
      </trkpt>
      <trkpt lat="44.45808" lon="5.011">
        <ele>481.76</ele>
        <time>2017-12-17T12:36:41Z</time>
      </trkpt>
      <trkpt lat="44.45807" lon="5.011">
        <ele>481.76</ele>
        <time>2017-12-17T12:36:42Z</time>
      </trkpt>
      <trkpt lat="44.45795" lon="5.01096">
        <ele>480.8</ele>
        <time>2017-12-17T12:36:54Z</time>
      </trkpt>
      <trkpt lat="44.45787" lon="5.01093">
        <ele>479.84</ele>
        <time>2017-12-17T12:37:03Z</time>
      </trkpt>
      <trkpt lat="44.45785" lon="5.01092">
        <ele>478.87</ele>
        <time>2017-12-17T12:37:11Z</time>
      </trkpt>
      <trkpt lat="44.45784" lon="5.01088">
        <ele>477.91</ele>
        <time>2017-12-17T12:37:15Z</time>
      </trkpt>
      <trkpt lat="44.45776" lon="5.0108">
        <ele>476.95</ele>
        <time>2017-12-17T12:37:25Z</time>
      </trkpt>
      <trkpt lat="44.45772" lon="5.01076">
        <ele>474.55</ele>
        <time>2017-12-17T12:37:37Z</time>
      </trkpt>
      <trkpt lat="44.45771" lon="5.01075">
        <ele>474.55</ele>
        <time>2017-12-17T12:37:38Z</time>
      </trkpt>
      <trkpt lat="44.45763" lon="5.01072">
        <ele>473.11</ele>
        <time>2017-12-17T12:37:49Z</time>
      </trkpt>
      <trkpt lat="44.45763" lon="5.01072">
        <ele>473.11</ele>
        <time>2017-12-17T12:37:50Z</time>
      </trkpt>
      <trkpt lat="44.45754" lon="5.01074">
        <ele>471.66</ele>
        <time>2017-12-17T12:37:59Z</time>
      </trkpt>
      <trkpt lat="44.45745" lon="5.01075">
        <ele>470.22</ele>
        <time>2017-12-17T12:38:09Z</time>
      </trkpt>
      <trkpt lat="44.45745" lon="5.01076">
        <ele>470.22</ele>
        <time>2017-12-17T12:38:10Z</time>
      </trkpt>
      <trkpt lat="44.45738" lon="5.01081">
        <ele>469.26</ele>
        <time>2017-12-17T12:38:19Z</time>
      </trkpt>
      <trkpt lat="44.45733" lon="5.01084">
        <ele>468.78</ele>
        <time>2017-12-17T12:38:25Z</time>
      </trkpt>
      <trkpt lat="44.45725" lon="5.01088">
        <ele>467.82</ele>
        <time>2017-12-17T12:38:34Z</time>
      </trkpt>
      <trkpt lat="44.45721" lon="5.01091">
        <ele>467.34</ele>
        <time>2017-12-17T12:38:44Z</time>
      </trkpt>
      <trkpt lat="44.45719" lon="5.01092">
        <ele>467.34</ele>
        <time>2017-12-17T12:38:46Z</time>
      </trkpt>
      <trkpt lat="44.45709" lon="5.011">
        <ele>465.9</ele>
        <time>2017-12-17T12:38:55Z</time>
      </trkpt>
      <trkpt lat="44.45706" lon="5.01103">
        <ele>465.9</ele>
        <time>2017-12-17T12:39:01Z</time>
      </trkpt>
      <trkpt lat="44.45703" lon="5.01105">
        <ele>465.42</ele>
        <time>2017-12-17T12:39:03Z</time>
      </trkpt>
      <trkpt lat="44.45693" lon="5.0111">
        <ele>463.97</ele>
        <time>2017-12-17T12:39:13Z</time>
      </trkpt>
      <trkpt lat="44.45685" lon="5.01114">
        <ele>462.53</ele>
        <time>2017-12-17T12:39:22Z</time>
      </trkpt>
      <trkpt lat="44.45682" lon="5.01113">
        <ele>461.57</ele>
        <time>2017-12-17T12:39:31Z</time>
      </trkpt>
      <trkpt lat="44.4568" lon="5.01112">
        <ele>461.09</ele>
        <time>2017-12-17T12:39:32Z</time>
      </trkpt>
      <trkpt lat="44.45667" lon="5.01106">
        <ele>460.13</ele>
        <time>2017-12-17T12:39:42Z</time>
      </trkpt>
      <trkpt lat="44.45662" lon="5.01103">
        <ele>459.65</ele>
        <time>2017-12-17T12:39:51Z</time>
      </trkpt>
      <trkpt lat="44.4566" lon="5.01102">
        <ele>459.17</ele>
        <time>2017-12-17T12:39:53Z</time>
      </trkpt>
      <trkpt lat="44.45654" lon="5.011">
        <ele>457.72</ele>
        <time>2017-12-17T12:40:03Z</time>
      </trkpt>
      <trkpt lat="44.45648" lon="5.01099">
        <ele>456.28</ele>
        <time>2017-12-17T12:40:08Z</time>
      </trkpt>
      <trkpt lat="44.45643" lon="5.01097">
        <ele>455.32</ele>
        <time>2017-12-17T12:40:18Z</time>
      </trkpt>
      <trkpt lat="44.4564" lon="5.01097">
        <ele>454.36</ele>
        <time>2017-12-17T12:40:28Z</time>
      </trkpt>
      <trkpt lat="44.45633" lon="5.01095">
        <ele>453.88</ele>
        <time>2017-12-17T12:40:34Z</time>
      </trkpt>
      <trkpt lat="44.45627" lon="5.01096">
        <ele>452.92</ele>
        <time>2017-12-17T12:40:47Z</time>
      </trkpt>
      <trkpt lat="44.45623" lon="5.01098">
        <ele>452.44</ele>
        <time>2017-12-17T12:40:58Z</time>
      </trkpt>
      <trkpt lat="44.45623" lon="5.01097">
        <ele>452.92</ele>
        <time>2017-12-17T12:41:17Z</time>
      </trkpt>
      <trkpt lat="44.45622" lon="5.01097">
        <ele>452.44</ele>
        <time>2017-12-17T12:41:29Z</time>
      </trkpt>
      <trkpt lat="44.45623" lon="5.01097">
        <ele>452.44</ele>
        <time>2017-12-17T12:41:37Z</time>
      </trkpt>
      <trkpt lat="44.4562" lon="5.01096">
        <ele>451.96</ele>
        <time>2017-12-17T12:41:52Z</time>
      </trkpt>
      <trkpt lat="44.45612" lon="5.01098">
        <ele>451</ele>
        <time>2017-12-17T12:42:04Z</time>
      </trkpt>
      <trkpt lat="44.45609" lon="5.01104">
        <ele>450.52</ele>
        <time>2017-12-17T12:42:11Z</time>
      </trkpt>
      <trkpt lat="44.45602" lon="5.01111">
        <ele>449.55</ele>
        <time>2017-12-17T12:42:22Z</time>
      </trkpt>
      <trkpt lat="44.45596" lon="5.01112">
        <ele>448.11</ele>
        <time>2017-12-17T12:42:32Z</time>
      </trkpt>
      <trkpt lat="44.4559" lon="5.01113">
        <ele>447.15</ele>
        <time>2017-12-17T12:42:41Z</time>
      </trkpt>
      <trkpt lat="44.4558" lon="5.01119">
        <ele>445.71</ele>
        <time>2017-12-17T12:42:50Z</time>
      </trkpt>
      <trkpt lat="44.45571" lon="5.01122">
        <ele>443.79</ele>
        <time>2017-12-17T12:43:01Z</time>
      </trkpt>
      <trkpt lat="44.45568" lon="5.01124">
        <ele>443.31</ele>
        <time>2017-12-17T12:43:04Z</time>
      </trkpt>
      <trkpt lat="44.45561" lon="5.01128">
        <ele>441.86</ele>
        <time>2017-12-17T12:43:13Z</time>
      </trkpt>
      <trkpt lat="44.45558" lon="5.0113">
        <ele>440.9</ele>
        <time>2017-12-17T12:43:20Z</time>
      </trkpt>
      <trkpt lat="44.45549" lon="5.01136">
        <ele>439.94</ele>
        <time>2017-12-17T12:43:25Z</time>
      </trkpt>
      <trkpt lat="44.45542" lon="5.01133">
        <ele>438.02</ele>
        <time>2017-12-17T12:43:36Z</time>
      </trkpt>
      <trkpt lat="44.4554" lon="5.01132">
        <ele>438.02</ele>
        <time>2017-12-17T12:43:39Z</time>
      </trkpt>
      <trkpt lat="44.45535" lon="5.0113">
        <ele>436.58</ele>
        <time>2017-12-17T12:43:45Z</time>
      </trkpt>
      <trkpt lat="44.45525" lon="5.01125">
        <ele>434.17</ele>
        <time>2017-12-17T12:43:56Z</time>
      </trkpt>
      <trkpt lat="44.45518" lon="5.01119">
        <ele>432.73</ele>
        <time>2017-12-17T12:44:05Z</time>
      </trkpt>
      <trkpt lat="44.4551" lon="5.01117">
        <ele>432.25</ele>
        <time>2017-12-17T12:44:15Z</time>
      </trkpt>
      <trkpt lat="44.45509" lon="5.01116">
        <ele>431.29</ele>
        <time>2017-12-17T12:44:28Z</time>
      </trkpt>
      <trkpt lat="44.45508" lon="5.01116">
        <ele>431.77</ele>
        <time>2017-12-17T12:44:53Z</time>
      </trkpt>
      <trkpt lat="44.45508" lon="5.01117">
        <ele>431.77</ele>
        <time>2017-12-17T12:45:27Z</time>
      </trkpt>
      <trkpt lat="44.45507" lon="5.01116">
        <ele>432.73</ele>
        <time>2017-12-17T12:45:54Z</time>
      </trkpt>
      <trkpt lat="44.45507" lon="5.01116">
        <ele>432.25</ele>
        <time>2017-12-17T12:46:03Z</time>
      </trkpt>
      <trkpt lat="44.45501" lon="5.01115">
        <ele>431.29</ele>
        <time>2017-12-17T12:46:13Z</time>
      </trkpt>
      <trkpt lat="44.45501" lon="5.01115">
        <ele>431.29</ele>
        <time>2017-12-17T12:46:29Z</time>
      </trkpt>
      <trkpt lat="44.455" lon="5.01116">
        <ele>431.29</ele>
        <time>2017-12-17T12:46:40Z</time>
      </trkpt>
      <trkpt lat="44.45499" lon="5.01117">
        <ele>430.81</ele>
        <time>2017-12-17T12:46:53Z</time>
      </trkpt>
      <trkpt lat="44.45499" lon="5.01116">
        <ele>430.81</ele>
        <time>2017-12-17T12:47:10Z</time>
      </trkpt>
      <trkpt lat="44.45498" lon="5.01116">
        <ele>430.81</ele>
        <time>2017-12-17T12:47:32Z</time>
      </trkpt>
      <trkpt lat="44.45498" lon="5.01116">
        <ele>430.81</ele>
        <time>2017-12-17T12:47:52Z</time>
      </trkpt>
      <trkpt lat="44.45499" lon="5.01116">
        <ele>430.81</ele>
        <time>2017-12-17T12:48:17Z</time>
      </trkpt>
      <trkpt lat="44.45499" lon="5.01116">
        <ele>430.81</ele>
        <time>2017-12-17T12:48:35Z</time>
      </trkpt>
      <trkpt lat="44.45499" lon="5.01115">
        <ele>430.81</ele>
        <time>2017-12-17T12:48:59Z</time>
      </trkpt>
      <trkpt lat="44.45498" lon="5.01115">
        <ele>429.85</ele>
        <time>2017-12-17T12:49:15Z</time>
      </trkpt>
      <trkpt lat="44.45498" lon="5.01116">
        <ele>430.33</ele>
        <time>2017-12-17T12:49:40Z</time>
      </trkpt>
      <trkpt lat="44.45498" lon="5.01115">
        <ele>430.81</ele>
        <time>2017-12-17T12:49:58Z</time>
      </trkpt>
      <trkpt lat="44.45498" lon="5.01116">
        <ele>430.33</ele>
        <time>2017-12-17T12:50:17Z</time>
      </trkpt>
      <trkpt lat="44.45498" lon="5.01117">
        <ele>430.81</ele>
        <time>2017-12-17T12:50:41Z</time>
      </trkpt>
      <trkpt lat="44.45499" lon="5.01117">
        <ele>430.33</ele>
        <time>2017-12-17T12:50:51Z</time>
      </trkpt>
      <trkpt lat="44.45499" lon="5.01116">
        <ele>430.33</ele>
        <time>2017-12-17T12:51:02Z</time>
      </trkpt>
      <trkpt lat="44.45499" lon="5.01115">
        <ele>430.81</ele>
        <time>2017-12-17T12:51:16Z</time>
      </trkpt>
      <trkpt lat="44.45498" lon="5.01114">
        <ele>430.81</ele>
        <time>2017-12-17T12:51:28Z</time>
      </trkpt>
      <trkpt lat="44.45498" lon="5.01114">
        <ele>430.33</ele>
        <time>2017-12-17T12:51:46Z</time>
      </trkpt>
      <trkpt lat="44.45498" lon="5.01114">
        <ele>430.33</ele>
        <time>2017-12-17T12:52:03Z</time>
      </trkpt>
      <trkpt lat="44.45498" lon="5.01114">
        <ele>430.33</ele>
        <time>2017-12-17T12:52:22Z</time>
      </trkpt>
      <trkpt lat="44.45497" lon="5.01114">
        <ele>430.81</ele>
        <time>2017-12-17T12:52:37Z</time>
      </trkpt>
      <trkpt lat="44.45496" lon="5.01113">
        <ele>430.33</ele>
        <time>2017-12-17T12:52:47Z</time>
      </trkpt>
      <trkpt lat="44.45496" lon="5.01114">
        <ele>430.33</ele>
        <time>2017-12-17T12:52:50Z</time>
      </trkpt>
      <trkpt lat="44.45495" lon="5.01114">
        <ele>430.33</ele>
        <time>2017-12-17T12:53:00Z</time>
      </trkpt>
      <trkpt lat="44.45496" lon="5.01113">
        <ele>430.33</ele>
        <time>2017-12-17T12:53:14Z</time>
      </trkpt>
      <trkpt lat="44.45496" lon="5.01112">
        <ele>430.33</ele>
        <time>2017-12-17T12:53:32Z</time>
      </trkpt>
      <trkpt lat="44.45496" lon="5.01111">
        <ele>429.85</ele>
        <time>2017-12-17T12:53:42Z</time>
      </trkpt>
      <trkpt lat="44.45493" lon="5.01111">
        <ele>429.85</ele>
        <time>2017-12-17T12:54:01Z</time>
      </trkpt>
      <trkpt lat="44.45493" lon="5.01112">
        <ele>429.85</ele>
        <time>2017-12-17T12:54:10Z</time>
      </trkpt>
      <trkpt lat="44.45493" lon="5.01112">
        <ele>429.85</ele>
        <time>2017-12-17T12:54:23Z</time>
      </trkpt>
      <trkpt lat="44.4549" lon="5.01112">
        <ele>429.37</ele>
        <time>2017-12-17T12:54:33Z</time>
      </trkpt>
      <trkpt lat="44.45488" lon="5.0111">
        <ele>428.89</ele>
        <time>2017-12-17T12:54:37Z</time>
      </trkpt>
      <trkpt lat="44.45481" lon="5.01106">
        <ele>426.96</ele>
        <time>2017-12-17T12:54:47Z</time>
      </trkpt>
      <trkpt lat="44.45476" lon="5.01107">
        <ele>426.48</ele>
        <time>2017-12-17T12:54:57Z</time>
      </trkpt>
      <trkpt lat="44.45471" lon="5.01104">
        <ele>425.52</ele>
        <time>2017-12-17T12:55:06Z</time>
      </trkpt>
      <trkpt lat="44.45465" lon="5.01101">
        <ele>424.08</ele>
        <time>2017-12-17T12:55:16Z</time>
      </trkpt>
      <trkpt lat="44.45458" lon="5.011">
        <ele>422.64</ele>
        <time>2017-12-17T12:55:27Z</time>
      </trkpt>
      <trkpt lat="44.45452" lon="5.01098">
        <ele>421.19</ele>
        <time>2017-12-17T12:55:37Z</time>
      </trkpt>
      <trkpt lat="44.45446" lon="5.01096">
        <ele>419.27</ele>
        <time>2017-12-17T12:55:47Z</time>
      </trkpt>
      <trkpt lat="44.45445" lon="5.01096">
        <ele>418.79</ele>
        <time>2017-12-17T12:55:52Z</time>
      </trkpt>
      <trkpt lat="44.45437" lon="5.01095">
        <ele>416.87</ele>
        <time>2017-12-17T12:56:03Z</time>
      </trkpt>
      <trkpt lat="44.45429" lon="5.01095">
        <ele>415.43</ele>
        <time>2017-12-17T12:56:14Z</time>
      </trkpt>
      <trkpt lat="44.4542" lon="5.01092">
        <ele>414.95</ele>
        <time>2017-12-17T12:56:25Z</time>
      </trkpt>
      <trkpt lat="44.45418" lon="5.01091">
        <ele>414.47</ele>
        <time>2017-12-17T12:56:27Z</time>
      </trkpt>
      <trkpt lat="44.45409" lon="5.01087">
        <ele>412.54</ele>
        <time>2017-12-17T12:56:36Z</time>
      </trkpt>
      <trkpt lat="44.45408" lon="5.01087">
        <ele>412.54</ele>
        <time>2017-12-17T12:56:37Z</time>
      </trkpt>
      <trkpt lat="44.45405" lon="5.01085">
        <ele>412.06</ele>
        <time>2017-12-17T12:56:40Z</time>
      </trkpt>
      <trkpt lat="44.45402" lon="5.01083">
        <ele>411.1</ele>
        <time>2017-12-17T12:56:51Z</time>
      </trkpt>
      <trkpt lat="44.45401" lon="5.01082">
        <ele>411.1</ele>
        <time>2017-12-17T12:56:52Z</time>
      </trkpt>
      <trkpt lat="44.45397" lon="5.01079">
        <ele>410.14</ele>
        <time>2017-12-17T12:56:59Z</time>
      </trkpt>
      <trkpt lat="44.45394" lon="5.01079">
        <ele>409.66</ele>
        <time>2017-12-17T12:57:01Z</time>
      </trkpt>
      <trkpt lat="44.4539" lon="5.0108">
        <ele>408.7</ele>
        <time>2017-12-17T12:57:07Z</time>
      </trkpt>
      <trkpt lat="44.45382" lon="5.01081">
        <ele>409.18</ele>
        <time>2017-12-17T12:57:16Z</time>
      </trkpt>
      <trkpt lat="44.45381" lon="5.01081">
        <ele>409.18</ele>
        <time>2017-12-17T12:57:17Z</time>
      </trkpt>
      <trkpt lat="44.45371" lon="5.01081">
        <ele>409.18</ele>
        <time>2017-12-17T12:57:28Z</time>
      </trkpt>
      <trkpt lat="44.4536" lon="5.01085">
        <ele>407.74</ele>
        <time>2017-12-17T12:57:40Z</time>
      </trkpt>
      <trkpt lat="44.45348" lon="5.01088">
        <ele>407.26</ele>
        <time>2017-12-17T12:57:53Z</time>
      </trkpt>
      <trkpt lat="44.45344" lon="5.01087">
        <ele>406.77</ele>
        <time>2017-12-17T12:57:59Z</time>
      </trkpt>
      <trkpt lat="44.4534" lon="5.01085">
        <ele>406.29</ele>
        <time>2017-12-17T12:58:03Z</time>
      </trkpt>
      <trkpt lat="44.45339" lon="5.0108">
        <ele>405.81</ele>
        <time>2017-12-17T12:58:09Z</time>
      </trkpt>
      <trkpt lat="44.45327" lon="5.01067">
        <ele>404.85</ele>
        <time>2017-12-17T12:58:18Z</time>
      </trkpt>
      <trkpt lat="44.45324" lon="5.01063">
        <ele>403.89</ele>
        <time>2017-12-17T12:58:25Z</time>
      </trkpt>
      <trkpt lat="44.45315" lon="5.01063">
        <ele>402.93</ele>
        <time>2017-12-17T12:58:32Z</time>
      </trkpt>
      <trkpt lat="44.4531" lon="5.01062">
        <ele>401.01</ele>
        <time>2017-12-17T12:58:38Z</time>
      </trkpt>
      <trkpt lat="44.45304" lon="5.0107">
        <ele>399.57</ele>
        <time>2017-12-17T12:58:43Z</time>
      </trkpt>
      <trkpt lat="44.45298" lon="5.01095">
        <ele>398.12</ele>
        <time>2017-12-17T12:58:55Z</time>
      </trkpt>
      <trkpt lat="44.45296" lon="5.01094">
        <ele>396.68</ele>
        <time>2017-12-17T12:59:02Z</time>
      </trkpt>
      <trkpt lat="44.45292" lon="5.01096">
        <ele>395.24</ele>
        <time>2017-12-17T12:59:06Z</time>
      </trkpt>
      <trkpt lat="44.45289" lon="5.011">
        <ele>393.8</ele>
        <time>2017-12-17T12:59:14Z</time>
      </trkpt>
      <trkpt lat="44.45285" lon="5.0111">
        <ele>392.84</ele>
        <time>2017-12-17T12:59:24Z</time>
      </trkpt>
      <trkpt lat="44.45283" lon="5.01111">
        <ele>392.84</ele>
        <time>2017-12-17T12:59:28Z</time>
      </trkpt>
      <trkpt lat="44.45278" lon="5.01116">
        <ele>391.87</ele>
        <time>2017-12-17T12:59:34Z</time>
      </trkpt>
      <trkpt lat="44.45267" lon="5.01128">
        <ele>390.91</ele>
        <time>2017-12-17T12:59:44Z</time>
      </trkpt>
      <trkpt lat="44.45259" lon="5.01135">
        <ele>391.39</ele>
        <time>2017-12-17T12:59:53Z</time>
      </trkpt>
      <trkpt lat="44.45258" lon="5.01135">
        <ele>390.43</ele>
        <time>2017-12-17T12:59:55Z</time>
      </trkpt>
      <trkpt lat="44.45251" lon="5.01131">
        <ele>388.99</ele>
        <time>2017-12-17T13:00:05Z</time>
      </trkpt>
      <trkpt lat="44.45242" lon="5.01126">
        <ele>387.07</ele>
        <time>2017-12-17T13:00:17Z</time>
      </trkpt>
      <trkpt lat="44.45237" lon="5.01123">
        <ele>387.07</ele>
        <time>2017-12-17T13:00:19Z</time>
      </trkpt>
      <trkpt lat="44.45233" lon="5.01114">
        <ele>385.63</ele>
        <time>2017-12-17T13:00:30Z</time>
      </trkpt>
      <trkpt lat="44.4523" lon="5.01105">
        <ele>385.15</ele>
        <time>2017-12-17T13:00:42Z</time>
      </trkpt>
      <trkpt lat="44.4523" lon="5.01104">
        <ele>385.63</ele>
        <time>2017-12-17T13:00:43Z</time>
      </trkpt>
      <trkpt lat="44.45225" lon="5.01081">
        <ele>386.59</ele>
        <time>2017-12-17T13:00:53Z</time>
      </trkpt>
      <trkpt lat="44.45224" lon="5.01078">
        <ele>387.07</ele>
        <time>2017-12-17T13:00:56Z</time>
      </trkpt>
      <trkpt lat="44.45222" lon="5.01074">
        <ele>387.55</ele>
        <time>2017-12-17T13:00:59Z</time>
      </trkpt>
      <trkpt lat="44.45218" lon="5.01067">
        <ele>388.03</ele>
        <time>2017-12-17T13:01:04Z</time>
      </trkpt>
      <trkpt lat="44.45212" lon="5.01055">
        <ele>388.99</ele>
        <time>2017-12-17T13:01:15Z</time>
      </trkpt>
      <trkpt lat="44.45211" lon="5.01054">
        <ele>388.99</ele>
        <time>2017-12-17T13:01:16Z</time>
      </trkpt>
      <trkpt lat="44.4521" lon="5.01042">
        <ele>388.51</ele>
        <time>2017-12-17T13:01:27Z</time>
      </trkpt>
      <trkpt lat="44.45208" lon="5.01039">
        <ele>388.51</ele>
        <time>2017-12-17T13:01:30Z</time>
      </trkpt>
      <trkpt lat="44.45207" lon="5.01032">
        <ele>388.03</ele>
        <time>2017-12-17T13:01:35Z</time>
      </trkpt>
      <trkpt lat="44.45202" lon="5.01018">
        <ele>386.59</ele>
        <time>2017-12-17T13:01:46Z</time>
      </trkpt>
      <trkpt lat="44.45198" lon="5.01009">
        <ele>385.63</ele>
        <time>2017-12-17T13:01:53Z</time>
      </trkpt>
      <trkpt lat="44.4519" lon="5.00998">
        <ele>384.66</ele>
        <time>2017-12-17T13:02:04Z</time>
      </trkpt>
      <trkpt lat="44.45186" lon="5.00988">
        <ele>383.22</ele>
        <time>2017-12-17T13:02:15Z</time>
      </trkpt>
      <trkpt lat="44.45185" lon="5.00987">
        <ele>383.7</ele>
        <time>2017-12-17T13:02:16Z</time>
      </trkpt>
      <trkpt lat="44.45173" lon="5.00979">
        <ele>383.22</ele>
        <time>2017-12-17T13:02:26Z</time>
      </trkpt>
      <trkpt lat="44.45172" lon="5.00978">
        <ele>382.26</ele>
        <time>2017-12-17T13:02:27Z</time>
      </trkpt>
      <trkpt lat="44.45168" lon="5.00977">
        <ele>381.78</ele>
        <time>2017-12-17T13:02:30Z</time>
      </trkpt>
      <trkpt lat="44.45157" lon="5.0097">
        <ele>381.3</ele>
        <time>2017-12-17T13:02:38Z</time>
      </trkpt>
      <trkpt lat="44.45152" lon="5.00965">
        <ele>380.82</ele>
        <time>2017-12-17T13:02:46Z</time>
      </trkpt>
      <trkpt lat="44.45144" lon="5.00961">
        <ele>380.34</ele>
        <time>2017-12-17T13:02:52Z</time>
      </trkpt>
      <trkpt lat="44.45141" lon="5.00957">
        <ele>379.86</ele>
        <time>2017-12-17T13:02:56Z</time>
      </trkpt>
      <trkpt lat="44.45137" lon="5.00945">
        <ele>378.9</ele>
        <time>2017-12-17T13:03:07Z</time>
      </trkpt>
      <trkpt lat="44.45136" lon="5.00945">
        <ele>378.9</ele>
        <time>2017-12-17T13:03:08Z</time>
      </trkpt>
      <trkpt lat="44.45129" lon="5.00938">
        <ele>377.94</ele>
        <time>2017-12-17T13:03:19Z</time>
      </trkpt>
      <trkpt lat="44.45128" lon="5.00937">
        <ele>377.94</ele>
        <time>2017-12-17T13:03:20Z</time>
      </trkpt>
      <trkpt lat="44.45127" lon="5.00933">
        <ele>377.94</ele>
        <time>2017-12-17T13:03:22Z</time>
      </trkpt>
      <trkpt lat="44.45128" lon="5.00919">
        <ele>376.97</ele>
        <time>2017-12-17T13:03:30Z</time>
      </trkpt>
      <trkpt lat="44.45127" lon="5.0091">
        <ele>376.49</ele>
        <time>2017-12-17T13:03:35Z</time>
      </trkpt>
      <trkpt lat="44.45126" lon="5.00904">
        <ele>376.49</ele>
        <time>2017-12-17T13:03:38Z</time>
      </trkpt>
      <trkpt lat="44.45128" lon="5.00886">
        <ele>376.49</ele>
        <time>2017-12-17T13:03:50Z</time>
      </trkpt>
      <trkpt lat="44.45128" lon="5.0088">
        <ele>376.01</ele>
        <time>2017-12-17T13:03:53Z</time>
      </trkpt>
      <trkpt lat="44.45129" lon="5.00863">
        <ele>376.01</ele>
        <time>2017-12-17T13:04:05Z</time>
      </trkpt>
      <trkpt lat="44.4513" lon="5.00855">
        <ele>376.01</ele>
        <time>2017-12-17T13:04:10Z</time>
      </trkpt>
      <trkpt lat="44.45131" lon="5.00841">
        <ele>376.49</ele>
        <time>2017-12-17T13:04:18Z</time>
      </trkpt>
      <trkpt lat="44.45131" lon="5.00836">
        <ele>376.49</ele>
        <time>2017-12-17T13:04:22Z</time>
      </trkpt>
      <trkpt lat="44.45132" lon="5.00829">
        <ele>376.01</ele>
        <time>2017-12-17T13:04:29Z</time>
      </trkpt>
      <trkpt lat="44.45129" lon="5.00823">
        <ele>376.01</ele>
        <time>2017-12-17T13:04:34Z</time>
      </trkpt>
      <trkpt lat="44.45127" lon="5.00813">
        <ele>376.97</ele>
        <time>2017-12-17T13:04:41Z</time>
      </trkpt>
      <trkpt lat="44.45125" lon="5.00804">
        <ele>376.97</ele>
        <time>2017-12-17T13:04:47Z</time>
      </trkpt>
      <trkpt lat="44.45126" lon="5.00797">
        <ele>375.53</ele>
        <time>2017-12-17T13:04:51Z</time>
      </trkpt>
      <trkpt lat="44.45126" lon="5.00793">
        <ele>375.05</ele>
        <time>2017-12-17T13:04:54Z</time>
      </trkpt>
      <trkpt lat="44.45122" lon="5.0078">
        <ele>373.13</ele>
        <time>2017-12-17T13:05:03Z</time>
      </trkpt>
      <trkpt lat="44.4512" lon="5.00777">
        <ele>374.09</ele>
        <time>2017-12-17T13:05:05Z</time>
      </trkpt>
      <trkpt lat="44.45119" lon="5.00768">
        <ele>373.13</ele>
        <time>2017-12-17T13:05:13Z</time>
      </trkpt>
      <trkpt lat="44.4512" lon="5.00766">
        <ele>373.13</ele>
        <time>2017-12-17T13:05:15Z</time>
      </trkpt>
      <trkpt lat="44.45122" lon="5.00759">
        <ele>373.13</ele>
        <time>2017-12-17T13:05:22Z</time>
      </trkpt>
      <trkpt lat="44.45128" lon="5.00753">
        <ele>372.65</ele>
        <time>2017-12-17T13:05:32Z</time>
      </trkpt>
      <trkpt lat="44.45129" lon="5.0075">
        <ele>372.17</ele>
        <time>2017-12-17T13:05:34Z</time>
      </trkpt>
      <trkpt lat="44.45125" lon="5.00738">
        <ele>371.69</ele>
        <time>2017-12-17T13:05:43Z</time>
      </trkpt>
      <trkpt lat="44.45123" lon="5.00737">
        <ele>371.69</ele>
        <time>2017-12-17T13:05:48Z</time>
      </trkpt>
      <trkpt lat="44.45113" lon="5.00737">
        <ele>371.69</ele>
        <time>2017-12-17T13:05:59Z</time>
      </trkpt>
      <trkpt lat="44.45103" lon="5.00736">
        <ele>370.73</ele>
        <time>2017-12-17T13:06:07Z</time>
      </trkpt>
      <trkpt lat="44.45099" lon="5.00736">
        <ele>370.24</ele>
        <time>2017-12-17T13:06:13Z</time>
      </trkpt>
      <trkpt lat="44.45094" lon="5.00734">
        <ele>370.73</ele>
        <time>2017-12-17T13:06:20Z</time>
      </trkpt>
      <trkpt lat="44.4509" lon="5.00734">
        <ele>370.73</ele>
        <time>2017-12-17T13:06:31Z</time>
      </trkpt>
      <trkpt lat="44.45089" lon="5.00735">
        <ele>371.21</ele>
        <time>2017-12-17T13:06:54Z</time>
      </trkpt>
      <trkpt lat="44.45088" lon="5.00734">
        <ele>371.21</ele>
        <time>2017-12-17T13:06:59Z</time>
      </trkpt>
      <trkpt lat="44.45079" lon="5.00723">
        <ele>370.73</ele>
        <time>2017-12-17T13:07:12Z</time>
      </trkpt>
      <trkpt lat="44.45076" lon="5.00709">
        <ele>370.73</ele>
        <time>2017-12-17T13:07:23Z</time>
      </trkpt>
      <trkpt lat="44.45075" lon="5.00707">
        <ele>370.24</ele>
        <time>2017-12-17T13:07:25Z</time>
      </trkpt>
      <trkpt lat="44.45065" lon="5.00701">
        <ele>368.32</ele>
        <time>2017-12-17T13:07:37Z</time>
      </trkpt>
      <trkpt lat="44.4506" lon="5.00701">
        <ele>368.32</ele>
        <time>2017-12-17T13:07:43Z</time>
      </trkpt>
      <trkpt lat="44.45057" lon="5.00703">
        <ele>367.84</ele>
        <time>2017-12-17T13:07:46Z</time>
      </trkpt>
      <trkpt lat="44.45052" lon="5.00704">
        <ele>366.4</ele>
        <time>2017-12-17T13:07:57Z</time>
      </trkpt>
      <trkpt lat="44.45045" lon="5.00707">
        <ele>364.96</ele>
        <time>2017-12-17T13:08:06Z</time>
      </trkpt>
      <trkpt lat="44.45036" lon="5.00708">
        <ele>363.04</ele>
        <time>2017-12-17T13:08:17Z</time>
      </trkpt>
      <trkpt lat="44.45033" lon="5.00709">
        <ele>362.55</ele>
        <time>2017-12-17T13:08:20Z</time>
      </trkpt>
      <trkpt lat="44.45024" lon="5.00709">
        <ele>361.11</ele>
        <time>2017-12-17T13:08:31Z</time>
      </trkpt>
      <trkpt lat="44.45016" lon="5.00709">
        <ele>360.15</ele>
        <time>2017-12-17T13:08:40Z</time>
      </trkpt>
      <trkpt lat="44.45013" lon="5.00709">
        <ele>359.19</ele>
        <time>2017-12-17T13:08:43Z</time>
      </trkpt>
      <trkpt lat="44.45006" lon="5.0071">
        <ele>359.67</ele>
        <time>2017-12-17T13:08:49Z</time>
      </trkpt>
      <trkpt lat="44.45002" lon="5.00704">
        <ele>358.23</ele>
        <time>2017-12-17T13:08:56Z</time>
      </trkpt>
      <trkpt lat="44.44998" lon="5.00691">
        <ele>356.31</ele>
        <time>2017-12-17T13:09:07Z</time>
      </trkpt>
      <trkpt lat="44.44995" lon="5.0069">
        <ele>355.83</ele>
        <time>2017-12-17T13:09:09Z</time>
      </trkpt>
      <trkpt lat="44.4499" lon="5.00687">
        <ele>355.34</ele>
        <time>2017-12-17T13:09:13Z</time>
      </trkpt>
      <trkpt lat="44.44984" lon="5.00683">
        <ele>354.86</ele>
        <time>2017-12-17T13:09:18Z</time>
      </trkpt>
      <trkpt lat="44.44978" lon="5.00683">
        <ele>351.98</ele>
        <time>2017-12-17T13:09:32Z</time>
      </trkpt>
      <trkpt lat="44.44972" lon="5.00682">
        <ele>350.06</ele>
        <time>2017-12-17T13:09:40Z</time>
      </trkpt>
      <trkpt lat="44.44968" lon="5.0068">
        <ele>349.1</ele>
        <time>2017-12-17T13:09:45Z</time>
      </trkpt>
      <trkpt lat="44.44966" lon="5.00678">
        <ele>349.58</ele>
        <time>2017-12-17T13:09:47Z</time>
      </trkpt>
      <trkpt lat="44.4496" lon="5.00668">
        <ele>347.65</ele>
        <time>2017-12-17T13:10:00Z</time>
      </trkpt>
      <trkpt lat="44.44958" lon="5.00666">
        <ele>347.17</ele>
        <time>2017-12-17T13:10:02Z</time>
      </trkpt>
      <trkpt lat="44.44954" lon="5.00655">
        <ele>346.69</ele>
        <time>2017-12-17T13:10:09Z</time>
      </trkpt>
      <trkpt lat="44.44953" lon="5.00645">
        <ele>347.17</ele>
        <time>2017-12-17T13:10:17Z</time>
      </trkpt>
      <trkpt lat="44.44952" lon="5.00638">
        <ele>346.21</ele>
        <time>2017-12-17T13:10:22Z</time>
      </trkpt>
      <trkpt lat="44.44951" lon="5.00635">
        <ele>346.69</ele>
        <time>2017-12-17T13:10:38Z</time>
      </trkpt>
      <trkpt lat="44.44951" lon="5.00634">
        <ele>346.69</ele>
        <time>2017-12-17T13:11:00Z</time>
      </trkpt>
      <trkpt lat="44.4495" lon="5.00634">
        <ele>346.69</ele>
        <time>2017-12-17T13:11:20Z</time>
      </trkpt>
      <trkpt lat="44.4495" lon="5.00634">
        <ele>346.69</ele>
        <time>2017-12-17T13:11:35Z</time>
      </trkpt>
      <trkpt lat="44.44949" lon="5.00623">
        <ele>346.69</ele>
        <time>2017-12-17T13:11:50Z</time>
      </trkpt>
      <trkpt lat="44.44947" lon="5.00608">
        <ele>345.73</ele>
        <time>2017-12-17T13:12:00Z</time>
      </trkpt>
      <trkpt lat="44.44945" lon="5.00604">
        <ele>345.73</ele>
        <time>2017-12-17T13:12:03Z</time>
      </trkpt>
      <trkpt lat="44.44942" lon="5.00598">
        <ele>345.25</ele>
        <time>2017-12-17T13:12:08Z</time>
      </trkpt>
      <trkpt lat="44.44939" lon="5.00595">
        <ele>344.29</ele>
        <time>2017-12-17T13:12:13Z</time>
      </trkpt>
      <trkpt lat="44.44933" lon="5.00588">
        <ele>343.33</ele>
        <time>2017-12-17T13:12:20Z</time>
      </trkpt>
      <trkpt lat="44.44928" lon="5.00575">
        <ele>342.37</ele>
        <time>2017-12-17T13:12:31Z</time>
      </trkpt>
      <trkpt lat="44.44922" lon="5.00569">
        <ele>340.92</ele>
        <time>2017-12-17T13:12:38Z</time>
      </trkpt>
      <trkpt lat="44.44913" lon="5.00573">
        <ele>339.48</ele>
        <time>2017-12-17T13:12:49Z</time>
      </trkpt>
      <trkpt lat="44.44903" lon="5.00577">
        <ele>338.04</ele>
        <time>2017-12-17T13:13:00Z</time>
      </trkpt>
      <trkpt lat="44.44901" lon="5.00576">
        <ele>337.08</ele>
        <time>2017-12-17T13:13:04Z</time>
      </trkpt>
      <trkpt lat="44.44895" lon="5.00577">
        <ele>337.08</ele>
        <time>2017-12-17T13:13:09Z</time>
      </trkpt>
      <trkpt lat="44.44888" lon="5.00578">
        <ele>336.12</ele>
        <time>2017-12-17T13:13:19Z</time>
      </trkpt>
      <trkpt lat="44.44876" lon="5.00585">
        <ele>334.68</ele>
        <time>2017-12-17T13:13:32Z</time>
      </trkpt>
      <trkpt lat="44.44868" lon="5.00596">
        <ele>333.71</ele>
        <time>2017-12-17T13:13:42Z</time>
      </trkpt>
      <trkpt lat="44.44863" lon="5.00601">
        <ele>333.71</ele>
        <time>2017-12-17T13:13:48Z</time>
      </trkpt>
      <trkpt lat="44.44854" lon="5.00614">
        <ele>331.79</ele>
        <time>2017-12-17T13:14:00Z</time>
      </trkpt>
      <trkpt lat="44.44847" lon="5.00618">
        <ele>330.83</ele>
        <time>2017-12-17T13:14:11Z</time>
      </trkpt>
      <trkpt lat="44.44838" lon="5.00625">
        <ele>329.87</ele>
        <time>2017-12-17T13:14:21Z</time>
      </trkpt>
      <trkpt lat="44.44833" lon="5.00631">
        <ele>328.91</ele>
        <time>2017-12-17T13:14:29Z</time>
      </trkpt>
      <trkpt lat="44.44824" lon="5.00643">
        <ele>328.43</ele>
        <time>2017-12-17T13:14:36Z</time>
      </trkpt>
      <trkpt lat="44.44817" lon="5.00646">
        <ele>327.47</ele>
        <time>2017-12-17T13:14:47Z</time>
      </trkpt>
      <trkpt lat="44.44806" lon="5.00654">
        <ele>326.5</ele>
        <time>2017-12-17T13:14:58Z</time>
      </trkpt>
      <trkpt lat="44.44793" lon="5.00663">
        <ele>324.58</ele>
        <time>2017-12-17T13:15:10Z</time>
      </trkpt>
      <trkpt lat="44.44788" lon="5.00666">
        <ele>324.58</ele>
        <time>2017-12-17T13:15:16Z</time>
      </trkpt>
      <trkpt lat="44.44777" lon="5.00674">
        <ele>323.62</ele>
        <time>2017-12-17T13:15:29Z</time>
      </trkpt>
      <trkpt lat="44.44773" lon="5.00676">
        <ele>322.66</ele>
        <time>2017-12-17T13:15:34Z</time>
      </trkpt>
      <trkpt lat="44.4477" lon="5.00676">
        <ele>322.18</ele>
        <time>2017-12-17T13:15:38Z</time>
      </trkpt>
      <trkpt lat="44.44767" lon="5.00679">
        <ele>322.18</ele>
        <time>2017-12-17T13:15:41Z</time>
      </trkpt>
      <trkpt lat="44.4476" lon="5.00686">
        <ele>321.7</ele>
        <time>2017-12-17T13:15:49Z</time>
      </trkpt>
      <trkpt lat="44.44748" lon="5.007">
        <ele>320.26</ele>
        <time>2017-12-17T13:16:04Z</time>
      </trkpt>
      <trkpt lat="44.44739" lon="5.00711">
        <ele>319.3</ele>
        <time>2017-12-17T13:16:14Z</time>
      </trkpt>
      <trkpt lat="44.44728" lon="5.00723">
        <ele>318.81</ele>
        <time>2017-12-17T13:16:29Z</time>
      </trkpt>
      <trkpt lat="44.44727" lon="5.00726">
        <ele>318.81</ele>
        <time>2017-12-17T13:16:31Z</time>
      </trkpt>
      <trkpt lat="44.44725" lon="5.00728">
        <ele>318.33</ele>
        <time>2017-12-17T13:16:33Z</time>
      </trkpt>
      <trkpt lat="44.44717" lon="5.00741">
        <ele>318.81</ele>
        <time>2017-12-17T13:16:42Z</time>
      </trkpt>
      <trkpt lat="44.44715" lon="5.00742">
        <ele>318.81</ele>
        <time>2017-12-17T13:16:45Z</time>
      </trkpt>
      <trkpt lat="44.44711" lon="5.00745">
        <ele>318.81</ele>
        <time>2017-12-17T13:16:50Z</time>
      </trkpt>
      <trkpt lat="44.44706" lon="5.00749">
        <ele>318.33</ele>
        <time>2017-12-17T13:16:57Z</time>
      </trkpt>
      <trkpt lat="44.44704" lon="5.00752">
        <ele>317.37</ele>
        <time>2017-12-17T13:17:02Z</time>
      </trkpt>
      <trkpt lat="44.44701" lon="5.00757">
        <ele>316.89</ele>
        <time>2017-12-17T13:17:08Z</time>
      </trkpt>
      <trkpt lat="44.44694" lon="5.00766">
        <ele>316.41</ele>
        <time>2017-12-17T13:17:19Z</time>
      </trkpt>
      <trkpt lat="44.44692" lon="5.00771">
        <ele>315.93</ele>
        <time>2017-12-17T13:17:29Z</time>
      </trkpt>
      <trkpt lat="44.44691" lon="5.00778">
        <ele>315.45</ele>
        <time>2017-12-17T13:17:33Z</time>
      </trkpt>
      <trkpt lat="44.4469" lon="5.00782">
        <ele>314.97</ele>
        <time>2017-12-17T13:17:36Z</time>
      </trkpt>
      <trkpt lat="44.44686" lon="5.0079">
        <ele>314.97</ele>
        <time>2017-12-17T13:17:41Z</time>
      </trkpt>
      <trkpt lat="44.44677" lon="5.00802">
        <ele>314.01</ele>
        <time>2017-12-17T13:17:53Z</time>
      </trkpt>
      <trkpt lat="44.44674" lon="5.00803">
        <ele>314.01</ele>
        <time>2017-12-17T13:17:57Z</time>
      </trkpt>
      <trkpt lat="44.44664" lon="5.0081">
        <ele>313.53</ele>
        <time>2017-12-17T13:18:07Z</time>
      </trkpt>
      <trkpt lat="44.4466" lon="5.00812">
        <ele>314.01</ele>
        <time>2017-12-17T13:18:11Z</time>
      </trkpt>
      <trkpt lat="44.44656" lon="5.00816">
        <ele>313.05</ele>
        <time>2017-12-17T13:18:17Z</time>
      </trkpt>
      <trkpt lat="44.44653" lon="5.00819">
        <ele>313.05</ele>
        <time>2017-12-17T13:18:20Z</time>
      </trkpt>
      <trkpt lat="44.44646" lon="5.00827">
        <ele>312.57</ele>
        <time>2017-12-17T13:18:28Z</time>
      </trkpt>
      <trkpt lat="44.44644" lon="5.00828">
        <ele>312.09</ele>
        <time>2017-12-17T13:18:31Z</time>
      </trkpt>
      <trkpt lat="44.44631" lon="5.00837">
        <ele>311.12</ele>
        <time>2017-12-17T13:18:40Z</time>
      </trkpt>
      <trkpt lat="44.44628" lon="5.00835">
        <ele>309.68</ele>
        <time>2017-12-17T13:18:47Z</time>
      </trkpt>
      <trkpt lat="44.44625" lon="5.00847">
        <ele>309.68</ele>
        <time>2017-12-17T13:18:58Z</time>
      </trkpt>
      <trkpt lat="44.44621" lon="5.00852">
        <ele>309.68</ele>
        <time>2017-12-17T13:19:05Z</time>
      </trkpt>
      <trkpt lat="44.44623" lon="5.00864">
        <ele>310.64</ele>
        <time>2017-12-17T13:19:19Z</time>
      </trkpt>
      <trkpt lat="44.44622" lon="5.00865">
        <ele>310.16</ele>
        <time>2017-12-17T13:19:36Z</time>
      </trkpt>
      <trkpt lat="44.44622" lon="5.00867">
        <ele>310.64</ele>
        <time>2017-12-17T13:19:52Z</time>
      </trkpt>
      <trkpt lat="44.44622" lon="5.00868">
        <ele>310.16</ele>
        <time>2017-12-17T13:20:11Z</time>
      </trkpt>
      <trkpt lat="44.44622" lon="5.0087">
        <ele>310.16</ele>
        <time>2017-12-17T13:20:23Z</time>
      </trkpt>
      <trkpt lat="44.44622" lon="5.0087">
        <ele>310.16</ele>
        <time>2017-12-17T13:20:43Z</time>
      </trkpt>
      <trkpt lat="44.44622" lon="5.00873">
        <ele>310.16</ele>
        <time>2017-12-17T13:20:45Z</time>
      </trkpt>
      <trkpt lat="44.44621" lon="5.00878">
        <ele>310.16</ele>
        <time>2017-12-17T13:20:48Z</time>
      </trkpt>
      <trkpt lat="44.44621" lon="5.00901">
        <ele>311.12</ele>
        <time>2017-12-17T13:21:03Z</time>
      </trkpt>
      <trkpt lat="44.44619" lon="5.00908">
        <ele>311.12</ele>
        <time>2017-12-17T13:21:07Z</time>
      </trkpt>
      <trkpt lat="44.44617" lon="5.00912">
        <ele>311.12</ele>
        <time>2017-12-17T13:21:09Z</time>
      </trkpt>
      <trkpt lat="44.44614" lon="5.00916">
        <ele>311.12</ele>
        <time>2017-12-17T13:21:12Z</time>
      </trkpt>
      <trkpt lat="44.44613" lon="5.00925">
        <ele>311.12</ele>
        <time>2017-12-17T13:21:16Z</time>
      </trkpt>
      <trkpt lat="44.44615" lon="5.0094">
        <ele>311.6</ele>
        <time>2017-12-17T13:21:28Z</time>
      </trkpt>
      <trkpt lat="44.44617" lon="5.00942">
        <ele>311.6</ele>
        <time>2017-12-17T13:21:31Z</time>
      </trkpt>
      <trkpt lat="44.44624" lon="5.00952">
        <ele>312.09</ele>
        <time>2017-12-17T13:21:37Z</time>
      </trkpt>
      <trkpt lat="44.4463" lon="5.00962">
        <ele>311.6</ele>
        <time>2017-12-17T13:21:50Z</time>
      </trkpt>
      <trkpt lat="44.44634" lon="5.0097">
        <ele>311.12</ele>
        <time>2017-12-17T13:21:58Z</time>
      </trkpt>
      <trkpt lat="44.44649" lon="5.00981">
        <ele>311.12</ele>
        <time>2017-12-17T13:22:08Z</time>
      </trkpt>
      <trkpt lat="44.44655" lon="5.00982">
        <ele>311.12</ele>
        <time>2017-12-17T13:22:21Z</time>
      </trkpt>
      <trkpt lat="44.44656" lon="5.00982">
        <ele>311.6</ele>
        <time>2017-12-17T13:22:40Z</time>
      </trkpt>
      <trkpt lat="44.44657" lon="5.00982">
        <ele>311.6</ele>
        <time>2017-12-17T13:23:00Z</time>
      </trkpt>
      <trkpt lat="44.44656" lon="5.00982">
        <ele>311.6</ele>
        <time>2017-12-17T13:23:19Z</time>
      </trkpt>
      <trkpt lat="44.44657" lon="5.00983">
        <ele>312.57</ele>
        <time>2017-12-17T13:23:30Z</time>
      </trkpt>
      <trkpt lat="44.44656" lon="5.00984">
        <ele>312.57</ele>
        <time>2017-12-17T13:23:42Z</time>
      </trkpt>
      <trkpt lat="44.44658" lon="5.00983">
        <ele>311.6</ele>
        <time>2017-12-17T13:23:53Z</time>
      </trkpt>
      <trkpt lat="44.4466" lon="5.00982">
        <ele>311.6</ele>
        <time>2017-12-17T13:24:03Z</time>
      </trkpt>
      <trkpt lat="44.44663" lon="5.00981">
        <ele>311.6</ele>
        <time>2017-12-17T13:24:05Z</time>
      </trkpt>
      <trkpt lat="44.44672" lon="5.00983">
        <ele>311.12</ele>
        <time>2017-12-17T13:24:15Z</time>
      </trkpt>
      <trkpt lat="44.44674" lon="5.00983">
        <ele>311.12</ele>
        <time>2017-12-17T13:24:20Z</time>
      </trkpt>
      <trkpt lat="44.44687" lon="5.00983">
        <ele>313.05</ele>
        <time>2017-12-17T13:24:34Z</time>
      </trkpt>
      <trkpt lat="44.44691" lon="5.00983">
        <ele>313.05</ele>
        <time>2017-12-17T13:24:37Z</time>
      </trkpt>
      <trkpt lat="44.447" lon="5.00981">
        <ele>313.05</ele>
        <time>2017-12-17T13:24:43Z</time>
      </trkpt>
      <trkpt lat="44.44708" lon="5.00981">
        <ele>313.53</ele>
        <time>2017-12-17T13:24:49Z</time>
      </trkpt>
      <trkpt lat="44.44711" lon="5.00984">
        <ele>313.53</ele>
        <time>2017-12-17T13:24:53Z</time>
      </trkpt>
      <trkpt lat="44.44722" lon="5.00984">
        <ele>314.49</ele>
        <time>2017-12-17T13:25:04Z</time>
      </trkpt>
      <trkpt lat="44.4473" lon="5.00984">
        <ele>316.41</ele>
        <time>2017-12-17T13:25:13Z</time>
      </trkpt>
      <trkpt lat="44.44732" lon="5.00984">
        <ele>317.37</ele>
        <time>2017-12-17T13:25:15Z</time>
      </trkpt>
      <trkpt lat="44.44735" lon="5.00983">
        <ele>316.89</ele>
        <time>2017-12-17T13:25:19Z</time>
      </trkpt>
      <trkpt lat="44.44739" lon="5.00985">
        <ele>317.85</ele>
        <time>2017-12-17T13:25:26Z</time>
      </trkpt>
      <trkpt lat="44.44742" lon="5.00985">
        <ele>317.85</ele>
        <time>2017-12-17T13:25:28Z</time>
      </trkpt>
      <trkpt lat="44.44744" lon="5.00985">
        <ele>318.33</ele>
        <time>2017-12-17T13:25:30Z</time>
      </trkpt>
      <trkpt lat="44.44755" lon="5.00978">
        <ele>318.81</ele>
        <time>2017-12-17T13:25:37Z</time>
      </trkpt>
      <trkpt lat="44.44757" lon="5.00979">
        <ele>319.3</ele>
        <time>2017-12-17T13:25:39Z</time>
      </trkpt>
      <trkpt lat="44.4476" lon="5.00977">
        <ele>319.78</ele>
        <time>2017-12-17T13:25:44Z</time>
      </trkpt>
      <trkpt lat="44.44763" lon="5.00974">
        <ele>320.26</ele>
        <time>2017-12-17T13:25:48Z</time>
      </trkpt>
      <trkpt lat="44.44773" lon="5.00972">
        <ele>322.18</ele>
        <time>2017-12-17T13:25:58Z</time>
      </trkpt>
      <trkpt lat="44.44782" lon="5.00967">
        <ele>323.62</ele>
        <time>2017-12-17T13:26:09Z</time>
      </trkpt>
      <trkpt lat="44.44789" lon="5.00965">
        <ele>324.58</ele>
        <time>2017-12-17T13:26:19Z</time>
      </trkpt>
      <trkpt lat="44.44789" lon="5.00964">
        <ele>325.54</ele>
        <time>2017-12-17T13:26:21Z</time>
      </trkpt>
      <trkpt lat="44.44791" lon="5.00964">
        <ele>324.58</ele>
        <time>2017-12-17T13:26:26Z</time>
      </trkpt>
      <trkpt lat="44.44798" lon="5.00958">
        <ele>325.54</ele>
        <time>2017-12-17T13:26:36Z</time>
      </trkpt>
      <trkpt lat="44.44799" lon="5.00958">
        <ele>326.02</ele>
        <time>2017-12-17T13:26:40Z</time>
      </trkpt>
      <trkpt lat="44.44803" lon="5.00956">
        <ele>326.02</ele>
        <time>2017-12-17T13:26:45Z</time>
      </trkpt>
      <trkpt lat="44.4481" lon="5.00955">
        <ele>326.99</ele>
        <time>2017-12-17T13:26:54Z</time>
      </trkpt>
      <trkpt lat="44.44811" lon="5.00955">
        <ele>326.99</ele>
        <time>2017-12-17T13:26:58Z</time>
      </trkpt>
      <trkpt lat="44.44814" lon="5.00955">
        <ele>327.47</ele>
        <time>2017-12-17T13:27:04Z</time>
      </trkpt>
      <trkpt lat="44.44818" lon="5.00955">
        <ele>326.5</ele>
        <time>2017-12-17T13:27:16Z</time>
      </trkpt>
      <trkpt lat="44.4482" lon="5.00955">
        <ele>325.54</ele>
        <time>2017-12-17T13:27:26Z</time>
      </trkpt>
      <trkpt lat="44.44821" lon="5.00955">
        <ele>325.54</ele>
        <time>2017-12-17T13:27:27Z</time>
      </trkpt>
      <trkpt lat="44.44824" lon="5.00951">
        <ele>325.06</ele>
        <time>2017-12-17T13:27:31Z</time>
      </trkpt>
      <trkpt lat="44.44827" lon="5.00951">
        <ele>325.06</ele>
        <time>2017-12-17T13:27:33Z</time>
      </trkpt>
      <trkpt lat="44.44835" lon="5.0095">
        <ele>325.06</ele>
        <time>2017-12-17T13:27:38Z</time>
      </trkpt>
      <trkpt lat="44.44838" lon="5.00949">
        <ele>325.54</ele>
        <time>2017-12-17T13:27:42Z</time>
      </trkpt>
      <trkpt lat="44.44839" lon="5.00949">
        <ele>325.54</ele>
        <time>2017-12-17T13:27:44Z</time>
      </trkpt>
      <trkpt lat="44.44843" lon="5.00948">
        <ele>324.1</ele>
        <time>2017-12-17T13:27:52Z</time>
      </trkpt>
      <trkpt lat="44.44845" lon="5.00949">
        <ele>324.1</ele>
        <time>2017-12-17T13:27:54Z</time>
      </trkpt>
      <trkpt lat="44.44854" lon="5.0095">
        <ele>323.14</ele>
        <time>2017-12-17T13:28:04Z</time>
      </trkpt>
      <trkpt lat="44.44854" lon="5.00951">
        <ele>323.62</ele>
        <time>2017-12-17T13:28:10Z</time>
      </trkpt>
      <trkpt lat="44.44854" lon="5.00957">
        <ele>324.58</ele>
        <time>2017-12-17T13:28:22Z</time>
      </trkpt>
      <trkpt lat="44.44855" lon="5.00962">
        <ele>324.58</ele>
        <time>2017-12-17T13:28:25Z</time>
      </trkpt>
      <trkpt lat="44.44853" lon="5.00977">
        <ele>324.58</ele>
        <time>2017-12-17T13:28:32Z</time>
      </trkpt>
      <trkpt lat="44.44851" lon="5.00988">
        <ele>325.06</ele>
        <time>2017-12-17T13:28:40Z</time>
      </trkpt>
      <trkpt lat="44.4485" lon="5.0099">
        <ele>324.58</ele>
        <time>2017-12-17T13:28:50Z</time>
      </trkpt>
      <trkpt lat="44.44849" lon="5.00999">
        <ele>323.62</ele>
        <time>2017-12-17T13:29:00Z</time>
      </trkpt>
      <trkpt lat="44.44849" lon="5.01002">
        <ele>322.66</ele>
        <time>2017-12-17T13:29:11Z</time>
      </trkpt>
      <trkpt lat="44.4485" lon="5.01005">
        <ele>321.22</ele>
        <time>2017-12-17T13:29:20Z</time>
      </trkpt>
      <trkpt lat="44.44851" lon="5.01007">
        <ele>321.22</ele>
        <time>2017-12-17T13:29:23Z</time>
      </trkpt>
      <trkpt lat="44.44855" lon="5.01009">
        <ele>321.22</ele>
        <time>2017-12-17T13:29:26Z</time>
      </trkpt>
      <trkpt lat="44.44861" lon="5.01014">
        <ele>320.74</ele>
        <time>2017-12-17T13:29:36Z</time>
      </trkpt>
      <trkpt lat="44.44862" lon="5.0102">
        <ele>319.78</ele>
        <time>2017-12-17T13:29:43Z</time>
      </trkpt>
      <trkpt lat="44.44867" lon="5.01025">
        <ele>319.78</ele>
        <time>2017-12-17T13:29:47Z</time>
      </trkpt>
      <trkpt lat="44.44869" lon="5.01028">
        <ele>319.78</ele>
        <time>2017-12-17T13:29:50Z</time>
      </trkpt>
      <trkpt lat="44.44873" lon="5.01034">
        <ele>319.3</ele>
        <time>2017-12-17T13:29:56Z</time>
      </trkpt>
      <trkpt lat="44.44888" lon="5.01049">
        <ele>317.85</ele>
        <time>2017-12-17T13:30:06Z</time>
      </trkpt>
      <trkpt lat="44.44902" lon="5.01058">
        <ele>319.78</ele>
        <time>2017-12-17T13:30:15Z</time>
      </trkpt>
      <trkpt lat="44.44904" lon="5.01064">
        <ele>318.81</ele>
        <time>2017-12-17T13:30:20Z</time>
      </trkpt>
      <trkpt lat="44.44898" lon="5.01075">
        <ele>319.3</ele>
        <time>2017-12-17T13:30:31Z</time>
      </trkpt>
      <trkpt lat="44.44898" lon="5.01078">
        <ele>319.78</ele>
        <time>2017-12-17T13:30:32Z</time>
      </trkpt>
      <trkpt lat="44.44907" lon="5.01093">
        <ele>320.26</ele>
        <time>2017-12-17T13:30:41Z</time>
      </trkpt>
      <trkpt lat="44.44909" lon="5.01097">
        <ele>320.26</ele>
        <time>2017-12-17T13:30:44Z</time>
      </trkpt>
      <trkpt lat="44.44909" lon="5.01102">
        <ele>319.78</ele>
        <time>2017-12-17T13:30:51Z</time>
      </trkpt>
      <trkpt lat="44.44917" lon="5.01109">
        <ele>318.33</ele>
        <time>2017-12-17T13:31:02Z</time>
      </trkpt>
      <trkpt lat="44.44921" lon="5.01116">
        <ele>318.33</ele>
        <time>2017-12-17T13:31:13Z</time>
      </trkpt>
      <trkpt lat="44.44933" lon="5.01135">
        <ele>316.89</ele>
        <time>2017-12-17T13:31:23Z</time>
      </trkpt>
      <trkpt lat="44.44933" lon="5.01136">
        <ele>317.37</ele>
        <time>2017-12-17T13:31:24Z</time>
      </trkpt>
      <trkpt lat="44.44937" lon="5.0114">
        <ele>316.41</ele>
        <time>2017-12-17T13:31:29Z</time>
      </trkpt>
      <trkpt lat="44.44939" lon="5.01143">
        <ele>316.41</ele>
        <time>2017-12-17T13:31:32Z</time>
      </trkpt>
      <trkpt lat="44.44942" lon="5.01145">
        <ele>315.93</ele>
        <time>2017-12-17T13:31:41Z</time>
      </trkpt>
      <trkpt lat="44.44942" lon="5.01145">
        <ele>315.93</ele>
        <time>2017-12-17T13:31:42Z</time>
      </trkpt>
      <trkpt lat="44.44945" lon="5.0115">
        <ele>315.93</ele>
        <time>2017-12-17T13:31:58Z</time>
      </trkpt>
      <trkpt lat="44.44946" lon="5.01149">
        <ele>316.41</ele>
        <time>2017-12-17T13:32:05Z</time>
      </trkpt>
      <trkpt lat="44.44947" lon="5.01153">
        <ele>315.93</ele>
        <time>2017-12-17T13:32:09Z</time>
      </trkpt>
      <trkpt lat="44.44951" lon="5.01163">
        <ele>315.45</ele>
        <time>2017-12-17T13:32:15Z</time>
      </trkpt>
      <trkpt lat="44.44953" lon="5.01166">
        <ele>314.97</ele>
        <time>2017-12-17T13:32:19Z</time>
      </trkpt>
      <trkpt lat="44.44953" lon="5.0117">
        <ele>314.49</ele>
        <time>2017-12-17T13:32:29Z</time>
      </trkpt>
      <trkpt lat="44.44957" lon="5.01171">
        <ele>314.97</ele>
        <time>2017-12-17T13:32:36Z</time>
      </trkpt>
      <trkpt lat="44.44969" lon="5.01179">
        <ele>314.97</ele>
        <time>2017-12-17T13:32:47Z</time>
      </trkpt>
      <trkpt lat="44.44971" lon="5.01178">
        <ele>314.97</ele>
        <time>2017-12-17T13:32:58Z</time>
      </trkpt>
      <trkpt lat="44.4497" lon="5.01178">
        <ele>315.45</ele>
        <time>2017-12-17T13:33:24Z</time>
      </trkpt>
      <trkpt lat="44.4497" lon="5.01177">
        <ele>315.45</ele>
        <time>2017-12-17T13:33:49Z</time>
      </trkpt>
      <trkpt lat="44.44971" lon="5.01177">
        <ele>314.97</ele>
        <time>2017-12-17T13:34:09Z</time>
      </trkpt>
      <trkpt lat="44.44971" lon="5.01176">
        <ele>314.97</ele>
        <time>2017-12-17T13:34:30Z</time>
      </trkpt>
      <trkpt lat="44.44971" lon="5.01175">
        <ele>314.97</ele>
        <time>2017-12-17T13:34:53Z</time>
      </trkpt>
      <trkpt lat="44.44971" lon="5.01175">
        <ele>314.97</ele>
        <time>2017-12-17T13:35:12Z</time>
      </trkpt>
      <trkpt lat="44.44972" lon="5.01174">
        <ele>314.97</ele>
        <time>2017-12-17T13:35:35Z</time>
      </trkpt>
      <trkpt lat="44.44971" lon="5.01176">
        <ele>314.97</ele>
        <time>2017-12-17T13:35:48Z</time>
      </trkpt>
      <trkpt lat="44.44971" lon="5.01178">
        <ele>314.97</ele>
        <time>2017-12-17T13:36:10Z</time>
      </trkpt>
      <trkpt lat="44.44971" lon="5.01178">
        <ele>314.49</ele>
        <time>2017-12-17T13:36:25Z</time>
      </trkpt>
      <trkpt lat="44.44971" lon="5.01178">
        <ele>314.49</ele>
        <time>2017-12-17T13:36:43Z</time>
      </trkpt>
      <trkpt lat="44.44971" lon="5.01178">
        <ele>314.49</ele>
        <time>2017-12-17T13:37:02Z</time>
      </trkpt>
      <trkpt lat="44.44971" lon="5.01178">
        <ele>314.97</ele>
        <time>2017-12-17T13:37:33Z</time>
      </trkpt>
      <trkpt lat="44.44972" lon="5.01179">
        <ele>314.49</ele>
        <time>2017-12-17T13:37:54Z</time>
      </trkpt>
      <trkpt lat="44.44973" lon="5.01178">
        <ele>314.97</ele>
        <time>2017-12-17T13:38:08Z</time>
      </trkpt>
      <trkpt lat="44.44973" lon="5.01178">
        <ele>314.97</ele>
        <time>2017-12-17T13:38:30Z</time>
      </trkpt>
      <trkpt lat="44.44973" lon="5.0118">
        <ele>314.97</ele>
        <time>2017-12-17T13:38:51Z</time>
      </trkpt>
      <trkpt lat="44.44974" lon="5.01179">
        <ele>314.49</ele>
        <time>2017-12-17T13:39:03Z</time>
      </trkpt>
      <trkpt lat="44.44977" lon="5.01182">
        <ele>314.97</ele>
        <time>2017-12-17T13:39:11Z</time>
      </trkpt>
      <trkpt lat="44.44976" lon="5.01181">
        <ele>314.97</ele>
        <time>2017-12-17T13:39:16Z</time>
      </trkpt>
      <trkpt lat="44.44973" lon="5.01181">
        <ele>315.45</ele>
        <time>2017-12-17T13:39:28Z</time>
      </trkpt>
      <trkpt lat="44.44977" lon="5.01181">
        <ele>314.97</ele>
        <time>2017-12-17T13:39:31Z</time>
      </trkpt>
      <trkpt lat="44.44988" lon="5.01184">
        <ele>315.45</ele>
        <time>2017-12-17T13:39:38Z</time>
      </trkpt>
      <trkpt lat="44.45006" lon="5.01188">
        <ele>314.97</ele>
        <time>2017-12-17T13:39:52Z</time>
      </trkpt>
      <trkpt lat="44.45015" lon="5.01193">
        <ele>316.41</ele>
        <time>2017-12-17T13:40:03Z</time>
      </trkpt>
      <trkpt lat="44.45022" lon="5.01194">
        <ele>316.89</ele>
        <time>2017-12-17T13:40:12Z</time>
      </trkpt>
      <trkpt lat="44.45031" lon="5.01198">
        <ele>317.37</ele>
        <time>2017-12-17T13:40:21Z</time>
      </trkpt>
      <trkpt lat="44.45046" lon="5.01202">
        <ele>317.85</ele>
        <time>2017-12-17T13:40:34Z</time>
      </trkpt>
      <trkpt lat="44.45058" lon="5.01204">
        <ele>318.33</ele>
        <time>2017-12-17T13:40:44Z</time>
      </trkpt>
      <trkpt lat="44.45063" lon="5.01207">
        <ele>318.33</ele>
        <time>2017-12-17T13:40:48Z</time>
      </trkpt>
      <trkpt lat="44.45073" lon="5.01217">
        <ele>318.33</ele>
        <time>2017-12-17T13:41:02Z</time>
      </trkpt>
      <trkpt lat="44.45075" lon="5.01218">
        <ele>318.33</ele>
        <time>2017-12-17T13:41:04Z</time>
      </trkpt>
      <trkpt lat="44.45082" lon="5.01226">
        <ele>317.85</ele>
        <time>2017-12-17T13:41:16Z</time>
      </trkpt>
      <trkpt lat="44.45085" lon="5.01228">
        <ele>317.85</ele>
        <time>2017-12-17T13:41:18Z</time>
      </trkpt>
      <trkpt lat="44.451" lon="5.01241">
        <ele>317.85</ele>
        <time>2017-12-17T13:41:29Z</time>
      </trkpt>
      <trkpt lat="44.45113" lon="5.0125">
        <ele>318.33</ele>
        <time>2017-12-17T13:41:42Z</time>
      </trkpt>
      <trkpt lat="44.45124" lon="5.0126">
        <ele>318.81</ele>
        <time>2017-12-17T13:41:53Z</time>
      </trkpt>
      <trkpt lat="44.45126" lon="5.01262">
        <ele>318.81</ele>
        <time>2017-12-17T13:41:56Z</time>
      </trkpt>
      <trkpt lat="44.45143" lon="5.01256">
        <ele>319.78</ele>
        <time>2017-12-17T13:42:07Z</time>
      </trkpt>
      <trkpt lat="44.45154" lon="5.01257">
        <ele>320.26</ele>
        <time>2017-12-17T13:42:15Z</time>
      </trkpt>
      <trkpt lat="44.4516" lon="5.01264">
        <ele>320.26</ele>
        <time>2017-12-17T13:42:23Z</time>
      </trkpt>
      <trkpt lat="44.45163" lon="5.01272">
        <ele>320.74</ele>
        <time>2017-12-17T13:42:28Z</time>
      </trkpt>
      <trkpt lat="44.45161" lon="5.01276">
        <ele>320.74</ele>
        <time>2017-12-17T13:42:31Z</time>
      </trkpt>
      <trkpt lat="44.45163" lon="5.01284">
        <ele>320.74</ele>
        <time>2017-12-17T13:42:35Z</time>
      </trkpt>
      <trkpt lat="44.45165" lon="5.01288">
        <ele>321.22</ele>
        <time>2017-12-17T13:42:40Z</time>
      </trkpt>
      <trkpt lat="44.4517" lon="5.01295">
        <ele>321.22</ele>
        <time>2017-12-17T13:42:44Z</time>
      </trkpt>
      <trkpt lat="44.45175" lon="5.01302">
        <ele>322.18</ele>
        <time>2017-12-17T13:42:53Z</time>
      </trkpt>
      <trkpt lat="44.45182" lon="5.0131">
        <ele>322.18</ele>
        <time>2017-12-17T13:43:02Z</time>
      </trkpt>
      <trkpt lat="44.45186" lon="5.01314">
        <ele>322.66</ele>
        <time>2017-12-17T13:43:07Z</time>
      </trkpt>
      <trkpt lat="44.45197" lon="5.01319">
        <ele>324.1</ele>
        <time>2017-12-17T13:43:20Z</time>
      </trkpt>
      <trkpt lat="44.45201" lon="5.01321">
        <ele>324.1</ele>
        <time>2017-12-17T13:43:22Z</time>
      </trkpt>
      <trkpt lat="44.45212" lon="5.01326">
        <ele>324.58</ele>
        <time>2017-12-17T13:43:32Z</time>
      </trkpt>
      <trkpt lat="44.45217" lon="5.01326">
        <ele>324.58</ele>
        <time>2017-12-17T13:43:35Z</time>
      </trkpt>
      <trkpt lat="44.4522" lon="5.01328">
        <ele>325.06</ele>
        <time>2017-12-17T13:43:39Z</time>
      </trkpt>
      <trkpt lat="44.45227" lon="5.01332">
        <ele>325.06</ele>
        <time>2017-12-17T13:43:45Z</time>
      </trkpt>
      <trkpt lat="44.4523" lon="5.01335">
        <ele>325.54</ele>
        <time>2017-12-17T13:43:51Z</time>
      </trkpt>
      <trkpt lat="44.45233" lon="5.01338">
        <ele>325.54</ele>
        <time>2017-12-17T13:43:54Z</time>
      </trkpt>
      <trkpt lat="44.45245" lon="5.0135">
        <ele>324.58</ele>
        <time>2017-12-17T13:44:03Z</time>
      </trkpt>
      <trkpt lat="44.45248" lon="5.01353">
        <ele>324.58</ele>
        <time>2017-12-17T13:44:06Z</time>
      </trkpt>
      <trkpt lat="44.45254" lon="5.01359">
        <ele>323.62</ele>
        <time>2017-12-17T13:44:19Z</time>
      </trkpt>
      <trkpt lat="44.45264" lon="5.01364">
        <ele>322.18</ele>
        <time>2017-12-17T13:44:30Z</time>
      </trkpt>
      <trkpt lat="44.4528" lon="5.01372">
        <ele>321.7</ele>
        <time>2017-12-17T13:44:40Z</time>
      </trkpt>
      <trkpt lat="44.45292" lon="5.0138">
        <ele>320.74</ele>
        <time>2017-12-17T13:44:53Z</time>
      </trkpt>
      <trkpt lat="44.45307" lon="5.01389">
        <ele>320.74</ele>
        <time>2017-12-17T13:45:08Z</time>
      </trkpt>
      <trkpt lat="44.45324" lon="5.01395">
        <ele>320.26</ele>
        <time>2017-12-17T13:45:20Z</time>
      </trkpt>
      <trkpt lat="44.45329" lon="5.01394">
        <ele>320.26</ele>
        <time>2017-12-17T13:45:24Z</time>
      </trkpt>
      <trkpt lat="44.45341" lon="5.01401">
        <ele>321.7</ele>
        <time>2017-12-17T13:45:33Z</time>
      </trkpt>
      <trkpt lat="44.4535" lon="5.01405">
        <ele>321.7</ele>
        <time>2017-12-17T13:45:44Z</time>
      </trkpt>
      <trkpt lat="44.45352" lon="5.01406">
        <ele>322.18</ele>
        <time>2017-12-17T13:45:47Z</time>
      </trkpt>
      <trkpt lat="44.45364" lon="5.01411">
        <ele>322.18</ele>
        <time>2017-12-17T13:45:58Z</time>
      </trkpt>
      <trkpt lat="44.45368" lon="5.01416">
        <ele>322.66</ele>
        <time>2017-12-17T13:46:04Z</time>
      </trkpt>
      <trkpt lat="44.45376" lon="5.0143">
        <ele>322.66</ele>
        <time>2017-12-17T13:46:16Z</time>
      </trkpt>
      <trkpt lat="44.45391" lon="5.01445">
        <ele>321.7</ele>
        <time>2017-12-17T13:46:28Z</time>
      </trkpt>
      <trkpt lat="44.45403" lon="5.01453">
        <ele>322.18</ele>
        <time>2017-12-17T13:46:38Z</time>
      </trkpt>
      <trkpt lat="44.45405" lon="5.01459">
        <ele>321.7</ele>
        <time>2017-12-17T13:46:49Z</time>
      </trkpt>
      <trkpt lat="44.4541" lon="5.01464">
        <ele>321.22</ele>
        <time>2017-12-17T13:46:54Z</time>
      </trkpt>
      <trkpt lat="44.45412" lon="5.01466">
        <ele>321.7</ele>
        <time>2017-12-17T13:46:56Z</time>
      </trkpt>
      <trkpt lat="44.45427" lon="5.01485">
        <ele>322.18</ele>
        <time>2017-12-17T13:47:11Z</time>
      </trkpt>
      <trkpt lat="44.45432" lon="5.01492">
        <ele>321.22</ele>
        <time>2017-12-17T13:47:17Z</time>
      </trkpt>
      <trkpt lat="44.45438" lon="5.01499">
        <ele>320.74</ele>
        <time>2017-12-17T13:47:25Z</time>
      </trkpt>
      <trkpt lat="44.45442" lon="5.01501">
        <ele>321.22</ele>
        <time>2017-12-17T13:47:29Z</time>
      </trkpt>
      <trkpt lat="44.45455" lon="5.01509">
        <ele>321.22</ele>
        <time>2017-12-17T13:47:39Z</time>
      </trkpt>
      <trkpt lat="44.45462" lon="5.01519">
        <ele>321.7</ele>
        <time>2017-12-17T13:47:52Z</time>
      </trkpt>
      <trkpt lat="44.45479" lon="5.0153">
        <ele>321.7</ele>
        <time>2017-12-17T13:48:06Z</time>
      </trkpt>
      <trkpt lat="44.45492" lon="5.01532">
        <ele>322.18</ele>
        <time>2017-12-17T13:48:15Z</time>
      </trkpt>
      <trkpt lat="44.455" lon="5.01531">
        <ele>323.62</ele>
        <time>2017-12-17T13:48:24Z</time>
      </trkpt>
      <trkpt lat="44.45509" lon="5.01527">
        <ele>324.58</ele>
        <time>2017-12-17T13:48:33Z</time>
      </trkpt>
      <trkpt lat="44.45513" lon="5.0153">
        <ele>324.1</ele>
        <time>2017-12-17T13:48:41Z</time>
      </trkpt>
      <trkpt lat="44.45524" lon="5.01536">
        <ele>324.58</ele>
        <time>2017-12-17T13:48:52Z</time>
      </trkpt>
      <trkpt lat="44.45535" lon="5.01542">
        <ele>324.58</ele>
        <time>2017-12-17T13:49:03Z</time>
      </trkpt>
      <trkpt lat="44.45542" lon="5.01551">
        <ele>324.1</ele>
        <time>2017-12-17T13:49:13Z</time>
      </trkpt>
      <trkpt lat="44.45556" lon="5.01562">
        <ele>325.54</ele>
        <time>2017-12-17T13:49:23Z</time>
      </trkpt>
      <trkpt lat="44.45567" lon="5.01569">
        <ele>324.58</ele>
        <time>2017-12-17T13:49:33Z</time>
      </trkpt>
      <trkpt lat="44.45573" lon="5.01575">
        <ele>324.58</ele>
        <time>2017-12-17T13:49:42Z</time>
      </trkpt>
      <trkpt lat="44.45578" lon="5.01573">
        <ele>324.58</ele>
        <time>2017-12-17T13:49:46Z</time>
      </trkpt>
      <trkpt lat="44.45594" lon="5.01579">
        <ele>324.1</ele>
        <time>2017-12-17T13:49:58Z</time>
      </trkpt>
      <trkpt lat="44.45594" lon="5.01581">
        <ele>324.1</ele>
        <time>2017-12-17T13:50:00Z</time>
      </trkpt>
      <trkpt lat="44.45604" lon="5.01601">
        <ele>324.1</ele>
        <time>2017-12-17T13:50:12Z</time>
      </trkpt>
      <trkpt lat="44.45608" lon="5.01603">
        <ele>323.62</ele>
        <time>2017-12-17T13:50:18Z</time>
      </trkpt>
      <trkpt lat="44.45614" lon="5.01607">
        <ele>323.14</ele>
        <time>2017-12-17T13:50:25Z</time>
      </trkpt>
      <trkpt lat="44.45626" lon="5.01611">
        <ele>321.7</ele>
        <time>2017-12-17T13:50:36Z</time>
      </trkpt>
      <trkpt lat="44.45627" lon="5.0161">
        <ele>321.7</ele>
        <time>2017-12-17T13:50:37Z</time>
      </trkpt>
      <trkpt lat="44.45636" lon="5.01606">
        <ele>321.7</ele>
        <time>2017-12-17T13:50:45Z</time>
      </trkpt>
      <trkpt lat="44.45646" lon="5.01602">
        <ele>323.14</ele>
        <time>2017-12-17T13:50:57Z</time>
      </trkpt>
      <trkpt lat="44.45649" lon="5.01602">
        <ele>323.14</ele>
        <time>2017-12-17T13:51:00Z</time>
      </trkpt>
      <trkpt lat="44.45659" lon="5.01604">
        <ele>325.06</ele>
        <time>2017-12-17T13:51:09Z</time>
      </trkpt>
      <trkpt lat="44.45659" lon="5.01603">
        <ele>325.06</ele>
        <time>2017-12-17T13:51:10Z</time>
      </trkpt>
      <trkpt lat="44.45662" lon="5.01603">
        <ele>324.58</ele>
        <time>2017-12-17T13:51:13Z</time>
      </trkpt>
      <trkpt lat="44.45673" lon="5.01605">
        <ele>325.54</ele>
        <time>2017-12-17T13:51:21Z</time>
      </trkpt>
      <trkpt lat="44.45679" lon="5.01605">
        <ele>326.5</ele>
        <time>2017-12-17T13:51:25Z</time>
      </trkpt>
      <trkpt lat="44.45683" lon="5.01603">
        <ele>326.99</ele>
        <time>2017-12-17T13:51:30Z</time>
      </trkpt>
      <trkpt lat="44.45686" lon="5.01606">
        <ele>327.47</ele>
        <time>2017-12-17T13:51:34Z</time>
      </trkpt>
      <trkpt lat="44.45692" lon="5.01607">
        <ele>328.43</ele>
        <time>2017-12-17T13:51:40Z</time>
      </trkpt>
      <trkpt lat="44.45706" lon="5.01611">
        <ele>329.87</ele>
        <time>2017-12-17T13:51:54Z</time>
      </trkpt>
      <trkpt lat="44.45711" lon="5.01615">
        <ele>329.87</ele>
        <time>2017-12-17T13:52:01Z</time>
      </trkpt>
      <trkpt lat="44.45723" lon="5.0162">
        <ele>328.91</ele>
        <time>2017-12-17T13:52:11Z</time>
      </trkpt>
      <trkpt lat="44.45733" lon="5.01627">
        <ele>328.91</ele>
        <time>2017-12-17T13:52:22Z</time>
      </trkpt>
      <trkpt lat="44.45735" lon="5.01629">
        <ele>328.91</ele>
        <time>2017-12-17T13:52:24Z</time>
      </trkpt>
      <trkpt lat="44.45739" lon="5.01632">
        <ele>328.43</ele>
        <time>2017-12-17T13:52:29Z</time>
      </trkpt>
      <trkpt lat="44.45743" lon="5.01632">
        <ele>328.43</ele>
        <time>2017-12-17T13:52:32Z</time>
      </trkpt>
      <trkpt lat="44.45754" lon="5.01637">
        <ele>328.43</ele>
        <time>2017-12-17T13:52:41Z</time>
      </trkpt>
      <trkpt lat="44.45758" lon="5.01637">
        <ele>328.43</ele>
        <time>2017-12-17T13:52:45Z</time>
      </trkpt>
      <trkpt lat="44.45762" lon="5.01638">
        <ele>329.39</ele>
        <time>2017-12-17T13:52:47Z</time>
      </trkpt>
      <trkpt lat="44.45775" lon="5.01644">
        <ele>328.43</ele>
        <time>2017-12-17T13:52:59Z</time>
      </trkpt>
      <trkpt lat="44.45788" lon="5.01645">
        <ele>328.91</ele>
        <time>2017-12-17T13:53:07Z</time>
      </trkpt>
      <trkpt lat="44.45794" lon="5.01648">
        <ele>328.91</ele>
        <time>2017-12-17T13:53:14Z</time>
      </trkpt>
      <trkpt lat="44.45796" lon="5.01651">
        <ele>328.91</ele>
        <time>2017-12-17T13:53:17Z</time>
      </trkpt>
      <trkpt lat="44.45807" lon="5.01658">
        <ele>328.91</ele>
        <time>2017-12-17T13:53:26Z</time>
      </trkpt>
      <trkpt lat="44.45815" lon="5.01663">
        <ele>328.91</ele>
        <time>2017-12-17T13:53:37Z</time>
      </trkpt>
      <trkpt lat="44.45826" lon="5.01667">
        <ele>328.91</ele>
        <time>2017-12-17T13:53:46Z</time>
      </trkpt>
      <trkpt lat="44.45834" lon="5.01671">
        <ele>327.95</ele>
        <time>2017-12-17T13:53:56Z</time>
      </trkpt>
      <trkpt lat="44.45839" lon="5.01672">
        <ele>327.47</ele>
        <time>2017-12-17T13:53:58Z</time>
      </trkpt>
      <trkpt lat="44.45845" lon="5.01675">
        <ele>327.47</ele>
        <time>2017-12-17T13:54:02Z</time>
      </trkpt>
      <trkpt lat="44.45855" lon="5.01681">
        <ele>327.47</ele>
        <time>2017-12-17T13:54:16Z</time>
      </trkpt>
      <trkpt lat="44.45871" lon="5.01687">
        <ele>326.99</ele>
        <time>2017-12-17T13:54:26Z</time>
      </trkpt>
      <trkpt lat="44.45873" lon="5.01687">
        <ele>326.99</ele>
        <time>2017-12-17T13:54:30Z</time>
      </trkpt>
      <trkpt lat="44.45875" lon="5.01687">
        <ele>326.99</ele>
        <time>2017-12-17T13:54:32Z</time>
      </trkpt>
      <trkpt lat="44.45884" lon="5.01689">
        <ele>326.5</ele>
        <time>2017-12-17T13:54:38Z</time>
      </trkpt>
      <trkpt lat="44.45895" lon="5.01693">
        <ele>327.95</ele>
        <time>2017-12-17T13:54:47Z</time>
      </trkpt>
      <trkpt lat="44.45908" lon="5.01696">
        <ele>327.95</ele>
        <time>2017-12-17T13:54:56Z</time>
      </trkpt>
      <trkpt lat="44.45908" lon="5.01696">
        <ele>327.95</ele>
        <time>2017-12-17T13:54:57Z</time>
      </trkpt>
      <trkpt lat="44.45915" lon="5.01698">
        <ele>327.47</ele>
        <time>2017-12-17T13:55:05Z</time>
      </trkpt>
      <trkpt lat="44.4593" lon="5.01704">
        <ele>326.99</ele>
        <time>2017-12-17T13:55:16Z</time>
      </trkpt>
      <trkpt lat="44.45942" lon="5.01709">
        <ele>327.47</ele>
        <time>2017-12-17T13:55:28Z</time>
      </trkpt>
      <trkpt lat="44.4595" lon="5.01716">
        <ele>326.99</ele>
        <time>2017-12-17T13:55:39Z</time>
      </trkpt>
      <trkpt lat="44.45959" lon="5.01721">
        <ele>326.99</ele>
        <time>2017-12-17T13:55:44Z</time>
      </trkpt>
      <trkpt lat="44.45966" lon="5.01732">
        <ele>326.5</ele>
        <time>2017-12-17T13:55:53Z</time>
      </trkpt>
      <trkpt lat="44.45971" lon="5.01741">
        <ele>324.58</ele>
        <time>2017-12-17T13:56:03Z</time>
      </trkpt>
      <trkpt lat="44.45974" lon="5.01748">
        <ele>323.62</ele>
        <time>2017-12-17T13:56:07Z</time>
      </trkpt>
      <trkpt lat="44.45982" lon="5.01754">
        <ele>321.7</ele>
        <time>2017-12-17T13:56:19Z</time>
      </trkpt>
      <trkpt lat="44.45991" lon="5.01759">
        <ele>320.74</ele>
        <time>2017-12-17T13:56:31Z</time>
      </trkpt>
      <trkpt lat="44.45993" lon="5.01763">
        <ele>318.81</ele>
        <time>2017-12-17T13:56:38Z</time>
      </trkpt>
      <trkpt lat="44.45997" lon="5.01762">
        <ele>320.26</ele>
        <time>2017-12-17T13:56:50Z</time>
      </trkpt>
      <trkpt lat="44.46005" lon="5.01761">
        <ele>320.26</ele>
        <time>2017-12-17T13:57:05Z</time>
      </trkpt>
      <trkpt lat="44.46014" lon="5.01767">
        <ele>321.7</ele>
        <time>2017-12-17T13:57:17Z</time>
      </trkpt>
      <trkpt lat="44.46028" lon="5.01771">
        <ele>322.66</ele>
        <time>2017-12-17T13:57:28Z</time>
      </trkpt>
      <trkpt lat="44.46049" lon="5.01772">
        <ele>322.66</ele>
        <time>2017-12-17T13:57:41Z</time>
      </trkpt>
      <trkpt lat="44.46053" lon="5.01776">
        <ele>322.66</ele>
        <time>2017-12-17T13:57:50Z</time>
      </trkpt>
      <trkpt lat="44.46055" lon="5.01777">
        <ele>323.62</ele>
        <time>2017-12-17T13:58:01Z</time>
      </trkpt>
      <trkpt lat="44.46057" lon="5.01774">
        <ele>323.14</ele>
        <time>2017-12-17T13:58:12Z</time>
      </trkpt>
      <trkpt lat="44.46063" lon="5.01771">
        <ele>322.66</ele>
        <time>2017-12-17T13:58:21Z</time>
      </trkpt>
      <trkpt lat="44.46071" lon="5.01768">
        <ele>321.7</ele>
        <time>2017-12-17T13:58:26Z</time>
      </trkpt>
      <trkpt lat="44.46078" lon="5.01774">
        <ele>322.18</ele>
        <time>2017-12-17T13:58:36Z</time>
      </trkpt>
      <trkpt lat="44.46081" lon="5.01776">
        <ele>322.18</ele>
        <time>2017-12-17T13:58:39Z</time>
      </trkpt>
      <trkpt lat="44.46089" lon="5.01777">
        <ele>321.7</ele>
        <time>2017-12-17T13:58:43Z</time>
      </trkpt>
      <trkpt lat="44.46103" lon="5.01778">
        <ele>321.7</ele>
        <time>2017-12-17T13:58:55Z</time>
      </trkpt>
      <trkpt lat="44.46114" lon="5.01783">
        <ele>321.22</ele>
        <time>2017-12-17T13:59:06Z</time>
      </trkpt>
      <trkpt lat="44.46127" lon="5.01792">
        <ele>320.26</ele>
        <time>2017-12-17T13:59:18Z</time>
      </trkpt>
      <trkpt lat="44.46142" lon="5.01794">
        <ele>320.26</ele>
        <time>2017-12-17T13:59:29Z</time>
      </trkpt>
      <trkpt lat="44.46151" lon="5.01795">
        <ele>320.74</ele>
        <time>2017-12-17T13:59:35Z</time>
      </trkpt>
      <trkpt lat="44.46156" lon="5.01799">
        <ele>320.26</ele>
        <time>2017-12-17T13:59:40Z</time>
      </trkpt>
      <trkpt lat="44.46161" lon="5.01803">
        <ele>321.22</ele>
        <time>2017-12-17T13:59:45Z</time>
      </trkpt>
      <trkpt lat="44.46168" lon="5.01804">
        <ele>321.7</ele>
        <time>2017-12-17T13:59:49Z</time>
      </trkpt>
      <trkpt lat="44.4617" lon="5.01805">
        <ele>321.22</ele>
        <time>2017-12-17T13:59:51Z</time>
      </trkpt>
      <trkpt lat="44.46176" lon="5.01809">
        <ele>321.7</ele>
        <time>2017-12-17T13:59:59Z</time>
      </trkpt>
      <trkpt lat="44.46178" lon="5.01811">
        <ele>322.66</ele>
        <time>2017-12-17T14:00:01Z</time>
      </trkpt>
      <trkpt lat="44.4619" lon="5.01818">
        <ele>323.14</ele>
        <time>2017-12-17T14:00:15Z</time>
      </trkpt>
      <trkpt lat="44.46193" lon="5.01822">
        <ele>322.66</ele>
        <time>2017-12-17T14:00:24Z</time>
      </trkpt>
      <trkpt lat="44.46206" lon="5.01827">
        <ele>324.1</ele>
        <time>2017-12-17T14:00:32Z</time>
      </trkpt>
      <trkpt lat="44.46208" lon="5.01827">
        <ele>323.62</ele>
        <time>2017-12-17T14:00:43Z</time>
      </trkpt>
      <trkpt lat="44.4621" lon="5.01827">
        <ele>323.62</ele>
        <time>2017-12-17T14:00:54Z</time>
      </trkpt>
      <trkpt lat="44.46213" lon="5.01829">
        <ele>322.66</ele>
        <time>2017-12-17T14:01:05Z</time>
      </trkpt>
      <trkpt lat="44.46214" lon="5.01827">
        <ele>322.66</ele>
        <time>2017-12-17T14:01:16Z</time>
      </trkpt>
      <trkpt lat="44.46215" lon="5.01827">
        <ele>322.66</ele>
        <time>2017-12-17T14:01:24Z</time>
      </trkpt>
      <trkpt lat="44.46222" lon="5.01828">
        <ele>321.7</ele>
        <time>2017-12-17T14:01:36Z</time>
      </trkpt>
      <trkpt lat="44.46231" lon="5.01829">
        <ele>321.7</ele>
        <time>2017-12-17T14:01:46Z</time>
      </trkpt>
      <trkpt lat="44.46235" lon="5.0183">
        <ele>322.18</ele>
        <time>2017-12-17T14:01:49Z</time>
      </trkpt>
      <trkpt lat="44.4625" lon="5.01828">
        <ele>323.14</ele>
        <time>2017-12-17T14:02:02Z</time>
      </trkpt>
      <trkpt lat="44.46253" lon="5.01828">
        <ele>322.66</ele>
        <time>2017-12-17T14:02:04Z</time>
      </trkpt>
      <trkpt lat="44.46259" lon="5.01828">
        <ele>322.66</ele>
        <time>2017-12-17T14:02:08Z</time>
      </trkpt>
      <trkpt lat="44.4627" lon="5.01823">
        <ele>322.66</ele>
        <time>2017-12-17T14:02:13Z</time>
      </trkpt>
      <trkpt lat="44.46278" lon="5.0182">
        <ele>321.7</ele>
        <time>2017-12-17T14:02:19Z</time>
      </trkpt>
      <trkpt lat="44.46287" lon="5.01819">
        <ele>321.22</ele>
        <time>2017-12-17T14:02:31Z</time>
      </trkpt>
      <trkpt lat="44.46288" lon="5.01819">
        <ele>321.22</ele>
        <time>2017-12-17T14:02:32Z</time>
      </trkpt>
      <trkpt lat="44.46295" lon="5.01815">
        <ele>321.22</ele>
        <time>2017-12-17T14:02:35Z</time>
      </trkpt>
      <trkpt lat="44.46315" lon="5.01806">
        <ele>320.26</ele>
        <time>2017-12-17T14:02:44Z</time>
      </trkpt>
      <trkpt lat="44.46315" lon="5.01806">
        <ele>319.78</ele>
        <time>2017-12-17T14:02:45Z</time>
      </trkpt>
      <trkpt lat="44.4632" lon="5.01804">
        <ele>318.81</ele>
        <time>2017-12-17T14:02:50Z</time>
      </trkpt>
      <trkpt lat="44.46326" lon="5.01806">
        <ele>318.81</ele>
        <time>2017-12-17T14:02:55Z</time>
      </trkpt>
      <trkpt lat="44.46337" lon="5.01814">
        <ele>317.37</ele>
        <time>2017-12-17T14:03:05Z</time>
      </trkpt>
      <trkpt lat="44.46338" lon="5.01815">
        <ele>316.89</ele>
        <time>2017-12-17T14:03:06Z</time>
      </trkpt>
      <trkpt lat="44.46347" lon="5.01825">
        <ele>317.37</ele>
        <time>2017-12-17T14:03:13Z</time>
      </trkpt>
      <trkpt lat="44.46352" lon="5.01828">
        <ele>317.85</ele>
        <time>2017-12-17T14:03:18Z</time>
      </trkpt>
      <trkpt lat="44.46357" lon="5.01835">
        <ele>317.37</ele>
        <time>2017-12-17T14:03:24Z</time>
      </trkpt>
      <trkpt lat="44.4636" lon="5.0184">
        <ele>317.37</ele>
        <time>2017-12-17T14:03:28Z</time>
      </trkpt>
      <trkpt lat="44.46372" lon="5.01851">
        <ele>316.41</ele>
        <time>2017-12-17T14:03:40Z</time>
      </trkpt>
      <trkpt lat="44.46383" lon="5.01863">
        <ele>316.41</ele>
        <time>2017-12-17T14:03:52Z</time>
      </trkpt>
      <trkpt lat="44.46389" lon="5.01867">
        <ele>316.41</ele>
        <time>2017-12-17T14:03:58Z</time>
      </trkpt>
      <trkpt lat="44.46401" lon="5.01871">
        <ele>317.37</ele>
        <time>2017-12-17T14:04:06Z</time>
      </trkpt>
      <trkpt lat="44.46404" lon="5.01875">
        <ele>317.85</ele>
        <time>2017-12-17T14:04:10Z</time>
      </trkpt>
      <trkpt lat="44.46417" lon="5.01887">
        <ele>318.81</ele>
        <time>2017-12-17T14:04:24Z</time>
      </trkpt>
      <trkpt lat="44.46418" lon="5.01888">
        <ele>318.81</ele>
        <time>2017-12-17T14:04:25Z</time>
      </trkpt>
      <trkpt lat="44.4642" lon="5.01891">
        <ele>319.3</ele>
        <time>2017-12-17T14:04:28Z</time>
      </trkpt>
      <trkpt lat="44.46427" lon="5.01894">
        <ele>318.81</ele>
        <time>2017-12-17T14:04:42Z</time>
      </trkpt>
      <trkpt lat="44.46432" lon="5.01897">
        <ele>319.3</ele>
        <time>2017-12-17T14:04:53Z</time>
      </trkpt>
      <trkpt lat="44.46441" lon="5.01903">
        <ele>320.26</ele>
        <time>2017-12-17T14:05:02Z</time>
      </trkpt>
      <trkpt lat="44.46445" lon="5.01904">
        <ele>320.26</ele>
        <time>2017-12-17T14:05:06Z</time>
      </trkpt>
      <trkpt lat="44.46462" lon="5.01913">
        <ele>317.85</ele>
        <time>2017-12-17T14:05:22Z</time>
      </trkpt>
      <trkpt lat="44.46471" lon="5.0192">
        <ele>319.78</ele>
        <time>2017-12-17T14:05:33Z</time>
      </trkpt>
      <trkpt lat="44.46474" lon="5.01921">
        <ele>320.74</ele>
        <time>2017-12-17T14:05:35Z</time>
      </trkpt>
      <trkpt lat="44.4648" lon="5.01928">
        <ele>320.74</ele>
        <time>2017-12-17T14:05:43Z</time>
      </trkpt>
      <trkpt lat="44.46489" lon="5.01935">
        <ele>321.22</ele>
        <time>2017-12-17T14:05:54Z</time>
      </trkpt>
      <trkpt lat="44.465" lon="5.01943">
        <ele>320.26</ele>
        <time>2017-12-17T14:06:05Z</time>
      </trkpt>
      <trkpt lat="44.46502" lon="5.01941">
        <ele>320.74</ele>
        <time>2017-12-17T14:06:15Z</time>
      </trkpt>
      <trkpt lat="44.465" lon="5.01939">
        <ele>321.7</ele>
        <time>2017-12-17T14:06:20Z</time>
      </trkpt>
      <trkpt lat="44.46499" lon="5.01937">
        <ele>321.7</ele>
        <time>2017-12-17T14:06:23Z</time>
      </trkpt>
      <trkpt lat="44.46505" lon="5.01915">
        <ele>321.7</ele>
        <time>2017-12-17T14:06:38Z</time>
      </trkpt>
      <trkpt lat="44.46509" lon="5.01897">
        <ele>323.14</ele>
        <time>2017-12-17T14:06:51Z</time>
      </trkpt>
      <trkpt lat="44.46512" lon="5.01886">
        <ele>324.1</ele>
        <time>2017-12-17T14:06:58Z</time>
      </trkpt>
      <trkpt lat="44.4652" lon="5.01867">
        <ele>325.54</ele>
        <time>2017-12-17T14:07:12Z</time>
      </trkpt>
      <trkpt lat="44.46529" lon="5.01844">
        <ele>326.5</ele>
        <time>2017-12-17T14:07:24Z</time>
      </trkpt>
      <trkpt lat="44.46533" lon="5.01829">
        <ele>328.43</ele>
        <time>2017-12-17T14:07:34Z</time>
      </trkpt>
      <trkpt lat="44.46535" lon="5.01818">
        <ele>329.87</ele>
        <time>2017-12-17T14:07:45Z</time>
      </trkpt>
      <trkpt lat="44.46535" lon="5.01815">
        <ele>330.83</ele>
        <time>2017-12-17T14:07:48Z</time>
      </trkpt>
      <trkpt lat="44.46537" lon="5.01811">
        <ele>330.83</ele>
        <time>2017-12-17T14:07:51Z</time>
      </trkpt>
      <trkpt lat="44.46538" lon="5.0181">
        <ele>331.31</ele>
        <time>2017-12-17T14:07:53Z</time>
      </trkpt>
      <trkpt lat="44.46545" lon="5.0181">
        <ele>332.75</ele>
        <time>2017-12-17T14:08:02Z</time>
      </trkpt>
      <trkpt lat="44.46548" lon="5.0181">
        <ele>332.27</ele>
        <time>2017-12-17T14:08:04Z</time>
      </trkpt>
      <trkpt lat="44.46562" lon="5.01808">
        <ele>332.75</ele>
        <time>2017-12-17T14:08:17Z</time>
      </trkpt>
      <trkpt lat="44.46565" lon="5.01807">
        <ele>333.23</ele>
        <time>2017-12-17T14:08:30Z</time>
      </trkpt>
      <trkpt lat="44.46571" lon="5.01807">
        <ele>333.23</ele>
        <time>2017-12-17T14:08:43Z</time>
      </trkpt>
      <trkpt lat="44.46574" lon="5.01807">
        <ele>333.71</ele>
        <time>2017-12-17T14:08:46Z</time>
      </trkpt>
      <trkpt lat="44.46587" lon="5.01805">
        <ele>335.64</ele>
        <time>2017-12-17T14:08:59Z</time>
      </trkpt>
      <trkpt lat="44.46595" lon="5.01801">
        <ele>336.6</ele>
        <time>2017-12-17T14:09:07Z</time>
      </trkpt>
      <trkpt lat="44.46596" lon="5.018">
        <ele>336.6</ele>
        <time>2017-12-17T14:09:09Z</time>
      </trkpt>
      <trkpt lat="44.46598" lon="5.01799">
        <ele>336.6</ele>
        <time>2017-12-17T14:09:12Z</time>
      </trkpt>
      <trkpt lat="44.46601" lon="5.01798">
        <ele>337.08</ele>
        <time>2017-12-17T14:09:16Z</time>
      </trkpt>
      <trkpt lat="44.46609" lon="5.01796">
        <ele>338.52</ele>
        <time>2017-12-17T14:09:24Z</time>
      </trkpt>
      <trkpt lat="44.46613" lon="5.01796">
        <ele>339.48</ele>
        <time>2017-12-17T14:09:28Z</time>
      </trkpt>
      <trkpt lat="44.46618" lon="5.01797">
        <ele>339.48</ele>
        <time>2017-12-17T14:09:32Z</time>
      </trkpt>
      <trkpt lat="44.46626" lon="5.01794">
        <ele>339.96</ele>
        <time>2017-12-17T14:09:42Z</time>
      </trkpt>
      <trkpt lat="44.46632" lon="5.01793">
        <ele>339.48</ele>
        <time>2017-12-17T14:09:50Z</time>
      </trkpt>
      <trkpt lat="44.46641" lon="5.01792">
        <ele>339.96</ele>
        <time>2017-12-17T14:09:59Z</time>
      </trkpt>
      <trkpt lat="44.46644" lon="5.01793">
        <ele>340.44</ele>
        <time>2017-12-17T14:10:03Z</time>
      </trkpt>
      <trkpt lat="44.46653" lon="5.01792">
        <ele>341.41</ele>
        <time>2017-12-17T14:10:09Z</time>
      </trkpt>
      <trkpt lat="44.46654" lon="5.01791">
        <ele>341.41</ele>
        <time>2017-12-17T14:10:11Z</time>
      </trkpt>
      <trkpt lat="44.46659" lon="5.01793">
        <ele>342.37</ele>
        <time>2017-12-17T14:10:15Z</time>
      </trkpt>
      <trkpt lat="44.46662" lon="5.01794">
        <ele>343.33</ele>
        <time>2017-12-17T14:10:18Z</time>
      </trkpt>
      <trkpt lat="44.46664" lon="5.01795">
        <ele>343.33</ele>
        <time>2017-12-17T14:10:22Z</time>
      </trkpt>
      <trkpt lat="44.4667" lon="5.01798">
        <ele>343.81</ele>
        <time>2017-12-17T14:10:30Z</time>
      </trkpt>
      <trkpt lat="44.46678" lon="5.01802">
        <ele>344.77</ele>
        <time>2017-12-17T14:10:38Z</time>
      </trkpt>
      <trkpt lat="44.46686" lon="5.01804">
        <ele>345.73</ele>
        <time>2017-12-17T14:10:49Z</time>
      </trkpt>
      <trkpt lat="44.46686" lon="5.01803">
        <ele>347.17</ele>
        <time>2017-12-17T14:11:11Z</time>
      </trkpt>
      <trkpt lat="44.4669" lon="5.01805">
        <ele>347.65</ele>
        <time>2017-12-17T14:11:17Z</time>
      </trkpt>
      <trkpt lat="44.46696" lon="5.01807">
        <ele>347.65</ele>
        <time>2017-12-17T14:11:23Z</time>
      </trkpt>
      <trkpt lat="44.46702" lon="5.01807">
        <ele>347.17</ele>
        <time>2017-12-17T14:11:29Z</time>
      </trkpt>
      <trkpt lat="44.46711" lon="5.01807">
        <ele>346.21</ele>
        <time>2017-12-17T14:11:42Z</time>
      </trkpt>
      <trkpt lat="44.46712" lon="5.01808">
        <ele>346.21</ele>
        <time>2017-12-17T14:11:55Z</time>
      </trkpt>
      <trkpt lat="44.46712" lon="5.01811">
        <ele>344.77</ele>
        <time>2017-12-17T14:12:07Z</time>
      </trkpt>
      <trkpt lat="44.46715" lon="5.01818">
        <ele>342.85</ele>
        <time>2017-12-17T14:12:19Z</time>
      </trkpt>
      <trkpt lat="44.46717" lon="5.0182">
        <ele>342.37</ele>
        <time>2017-12-17T14:12:23Z</time>
      </trkpt>
      <trkpt lat="44.46722" lon="5.01829">
        <ele>342.85</ele>
        <time>2017-12-17T14:12:32Z</time>
      </trkpt>
      <trkpt lat="44.46728" lon="5.01828">
        <ele>341.89</ele>
        <time>2017-12-17T14:12:42Z</time>
      </trkpt>
      <trkpt lat="44.46732" lon="5.01825">
        <ele>342.37</ele>
        <time>2017-12-17T14:12:54Z</time>
      </trkpt>
      <trkpt lat="44.46742" lon="5.01826">
        <ele>342.85</ele>
        <time>2017-12-17T14:13:05Z</time>
      </trkpt>
      <trkpt lat="44.46746" lon="5.01825">
        <ele>340.92</ele>
        <time>2017-12-17T14:13:08Z</time>
      </trkpt>
      <trkpt lat="44.46749" lon="5.01825">
        <ele>341.89</ele>
        <time>2017-12-17T14:13:10Z</time>
      </trkpt>
      <trkpt lat="44.46765" lon="5.01826">
        <ele>342.37</ele>
        <time>2017-12-17T14:13:26Z</time>
      </trkpt>
      <trkpt lat="44.46767" lon="5.01828">
        <ele>342.37</ele>
        <time>2017-12-17T14:13:29Z</time>
      </trkpt>
      <trkpt lat="44.46772" lon="5.01827">
        <ele>342.37</ele>
        <time>2017-12-17T14:13:40Z</time>
      </trkpt>
      <trkpt lat="44.46773" lon="5.01827">
        <ele>342.37</ele>
        <time>2017-12-17T14:13:43Z</time>
      </trkpt>
      <trkpt lat="44.46776" lon="5.01827">
        <ele>342.37</ele>
        <time>2017-12-17T14:13:46Z</time>
      </trkpt>
      <trkpt lat="44.46786" lon="5.01828">
        <ele>341.89</ele>
        <time>2017-12-17T14:13:58Z</time>
      </trkpt>
      <trkpt lat="44.46788" lon="5.0183">
        <ele>341.89</ele>
        <time>2017-12-17T14:14:06Z</time>
      </trkpt>
      <trkpt lat="44.46797" lon="5.01832">
        <ele>342.37</ele>
        <time>2017-12-17T14:14:16Z</time>
      </trkpt>
      <trkpt lat="44.46799" lon="5.01834">
        <ele>341.89</ele>
        <time>2017-12-17T14:14:22Z</time>
      </trkpt>
      <trkpt lat="44.46803" lon="5.01835">
        <ele>341.41</ele>
        <time>2017-12-17T14:14:27Z</time>
      </trkpt>
      <trkpt lat="44.46811" lon="5.0184">
        <ele>342.85</ele>
        <time>2017-12-17T14:14:36Z</time>
      </trkpt>
      <trkpt lat="44.46813" lon="5.01841">
        <ele>343.33</ele>
        <time>2017-12-17T14:14:37Z</time>
      </trkpt>
      <trkpt lat="44.46824" lon="5.01846">
        <ele>343.33</ele>
        <time>2017-12-17T14:14:48Z</time>
      </trkpt>
      <trkpt lat="44.46834" lon="5.01846">
        <ele>341.89</ele>
        <time>2017-12-17T14:14:57Z</time>
      </trkpt>
      <trkpt lat="44.46837" lon="5.0185">
        <ele>340.92</ele>
        <time>2017-12-17T14:15:05Z</time>
      </trkpt>
      <trkpt lat="44.46841" lon="5.0185">
        <ele>339.96</ele>
        <time>2017-12-17T14:15:08Z</time>
      </trkpt>
      <trkpt lat="44.46849" lon="5.01851">
        <ele>339.48</ele>
        <time>2017-12-17T14:15:15Z</time>
      </trkpt>
      <trkpt lat="44.46852" lon="5.01852">
        <ele>339</ele>
        <time>2017-12-17T14:15:17Z</time>
      </trkpt>
      <trkpt lat="44.46863" lon="5.01854">
        <ele>339.96</ele>
        <time>2017-12-17T14:15:27Z</time>
      </trkpt>
      <trkpt lat="44.46874" lon="5.01859">
        <ele>338.52</ele>
        <time>2017-12-17T14:15:36Z</time>
      </trkpt>
      <trkpt lat="44.46878" lon="5.01861">
        <ele>339</ele>
        <time>2017-12-17T14:15:40Z</time>
      </trkpt>
      <trkpt lat="44.46897" lon="5.01862">
        <ele>339</ele>
        <time>2017-12-17T14:15:49Z</time>
      </trkpt>
      <trkpt lat="44.46899" lon="5.01863">
        <ele>339</ele>
        <time>2017-12-17T14:15:50Z</time>
      </trkpt>
      <trkpt lat="44.46903" lon="5.01864">
        <ele>339</ele>
        <time>2017-12-17T14:15:52Z</time>
      </trkpt>
      <trkpt lat="44.46913" lon="5.01867">
        <ele>339.96</ele>
        <time>2017-12-17T14:16:02Z</time>
      </trkpt>
      <trkpt lat="44.46911" lon="5.01869">
        <ele>339.96</ele>
        <time>2017-12-17T14:16:10Z</time>
      </trkpt>
      <trkpt lat="44.46912" lon="5.01886">
        <ele>339</ele>
        <time>2017-12-17T14:16:18Z</time>
      </trkpt>
      <trkpt lat="44.46911" lon="5.01894">
        <ele>338.52</ele>
        <time>2017-12-17T14:16:23Z</time>
      </trkpt>
      <trkpt lat="44.46912" lon="5.01904">
        <ele>337.56</ele>
        <time>2017-12-17T14:16:35Z</time>
      </trkpt>
      <trkpt lat="44.46913" lon="5.01913">
        <ele>337.08</ele>
        <time>2017-12-17T14:16:44Z</time>
      </trkpt>
      <trkpt lat="44.46914" lon="5.01931">
        <ele>335.64</ele>
        <time>2017-12-17T14:16:59Z</time>
      </trkpt>
      <trkpt lat="44.46916" lon="5.01933">
        <ele>335.16</ele>
        <time>2017-12-17T14:17:10Z</time>
      </trkpt>
      <trkpt lat="44.46918" lon="5.01929">
        <ele>334.68</ele>
        <time>2017-12-17T14:17:22Z</time>
      </trkpt>
      <trkpt lat="44.4692" lon="5.01924">
        <ele>333.71</ele>
        <time>2017-12-17T14:17:35Z</time>
      </trkpt>
      <trkpt lat="44.46921" lon="5.01918">
        <ele>332.75</ele>
        <time>2017-12-17T14:17:47Z</time>
      </trkpt>
      <trkpt lat="44.46921" lon="5.01917">
        <ele>332.75</ele>
        <time>2017-12-17T14:18:01Z</time>
      </trkpt>
      <trkpt lat="44.46922" lon="5.01913">
        <ele>331.79</ele>
        <time>2017-12-17T14:18:20Z</time>
      </trkpt>
      <trkpt lat="44.46922" lon="5.01908">
        <ele>330.83</ele>
        <time>2017-12-17T14:18:28Z</time>
      </trkpt>
      <trkpt lat="44.46929" lon="5.01906">
        <ele>329.39</ele>
        <time>2017-12-17T14:18:41Z</time>
      </trkpt>
      <trkpt lat="44.4693" lon="5.01908">
        <ele>330.35</ele>
        <time>2017-12-17T14:18:48Z</time>
      </trkpt>
      <trkpt lat="44.46937" lon="5.01916">
        <ele>330.83</ele>
        <time>2017-12-17T14:19:00Z</time>
      </trkpt>
      <trkpt lat="44.46939" lon="5.01918">
        <ele>331.31</ele>
        <time>2017-12-17T14:19:11Z</time>
      </trkpt>
      <trkpt lat="44.46941" lon="5.01921">
        <ele>331.79</ele>
        <time>2017-12-17T14:19:17Z</time>
      </trkpt>
      <trkpt lat="44.46946" lon="5.01926">
        <ele>332.75</ele>
        <time>2017-12-17T14:19:25Z</time>
      </trkpt>
      <trkpt lat="44.46952" lon="5.01926">
        <ele>335.16</ele>
        <time>2017-12-17T14:19:35Z</time>
      </trkpt>
      <trkpt lat="44.46961" lon="5.01916">
        <ele>336.6</ele>
        <time>2017-12-17T14:19:47Z</time>
      </trkpt>
      <trkpt lat="44.46963" lon="5.01909">
        <ele>336.6</ele>
        <time>2017-12-17T14:19:55Z</time>
      </trkpt>
      <trkpt lat="44.46967" lon="5.0191">
        <ele>336.6</ele>
        <time>2017-12-17T14:20:08Z</time>
      </trkpt>
      <trkpt lat="44.46969" lon="5.01912">
        <ele>335.64</ele>
        <time>2017-12-17T14:20:24Z</time>
      </trkpt>
      <trkpt lat="44.4697" lon="5.01911">
        <ele>334.68</ele>
        <time>2017-12-17T14:20:35Z</time>
      </trkpt>
      <trkpt lat="44.46972" lon="5.01911">
        <ele>333.71</ele>
        <time>2017-12-17T14:20:47Z</time>
      </trkpt>
      <trkpt lat="44.46976" lon="5.01911">
        <ele>332.75</ele>
        <time>2017-12-17T14:20:58Z</time>
      </trkpt>
      <trkpt lat="44.46976" lon="5.01909">
        <ele>331.79</ele>
        <time>2017-12-17T14:21:01Z</time>
      </trkpt>
      <trkpt lat="44.46978" lon="5.01911">
        <ele>331.31</ele>
        <time>2017-12-17T14:21:11Z</time>
      </trkpt>
      <trkpt lat="44.46977" lon="5.01911">
        <ele>331.79</ele>
        <time>2017-12-17T14:21:27Z</time>
      </trkpt>
      <trkpt lat="44.46978" lon="5.01911">
        <ele>331.79</ele>
        <time>2017-12-17T14:21:35Z</time>
      </trkpt>
      <trkpt lat="44.46975" lon="5.0191">
        <ele>332.27</ele>
        <time>2017-12-17T14:21:47Z</time>
      </trkpt>
      <trkpt lat="44.46978" lon="5.01911">
        <ele>331.79</ele>
        <time>2017-12-17T14:22:02Z</time>
      </trkpt>
      <trkpt lat="44.46978" lon="5.01913">
        <ele>330.35</ele>
        <time>2017-12-17T14:22:16Z</time>
      </trkpt>
      <trkpt lat="44.46978" lon="5.01916">
        <ele>328.43</ele>
        <time>2017-12-17T14:22:33Z</time>
      </trkpt>
      <trkpt lat="44.46975" lon="5.0192">
        <ele>326.5</ele>
        <time>2017-12-17T14:22:45Z</time>
      </trkpt>
      <trkpt lat="44.46975" lon="5.01921">
        <ele>325.06</ele>
        <time>2017-12-17T14:22:54Z</time>
      </trkpt>
      <trkpt lat="44.46975" lon="5.01921">
        <ele>325.06</ele>
        <time>2017-12-17T14:22:55Z</time>
      </trkpt>
      <trkpt lat="44.46975" lon="5.01927">
        <ele>324.58</ele>
        <time>2017-12-17T14:23:06Z</time>
      </trkpt>
      <trkpt lat="44.46975" lon="5.01928">
        <ele>324.58</ele>
        <time>2017-12-17T14:23:07Z</time>
      </trkpt>
      <trkpt lat="44.46978" lon="5.0193">
        <ele>324.58</ele>
        <time>2017-12-17T14:23:10Z</time>
      </trkpt>
      <trkpt lat="44.46981" lon="5.0193">
        <ele>325.06</ele>
        <time>2017-12-17T14:23:21Z</time>
      </trkpt>
      <trkpt lat="44.46985" lon="5.0193">
        <ele>326.02</ele>
        <time>2017-12-17T14:23:32Z</time>
      </trkpt>
      <trkpt lat="44.46988" lon="5.01926">
        <ele>327.47</ele>
        <time>2017-12-17T14:23:45Z</time>
      </trkpt>
      <trkpt lat="44.46989" lon="5.01925">
        <ele>327.47</ele>
        <time>2017-12-17T14:24:01Z</time>
      </trkpt>
      <trkpt lat="44.46994" lon="5.01923">
        <ele>328.91</ele>
        <time>2017-12-17T14:24:10Z</time>
      </trkpt>
      <trkpt lat="44.46996" lon="5.01922">
        <ele>330.35</ele>
        <time>2017-12-17T14:24:19Z</time>
      </trkpt>
      <trkpt lat="44.46997" lon="5.01921">
        <ele>330.35</ele>
        <time>2017-12-17T14:24:20Z</time>
      </trkpt>
      <trkpt lat="44.46996" lon="5.01919">
        <ele>330.83</ele>
        <time>2017-12-17T14:24:29Z</time>
      </trkpt>
      <trkpt lat="44.47001" lon="5.01915">
        <ele>333.23</ele>
        <time>2017-12-17T14:24:39Z</time>
      </trkpt>
      <trkpt lat="44.47002" lon="5.01915">
        <ele>334.68</ele>
        <time>2017-12-17T14:24:49Z</time>
      </trkpt>
      <trkpt lat="44.47002" lon="5.01915">
        <ele>335.64</ele>
        <time>2017-12-17T14:25:04Z</time>
      </trkpt>
      <trkpt lat="44.47004" lon="5.01917">
        <ele>338.04</ele>
        <time>2017-12-17T14:25:15Z</time>
      </trkpt>
      <trkpt lat="44.47005" lon="5.01913">
        <ele>338.52</ele>
        <time>2017-12-17T14:25:32Z</time>
      </trkpt>
      <trkpt lat="44.47005" lon="5.01913">
        <ele>338.04</ele>
        <time>2017-12-17T14:25:54Z</time>
      </trkpt>
      <trkpt lat="44.47006" lon="5.01915">
        <ele>338.04</ele>
        <time>2017-12-17T14:26:08Z</time>
      </trkpt>
      <trkpt lat="44.47005" lon="5.01915">
        <ele>339</ele>
        <time>2017-12-17T14:26:25Z</time>
      </trkpt>
      <trkpt lat="44.47006" lon="5.01916">
        <ele>339</ele>
        <time>2017-12-17T14:26:41Z</time>
      </trkpt>
      <trkpt lat="44.47007" lon="5.01917">
        <ele>340.92</ele>
        <time>2017-12-17T14:26:52Z</time>
      </trkpt>
      <trkpt lat="44.47007" lon="5.01917">
        <ele>339.96</ele>
        <time>2017-12-17T14:27:13Z</time>
      </trkpt>
      <trkpt lat="44.47007" lon="5.01917">
        <ele>340.44</ele>
        <time>2017-12-17T14:27:15Z</time>
      </trkpt>
      <trkpt lat="44.47011" lon="5.01918">
        <ele>339.48</ele>
        <time>2017-12-17T14:27:19Z</time>
      </trkpt>
      <trkpt lat="44.47014" lon="5.0192">
        <ele>338.52</ele>
        <time>2017-12-17T14:27:25Z</time>
      </trkpt>
      <trkpt lat="44.47023" lon="5.0192">
        <ele>338.52</ele>
        <time>2017-12-17T14:27:36Z</time>
      </trkpt>
      <trkpt lat="44.47024" lon="5.01921">
        <ele>338.04</ele>
        <time>2017-12-17T14:27:39Z</time>
      </trkpt>
      <trkpt lat="44.47028" lon="5.0192">
        <ele>339.48</ele>
        <time>2017-12-17T14:27:43Z</time>
      </trkpt>
      <trkpt lat="44.47031" lon="5.0192">
        <ele>339.48</ele>
        <time>2017-12-17T14:27:56Z</time>
      </trkpt>
      <trkpt lat="44.47036" lon="5.01923">
        <ele>338.04</ele>
        <time>2017-12-17T14:28:08Z</time>
      </trkpt>
      <trkpt lat="44.47038" lon="5.01924">
        <ele>336.6</ele>
        <time>2017-12-17T14:28:10Z</time>
      </trkpt>
      <trkpt lat="44.47046" lon="5.01932">
        <ele>338.04</ele>
        <time>2017-12-17T14:28:18Z</time>
      </trkpt>
      <trkpt lat="44.47055" lon="5.01938">
        <ele>337.08</ele>
        <time>2017-12-17T14:28:26Z</time>
      </trkpt>
      <trkpt lat="44.47061" lon="5.01943">
        <ele>336.12</ele>
        <time>2017-12-17T14:28:37Z</time>
      </trkpt>
      <trkpt lat="44.47062" lon="5.01943">
        <ele>336.12</ele>
        <time>2017-12-17T14:28:38Z</time>
      </trkpt>
      <trkpt lat="44.47066" lon="5.01937">
        <ele>338.04</ele>
        <time>2017-12-17T14:28:45Z</time>
      </trkpt>
      <trkpt lat="44.4707" lon="5.01926">
        <ele>339.48</ele>
        <time>2017-12-17T14:28:59Z</time>
      </trkpt>
      <trkpt lat="44.47071" lon="5.0192">
        <ele>340.44</ele>
        <time>2017-12-17T14:29:06Z</time>
      </trkpt>
      <trkpt lat="44.47071" lon="5.01915">
        <ele>341.89</ele>
        <time>2017-12-17T14:29:11Z</time>
      </trkpt>
      <trkpt lat="44.47072" lon="5.01907">
        <ele>342.37</ele>
        <time>2017-12-17T14:29:20Z</time>
      </trkpt>
      <trkpt lat="44.47074" lon="5.01897">
        <ele>344.29</ele>
        <time>2017-12-17T14:29:31Z</time>
      </trkpt>
      <trkpt lat="44.47075" lon="5.01885">
        <ele>345.73</ele>
        <time>2017-12-17T14:29:42Z</time>
      </trkpt>
      <trkpt lat="44.47075" lon="5.01884">
        <ele>345.73</ele>
        <time>2017-12-17T14:29:46Z</time>
      </trkpt>
      <trkpt lat="44.47076" lon="5.01876">
        <ele>346.69</ele>
        <time>2017-12-17T14:29:51Z</time>
      </trkpt>
      <trkpt lat="44.4708" lon="5.01865">
        <ele>348.13</ele>
        <time>2017-12-17T14:30:00Z</time>
      </trkpt>
      <trkpt lat="44.47082" lon="5.01863">
        <ele>347.65</ele>
        <time>2017-12-17T14:30:09Z</time>
      </trkpt>
      <trkpt lat="44.47086" lon="5.01862">
        <ele>346.21</ele>
        <time>2017-12-17T14:30:20Z</time>
      </trkpt>
      <trkpt lat="44.47092" lon="5.01862">
        <ele>344.77</ele>
        <time>2017-12-17T14:30:29Z</time>
      </trkpt>
      <trkpt lat="44.47098" lon="5.01863">
        <ele>343.81</ele>
        <time>2017-12-17T14:30:38Z</time>
      </trkpt>
      <trkpt lat="44.47102" lon="5.01865">
        <ele>342.37</ele>
        <time>2017-12-17T14:30:44Z</time>
      </trkpt>
      <trkpt lat="44.47115" lon="5.01862">
        <ele>340.44</ele>
        <time>2017-12-17T14:30:52Z</time>
      </trkpt>
      <trkpt lat="44.47115" lon="5.01867">
        <ele>339</ele>
        <time>2017-12-17T14:30:58Z</time>
      </trkpt>
      <trkpt lat="44.47114" lon="5.01869">
        <ele>338.52</ele>
        <time>2017-12-17T14:31:02Z</time>
      </trkpt>
      <trkpt lat="44.47121" lon="5.01875">
        <ele>338.04</ele>
        <time>2017-12-17T14:31:11Z</time>
      </trkpt>
      <trkpt lat="44.47122" lon="5.0188">
        <ele>338.52</ele>
        <time>2017-12-17T14:31:18Z</time>
      </trkpt>
      <trkpt lat="44.47116" lon="5.01894">
        <ele>340.92</ele>
        <time>2017-12-17T14:31:31Z</time>
      </trkpt>
      <trkpt lat="44.47116" lon="5.01896">
        <ele>341.41</ele>
        <time>2017-12-17T14:31:34Z</time>
      </trkpt>
      <trkpt lat="44.47119" lon="5.01902">
        <ele>341.89</ele>
        <time>2017-12-17T14:31:38Z</time>
      </trkpt>
      <trkpt lat="44.47123" lon="5.01906">
        <ele>342.85</ele>
        <time>2017-12-17T14:31:43Z</time>
      </trkpt>
      <trkpt lat="44.4713" lon="5.0191">
        <ele>344.29</ele>
        <time>2017-12-17T14:31:54Z</time>
      </trkpt>
      <trkpt lat="44.47131" lon="5.01912">
        <ele>343.81</ele>
        <time>2017-12-17T14:31:57Z</time>
      </trkpt>
      <trkpt lat="44.47133" lon="5.01913">
        <ele>344.77</ele>
        <time>2017-12-17T14:31:59Z</time>
      </trkpt>
      <trkpt lat="44.47136" lon="5.01914">
        <ele>344.29</ele>
        <time>2017-12-17T14:32:05Z</time>
      </trkpt>
      <trkpt lat="44.47144" lon="5.01916">
        <ele>343.81</ele>
        <time>2017-12-17T14:32:14Z</time>
      </trkpt>
      <trkpt lat="44.47154" lon="5.0192">
        <ele>340.92</ele>
        <time>2017-12-17T14:32:24Z</time>
      </trkpt>
      <trkpt lat="44.47162" lon="5.01919">
        <ele>339</ele>
        <time>2017-12-17T14:32:33Z</time>
      </trkpt>
      <trkpt lat="44.47167" lon="5.01918">
        <ele>337.56</ele>
        <time>2017-12-17T14:32:40Z</time>
      </trkpt>
      <trkpt lat="44.47168" lon="5.0192">
        <ele>335.16</ele>
        <time>2017-12-17T14:32:49Z</time>
      </trkpt>
      <trkpt lat="44.4717" lon="5.01921">
        <ele>334.68</ele>
        <time>2017-12-17T14:32:55Z</time>
      </trkpt>
      <trkpt lat="44.47177" lon="5.01923">
        <ele>334.68</ele>
        <time>2017-12-17T14:33:00Z</time>
      </trkpt>
      <trkpt lat="44.47182" lon="5.01924">
        <ele>335.16</ele>
        <time>2017-12-17T14:33:08Z</time>
      </trkpt>
      <trkpt lat="44.47193" lon="5.01919">
        <ele>337.08</ele>
        <time>2017-12-17T14:33:18Z</time>
      </trkpt>
      <trkpt lat="44.47202" lon="5.01917">
        <ele>339</ele>
        <time>2017-12-17T14:33:28Z</time>
      </trkpt>
      <trkpt lat="44.47205" lon="5.01917">
        <ele>339.48</ele>
        <time>2017-12-17T14:33:30Z</time>
      </trkpt>
      <trkpt lat="44.47214" lon="5.01909">
        <ele>341.89</ele>
        <time>2017-12-17T14:33:40Z</time>
      </trkpt>
      <trkpt lat="44.47216" lon="5.01906">
        <ele>342.85</ele>
        <time>2017-12-17T14:33:43Z</time>
      </trkpt>
      <trkpt lat="44.47221" lon="5.01901">
        <ele>343.33</ele>
        <time>2017-12-17T14:33:50Z</time>
      </trkpt>
      <trkpt lat="44.47223" lon="5.01897">
        <ele>344.29</ele>
        <time>2017-12-17T14:33:54Z</time>
      </trkpt>
      <trkpt lat="44.47228" lon="5.01892">
        <ele>345.25</ele>
        <time>2017-12-17T14:34:02Z</time>
      </trkpt>
      <trkpt lat="44.47229" lon="5.0189">
        <ele>345.25</ele>
        <time>2017-12-17T14:34:04Z</time>
      </trkpt>
      <trkpt lat="44.47234" lon="5.01888">
        <ele>346.69</ele>
        <time>2017-12-17T14:34:12Z</time>
      </trkpt>
      <trkpt lat="44.47237" lon="5.01884">
        <ele>347.65</ele>
        <time>2017-12-17T14:34:22Z</time>
      </trkpt>
      <trkpt lat="44.4724" lon="5.01881">
        <ele>350.06</ele>
        <time>2017-12-17T14:34:31Z</time>
      </trkpt>
      <trkpt lat="44.47242" lon="5.0188">
        <ele>350.54</ele>
        <time>2017-12-17T14:34:34Z</time>
      </trkpt>
      <trkpt lat="44.47251" lon="5.01884">
        <ele>352.46</ele>
        <time>2017-12-17T14:34:43Z</time>
      </trkpt>
      <trkpt lat="44.47255" lon="5.01887">
        <ele>354.86</ele>
        <time>2017-12-17T14:34:50Z</time>
      </trkpt>
      <trkpt lat="44.47261" lon="5.01891">
        <ele>354.86</ele>
        <time>2017-12-17T14:35:01Z</time>
      </trkpt>
      <trkpt lat="44.47272" lon="5.01898">
        <ele>352.46</ele>
        <time>2017-12-17T14:35:14Z</time>
      </trkpt>
      <trkpt lat="44.47275" lon="5.01899">
        <ele>353.9</ele>
        <time>2017-12-17T14:35:18Z</time>
      </trkpt>
      <trkpt lat="44.47284" lon="5.01915">
        <ele>353.42</ele>
        <time>2017-12-17T14:35:28Z</time>
      </trkpt>
      <trkpt lat="44.47291" lon="5.01916">
        <ele>352.46</ele>
        <time>2017-12-17T14:35:37Z</time>
      </trkpt>
      <trkpt lat="44.47293" lon="5.01917">
        <ele>352.94</ele>
        <time>2017-12-17T14:35:39Z</time>
      </trkpt>
      <trkpt lat="44.47298" lon="5.01921">
        <ele>353.42</ele>
        <time>2017-12-17T14:35:53Z</time>
      </trkpt>
      <trkpt lat="44.47298" lon="5.0192">
        <ele>352.94</ele>
        <time>2017-12-17T14:36:17Z</time>
      </trkpt>
      <trkpt lat="44.47299" lon="5.0192">
        <ele>352.94</ele>
        <time>2017-12-17T14:36:40Z</time>
      </trkpt>
      <trkpt lat="44.47299" lon="5.0192">
        <ele>351.98</ele>
        <time>2017-12-17T14:36:57Z</time>
      </trkpt>
      <trkpt lat="44.47299" lon="5.0192">
        <ele>352.46</ele>
        <time>2017-12-17T14:36:58Z</time>
      </trkpt>
      <trkpt lat="44.47306" lon="5.01927">
        <ele>351.98</ele>
        <time>2017-12-17T14:37:03Z</time>
      </trkpt>
      <trkpt lat="44.47313" lon="5.01934">
        <ele>351.98</ele>
        <time>2017-12-17T14:37:13Z</time>
      </trkpt>
      <trkpt lat="44.47314" lon="5.01935">
        <ele>351.98</ele>
        <time>2017-12-17T14:37:14Z</time>
      </trkpt>
      <trkpt lat="44.4732" lon="5.01938">
        <ele>352.46</ele>
        <time>2017-12-17T14:37:18Z</time>
      </trkpt>
      <trkpt lat="44.47324" lon="5.01945">
        <ele>352.94</ele>
        <time>2017-12-17T14:37:28Z</time>
      </trkpt>
      <trkpt lat="44.47328" lon="5.01948">
        <ele>352.94</ele>
        <time>2017-12-17T14:37:31Z</time>
      </trkpt>
      <trkpt lat="44.47338" lon="5.01955">
        <ele>353.42</ele>
        <time>2017-12-17T14:37:42Z</time>
      </trkpt>
      <trkpt lat="44.4734" lon="5.01956">
        <ele>353.42</ele>
        <time>2017-12-17T14:37:43Z</time>
      </trkpt>
      <trkpt lat="44.47348" lon="5.01964">
        <ele>354.38</ele>
        <time>2017-12-17T14:37:52Z</time>
      </trkpt>
      <trkpt lat="44.47358" lon="5.01971">
        <ele>355.34</ele>
        <time>2017-12-17T14:38:02Z</time>
      </trkpt>
      <trkpt lat="44.47365" lon="5.01975">
        <ele>355.34</ele>
        <time>2017-12-17T14:38:06Z</time>
      </trkpt>
      <trkpt lat="44.47368" lon="5.01982">
        <ele>355.83</ele>
        <time>2017-12-17T14:38:15Z</time>
      </trkpt>
      <trkpt lat="44.47376" lon="5.01984">
        <ele>355.83</ele>
        <time>2017-12-17T14:38:22Z</time>
      </trkpt>
      <trkpt lat="44.47378" lon="5.01985">
        <ele>355.34</ele>
        <time>2017-12-17T14:38:24Z</time>
      </trkpt>
      <trkpt lat="44.47384" lon="5.01987">
        <ele>355.34</ele>
        <time>2017-12-17T14:38:27Z</time>
      </trkpt>
      <trkpt lat="44.47388" lon="5.01991">
        <ele>354.86</ele>
        <time>2017-12-17T14:38:33Z</time>
      </trkpt>
      <trkpt lat="44.47402" lon="5.02001">
        <ele>355.34</ele>
        <time>2017-12-17T14:38:43Z</time>
      </trkpt>
      <trkpt lat="44.47403" lon="5.02003">
        <ele>354.38</ele>
        <time>2017-12-17T14:38:48Z</time>
      </trkpt>
      <trkpt lat="44.47413" lon="5.02008">
        <ele>354.86</ele>
        <time>2017-12-17T14:38:58Z</time>
      </trkpt>
      <trkpt lat="44.47414" lon="5.02009">
        <ele>354.86</ele>
        <time>2017-12-17T14:38:59Z</time>
      </trkpt>
      <trkpt lat="44.47418" lon="5.02014">
        <ele>354.38</ele>
        <time>2017-12-17T14:39:06Z</time>
      </trkpt>
      <trkpt lat="44.47424" lon="5.02016">
        <ele>354.38</ele>
        <time>2017-12-17T14:39:10Z</time>
      </trkpt>
      <trkpt lat="44.47431" lon="5.02025">
        <ele>354.38</ele>
        <time>2017-12-17T14:39:20Z</time>
      </trkpt>
      <trkpt lat="44.47433" lon="5.02036">
        <ele>352.94</ele>
        <time>2017-12-17T14:39:31Z</time>
      </trkpt>
      <trkpt lat="44.4743" lon="5.02056">
        <ele>351.02</ele>
        <time>2017-12-17T14:39:42Z</time>
      </trkpt>
      <trkpt lat="44.47426" lon="5.0206">
        <ele>349.58</ele>
        <time>2017-12-17T14:39:53Z</time>
      </trkpt>
      <trkpt lat="44.47423" lon="5.02069">
        <ele>348.13</ele>
        <time>2017-12-17T14:40:03Z</time>
      </trkpt>
      <trkpt lat="44.47421" lon="5.0208">
        <ele>348.13</ele>
        <time>2017-12-17T14:40:11Z</time>
      </trkpt>
      <trkpt lat="44.47428" lon="5.02095">
        <ele>348.13</ele>
        <time>2017-12-17T14:40:23Z</time>
      </trkpt>
      <trkpt lat="44.4743" lon="5.02095">
        <ele>348.13</ele>
        <time>2017-12-17T14:40:24Z</time>
      </trkpt>
      <trkpt lat="44.4744" lon="5.02102">
        <ele>347.65</ele>
        <time>2017-12-17T14:40:38Z</time>
      </trkpt>
      <trkpt lat="44.47449" lon="5.02109">
        <ele>347.65</ele>
        <time>2017-12-17T14:40:47Z</time>
      </trkpt>
      <trkpt lat="44.47453" lon="5.02116">
        <ele>349.1</ele>
        <time>2017-12-17T14:40:54Z</time>
      </trkpt>
      <trkpt lat="44.47459" lon="5.0212">
        <ele>348.62</ele>
        <time>2017-12-17T14:41:00Z</time>
      </trkpt>
      <trkpt lat="44.4746" lon="5.02122">
        <ele>347.17</ele>
        <time>2017-12-17T14:41:03Z</time>
      </trkpt>
      <trkpt lat="44.47461" lon="5.02124">
        <ele>347.65</ele>
        <time>2017-12-17T14:41:05Z</time>
      </trkpt>
      <trkpt lat="44.47478" lon="5.02133">
        <ele>348.62</ele>
        <time>2017-12-17T14:41:15Z</time>
      </trkpt>
      <trkpt lat="44.47486" lon="5.02139">
        <ele>346.21</ele>
        <time>2017-12-17T14:41:24Z</time>
      </trkpt>
      <trkpt lat="44.47493" lon="5.02143">
        <ele>344.29</ele>
        <time>2017-12-17T14:41:32Z</time>
      </trkpt>
      <trkpt lat="44.47496" lon="5.02145">
        <ele>343.33</ele>
        <time>2017-12-17T14:41:36Z</time>
      </trkpt>
      <trkpt lat="44.47497" lon="5.02145">
        <ele>344.29</ele>
        <time>2017-12-17T14:41:37Z</time>
      </trkpt>
      <trkpt lat="44.47505" lon="5.0215">
        <ele>343.81</ele>
        <time>2017-12-17T14:41:45Z</time>
      </trkpt>
      <trkpt lat="44.47505" lon="5.02151">
        <ele>343.33</ele>
        <time>2017-12-17T14:41:46Z</time>
      </trkpt>
      <trkpt lat="44.4751" lon="5.02152">
        <ele>344.29</ele>
        <time>2017-12-17T14:41:50Z</time>
      </trkpt>
      <trkpt lat="44.47512" lon="5.02155">
        <ele>344.29</ele>
        <time>2017-12-17T14:41:52Z</time>
      </trkpt>
      <trkpt lat="44.47518" lon="5.02158">
        <ele>344.77</ele>
        <time>2017-12-17T14:42:02Z</time>
      </trkpt>
      <trkpt lat="44.4752" lon="5.02159">
        <ele>344.29</ele>
        <time>2017-12-17T14:42:04Z</time>
      </trkpt>
      <trkpt lat="44.47523" lon="5.02161">
        <ele>344.29</ele>
        <time>2017-12-17T14:42:07Z</time>
      </trkpt>
      <trkpt lat="44.47526" lon="5.02166">
        <ele>345.25</ele>
        <time>2017-12-17T14:42:13Z</time>
      </trkpt>
      <trkpt lat="44.47537" lon="5.0217">
        <ele>346.21</ele>
        <time>2017-12-17T14:42:21Z</time>
      </trkpt>
      <trkpt lat="44.47538" lon="5.02171">
        <ele>346.21</ele>
        <time>2017-12-17T14:42:24Z</time>
      </trkpt>
      <trkpt lat="44.47545" lon="5.02173">
        <ele>346.21</ele>
        <time>2017-12-17T14:42:32Z</time>
      </trkpt>
      <trkpt lat="44.47555" lon="5.02183">
        <ele>343.81</ele>
        <time>2017-12-17T14:42:47Z</time>
      </trkpt>
      <trkpt lat="44.47558" lon="5.02183">
        <ele>341.41</ele>
        <time>2017-12-17T14:42:49Z</time>
      </trkpt>
      <trkpt lat="44.47562" lon="5.02182">
        <ele>344.29</ele>
        <time>2017-12-17T14:42:52Z</time>
      </trkpt>
      <trkpt lat="44.47566" lon="5.02184">
        <ele>347.17</ele>
        <time>2017-12-17T14:42:55Z</time>
      </trkpt>
      <trkpt lat="44.4757" lon="5.02186">
        <ele>348.13</ele>
        <time>2017-12-17T14:42:58Z</time>
      </trkpt>
      <trkpt lat="44.47572" lon="5.02188">
        <ele>347.17</ele>
        <time>2017-12-17T14:43:00Z</time>
      </trkpt>
      <trkpt lat="44.47576" lon="5.0219">
        <ele>345.73</ele>
        <time>2017-12-17T14:43:06Z</time>
      </trkpt>
      <trkpt lat="44.47584" lon="5.02193">
        <ele>345.25</ele>
        <time>2017-12-17T14:43:12Z</time>
      </trkpt>
      <trkpt lat="44.47597" lon="5.02201">
        <ele>346.21</ele>
        <time>2017-12-17T14:43:25Z</time>
      </trkpt>
      <trkpt lat="44.476" lon="5.02202">
        <ele>346.21</ele>
        <time>2017-12-17T14:43:27Z</time>
      </trkpt>
      <trkpt lat="44.47604" lon="5.02205">
        <ele>346.69</ele>
        <time>2017-12-17T14:43:31Z</time>
      </trkpt>
      <trkpt lat="44.47613" lon="5.02208">
        <ele>347.65</ele>
        <time>2017-12-17T14:43:39Z</time>
      </trkpt>
      <trkpt lat="44.47618" lon="5.02209">
        <ele>349.1</ele>
        <time>2017-12-17T14:43:43Z</time>
      </trkpt>
      <trkpt lat="44.47632" lon="5.02214">
        <ele>348.62</ele>
        <time>2017-12-17T14:43:56Z</time>
      </trkpt>
      <trkpt lat="44.47643" lon="5.0222">
        <ele>348.62</ele>
        <time>2017-12-17T14:44:08Z</time>
      </trkpt>
      <trkpt lat="44.47653" lon="5.02227">
        <ele>348.62</ele>
        <time>2017-12-17T14:44:21Z</time>
      </trkpt>
      <trkpt lat="44.47658" lon="5.02231">
        <ele>348.62</ele>
        <time>2017-12-17T14:44:27Z</time>
      </trkpt>
      <trkpt lat="44.47672" lon="5.02243">
        <ele>348.13</ele>
        <time>2017-12-17T14:44:42Z</time>
      </trkpt>
      <trkpt lat="44.47685" lon="5.02256">
        <ele>348.13</ele>
        <time>2017-12-17T14:44:56Z</time>
      </trkpt>
      <trkpt lat="44.47699" lon="5.02266">
        <ele>347.17</ele>
        <time>2017-12-17T14:45:12Z</time>
      </trkpt>
      <trkpt lat="44.47702" lon="5.02268">
        <ele>347.17</ele>
        <time>2017-12-17T14:45:14Z</time>
      </trkpt>
      <trkpt lat="44.47718" lon="5.02278">
        <ele>346.69</ele>
        <time>2017-12-17T14:45:29Z</time>
      </trkpt>
      <trkpt lat="44.47733" lon="5.0229">
        <ele>347.17</ele>
        <time>2017-12-17T14:45:44Z</time>
      </trkpt>
      <trkpt lat="44.47752" lon="5.02301">
        <ele>346.69</ele>
        <time>2017-12-17T14:45:59Z</time>
      </trkpt>
      <trkpt lat="44.47761" lon="5.02311">
        <ele>346.69</ele>
        <time>2017-12-17T14:46:11Z</time>
      </trkpt>
      <trkpt lat="44.47771" lon="5.02316">
        <ele>345.25</ele>
        <time>2017-12-17T14:46:24Z</time>
      </trkpt>
      <trkpt lat="44.47783" lon="5.02322">
        <ele>342.85</ele>
        <time>2017-12-17T14:46:38Z</time>
      </trkpt>
      <trkpt lat="44.47794" lon="5.02321">
        <ele>342.37</ele>
        <time>2017-12-17T14:46:47Z</time>
      </trkpt>
      <trkpt lat="44.47814" lon="5.02321">
        <ele>341.41</ele>
        <time>2017-12-17T14:47:01Z</time>
      </trkpt>
      <trkpt lat="44.47816" lon="5.02322">
        <ele>341.41</ele>
        <time>2017-12-17T14:47:03Z</time>
      </trkpt>
      <trkpt lat="44.47818" lon="5.02322">
        <ele>340.92</ele>
        <time>2017-12-17T14:47:05Z</time>
      </trkpt>
      <trkpt lat="44.47827" lon="5.02325">
        <ele>338.04</ele>
        <time>2017-12-17T14:47:13Z</time>
      </trkpt>
      <trkpt lat="44.47838" lon="5.02334">
        <ele>338.04</ele>
        <time>2017-12-17T14:47:22Z</time>
      </trkpt>
      <trkpt lat="44.47842" lon="5.02334">
        <ele>338.04</ele>
        <time>2017-12-17T14:47:24Z</time>
      </trkpt>
      <trkpt lat="44.47853" lon="5.02346">
        <ele>340.92</ele>
        <time>2017-12-17T14:47:32Z</time>
      </trkpt>
      <trkpt lat="44.47859" lon="5.02358">
        <ele>341.41</ele>
        <time>2017-12-17T14:47:41Z</time>
      </trkpt>
      <trkpt lat="44.47866" lon="5.02369">
        <ele>340.92</ele>
        <time>2017-12-17T14:47:49Z</time>
      </trkpt>
      <trkpt lat="44.47867" lon="5.02371">
        <ele>340.92</ele>
        <time>2017-12-17T14:47:51Z</time>
      </trkpt>
      <trkpt lat="44.47876" lon="5.0239">
        <ele>340.92</ele>
        <time>2017-12-17T14:48:03Z</time>
      </trkpt>
      <trkpt lat="44.47878" lon="5.02392">
        <ele>341.41</ele>
        <time>2017-12-17T14:48:05Z</time>
      </trkpt>
      <trkpt lat="44.47891" lon="5.02408">
        <ele>341.41</ele>
        <time>2017-12-17T14:48:20Z</time>
      </trkpt>
      <trkpt lat="44.47902" lon="5.02426">
        <ele>341.89</ele>
        <time>2017-12-17T14:48:35Z</time>
      </trkpt>
      <trkpt lat="44.47903" lon="5.02428">
        <ele>340.44</ele>
        <time>2017-12-17T14:48:37Z</time>
      </trkpt>
      <trkpt lat="44.47912" lon="5.02445">
        <ele>340.92</ele>
        <time>2017-12-17T14:48:51Z</time>
      </trkpt>
      <trkpt lat="44.47916" lon="5.02453">
        <ele>340.44</ele>
        <time>2017-12-17T14:48:58Z</time>
      </trkpt>
      <trkpt lat="44.47927" lon="5.02471">
        <ele>343.33</ele>
        <time>2017-12-17T14:49:12Z</time>
      </trkpt>
      <trkpt lat="44.4794" lon="5.02488">
        <ele>343.33</ele>
        <time>2017-12-17T14:49:29Z</time>
      </trkpt>
      <trkpt lat="44.4795" lon="5.02503">
        <ele>345.25</ele>
        <time>2017-12-17T14:49:44Z</time>
      </trkpt>
      <trkpt lat="44.47962" lon="5.02521">
        <ele>344.29</ele>
        <time>2017-12-17T14:49:59Z</time>
      </trkpt>
      <trkpt lat="44.47964" lon="5.02524">
        <ele>344.29</ele>
        <time>2017-12-17T14:50:02Z</time>
      </trkpt>
      <trkpt lat="44.47977" lon="5.02542">
        <ele>343.81</ele>
        <time>2017-12-17T14:50:17Z</time>
      </trkpt>
      <trkpt lat="44.47986" lon="5.0255">
        <ele>344.29</ele>
        <time>2017-12-17T14:50:27Z</time>
      </trkpt>
      <trkpt lat="44.4799" lon="5.02558">
        <ele>344.29</ele>
        <time>2017-12-17T14:50:33Z</time>
      </trkpt>
      <trkpt lat="44.48004" lon="5.02578">
        <ele>343.33</ele>
        <time>2017-12-17T14:50:49Z</time>
      </trkpt>
      <trkpt lat="44.48009" lon="5.02584">
        <ele>343.81</ele>
        <time>2017-12-17T14:50:55Z</time>
      </trkpt>
      <trkpt lat="44.48011" lon="5.02586">
        <ele>343.81</ele>
        <time>2017-12-17T14:50:57Z</time>
      </trkpt>
      <trkpt lat="44.48016" lon="5.02593">
        <ele>344.29</ele>
        <time>2017-12-17T14:51:02Z</time>
      </trkpt>
      <trkpt lat="44.48024" lon="5.02604">
        <ele>344.77</ele>
        <time>2017-12-17T14:51:13Z</time>
      </trkpt>
      <trkpt lat="44.48035" lon="5.02621">
        <ele>344.77</ele>
        <time>2017-12-17T14:51:28Z</time>
      </trkpt>
      <trkpt lat="44.48035" lon="5.02623">
        <ele>345.25</ele>
        <time>2017-12-17T14:51:30Z</time>
      </trkpt>
      <trkpt lat="44.48039" lon="5.02627">
        <ele>344.77</ele>
        <time>2017-12-17T14:51:34Z</time>
      </trkpt>
      <trkpt lat="44.4805" lon="5.02644">
        <ele>345.25</ele>
        <time>2017-12-17T14:51:47Z</time>
      </trkpt>
      <trkpt lat="44.48061" lon="5.0266">
        <ele>345.25</ele>
        <time>2017-12-17T14:52:00Z</time>
      </trkpt>
      <trkpt lat="44.48063" lon="5.02662">
        <ele>344.77</ele>
        <time>2017-12-17T14:52:02Z</time>
      </trkpt>
      <trkpt lat="44.48074" lon="5.02678">
        <ele>345.25</ele>
        <time>2017-12-17T14:52:15Z</time>
      </trkpt>
      <trkpt lat="44.48077" lon="5.02683">
        <ele>345.73</ele>
        <time>2017-12-17T14:52:20Z</time>
      </trkpt>
      <trkpt lat="44.48079" lon="5.02692">
        <ele>344.77</ele>
        <time>2017-12-17T14:52:26Z</time>
      </trkpt>
      <trkpt lat="44.48079" lon="5.02695">
        <ele>346.21</ele>
        <time>2017-12-17T14:52:28Z</time>
      </trkpt>
      <trkpt lat="44.48074" lon="5.02706">
        <ele>345.25</ele>
        <time>2017-12-17T14:52:43Z</time>
      </trkpt>
      <trkpt lat="44.48066" lon="5.02717">
        <ele>345.25</ele>
        <time>2017-12-17T14:52:52Z</time>
      </trkpt>
      <trkpt lat="44.48065" lon="5.02718">
        <ele>343.33</ele>
        <time>2017-12-17T14:52:53Z</time>
      </trkpt>
      <trkpt lat="44.48063" lon="5.0272">
        <ele>342.37</ele>
        <time>2017-12-17T14:52:55Z</time>
      </trkpt>
      <trkpt lat="44.48054" lon="5.02732">
        <ele>341.89</ele>
        <time>2017-12-17T14:53:06Z</time>
      </trkpt>
      <trkpt lat="44.48043" lon="5.02747">
        <ele>342.37</ele>
        <time>2017-12-17T14:53:16Z</time>
      </trkpt>
      <trkpt lat="44.48037" lon="5.02758">
        <ele>342.37</ele>
        <time>2017-12-17T14:53:24Z</time>
      </trkpt>
      <trkpt lat="44.4803" lon="5.02771">
        <ele>343.33</ele>
        <time>2017-12-17T14:53:36Z</time>
      </trkpt>
      <trkpt lat="44.48026" lon="5.02777">
        <ele>343.81</ele>
        <time>2017-12-17T14:53:40Z</time>
      </trkpt>
      <trkpt lat="44.48025" lon="5.02783">
        <ele>343.33</ele>
        <time>2017-12-17T14:53:44Z</time>
      </trkpt>
      <trkpt lat="44.48017" lon="5.02803">
        <ele>343.81</ele>
        <time>2017-12-17T14:53:55Z</time>
      </trkpt>
      <trkpt lat="44.48012" lon="5.02816">
        <ele>343.33</ele>
        <time>2017-12-17T14:54:05Z</time>
      </trkpt>
      <trkpt lat="44.48007" lon="5.02838">
        <ele>343.81</ele>
        <time>2017-12-17T14:54:19Z</time>
      </trkpt>
      <trkpt lat="44.47998" lon="5.02856">
        <ele>343.33</ele>
        <time>2017-12-17T14:54:33Z</time>
      </trkpt>
      <trkpt lat="44.47997" lon="5.02859">
        <ele>343.81</ele>
        <time>2017-12-17T14:54:35Z</time>
      </trkpt>
      <trkpt lat="44.47993" lon="5.02865">
        <ele>343.81</ele>
        <time>2017-12-17T14:54:41Z</time>
      </trkpt>
      <trkpt lat="44.47986" lon="5.02875">
        <ele>344.29</ele>
        <time>2017-12-17T14:54:50Z</time>
      </trkpt>
      <trkpt lat="44.47979" lon="5.02878">
        <ele>345.25</ele>
        <time>2017-12-17T14:54:57Z</time>
      </trkpt>
      <trkpt lat="44.47963" lon="5.02886">
        <ele>346.21</ele>
        <time>2017-12-17T14:55:10Z</time>
      </trkpt>
      <trkpt lat="44.47947" lon="5.02886">
        <ele>347.17</ele>
        <time>2017-12-17T14:55:24Z</time>
      </trkpt>
      <trkpt lat="44.47935" lon="5.02885">
        <ele>348.62</ele>
        <time>2017-12-17T14:55:38Z</time>
      </trkpt>
      <trkpt lat="44.47923" lon="5.02889">
        <ele>349.58</ele>
        <time>2017-12-17T14:55:50Z</time>
      </trkpt>
      <trkpt lat="44.4791" lon="5.0289">
        <ele>350.06</ele>
        <time>2017-12-17T14:56:01Z</time>
      </trkpt>
      <trkpt lat="44.47906" lon="5.0289">
        <ele>350.06</ele>
        <time>2017-12-17T14:56:06Z</time>
      </trkpt>
      <trkpt lat="44.47894" lon="5.02894">
        <ele>350.54</ele>
        <time>2017-12-17T14:56:21Z</time>
      </trkpt>
      <trkpt lat="44.47892" lon="5.02894">
        <ele>350.54</ele>
        <time>2017-12-17T14:56:23Z</time>
      </trkpt>
      <trkpt lat="44.47877" lon="5.02897">
        <ele>351.5</ele>
        <time>2017-12-17T14:56:37Z</time>
      </trkpt>
      <trkpt lat="44.47862" lon="5.029">
        <ele>351.5</ele>
        <time>2017-12-17T14:56:50Z</time>
      </trkpt>
      <trkpt lat="44.47857" lon="5.02899">
        <ele>351.98</ele>
        <time>2017-12-17T14:56:54Z</time>
      </trkpt>
      <trkpt lat="44.47851" lon="5.02902">
        <ele>351.5</ele>
        <time>2017-12-17T14:56:59Z</time>
      </trkpt>
      <trkpt lat="44.47839" lon="5.02897">
        <ele>352.46</ele>
        <time>2017-12-17T14:57:14Z</time>
      </trkpt>
      <trkpt lat="44.47822" lon="5.02891">
        <ele>351.5</ele>
        <time>2017-12-17T14:57:28Z</time>
      </trkpt>
      <trkpt lat="44.4781" lon="5.0289">
        <ele>353.42</ele>
        <time>2017-12-17T14:57:39Z</time>
      </trkpt>
      <trkpt lat="44.47802" lon="5.02888">
        <ele>352.94</ele>
        <time>2017-12-17T14:57:54Z</time>
      </trkpt>
      <trkpt lat="44.47799" lon="5.02889">
        <ele>351.98</ele>
        <time>2017-12-17T14:58:10Z</time>
      </trkpt>
      <trkpt lat="44.47793" lon="5.02889">
        <ele>351.98</ele>
        <time>2017-12-17T14:58:25Z</time>
      </trkpt>
      <trkpt lat="44.47766" lon="5.02885">
        <ele>351.98</ele>
        <time>2017-12-17T14:58:40Z</time>
      </trkpt>
      <trkpt lat="44.47765" lon="5.02885">
        <ele>351.5</ele>
        <time>2017-12-17T14:58:45Z</time>
      </trkpt>
      <trkpt lat="44.47758" lon="5.02883">
        <ele>351.02</ele>
        <time>2017-12-17T14:59:00Z</time>
      </trkpt>
      <trkpt lat="44.47754" lon="5.02883">
        <ele>351.02</ele>
        <time>2017-12-17T14:59:04Z</time>
      </trkpt>
      <trkpt lat="44.47742" lon="5.02876">
        <ele>351.98</ele>
        <time>2017-12-17T14:59:17Z</time>
      </trkpt>
      <trkpt lat="44.47732" lon="5.02877">
        <ele>351.02</ele>
        <time>2017-12-17T14:59:30Z</time>
      </trkpt>
      <trkpt lat="44.47727" lon="5.02873">
        <ele>352.46</ele>
        <time>2017-12-17T14:59:36Z</time>
      </trkpt>
      <trkpt lat="44.47706" lon="5.02868">
        <ele>351.98</ele>
        <time>2017-12-17T14:59:49Z</time>
      </trkpt>
      <trkpt lat="44.47704" lon="5.02867">
        <ele>351.98</ele>
        <time>2017-12-17T14:59:54Z</time>
      </trkpt>
      <trkpt lat="44.47694" lon="5.02868">
        <ele>351.98</ele>
        <time>2017-12-17T15:00:07Z</time>
      </trkpt>
      <trkpt lat="44.47693" lon="5.02869">
        <ele>351.98</ele>
        <time>2017-12-17T15:00:20Z</time>
      </trkpt>
      <trkpt lat="44.47692" lon="5.02869">
        <ele>352.94</ele>
        <time>2017-12-17T15:00:35Z</time>
      </trkpt>
      <trkpt lat="44.47692" lon="5.02871">
        <ele>353.9</ele>
        <time>2017-12-17T15:00:49Z</time>
      </trkpt>
      <trkpt lat="44.47691" lon="5.02872">
        <ele>352.94</ele>
        <time>2017-12-17T15:01:04Z</time>
      </trkpt>
      <trkpt lat="44.4769" lon="5.02879">
        <ele>355.83</ele>
        <time>2017-12-17T15:01:11Z</time>
      </trkpt>
      <trkpt lat="44.47686" lon="5.02891">
        <ele>357.27</ele>
        <time>2017-12-17T15:01:23Z</time>
      </trkpt>
      <trkpt lat="44.47683" lon="5.02892">
        <ele>357.27</ele>
        <time>2017-12-17T15:01:29Z</time>
      </trkpt>
      <trkpt lat="44.47676" lon="5.02891">
        <ele>356.79</ele>
        <time>2017-12-17T15:01:35Z</time>
      </trkpt>
      <trkpt lat="44.47662" lon="5.02894">
        <ele>356.79</ele>
        <time>2017-12-17T15:01:51Z</time>
      </trkpt>
      <trkpt lat="44.47661" lon="5.02895">
        <ele>356.79</ele>
        <time>2017-12-17T15:02:03Z</time>
      </trkpt>
      <trkpt lat="44.47661" lon="5.02895">
        <ele>356.79</ele>
        <time>2017-12-17T15:02:21Z</time>
      </trkpt>
      <trkpt lat="44.47661" lon="5.02896">
        <ele>356.79</ele>
        <time>2017-12-17T15:02:34Z</time>
      </trkpt>
      <trkpt lat="44.4766" lon="5.02896">
        <ele>357.75</ele>
        <time>2017-12-17T15:02:41Z</time>
      </trkpt>
      <trkpt lat="44.47653" lon="5.02907">
        <ele>356.79</ele>
        <time>2017-12-17T15:02:52Z</time>
      </trkpt>
      <trkpt lat="44.47651" lon="5.02906">
        <ele>357.75</ele>
        <time>2017-12-17T15:02:59Z</time>
      </trkpt>
      <trkpt lat="44.47651" lon="5.02911">
        <ele>356.31</ele>
        <time>2017-12-17T15:03:11Z</time>
      </trkpt>
      <trkpt lat="44.47649" lon="5.02911">
        <ele>356.79</ele>
        <time>2017-12-17T15:03:33Z</time>
      </trkpt>
      <trkpt lat="44.47649" lon="5.02912">
        <ele>356.79</ele>
        <time>2017-12-17T15:03:53Z</time>
      </trkpt>
      <trkpt lat="44.47649" lon="5.02911">
        <ele>356.79</ele>
        <time>2017-12-17T15:04:15Z</time>
      </trkpt>
      <trkpt lat="44.47649" lon="5.02911">
        <ele>357.27</ele>
        <time>2017-12-17T15:04:37Z</time>
      </trkpt>
      <trkpt lat="44.47648" lon="5.02911">
        <ele>356.79</ele>
        <time>2017-12-17T15:04:53Z</time>
      </trkpt>
      <trkpt lat="44.47648" lon="5.02911">
        <ele>355.83</ele>
        <time>2017-12-17T15:05:16Z</time>
      </trkpt>
      <trkpt lat="44.47649" lon="5.02909">
        <ele>354.86</ele>
        <time>2017-12-17T15:05:18Z</time>
      </trkpt>
      <trkpt lat="44.47651" lon="5.02903">
        <ele>357.27</ele>
        <time>2017-12-17T15:05:24Z</time>
      </trkpt>
      <trkpt lat="44.47652" lon="5.02902">
        <ele>355.83</ele>
        <time>2017-12-17T15:05:25Z</time>
      </trkpt>
      <trkpt lat="44.47653" lon="5.02899">
        <ele>354.38</ele>
        <time>2017-12-17T15:05:27Z</time>
      </trkpt>
      <trkpt lat="44.47653" lon="5.02897">
        <ele>357.27</ele>
        <time>2017-12-17T15:05:30Z</time>
      </trkpt>
      <trkpt lat="44.47654" lon="5.02896">
        <ele>355.34</ele>
        <time>2017-12-17T15:05:38Z</time>
      </trkpt>
      <trkpt lat="44.47656" lon="5.02896">
        <ele>356.31</ele>
        <time>2017-12-17T15:05:53Z</time>
      </trkpt>
      <trkpt lat="44.47655" lon="5.02895">
        <ele>356.79</ele>
        <time>2017-12-17T15:06:07Z</time>
      </trkpt>
      <trkpt lat="44.47655" lon="5.02894">
        <ele>356.79</ele>
        <time>2017-12-17T15:06:18Z</time>
      </trkpt>
      <trkpt lat="44.47669" lon="5.02888">
        <ele>357.75</ele>
        <time>2017-12-17T15:08:36Z</time>
      </trkpt>
      <trkpt lat="44.47668" lon="5.0289">
        <ele>357.75</ele>
        <time>2017-12-17T15:08:37Z</time>
      </trkpt>
    </trkseg>
  </trk>
</gpx>